<?xml version="1.0" encoding="UTF-8" standalone="no" ?>
<gpx xmlns="http://www.topografix.com/GPX/1/1" xmlns:xsi="http://www.w3.org/2001/XMLSchema-instance" xsi:schemaLocation="http://www.topografix.com/GPX/1/1 http://www.topografix.com/GPX/1/1/gpx.xsd" version="1.1" creator="VisuGPX - https://www.visugpx.com">
  <metadata>
    <name>Refuge de Balme et lac de Presset</name>
    <desc><![CDATA[Week-end dans le Beaufortain]]></desc>
  </metadata>
  <trk>
    <name><![CDATA[BALME PRESSET 5-6MARS2011]]></name>
    <trkseg>
      <trkpt lat="45.59194" lon="6.67103">
        <ele>1387.32</ele>
        <time>2011-03-05T12:45:08Z</time>
      </trkpt>
      <trkpt lat="45.59193" lon="6.67104">
        <ele>1391.17</ele>
        <time>2011-03-05T12:45:11Z</time>
      </trkpt>
      <trkpt lat="45.59193" lon="6.67106">
        <ele>1394.53</ele>
        <time>2011-03-05T12:45:16Z</time>
      </trkpt>
      <trkpt lat="45.59192" lon="6.67104">
        <ele>1397.89</ele>
        <time>2011-03-05T12:45:20Z</time>
      </trkpt>
      <trkpt lat="45.59192" lon="6.67104">
        <ele>1397.89</ele>
        <time>2011-03-05T12:45:21Z</time>
      </trkpt>
      <trkpt lat="45.59191" lon="6.67102">
        <ele>1398.37</ele>
        <time>2011-03-05T12:45:26Z</time>
      </trkpt>
      <trkpt lat="45.59192" lon="6.67101">
        <ele>1400.78</ele>
        <time>2011-03-05T12:45:30Z</time>
      </trkpt>
      <trkpt lat="45.59194" lon="6.67101">
        <ele>1402.22</ele>
        <time>2011-03-05T12:45:33Z</time>
      </trkpt>
      <trkpt lat="45.59194" lon="6.67101">
        <ele>1404.62</ele>
        <time>2011-03-05T12:45:37Z</time>
      </trkpt>
      <trkpt lat="45.59194" lon="6.671">
        <ele>1406.55</ele>
        <time>2011-03-05T12:45:41Z</time>
      </trkpt>
      <trkpt lat="45.59195" lon="6.67099">
        <ele>1408.47</ele>
        <time>2011-03-05T12:45:44Z</time>
      </trkpt>
      <trkpt lat="45.59194" lon="6.67099">
        <ele>1411.83</ele>
        <time>2011-03-05T12:45:53Z</time>
      </trkpt>
      <trkpt lat="45.59193" lon="6.67099">
        <ele>1413.28</ele>
        <time>2011-03-05T12:46:23Z</time>
      </trkpt>
      <trkpt lat="45.59193" lon="6.67099">
        <ele>1413.76</ele>
        <time>2011-03-05T12:46:50Z</time>
      </trkpt>
      <trkpt lat="45.59193" lon="6.67099">
        <ele>1414.72</ele>
        <time>2011-03-05T12:47:19Z</time>
      </trkpt>
      <trkpt lat="45.59193" lon="6.67099">
        <ele>1414.24</ele>
        <time>2011-03-05T12:47:43Z</time>
      </trkpt>
      <trkpt lat="45.59193" lon="6.67098">
        <ele>1416.16</ele>
        <time>2011-03-05T12:48:04Z</time>
      </trkpt>
      <trkpt lat="45.59191" lon="6.67095">
        <ele>1415.2</ele>
        <time>2011-03-05T12:48:19Z</time>
      </trkpt>
      <trkpt lat="45.59191" lon="6.67095">
        <ele>1416.64</ele>
        <time>2011-03-05T12:48:42Z</time>
      </trkpt>
      <trkpt lat="45.59191" lon="6.67094">
        <ele>1416.64</ele>
        <time>2011-03-05T12:49:04Z</time>
      </trkpt>
      <trkpt lat="45.59191" lon="6.67094">
        <ele>1416.64</ele>
        <time>2011-03-05T12:49:23Z</time>
      </trkpt>
      <trkpt lat="45.59191" lon="6.67094">
        <ele>1417.12</ele>
        <time>2011-03-05T12:49:28Z</time>
      </trkpt>
      <trkpt lat="45.59192" lon="6.67092">
        <ele>1415.68</ele>
        <time>2011-03-05T12:49:44Z</time>
      </trkpt>
      <trkpt lat="45.59198" lon="6.6709">
        <ele>1416.16</ele>
        <time>2011-03-05T12:49:49Z</time>
      </trkpt>
      <trkpt lat="45.59205" lon="6.67088">
        <ele>1416.64</ele>
        <time>2011-03-05T12:49:58Z</time>
      </trkpt>
      <trkpt lat="45.59224" lon="6.67082">
        <ele>1416.16</ele>
        <time>2011-03-05T12:50:13Z</time>
      </trkpt>
      <trkpt lat="45.59229" lon="6.67081">
        <ele>1416.64</ele>
        <time>2011-03-05T12:50:18Z</time>
      </trkpt>
      <trkpt lat="45.59248" lon="6.67081">
        <ele>1417.12</ele>
        <time>2011-03-05T12:50:34Z</time>
      </trkpt>
      <trkpt lat="45.59263" lon="6.6708">
        <ele>1416.64</ele>
        <time>2011-03-05T12:50:49Z</time>
      </trkpt>
      <trkpt lat="45.59275" lon="6.67081">
        <ele>1416.64</ele>
        <time>2011-03-05T12:51:03Z</time>
      </trkpt>
      <trkpt lat="45.59276" lon="6.67081">
        <ele>1416.64</ele>
        <time>2011-03-05T12:51:04Z</time>
      </trkpt>
      <trkpt lat="45.59291" lon="6.67079">
        <ele>1416.64</ele>
        <time>2011-03-05T12:51:14Z</time>
      </trkpt>
      <trkpt lat="45.59304" lon="6.6708">
        <ele>1417.12</ele>
        <time>2011-03-05T12:51:25Z</time>
      </trkpt>
      <trkpt lat="45.59321" lon="6.6708">
        <ele>1416.64</ele>
        <time>2011-03-05T12:51:39Z</time>
      </trkpt>
      <trkpt lat="45.59332" lon="6.67084">
        <ele>1417.12</ele>
        <time>2011-03-05T12:51:51Z</time>
      </trkpt>
      <trkpt lat="45.59341" lon="6.67088">
        <ele>1417.12</ele>
        <time>2011-03-05T12:52:00Z</time>
      </trkpt>
      <trkpt lat="45.59363" lon="6.67085">
        <ele>1417.6</ele>
        <time>2011-03-05T12:52:14Z</time>
      </trkpt>
      <trkpt lat="45.59364" lon="6.67085">
        <ele>1417.6</ele>
        <time>2011-03-05T12:52:15Z</time>
      </trkpt>
      <trkpt lat="45.59376" lon="6.67082">
        <ele>1417.6</ele>
        <time>2011-03-05T12:52:23Z</time>
      </trkpt>
      <trkpt lat="45.59394" lon="6.67076">
        <ele>1418.08</ele>
        <time>2011-03-05T12:52:36Z</time>
      </trkpt>
      <trkpt lat="45.59407" lon="6.67068">
        <ele>1419.04</ele>
        <time>2011-03-05T12:52:50Z</time>
      </trkpt>
      <trkpt lat="45.5941" lon="6.67065">
        <ele>1418.56</ele>
        <time>2011-03-05T12:52:53Z</time>
      </trkpt>
      <trkpt lat="45.59411" lon="6.67064">
        <ele>1419.52</ele>
        <time>2011-03-05T12:52:55Z</time>
      </trkpt>
      <trkpt lat="45.59417" lon="6.6706">
        <ele>1419.04</ele>
        <time>2011-03-05T12:53:02Z</time>
      </trkpt>
      <trkpt lat="45.59419" lon="6.67058">
        <ele>1420</ele>
        <time>2011-03-05T12:53:04Z</time>
      </trkpt>
      <trkpt lat="45.59426" lon="6.67049">
        <ele>1420.49</ele>
        <time>2011-03-05T12:53:12Z</time>
      </trkpt>
      <trkpt lat="45.5944" lon="6.67041">
        <ele>1421.45</ele>
        <time>2011-03-05T12:53:25Z</time>
      </trkpt>
      <trkpt lat="45.59453" lon="6.67039">
        <ele>1422.89</ele>
        <time>2011-03-05T12:53:38Z</time>
      </trkpt>
      <trkpt lat="45.59457" lon="6.67038">
        <ele>1422.89</ele>
        <time>2011-03-05T12:53:42Z</time>
      </trkpt>
      <trkpt lat="45.59462" lon="6.67038">
        <ele>1423.37</ele>
        <time>2011-03-05T12:53:45Z</time>
      </trkpt>
      <trkpt lat="45.59471" lon="6.67032">
        <ele>1423.85</ele>
        <time>2011-03-05T12:53:53Z</time>
      </trkpt>
      <trkpt lat="45.59475" lon="6.67025">
        <ele>1423.85</ele>
        <time>2011-03-05T12:53:57Z</time>
      </trkpt>
      <trkpt lat="45.5948" lon="6.67018">
        <ele>1424.81</ele>
        <time>2011-03-05T12:54:03Z</time>
      </trkpt>
      <trkpt lat="45.59494" lon="6.67007">
        <ele>1425.77</ele>
        <time>2011-03-05T12:54:16Z</time>
      </trkpt>
      <trkpt lat="45.59503" lon="6.67002">
        <ele>1426.25</ele>
        <time>2011-03-05T12:54:26Z</time>
      </trkpt>
      <trkpt lat="45.5951" lon="6.66997">
        <ele>1426.73</ele>
        <time>2011-03-05T12:54:33Z</time>
      </trkpt>
      <trkpt lat="45.59521" lon="6.66996">
        <ele>1427.7</ele>
        <time>2011-03-05T12:54:45Z</time>
      </trkpt>
      <trkpt lat="45.59532" lon="6.67001">
        <ele>1429.14</ele>
        <time>2011-03-05T12:54:54Z</time>
      </trkpt>
      <trkpt lat="45.59546" lon="6.67008">
        <ele>1429.14</ele>
        <time>2011-03-05T12:55:06Z</time>
      </trkpt>
      <trkpt lat="45.59552" lon="6.67009">
        <ele>1429.62</ele>
        <time>2011-03-05T12:55:11Z</time>
      </trkpt>
      <trkpt lat="45.59557" lon="6.67008">
        <ele>1430.1</ele>
        <time>2011-03-05T12:55:15Z</time>
      </trkpt>
      <trkpt lat="45.59566" lon="6.67005">
        <ele>1430.58</ele>
        <time>2011-03-05T12:55:23Z</time>
      </trkpt>
      <trkpt lat="45.59569" lon="6.67004">
        <ele>1431.06</ele>
        <time>2011-03-05T12:55:25Z</time>
      </trkpt>
      <trkpt lat="45.59572" lon="6.67003">
        <ele>1431.06</ele>
        <time>2011-03-05T12:55:28Z</time>
      </trkpt>
      <trkpt lat="45.59576" lon="6.67">
        <ele>1431.54</ele>
        <time>2011-03-05T12:55:33Z</time>
      </trkpt>
      <trkpt lat="45.59583" lon="6.67002">
        <ele>1431.54</ele>
        <time>2011-03-05T12:55:40Z</time>
      </trkpt>
      <trkpt lat="45.59592" lon="6.67012">
        <ele>1432.98</ele>
        <time>2011-03-05T12:55:52Z</time>
      </trkpt>
      <trkpt lat="45.59594" lon="6.67013">
        <ele>1432.98</ele>
        <time>2011-03-05T12:55:53Z</time>
      </trkpt>
      <trkpt lat="45.59602" lon="6.6702">
        <ele>1433.94</ele>
        <time>2011-03-05T12:56:10Z</time>
      </trkpt>
      <trkpt lat="45.59602" lon="6.6702">
        <ele>1433.46</ele>
        <time>2011-03-05T12:56:33Z</time>
      </trkpt>
      <trkpt lat="45.59605" lon="6.67021">
        <ele>1434.42</ele>
        <time>2011-03-05T12:56:40Z</time>
      </trkpt>
      <trkpt lat="45.5961" lon="6.67023">
        <ele>1434.42</ele>
        <time>2011-03-05T12:56:45Z</time>
      </trkpt>
      <trkpt lat="45.59616" lon="6.67022">
        <ele>1435.87</ele>
        <time>2011-03-05T12:56:53Z</time>
      </trkpt>
      <trkpt lat="45.59622" lon="6.6702">
        <ele>1436.83</ele>
        <time>2011-03-05T12:57:05Z</time>
      </trkpt>
      <trkpt lat="45.59622" lon="6.6702">
        <ele>1432.98</ele>
        <time>2011-03-05T12:57:12Z</time>
      </trkpt>
      <trkpt lat="45.59622" lon="6.6702">
        <ele>1436.35</ele>
        <time>2011-03-05T12:57:13Z</time>
      </trkpt>
      <trkpt lat="45.59622" lon="6.6702">
        <ele>1433.94</ele>
        <time>2011-03-05T12:57:14Z</time>
      </trkpt>
      <trkpt lat="45.59623" lon="6.6702">
        <ele>1437.79</ele>
        <time>2011-03-05T12:57:15Z</time>
      </trkpt>
      <trkpt lat="45.59622" lon="6.6702">
        <ele>1436.35</ele>
        <time>2011-03-05T12:57:16Z</time>
      </trkpt>
      <trkpt lat="45.59622" lon="6.6702">
        <ele>1435.39</ele>
        <time>2011-03-05T12:57:35Z</time>
      </trkpt>
      <trkpt lat="45.59623" lon="6.67021">
        <ele>1435.87</ele>
        <time>2011-03-05T12:57:58Z</time>
      </trkpt>
      <trkpt lat="45.59626" lon="6.6702">
        <ele>1435.39</ele>
        <time>2011-03-05T12:58:21Z</time>
      </trkpt>
      <trkpt lat="45.59626" lon="6.6702">
        <ele>1434.91</ele>
        <time>2011-03-05T12:58:42Z</time>
      </trkpt>
      <trkpt lat="45.59633" lon="6.67019">
        <ele>1434.91</ele>
        <time>2011-03-05T12:59:05Z</time>
      </trkpt>
      <trkpt lat="45.59632" lon="6.67019">
        <ele>1435.39</ele>
        <time>2011-03-05T12:59:21Z</time>
      </trkpt>
      <trkpt lat="45.59632" lon="6.67019">
        <ele>1434.91</ele>
        <time>2011-03-05T12:59:47Z</time>
      </trkpt>
      <trkpt lat="45.59632" lon="6.6702">
        <ele>1435.39</ele>
        <time>2011-03-05T13:00:06Z</time>
      </trkpt>
      <trkpt lat="45.59632" lon="6.6702">
        <ele>1434.91</ele>
        <time>2011-03-05T13:00:28Z</time>
      </trkpt>
      <trkpt lat="45.59638" lon="6.6701">
        <ele>1434.91</ele>
        <time>2011-03-05T13:00:37Z</time>
      </trkpt>
      <trkpt lat="45.59639" lon="6.67007">
        <ele>1434.42</ele>
        <time>2011-03-05T13:00:39Z</time>
      </trkpt>
      <trkpt lat="45.59646" lon="6.6699">
        <ele>1436.35</ele>
        <time>2011-03-05T13:00:53Z</time>
      </trkpt>
      <trkpt lat="45.59656" lon="6.66979">
        <ele>1439.23</ele>
        <time>2011-03-05T13:01:07Z</time>
      </trkpt>
      <trkpt lat="45.59663" lon="6.66968">
        <ele>1442.6</ele>
        <time>2011-03-05T13:01:19Z</time>
      </trkpt>
      <trkpt lat="45.59665" lon="6.66965">
        <ele>1443.56</ele>
        <time>2011-03-05T13:01:23Z</time>
      </trkpt>
      <trkpt lat="45.59667" lon="6.66962">
        <ele>1444.04</ele>
        <time>2011-03-05T13:01:27Z</time>
      </trkpt>
      <trkpt lat="45.59669" lon="6.66952">
        <ele>1447.4</ele>
        <time>2011-03-05T13:01:44Z</time>
      </trkpt>
      <trkpt lat="45.5967" lon="6.6695">
        <ele>1447.88</ele>
        <time>2011-03-05T13:01:48Z</time>
      </trkpt>
      <trkpt lat="45.59675" lon="6.66947">
        <ele>1449.81</ele>
        <time>2011-03-05T13:01:57Z</time>
      </trkpt>
      <trkpt lat="45.59678" lon="6.66948">
        <ele>1450.77</ele>
        <time>2011-03-05T13:02:02Z</time>
      </trkpt>
      <trkpt lat="45.59688" lon="6.66947">
        <ele>1454.13</ele>
        <time>2011-03-05T13:02:18Z</time>
      </trkpt>
      <trkpt lat="45.59691" lon="6.66943">
        <ele>1455.09</ele>
        <time>2011-03-05T13:02:25Z</time>
      </trkpt>
      <trkpt lat="45.59694" lon="6.6694">
        <ele>1457.98</ele>
        <time>2011-03-05T13:02:34Z</time>
      </trkpt>
      <trkpt lat="45.59702" lon="6.66939">
        <ele>1461.34</ele>
        <time>2011-03-05T13:02:48Z</time>
      </trkpt>
      <trkpt lat="45.59709" lon="6.66936">
        <ele>1463.26</ele>
        <time>2011-03-05T13:03:04Z</time>
      </trkpt>
      <trkpt lat="45.5972" lon="6.66939">
        <ele>1464.71</ele>
        <time>2011-03-05T13:03:15Z</time>
      </trkpt>
      <trkpt lat="45.59731" lon="6.66953">
        <ele>1465.67</ele>
        <time>2011-03-05T13:03:29Z</time>
      </trkpt>
      <trkpt lat="45.59734" lon="6.66961">
        <ele>1468.07</ele>
        <time>2011-03-05T13:03:50Z</time>
      </trkpt>
      <trkpt lat="45.5974" lon="6.66971">
        <ele>1470.47</ele>
        <time>2011-03-05T13:04:07Z</time>
      </trkpt>
      <trkpt lat="45.59746" lon="6.66987">
        <ele>1471.44</ele>
        <time>2011-03-05T13:04:20Z</time>
      </trkpt>
      <trkpt lat="45.59753" lon="6.66998">
        <ele>1472.88</ele>
        <time>2011-03-05T13:04:32Z</time>
      </trkpt>
      <trkpt lat="45.5976" lon="6.66993">
        <ele>1473.84</ele>
        <time>2011-03-05T13:04:46Z</time>
      </trkpt>
      <trkpt lat="45.59775" lon="6.66987">
        <ele>1475.76</ele>
        <time>2011-03-05T13:04:59Z</time>
      </trkpt>
      <trkpt lat="45.59788" lon="6.6698">
        <ele>1477.68</ele>
        <time>2011-03-05T13:05:14Z</time>
      </trkpt>
      <trkpt lat="45.59794" lon="6.66976">
        <ele>1478.16</ele>
        <time>2011-03-05T13:05:22Z</time>
      </trkpt>
      <trkpt lat="45.59798" lon="6.66973">
        <ele>1478.65</ele>
        <time>2011-03-05T13:05:26Z</time>
      </trkpt>
      <trkpt lat="45.598" lon="6.66972">
        <ele>1479.13</ele>
        <time>2011-03-05T13:05:28Z</time>
      </trkpt>
      <trkpt lat="45.59802" lon="6.66971">
        <ele>1479.13</ele>
        <time>2011-03-05T13:05:31Z</time>
      </trkpt>
      <trkpt lat="45.59803" lon="6.66969">
        <ele>1479.61</ele>
        <time>2011-03-05T13:05:32Z</time>
      </trkpt>
      <trkpt lat="45.59816" lon="6.66965">
        <ele>1480.57</ele>
        <time>2011-03-05T13:05:43Z</time>
      </trkpt>
      <trkpt lat="45.59826" lon="6.66957">
        <ele>1482.49</ele>
        <time>2011-03-05T13:05:55Z</time>
      </trkpt>
      <trkpt lat="45.59829" lon="6.66954">
        <ele>1483.45</ele>
        <time>2011-03-05T13:06:00Z</time>
      </trkpt>
      <trkpt lat="45.59833" lon="6.66951">
        <ele>1483.93</ele>
        <time>2011-03-05T13:06:05Z</time>
      </trkpt>
      <trkpt lat="45.59844" lon="6.66943">
        <ele>1486.34</ele>
        <time>2011-03-05T13:06:18Z</time>
      </trkpt>
      <trkpt lat="45.59844" lon="6.66941">
        <ele>1486.34</ele>
        <time>2011-03-05T13:06:20Z</time>
      </trkpt>
      <trkpt lat="45.59846" lon="6.66938">
        <ele>1486.34</ele>
        <time>2011-03-05T13:06:23Z</time>
      </trkpt>
      <trkpt lat="45.59852" lon="6.66941">
        <ele>1486.34</ele>
        <time>2011-03-05T13:06:37Z</time>
      </trkpt>
      <trkpt lat="45.59851" lon="6.66943">
        <ele>1486.82</ele>
        <time>2011-03-05T13:06:52Z</time>
      </trkpt>
      <trkpt lat="45.59851" lon="6.66943">
        <ele>1486.34</ele>
        <time>2011-03-05T13:07:14Z</time>
      </trkpt>
      <trkpt lat="45.59851" lon="6.66943">
        <ele>1485.85</ele>
        <time>2011-03-05T13:07:37Z</time>
      </trkpt>
      <trkpt lat="45.59851" lon="6.66943">
        <ele>1486.34</ele>
        <time>2011-03-05T13:08:04Z</time>
      </trkpt>
      <trkpt lat="45.59851" lon="6.66943">
        <ele>1485.85</ele>
        <time>2011-03-05T13:08:24Z</time>
      </trkpt>
      <trkpt lat="45.59865" lon="6.66942">
        <ele>1487.78</ele>
        <time>2011-03-05T13:08:38Z</time>
      </trkpt>
      <trkpt lat="45.59872" lon="6.66946">
        <ele>1487.78</ele>
        <time>2011-03-05T13:08:45Z</time>
      </trkpt>
      <trkpt lat="45.5988" lon="6.66953">
        <ele>1488.74</ele>
        <time>2011-03-05T13:08:54Z</time>
      </trkpt>
      <trkpt lat="45.59887" lon="6.66958">
        <ele>1489.22</ele>
        <time>2011-03-05T13:09:02Z</time>
      </trkpt>
      <trkpt lat="45.59896" lon="6.66961">
        <ele>1493.06</ele>
        <time>2011-03-05T13:09:17Z</time>
      </trkpt>
      <trkpt lat="45.59901" lon="6.66968">
        <ele>1494.99</ele>
        <time>2011-03-05T13:09:32Z</time>
      </trkpt>
      <trkpt lat="45.5991" lon="6.66974">
        <ele>1496.43</ele>
        <time>2011-03-05T13:09:43Z</time>
      </trkpt>
      <trkpt lat="45.5993" lon="6.66983">
        <ele>1498.83</ele>
        <time>2011-03-05T13:10:01Z</time>
      </trkpt>
      <trkpt lat="45.5994" lon="6.66987">
        <ele>1501.24</ele>
        <time>2011-03-05T13:10:18Z</time>
      </trkpt>
      <trkpt lat="45.5994" lon="6.66987">
        <ele>1501.24</ele>
        <time>2011-03-05T13:10:19Z</time>
      </trkpt>
      <trkpt lat="45.59952" lon="6.66991">
        <ele>1502.68</ele>
        <time>2011-03-05T13:10:33Z</time>
      </trkpt>
      <trkpt lat="45.59965" lon="6.66996">
        <ele>1504.6</ele>
        <time>2011-03-05T13:10:50Z</time>
      </trkpt>
      <trkpt lat="45.59976" lon="6.66996">
        <ele>1505.56</ele>
        <time>2011-03-05T13:11:00Z</time>
      </trkpt>
      <trkpt lat="45.59986" lon="6.66995">
        <ele>1507.97</ele>
        <time>2011-03-05T13:11:20Z</time>
      </trkpt>
      <trkpt lat="45.59994" lon="6.66995">
        <ele>1508.93</ele>
        <time>2011-03-05T13:11:28Z</time>
      </trkpt>
      <trkpt lat="45.60006" lon="6.66995">
        <ele>1510.85</ele>
        <time>2011-03-05T13:11:44Z</time>
      </trkpt>
      <trkpt lat="45.60011" lon="6.66997">
        <ele>1511.33</ele>
        <time>2011-03-05T13:11:51Z</time>
      </trkpt>
      <trkpt lat="45.60024" lon="6.67001">
        <ele>1513.25</ele>
        <time>2011-03-05T13:12:07Z</time>
      </trkpt>
      <trkpt lat="45.60033" lon="6.67001">
        <ele>1515.18</ele>
        <time>2011-03-05T13:12:23Z</time>
      </trkpt>
      <trkpt lat="45.60042" lon="6.67004">
        <ele>1516.62</ele>
        <time>2011-03-05T13:12:35Z</time>
      </trkpt>
      <trkpt lat="45.60049" lon="6.67005">
        <ele>1518.06</ele>
        <time>2011-03-05T13:12:45Z</time>
      </trkpt>
      <trkpt lat="45.60051" lon="6.67005">
        <ele>1524.31</ele>
        <time>2011-03-05T13:12:57Z</time>
      </trkpt>
      <trkpt lat="45.60051" lon="6.67005">
        <ele>1518.06</ele>
        <time>2011-03-05T13:12:58Z</time>
      </trkpt>
      <trkpt lat="45.60051" lon="6.67005">
        <ele>1518.06</ele>
        <time>2011-03-05T13:12:59Z</time>
      </trkpt>
      <trkpt lat="45.60051" lon="6.67006">
        <ele>1517.58</ele>
        <time>2011-03-05T13:13:10Z</time>
      </trkpt>
      <trkpt lat="45.6006" lon="6.67016">
        <ele>1518.54</ele>
        <time>2011-03-05T13:13:21Z</time>
      </trkpt>
      <trkpt lat="45.60067" lon="6.67026">
        <ele>1520.46</ele>
        <time>2011-03-05T13:13:34Z</time>
      </trkpt>
      <trkpt lat="45.60074" lon="6.67032">
        <ele>1521.42</ele>
        <time>2011-03-05T13:13:41Z</time>
      </trkpt>
      <trkpt lat="45.60078" lon="6.6703">
        <ele>1522.87</ele>
        <time>2011-03-05T13:13:48Z</time>
      </trkpt>
      <trkpt lat="45.60088" lon="6.67037">
        <ele>1525.75</ele>
        <time>2011-03-05T13:14:06Z</time>
      </trkpt>
      <trkpt lat="45.60098" lon="6.67045">
        <ele>1527.67</ele>
        <time>2011-03-05T13:14:22Z</time>
      </trkpt>
      <trkpt lat="45.60104" lon="6.67049">
        <ele>1529.11</ele>
        <time>2011-03-05T13:14:37Z</time>
      </trkpt>
      <trkpt lat="45.60112" lon="6.67056">
        <ele>1531.52</ele>
        <time>2011-03-05T13:14:52Z</time>
      </trkpt>
      <trkpt lat="45.60125" lon="6.67063">
        <ele>1532.48</ele>
        <time>2011-03-05T13:15:06Z</time>
      </trkpt>
      <trkpt lat="45.60131" lon="6.67065">
        <ele>1535.36</ele>
        <time>2011-03-05T13:15:20Z</time>
      </trkpt>
      <trkpt lat="45.60142" lon="6.67063">
        <ele>1537.77</ele>
        <time>2011-03-05T13:15:32Z</time>
      </trkpt>
      <trkpt lat="45.60152" lon="6.67066">
        <ele>1540.65</ele>
        <time>2011-03-05T13:15:45Z</time>
      </trkpt>
      <trkpt lat="45.6016" lon="6.67067">
        <ele>1542.57</ele>
        <time>2011-03-05T13:16:00Z</time>
      </trkpt>
      <trkpt lat="45.60169" lon="6.67066">
        <ele>1544.5</ele>
        <time>2011-03-05T13:16:12Z</time>
      </trkpt>
      <trkpt lat="45.60177" lon="6.67065">
        <ele>1546.9</ele>
        <time>2011-03-05T13:16:24Z</time>
      </trkpt>
      <trkpt lat="45.60185" lon="6.67069">
        <ele>1548.82</ele>
        <time>2011-03-05T13:16:37Z</time>
      </trkpt>
      <trkpt lat="45.60187" lon="6.67068">
        <ele>1550.74</ele>
        <time>2011-03-05T13:16:44Z</time>
      </trkpt>
      <trkpt lat="45.6019" lon="6.67067">
        <ele>1552.67</ele>
        <time>2011-03-05T13:16:50Z</time>
      </trkpt>
      <trkpt lat="45.60196" lon="6.6707">
        <ele>1553.15</ele>
        <time>2011-03-05T13:16:57Z</time>
      </trkpt>
      <trkpt lat="45.60199" lon="6.6707">
        <ele>1553.15</ele>
        <time>2011-03-05T13:17:00Z</time>
      </trkpt>
      <trkpt lat="45.6021" lon="6.67073">
        <ele>1555.55</ele>
        <time>2011-03-05T13:17:16Z</time>
      </trkpt>
      <trkpt lat="45.60214" lon="6.67084">
        <ele>1556.99</ele>
        <time>2011-03-05T13:17:26Z</time>
      </trkpt>
      <trkpt lat="45.60222" lon="6.67094">
        <ele>1557.47</ele>
        <time>2011-03-05T13:17:38Z</time>
      </trkpt>
      <trkpt lat="45.60233" lon="6.67108">
        <ele>1558.92</ele>
        <time>2011-03-05T13:17:54Z</time>
      </trkpt>
      <trkpt lat="45.6024" lon="6.67115">
        <ele>1560.36</ele>
        <time>2011-03-05T13:18:06Z</time>
      </trkpt>
      <trkpt lat="45.60243" lon="6.67119">
        <ele>1560.84</ele>
        <time>2011-03-05T13:18:11Z</time>
      </trkpt>
      <trkpt lat="45.60244" lon="6.67122">
        <ele>1561.32</ele>
        <time>2011-03-05T13:18:14Z</time>
      </trkpt>
      <trkpt lat="45.60255" lon="6.67131">
        <ele>1563.24</ele>
        <time>2011-03-05T13:18:29Z</time>
      </trkpt>
      <trkpt lat="45.60257" lon="6.67142">
        <ele>1564.68</ele>
        <time>2011-03-05T13:18:41Z</time>
      </trkpt>
      <trkpt lat="45.60259" lon="6.67146">
        <ele>1565.64</ele>
        <time>2011-03-05T13:18:44Z</time>
      </trkpt>
      <trkpt lat="45.6026" lon="6.67155">
        <ele>1567.57</ele>
        <time>2011-03-05T13:18:54Z</time>
      </trkpt>
      <trkpt lat="45.60262" lon="6.67158">
        <ele>1567.57</ele>
        <time>2011-03-05T13:18:58Z</time>
      </trkpt>
      <trkpt lat="45.6027" lon="6.67173">
        <ele>1568.53</ele>
        <time>2011-03-05T13:19:13Z</time>
      </trkpt>
      <trkpt lat="45.60271" lon="6.67174">
        <ele>1568.53</ele>
        <time>2011-03-05T13:19:15Z</time>
      </trkpt>
      <trkpt lat="45.60274" lon="6.6718">
        <ele>1569.01</ele>
        <time>2011-03-05T13:19:23Z</time>
      </trkpt>
      <trkpt lat="45.60279" lon="6.6719">
        <ele>1569.97</ele>
        <time>2011-03-05T13:19:31Z</time>
      </trkpt>
      <trkpt lat="45.60285" lon="6.67199">
        <ele>1570.45</ele>
        <time>2011-03-05T13:19:40Z</time>
      </trkpt>
      <trkpt lat="45.60296" lon="6.67213">
        <ele>1571.89</ele>
        <time>2011-03-05T13:19:56Z</time>
      </trkpt>
      <trkpt lat="45.603" lon="6.67221">
        <ele>1572.37</ele>
        <time>2011-03-05T13:20:05Z</time>
      </trkpt>
      <trkpt lat="45.6031" lon="6.6723">
        <ele>1573.33</ele>
        <time>2011-03-05T13:20:18Z</time>
      </trkpt>
      <trkpt lat="45.60313" lon="6.67232">
        <ele>1573.82</ele>
        <time>2011-03-05T13:20:20Z</time>
      </trkpt>
      <trkpt lat="45.60315" lon="6.67234">
        <ele>1573.82</ele>
        <time>2011-03-05T13:20:23Z</time>
      </trkpt>
      <trkpt lat="45.60317" lon="6.67234">
        <ele>1573.82</ele>
        <time>2011-03-05T13:20:25Z</time>
      </trkpt>
      <trkpt lat="45.60327" lon="6.67244">
        <ele>1574.78</ele>
        <time>2011-03-05T13:20:39Z</time>
      </trkpt>
      <trkpt lat="45.60341" lon="6.67252">
        <ele>1575.74</ele>
        <time>2011-03-05T13:20:54Z</time>
      </trkpt>
      <trkpt lat="45.60348" lon="6.67258">
        <ele>1576.7</ele>
        <time>2011-03-05T13:21:02Z</time>
      </trkpt>
      <trkpt lat="45.60356" lon="6.67255">
        <ele>1577.66</ele>
        <time>2011-03-05T13:21:16Z</time>
      </trkpt>
      <trkpt lat="45.60359" lon="6.67256">
        <ele>1578.14</ele>
        <time>2011-03-05T13:21:19Z</time>
      </trkpt>
      <trkpt lat="45.60369" lon="6.67263">
        <ele>1578.62</ele>
        <time>2011-03-05T13:21:31Z</time>
      </trkpt>
      <trkpt lat="45.60374" lon="6.67267">
        <ele>1579.1</ele>
        <time>2011-03-05T13:21:37Z</time>
      </trkpt>
      <trkpt lat="45.60384" lon="6.67275">
        <ele>1580.06</ele>
        <time>2011-03-05T13:21:52Z</time>
      </trkpt>
      <trkpt lat="45.60386" lon="6.67276">
        <ele>1580.06</ele>
        <time>2011-03-05T13:21:54Z</time>
      </trkpt>
      <trkpt lat="45.6039" lon="6.67275">
        <ele>1581.03</ele>
        <time>2011-03-05T13:21:59Z</time>
      </trkpt>
      <trkpt lat="45.60404" lon="6.67278">
        <ele>1581.99</ele>
        <time>2011-03-05T13:22:13Z</time>
      </trkpt>
      <trkpt lat="45.60416" lon="6.67279">
        <ele>1582.95</ele>
        <time>2011-03-05T13:22:26Z</time>
      </trkpt>
      <trkpt lat="45.60421" lon="6.67279">
        <ele>1583.91</ele>
        <time>2011-03-05T13:22:33Z</time>
      </trkpt>
      <trkpt lat="45.60429" lon="6.6728">
        <ele>1584.39</ele>
        <time>2011-03-05T13:22:41Z</time>
      </trkpt>
      <trkpt lat="45.60443" lon="6.67282">
        <ele>1585.35</ele>
        <time>2011-03-05T13:22:56Z</time>
      </trkpt>
      <trkpt lat="45.60458" lon="6.67286">
        <ele>1586.31</ele>
        <time>2011-03-05T13:23:11Z</time>
      </trkpt>
      <trkpt lat="45.60474" lon="6.67295">
        <ele>1587.75</ele>
        <time>2011-03-05T13:23:25Z</time>
      </trkpt>
      <trkpt lat="45.60487" lon="6.67306">
        <ele>1588.72</ele>
        <time>2011-03-05T13:23:39Z</time>
      </trkpt>
      <trkpt lat="45.60497" lon="6.6732">
        <ele>1590.16</ele>
        <time>2011-03-05T13:23:53Z</time>
      </trkpt>
      <trkpt lat="45.60501" lon="6.67325">
        <ele>1591.12</ele>
        <time>2011-03-05T13:23:58Z</time>
      </trkpt>
      <trkpt lat="45.60515" lon="6.67341">
        <ele>1592.08</ele>
        <time>2011-03-05T13:24:11Z</time>
      </trkpt>
      <trkpt lat="45.60518" lon="6.67343">
        <ele>1592.08</ele>
        <time>2011-03-05T13:24:14Z</time>
      </trkpt>
      <trkpt lat="45.60532" lon="6.67357">
        <ele>1594</ele>
        <time>2011-03-05T13:24:32Z</time>
      </trkpt>
      <trkpt lat="45.60538" lon="6.67364">
        <ele>1594.48</ele>
        <time>2011-03-05T13:24:40Z</time>
      </trkpt>
      <trkpt lat="45.60551" lon="6.67373">
        <ele>1596.89</ele>
        <time>2011-03-05T13:24:57Z</time>
      </trkpt>
      <trkpt lat="45.60552" lon="6.67374">
        <ele>1596.41</ele>
        <time>2011-03-05T13:24:58Z</time>
      </trkpt>
      <trkpt lat="45.60556" lon="6.67377">
        <ele>1596.89</ele>
        <time>2011-03-05T13:25:02Z</time>
      </trkpt>
      <trkpt lat="45.60558" lon="6.67378">
        <ele>1596.89</ele>
        <time>2011-03-05T13:25:04Z</time>
      </trkpt>
      <trkpt lat="45.60568" lon="6.67384">
        <ele>1597.37</ele>
        <time>2011-03-05T13:25:15Z</time>
      </trkpt>
      <trkpt lat="45.60572" lon="6.67387">
        <ele>1597.85</ele>
        <time>2011-03-05T13:25:22Z</time>
      </trkpt>
      <trkpt lat="45.6058" lon="6.6739">
        <ele>1598.81</ele>
        <time>2011-03-05T13:25:31Z</time>
      </trkpt>
      <trkpt lat="45.60594" lon="6.67396">
        <ele>1600.25</ele>
        <time>2011-03-05T13:25:47Z</time>
      </trkpt>
      <trkpt lat="45.60597" lon="6.67398">
        <ele>1600.73</ele>
        <time>2011-03-05T13:26:02Z</time>
      </trkpt>
      <trkpt lat="45.60597" lon="6.67392">
        <ele>1601.21</ele>
        <time>2011-03-05T13:26:16Z</time>
      </trkpt>
      <trkpt lat="45.60597" lon="6.67393">
        <ele>1599.77</ele>
        <time>2011-03-05T13:26:29Z</time>
      </trkpt>
      <trkpt lat="45.60597" lon="6.67393">
        <ele>1599.77</ele>
        <time>2011-03-05T13:26:54Z</time>
      </trkpt>
      <trkpt lat="45.60597" lon="6.67394">
        <ele>1600.25</ele>
        <time>2011-03-05T13:27:30Z</time>
      </trkpt>
      <trkpt lat="45.60597" lon="6.67394">
        <ele>1600.25</ele>
        <time>2011-03-05T13:28:02Z</time>
      </trkpt>
      <trkpt lat="45.60597" lon="6.67394">
        <ele>1599.77</ele>
        <time>2011-03-05T13:28:27Z</time>
      </trkpt>
      <trkpt lat="45.60596" lon="6.67393">
        <ele>1600.25</ele>
        <time>2011-03-05T13:28:59Z</time>
      </trkpt>
      <trkpt lat="45.60596" lon="6.67393">
        <ele>1600.25</ele>
        <time>2011-03-05T13:29:29Z</time>
      </trkpt>
      <trkpt lat="45.60598" lon="6.67395">
        <ele>1600.73</ele>
        <time>2011-03-05T13:29:49Z</time>
      </trkpt>
      <trkpt lat="45.60598" lon="6.67395">
        <ele>1600.25</ele>
        <time>2011-03-05T13:30:10Z</time>
      </trkpt>
      <trkpt lat="45.60598" lon="6.67395">
        <ele>1600.25</ele>
        <time>2011-03-05T13:30:46Z</time>
      </trkpt>
      <trkpt lat="45.60599" lon="6.67395">
        <ele>1600.25</ele>
        <time>2011-03-05T13:31:24Z</time>
      </trkpt>
      <trkpt lat="45.60598" lon="6.67395">
        <ele>1599.77</ele>
        <time>2011-03-05T13:31:46Z</time>
      </trkpt>
      <trkpt lat="45.60598" lon="6.67395">
        <ele>1600.25</ele>
        <time>2011-03-05T13:32:23Z</time>
      </trkpt>
      <trkpt lat="45.60599" lon="6.67395">
        <ele>1601.69</ele>
        <time>2011-03-05T13:32:38Z</time>
      </trkpt>
      <trkpt lat="45.60598" lon="6.67394">
        <ele>1601.69</ele>
        <time>2011-03-05T13:32:59Z</time>
      </trkpt>
      <trkpt lat="45.60598" lon="6.67394">
        <ele>1600.73</ele>
        <time>2011-03-05T13:33:09Z</time>
      </trkpt>
      <trkpt lat="45.60606" lon="6.67394">
        <ele>1602.17</ele>
        <time>2011-03-05T13:33:23Z</time>
      </trkpt>
      <trkpt lat="45.60613" lon="6.67391">
        <ele>1602.17</ele>
        <time>2011-03-05T13:33:31Z</time>
      </trkpt>
      <trkpt lat="45.60619" lon="6.67388">
        <ele>1603.14</ele>
        <time>2011-03-05T13:33:38Z</time>
      </trkpt>
      <trkpt lat="45.60627" lon="6.67386">
        <ele>1603.62</ele>
        <time>2011-03-05T13:33:47Z</time>
      </trkpt>
      <trkpt lat="45.60634" lon="6.67385">
        <ele>1604.1</ele>
        <time>2011-03-05T13:33:55Z</time>
      </trkpt>
      <trkpt lat="45.60649" lon="6.67388">
        <ele>1605.06</ele>
        <time>2011-03-05T13:34:10Z</time>
      </trkpt>
      <trkpt lat="45.6066" lon="6.67392">
        <ele>1606.98</ele>
        <time>2011-03-05T13:34:25Z</time>
      </trkpt>
      <trkpt lat="45.60667" lon="6.67395">
        <ele>1607.46</ele>
        <time>2011-03-05T13:34:32Z</time>
      </trkpt>
      <trkpt lat="45.6068" lon="6.67406">
        <ele>1609.38</ele>
        <time>2011-03-05T13:34:47Z</time>
      </trkpt>
      <trkpt lat="45.60681" lon="6.67408">
        <ele>1609.38</ele>
        <time>2011-03-05T13:34:50Z</time>
      </trkpt>
      <trkpt lat="45.60687" lon="6.67416">
        <ele>1608.9</ele>
        <time>2011-03-05T13:34:59Z</time>
      </trkpt>
      <trkpt lat="45.60689" lon="6.67418">
        <ele>1609.86</ele>
        <time>2011-03-05T13:35:01Z</time>
      </trkpt>
      <trkpt lat="45.60696" lon="6.67425">
        <ele>1610.35</ele>
        <time>2011-03-05T13:35:11Z</time>
      </trkpt>
      <trkpt lat="45.60709" lon="6.67439">
        <ele>1611.31</ele>
        <time>2011-03-05T13:35:25Z</time>
      </trkpt>
      <trkpt lat="45.60711" lon="6.67442">
        <ele>1611.79</ele>
        <time>2011-03-05T13:35:28Z</time>
      </trkpt>
      <trkpt lat="45.60719" lon="6.67452">
        <ele>1612.75</ele>
        <time>2011-03-05T13:35:40Z</time>
      </trkpt>
      <trkpt lat="45.60729" lon="6.67464">
        <ele>1613.71</ele>
        <time>2011-03-05T13:35:53Z</time>
      </trkpt>
      <trkpt lat="45.6074" lon="6.67478">
        <ele>1615.15</ele>
        <time>2011-03-05T13:36:09Z</time>
      </trkpt>
      <trkpt lat="45.60754" lon="6.67487">
        <ele>1615.63</ele>
        <time>2011-03-05T13:36:24Z</time>
      </trkpt>
      <trkpt lat="45.60761" lon="6.67492">
        <ele>1616.11</ele>
        <time>2011-03-05T13:36:32Z</time>
      </trkpt>
      <trkpt lat="45.60765" lon="6.67493">
        <ele>1616.59</ele>
        <time>2011-03-05T13:36:36Z</time>
      </trkpt>
      <trkpt lat="45.60772" lon="6.67497">
        <ele>1617.56</ele>
        <time>2011-03-05T13:36:46Z</time>
      </trkpt>
      <trkpt lat="45.60774" lon="6.67498">
        <ele>1617.07</ele>
        <time>2011-03-05T13:36:50Z</time>
      </trkpt>
      <trkpt lat="45.6078" lon="6.67499">
        <ele>1617.07</ele>
        <time>2011-03-05T13:36:54Z</time>
      </trkpt>
      <trkpt lat="45.60782" lon="6.675">
        <ele>1617.07</ele>
        <time>2011-03-05T13:36:56Z</time>
      </trkpt>
      <trkpt lat="45.60788" lon="6.67501">
        <ele>1617.56</ele>
        <time>2011-03-05T13:37:02Z</time>
      </trkpt>
      <trkpt lat="45.60793" lon="6.67502">
        <ele>1618.04</ele>
        <time>2011-03-05T13:37:06Z</time>
      </trkpt>
      <trkpt lat="45.60796" lon="6.67504">
        <ele>1618.04</ele>
        <time>2011-03-05T13:37:09Z</time>
      </trkpt>
      <trkpt lat="45.60814" lon="6.67507">
        <ele>1618.04</ele>
        <time>2011-03-05T13:37:25Z</time>
      </trkpt>
      <trkpt lat="45.6083" lon="6.67511">
        <ele>1618.04</ele>
        <time>2011-03-05T13:37:39Z</time>
      </trkpt>
      <trkpt lat="45.60844" lon="6.67517">
        <ele>1618.52</ele>
        <time>2011-03-05T13:37:53Z</time>
      </trkpt>
      <trkpt lat="45.60846" lon="6.67517">
        <ele>1618.52</ele>
        <time>2011-03-05T13:37:55Z</time>
      </trkpt>
      <trkpt lat="45.60862" lon="6.67528">
        <ele>1619</ele>
        <time>2011-03-05T13:38:11Z</time>
      </trkpt>
      <trkpt lat="45.60865" lon="6.6753">
        <ele>1619.48</ele>
        <time>2011-03-05T13:38:13Z</time>
      </trkpt>
      <trkpt lat="45.60882" lon="6.67541">
        <ele>1619.96</ele>
        <time>2011-03-05T13:38:27Z</time>
      </trkpt>
      <trkpt lat="45.609" lon="6.67547">
        <ele>1620.44</ele>
        <time>2011-03-05T13:38:41Z</time>
      </trkpt>
      <trkpt lat="45.60922" lon="6.6756">
        <ele>1620.44</ele>
        <time>2011-03-05T13:38:55Z</time>
      </trkpt>
      <trkpt lat="45.60942" lon="6.67573">
        <ele>1620.44</ele>
        <time>2011-03-05T13:39:08Z</time>
      </trkpt>
      <trkpt lat="45.60959" lon="6.67586">
        <ele>1620.92</ele>
        <time>2011-03-05T13:39:18Z</time>
      </trkpt>
      <trkpt lat="45.60977" lon="6.67608">
        <ele>1621.88</ele>
        <time>2011-03-05T13:39:33Z</time>
      </trkpt>
      <trkpt lat="45.60993" lon="6.6763">
        <ele>1621.4</ele>
        <time>2011-03-05T13:39:46Z</time>
      </trkpt>
      <trkpt lat="45.61009" lon="6.67653">
        <ele>1621.88</ele>
        <time>2011-03-05T13:40:00Z</time>
      </trkpt>
      <trkpt lat="45.61007" lon="6.6765">
        <ele>1621.88</ele>
        <time>2011-03-05T13:40:14Z</time>
      </trkpt>
      <trkpt lat="45.61007" lon="6.6765">
        <ele>1621.88</ele>
        <time>2011-03-05T13:40:39Z</time>
      </trkpt>
      <trkpt lat="45.61007" lon="6.67651">
        <ele>1622.36</ele>
        <time>2011-03-05T13:40:59Z</time>
      </trkpt>
      <trkpt lat="45.61008" lon="6.67653">
        <ele>1622.36</ele>
        <time>2011-03-05T13:41:13Z</time>
      </trkpt>
      <trkpt lat="45.61023" lon="6.67672">
        <ele>1621.4</ele>
        <time>2011-03-05T13:41:27Z</time>
      </trkpt>
      <trkpt lat="45.61035" lon="6.6768">
        <ele>1621.88</ele>
        <time>2011-03-05T13:41:36Z</time>
      </trkpt>
      <trkpt lat="45.61052" lon="6.67684">
        <ele>1622.36</ele>
        <time>2011-03-05T13:41:50Z</time>
      </trkpt>
      <trkpt lat="45.61055" lon="6.67687">
        <ele>1621.88</ele>
        <time>2011-03-05T13:41:53Z</time>
      </trkpt>
      <trkpt lat="45.61057" lon="6.67688">
        <ele>1622.36</ele>
        <time>2011-03-05T13:41:55Z</time>
      </trkpt>
      <trkpt lat="45.61071" lon="6.67694">
        <ele>1622.84</ele>
        <time>2011-03-05T13:42:07Z</time>
      </trkpt>
      <trkpt lat="45.61089" lon="6.67704">
        <ele>1623.32</ele>
        <time>2011-03-05T13:42:21Z</time>
      </trkpt>
      <trkpt lat="45.61096" lon="6.67705">
        <ele>1622.84</ele>
        <time>2011-03-05T13:42:26Z</time>
      </trkpt>
      <trkpt lat="45.61103" lon="6.67712">
        <ele>1622.84</ele>
        <time>2011-03-05T13:42:33Z</time>
      </trkpt>
      <trkpt lat="45.61113" lon="6.67718">
        <ele>1622.84</ele>
        <time>2011-03-05T13:42:40Z</time>
      </trkpt>
      <trkpt lat="45.61129" lon="6.6773">
        <ele>1623.32</ele>
        <time>2011-03-05T13:42:54Z</time>
      </trkpt>
      <trkpt lat="45.6114" lon="6.6774">
        <ele>1623.8</ele>
        <time>2011-03-05T13:43:07Z</time>
      </trkpt>
      <trkpt lat="45.6115" lon="6.6774">
        <ele>1623.8</ele>
        <time>2011-03-05T13:43:21Z</time>
      </trkpt>
      <trkpt lat="45.61162" lon="6.67742">
        <ele>1624.28</ele>
        <time>2011-03-05T13:43:33Z</time>
      </trkpt>
      <trkpt lat="45.61179" lon="6.67745">
        <ele>1625.25</ele>
        <time>2011-03-05T13:43:48Z</time>
      </trkpt>
      <trkpt lat="45.61194" lon="6.67743">
        <ele>1626.21</ele>
        <time>2011-03-05T13:44:02Z</time>
      </trkpt>
      <trkpt lat="45.61206" lon="6.67748">
        <ele>1627.17</ele>
        <time>2011-03-05T13:44:17Z</time>
      </trkpt>
      <trkpt lat="45.61221" lon="6.67751">
        <ele>1627.65</ele>
        <time>2011-03-05T13:44:31Z</time>
      </trkpt>
      <trkpt lat="45.61236" lon="6.67749">
        <ele>1628.61</ele>
        <time>2011-03-05T13:44:44Z</time>
      </trkpt>
      <trkpt lat="45.61249" lon="6.67745">
        <ele>1629.57</ele>
        <time>2011-03-05T13:44:57Z</time>
      </trkpt>
      <trkpt lat="45.61264" lon="6.67746">
        <ele>1630.53</ele>
        <time>2011-03-05T13:45:11Z</time>
      </trkpt>
      <trkpt lat="45.61266" lon="6.67746">
        <ele>1630.53</ele>
        <time>2011-03-05T13:45:13Z</time>
      </trkpt>
      <trkpt lat="45.61282" lon="6.67742">
        <ele>1631.98</ele>
        <time>2011-03-05T13:45:27Z</time>
      </trkpt>
      <trkpt lat="45.61287" lon="6.67742">
        <ele>1631.98</ele>
        <time>2011-03-05T13:45:33Z</time>
      </trkpt>
      <trkpt lat="45.61292" lon="6.67742">
        <ele>1632.94</ele>
        <time>2011-03-05T13:45:38Z</time>
      </trkpt>
      <trkpt lat="45.61306" lon="6.6774">
        <ele>1633.42</ele>
        <time>2011-03-05T13:45:50Z</time>
      </trkpt>
      <trkpt lat="45.61308" lon="6.6774">
        <ele>1633.9</ele>
        <time>2011-03-05T13:45:52Z</time>
      </trkpt>
      <trkpt lat="45.61319" lon="6.6774">
        <ele>1634.38</ele>
        <time>2011-03-05T13:46:02Z</time>
      </trkpt>
      <trkpt lat="45.6132" lon="6.6774">
        <ele>1634.86</ele>
        <time>2011-03-05T13:46:04Z</time>
      </trkpt>
      <trkpt lat="45.61333" lon="6.67742">
        <ele>1635.82</ele>
        <time>2011-03-05T13:46:16Z</time>
      </trkpt>
      <trkpt lat="45.61348" lon="6.67744">
        <ele>1636.78</ele>
        <time>2011-03-05T13:46:30Z</time>
      </trkpt>
      <trkpt lat="45.61358" lon="6.67746">
        <ele>1637.74</ele>
        <time>2011-03-05T13:46:42Z</time>
      </trkpt>
      <trkpt lat="45.61366" lon="6.67746">
        <ele>1638.22</ele>
        <time>2011-03-05T13:46:50Z</time>
      </trkpt>
      <trkpt lat="45.6138" lon="6.67747">
        <ele>1638.7</ele>
        <time>2011-03-05T13:47:04Z</time>
      </trkpt>
      <trkpt lat="45.61391" lon="6.67746">
        <ele>1640.63</ele>
        <time>2011-03-05T13:47:16Z</time>
      </trkpt>
      <trkpt lat="45.61395" lon="6.67746">
        <ele>1640.63</ele>
        <time>2011-03-05T13:47:22Z</time>
      </trkpt>
      <trkpt lat="45.61398" lon="6.67747">
        <ele>1640.63</ele>
        <time>2011-03-05T13:47:25Z</time>
      </trkpt>
      <trkpt lat="45.61402" lon="6.67744">
        <ele>1641.59</ele>
        <time>2011-03-05T13:47:30Z</time>
      </trkpt>
      <trkpt lat="45.61412" lon="6.67746">
        <ele>1641.59</ele>
        <time>2011-03-05T13:47:40Z</time>
      </trkpt>
      <trkpt lat="45.61414" lon="6.67746">
        <ele>1642.07</ele>
        <time>2011-03-05T13:47:42Z</time>
      </trkpt>
      <trkpt lat="45.61428" lon="6.67748">
        <ele>1643.03</ele>
        <time>2011-03-05T13:47:57Z</time>
      </trkpt>
      <trkpt lat="45.6143" lon="6.67746">
        <ele>1642.55</ele>
        <time>2011-03-05T13:48:03Z</time>
      </trkpt>
      <trkpt lat="45.61446" lon="6.67748">
        <ele>1644.47</ele>
        <time>2011-03-05T13:48:19Z</time>
      </trkpt>
      <trkpt lat="45.61451" lon="6.67747">
        <ele>1645.43</ele>
        <time>2011-03-05T13:48:24Z</time>
      </trkpt>
      <trkpt lat="45.61456" lon="6.67745">
        <ele>1645.43</ele>
        <time>2011-03-05T13:48:29Z</time>
      </trkpt>
      <trkpt lat="45.61458" lon="6.67744">
        <ele>1645.43</ele>
        <time>2011-03-05T13:48:32Z</time>
      </trkpt>
      <trkpt lat="45.61466" lon="6.67742">
        <ele>1646.4</ele>
        <time>2011-03-05T13:48:40Z</time>
      </trkpt>
      <trkpt lat="45.61481" lon="6.67744">
        <ele>1647.36</ele>
        <time>2011-03-05T13:48:54Z</time>
      </trkpt>
      <trkpt lat="45.61494" lon="6.67743">
        <ele>1648.32</ele>
        <time>2011-03-05T13:49:08Z</time>
      </trkpt>
      <trkpt lat="45.61505" lon="6.67742">
        <ele>1649.28</ele>
        <time>2011-03-05T13:49:19Z</time>
      </trkpt>
      <trkpt lat="45.61515" lon="6.67743">
        <ele>1650.72</ele>
        <time>2011-03-05T13:49:31Z</time>
      </trkpt>
      <trkpt lat="45.61518" lon="6.67743">
        <ele>1651.2</ele>
        <time>2011-03-05T13:49:34Z</time>
      </trkpt>
      <trkpt lat="45.61526" lon="6.67742">
        <ele>1652.16</ele>
        <time>2011-03-05T13:49:43Z</time>
      </trkpt>
      <trkpt lat="45.61528" lon="6.67741">
        <ele>1651.68</ele>
        <time>2011-03-05T13:49:45Z</time>
      </trkpt>
      <trkpt lat="45.61535" lon="6.67742">
        <ele>1652.64</ele>
        <time>2011-03-05T13:49:52Z</time>
      </trkpt>
      <trkpt lat="45.61548" lon="6.6774">
        <ele>1654.57</ele>
        <time>2011-03-05T13:50:06Z</time>
      </trkpt>
      <trkpt lat="45.61562" lon="6.6774">
        <ele>1655.05</ele>
        <time>2011-03-05T13:50:20Z</time>
      </trkpt>
      <trkpt lat="45.61564" lon="6.6774">
        <ele>1655.05</ele>
        <time>2011-03-05T13:50:23Z</time>
      </trkpt>
      <trkpt lat="45.61571" lon="6.67744">
        <ele>1656.01</ele>
        <time>2011-03-05T13:50:30Z</time>
      </trkpt>
      <trkpt lat="45.61587" lon="6.67752">
        <ele>1656.97</ele>
        <time>2011-03-05T13:50:45Z</time>
      </trkpt>
      <trkpt lat="45.616" lon="6.67763">
        <ele>1658.89</ele>
        <time>2011-03-05T13:51:01Z</time>
      </trkpt>
      <trkpt lat="45.61612" lon="6.67769">
        <ele>1659.85</ele>
        <time>2011-03-05T13:51:15Z</time>
      </trkpt>
      <trkpt lat="45.61614" lon="6.6777">
        <ele>1659.85</ele>
        <time>2011-03-05T13:51:17Z</time>
      </trkpt>
      <trkpt lat="45.61618" lon="6.6777">
        <ele>1660.81</ele>
        <time>2011-03-05T13:51:20Z</time>
      </trkpt>
      <trkpt lat="45.61622" lon="6.67771">
        <ele>1660.81</ele>
        <time>2011-03-05T13:51:25Z</time>
      </trkpt>
      <trkpt lat="45.61624" lon="6.67772">
        <ele>1660.81</ele>
        <time>2011-03-05T13:51:28Z</time>
      </trkpt>
      <trkpt lat="45.61636" lon="6.67769">
        <ele>1661.78</ele>
        <time>2011-03-05T13:51:42Z</time>
      </trkpt>
      <trkpt lat="45.61647" lon="6.67765">
        <ele>1663.22</ele>
        <time>2011-03-05T13:51:55Z</time>
      </trkpt>
      <trkpt lat="45.61647" lon="6.67764">
        <ele>1662.74</ele>
        <time>2011-03-05T13:51:56Z</time>
      </trkpt>
      <trkpt lat="45.61649" lon="6.67763">
        <ele>1663.22</ele>
        <time>2011-03-05T13:51:58Z</time>
      </trkpt>
      <trkpt lat="45.61658" lon="6.67759">
        <ele>1664.66</ele>
        <time>2011-03-05T13:52:07Z</time>
      </trkpt>
      <trkpt lat="45.61661" lon="6.67758">
        <ele>1664.66</ele>
        <time>2011-03-05T13:52:11Z</time>
      </trkpt>
      <trkpt lat="45.61674" lon="6.67752">
        <ele>1665.62</ele>
        <time>2011-03-05T13:52:26Z</time>
      </trkpt>
      <trkpt lat="45.61676" lon="6.67751">
        <ele>1666.1</ele>
        <time>2011-03-05T13:52:29Z</time>
      </trkpt>
      <trkpt lat="45.6169" lon="6.67745">
        <ele>1666.58</ele>
        <time>2011-03-05T13:52:43Z</time>
      </trkpt>
      <trkpt lat="45.61703" lon="6.67742">
        <ele>1668.02</ele>
        <time>2011-03-05T13:52:57Z</time>
      </trkpt>
      <trkpt lat="45.61718" lon="6.67742">
        <ele>1668.99</ele>
        <time>2011-03-05T13:53:12Z</time>
      </trkpt>
      <trkpt lat="45.61733" lon="6.67744">
        <ele>1669.47</ele>
        <time>2011-03-05T13:53:27Z</time>
      </trkpt>
      <trkpt lat="45.61746" lon="6.67748">
        <ele>1671.39</ele>
        <time>2011-03-05T13:53:42Z</time>
      </trkpt>
      <trkpt lat="45.6176" lon="6.67752">
        <ele>1672.35</ele>
        <time>2011-03-05T13:53:56Z</time>
      </trkpt>
      <trkpt lat="45.61765" lon="6.67755">
        <ele>1672.83</ele>
        <time>2011-03-05T13:54:01Z</time>
      </trkpt>
      <trkpt lat="45.61768" lon="6.6776">
        <ele>1672.83</ele>
        <time>2011-03-05T13:54:13Z</time>
      </trkpt>
      <trkpt lat="45.61769" lon="6.67763">
        <ele>1672.83</ele>
        <time>2011-03-05T13:54:16Z</time>
      </trkpt>
      <trkpt lat="45.61771" lon="6.67768">
        <ele>1673.31</ele>
        <time>2011-03-05T13:54:20Z</time>
      </trkpt>
      <trkpt lat="45.61772" lon="6.67787">
        <ele>1671.39</ele>
        <time>2011-03-05T13:54:33Z</time>
      </trkpt>
      <trkpt lat="45.61771" lon="6.67795">
        <ele>1671.87</ele>
        <time>2011-03-05T13:54:37Z</time>
      </trkpt>
      <trkpt lat="45.61775" lon="6.67809">
        <ele>1674.27</ele>
        <time>2011-03-05T13:54:52Z</time>
      </trkpt>
      <trkpt lat="45.61776" lon="6.6781">
        <ele>1673.79</ele>
        <time>2011-03-05T13:54:53Z</time>
      </trkpt>
      <trkpt lat="45.61783" lon="6.67819">
        <ele>1674.27</ele>
        <time>2011-03-05T13:55:01Z</time>
      </trkpt>
      <trkpt lat="45.61791" lon="6.67841">
        <ele>1675.23</ele>
        <time>2011-03-05T13:55:16Z</time>
      </trkpt>
      <trkpt lat="45.61791" lon="6.67842">
        <ele>1675.23</ele>
        <time>2011-03-05T13:55:35Z</time>
      </trkpt>
      <trkpt lat="45.61791" lon="6.67842">
        <ele>1675.72</ele>
        <time>2011-03-05T13:55:49Z</time>
      </trkpt>
      <trkpt lat="45.61802" lon="6.6784">
        <ele>1676.2</ele>
        <time>2011-03-05T13:56:02Z</time>
      </trkpt>
      <trkpt lat="45.61812" lon="6.6784">
        <ele>1676.2</ele>
        <time>2011-03-05T13:56:15Z</time>
      </trkpt>
      <trkpt lat="45.61821" lon="6.6784">
        <ele>1677.16</ele>
        <time>2011-03-05T13:56:28Z</time>
      </trkpt>
      <trkpt lat="45.61822" lon="6.67839">
        <ele>1676.68</ele>
        <time>2011-03-05T13:56:30Z</time>
      </trkpt>
      <trkpt lat="45.61836" lon="6.67843">
        <ele>1678.6</ele>
        <time>2011-03-05T13:56:42Z</time>
      </trkpt>
      <trkpt lat="45.6184" lon="6.67843">
        <ele>1679.08</ele>
        <time>2011-03-05T13:56:46Z</time>
      </trkpt>
      <trkpt lat="45.61859" lon="6.67848">
        <ele>1680.52</ele>
        <time>2011-03-05T13:57:01Z</time>
      </trkpt>
      <trkpt lat="45.61873" lon="6.67849">
        <ele>1681.96</ele>
        <time>2011-03-05T13:57:12Z</time>
      </trkpt>
      <trkpt lat="45.61881" lon="6.67854">
        <ele>1682.44</ele>
        <time>2011-03-05T13:57:22Z</time>
      </trkpt>
      <trkpt lat="45.61882" lon="6.67854">
        <ele>1682.44</ele>
        <time>2011-03-05T13:57:24Z</time>
      </trkpt>
      <trkpt lat="45.6189" lon="6.67857">
        <ele>1682.93</ele>
        <time>2011-03-05T13:57:31Z</time>
      </trkpt>
      <trkpt lat="45.61905" lon="6.67862">
        <ele>1683.89</ele>
        <time>2011-03-05T13:57:45Z</time>
      </trkpt>
      <trkpt lat="45.61907" lon="6.67863">
        <ele>1683.89</ele>
        <time>2011-03-05T13:57:47Z</time>
      </trkpt>
      <trkpt lat="45.61922" lon="6.67872">
        <ele>1685.33</ele>
        <time>2011-03-05T13:58:01Z</time>
      </trkpt>
      <trkpt lat="45.6194" lon="6.67878">
        <ele>1686.29</ele>
        <time>2011-03-05T13:58:16Z</time>
      </trkpt>
      <trkpt lat="45.61963" lon="6.67883">
        <ele>1688.69</ele>
        <time>2011-03-05T13:58:32Z</time>
      </trkpt>
      <trkpt lat="45.61965" lon="6.67884">
        <ele>1688.21</ele>
        <time>2011-03-05T13:58:36Z</time>
      </trkpt>
      <trkpt lat="45.61965" lon="6.67885">
        <ele>1688.21</ele>
        <time>2011-03-05T13:58:38Z</time>
      </trkpt>
      <trkpt lat="45.61974" lon="6.67887">
        <ele>1689.65</ele>
        <time>2011-03-05T13:58:49Z</time>
      </trkpt>
      <trkpt lat="45.61989" lon="6.67894">
        <ele>1691.1</ele>
        <time>2011-03-05T13:59:03Z</time>
      </trkpt>
      <trkpt lat="45.62006" lon="6.67894">
        <ele>1692.54</ele>
        <time>2011-03-05T13:59:16Z</time>
      </trkpt>
      <trkpt lat="45.62018" lon="6.67894">
        <ele>1693.02</ele>
        <time>2011-03-05T13:59:31Z</time>
      </trkpt>
      <trkpt lat="45.6202" lon="6.67894">
        <ele>1693.98</ele>
        <time>2011-03-05T13:59:33Z</time>
      </trkpt>
      <trkpt lat="45.62021" lon="6.67893">
        <ele>1693.5</ele>
        <time>2011-03-05T13:59:36Z</time>
      </trkpt>
      <trkpt lat="45.62024" lon="6.67895">
        <ele>1694.46</ele>
        <time>2011-03-05T13:59:40Z</time>
      </trkpt>
      <trkpt lat="45.62037" lon="6.67894">
        <ele>1694.94</ele>
        <time>2011-03-05T13:59:51Z</time>
      </trkpt>
      <trkpt lat="45.6204" lon="6.67894">
        <ele>1694.94</ele>
        <time>2011-03-05T13:59:54Z</time>
      </trkpt>
      <trkpt lat="45.62045" lon="6.67897">
        <ele>1695.42</ele>
        <time>2011-03-05T14:00:02Z</time>
      </trkpt>
      <trkpt lat="45.62058" lon="6.67897">
        <ele>1697.34</ele>
        <time>2011-03-05T14:00:19Z</time>
      </trkpt>
      <trkpt lat="45.62062" lon="6.67896">
        <ele>1698.31</ele>
        <time>2011-03-05T14:00:25Z</time>
      </trkpt>
      <trkpt lat="45.62066" lon="6.67894">
        <ele>1698.79</ele>
        <time>2011-03-05T14:00:29Z</time>
      </trkpt>
      <trkpt lat="45.62076" lon="6.6789">
        <ele>1700.23</ele>
        <time>2011-03-05T14:00:42Z</time>
      </trkpt>
      <trkpt lat="45.62085" lon="6.67888">
        <ele>1701.67</ele>
        <time>2011-03-05T14:00:53Z</time>
      </trkpt>
      <trkpt lat="45.62095" lon="6.67885">
        <ele>1703.59</ele>
        <time>2011-03-05T14:01:05Z</time>
      </trkpt>
      <trkpt lat="45.62105" lon="6.6788">
        <ele>1704.55</ele>
        <time>2011-03-05T14:01:17Z</time>
      </trkpt>
      <trkpt lat="45.62116" lon="6.67875">
        <ele>1706</ele>
        <time>2011-03-05T14:01:31Z</time>
      </trkpt>
      <trkpt lat="45.62127" lon="6.67873">
        <ele>1708.4</ele>
        <time>2011-03-05T14:01:44Z</time>
      </trkpt>
      <trkpt lat="45.62138" lon="6.67866">
        <ele>1710.32</ele>
        <time>2011-03-05T14:01:58Z</time>
      </trkpt>
      <trkpt lat="45.62145" lon="6.67882">
        <ele>1712.25</ele>
        <time>2011-03-05T14:02:13Z</time>
      </trkpt>
      <trkpt lat="45.62149" lon="6.67886">
        <ele>1712.73</ele>
        <time>2011-03-05T14:02:19Z</time>
      </trkpt>
      <trkpt lat="45.62163" lon="6.67887">
        <ele>1714.65</ele>
        <time>2011-03-05T14:02:34Z</time>
      </trkpt>
      <trkpt lat="45.62175" lon="6.67882">
        <ele>1716.57</ele>
        <time>2011-03-05T14:02:48Z</time>
      </trkpt>
      <trkpt lat="45.62186" lon="6.67885">
        <ele>1718.01</ele>
        <time>2011-03-05T14:03:01Z</time>
      </trkpt>
      <trkpt lat="45.62195" lon="6.6789">
        <ele>1719.46</ele>
        <time>2011-03-05T14:03:15Z</time>
      </trkpt>
      <trkpt lat="45.62201" lon="6.67894">
        <ele>1720.42</ele>
        <time>2011-03-05T14:03:23Z</time>
      </trkpt>
      <trkpt lat="45.62204" lon="6.67895">
        <ele>1721.86</ele>
        <time>2011-03-05T14:03:27Z</time>
      </trkpt>
      <trkpt lat="45.62214" lon="6.67906">
        <ele>1723.3</ele>
        <time>2011-03-05T14:03:41Z</time>
      </trkpt>
      <trkpt lat="45.62223" lon="6.67904">
        <ele>1724.26</ele>
        <time>2011-03-05T14:03:55Z</time>
      </trkpt>
      <trkpt lat="45.62234" lon="6.67901">
        <ele>1726.18</ele>
        <time>2011-03-05T14:04:08Z</time>
      </trkpt>
      <trkpt lat="45.62246" lon="6.67901">
        <ele>1727.15</ele>
        <time>2011-03-05T14:04:21Z</time>
      </trkpt>
      <trkpt lat="45.62248" lon="6.679">
        <ele>1727.63</ele>
        <time>2011-03-05T14:04:22Z</time>
      </trkpt>
      <trkpt lat="45.6226" lon="6.67897">
        <ele>1729.07</ele>
        <time>2011-03-05T14:04:37Z</time>
      </trkpt>
      <trkpt lat="45.62273" lon="6.679">
        <ele>1730.03</ele>
        <time>2011-03-05T14:04:51Z</time>
      </trkpt>
      <trkpt lat="45.6228" lon="6.67897">
        <ele>1730.51</ele>
        <time>2011-03-05T14:04:59Z</time>
      </trkpt>
      <trkpt lat="45.62281" lon="6.67896">
        <ele>1730.99</ele>
        <time>2011-03-05T14:05:01Z</time>
      </trkpt>
      <trkpt lat="45.62286" lon="6.67891">
        <ele>1731.47</ele>
        <time>2011-03-05T14:05:05Z</time>
      </trkpt>
      <trkpt lat="45.62293" lon="6.67887">
        <ele>1731.95</ele>
        <time>2011-03-05T14:05:14Z</time>
      </trkpt>
      <trkpt lat="45.62296" lon="6.6789">
        <ele>1732.43</ele>
        <time>2011-03-05T14:05:17Z</time>
      </trkpt>
      <trkpt lat="45.62304" lon="6.67891">
        <ele>1732.91</ele>
        <time>2011-03-05T14:05:25Z</time>
      </trkpt>
      <trkpt lat="45.62321" lon="6.67887">
        <ele>1733.39</ele>
        <time>2011-03-05T14:05:38Z</time>
      </trkpt>
      <trkpt lat="45.62334" lon="6.67881">
        <ele>1735.8</ele>
        <time>2011-03-05T14:05:52Z</time>
      </trkpt>
      <trkpt lat="45.62342" lon="6.67877">
        <ele>1736.28</ele>
        <time>2011-03-05T14:06:05Z</time>
      </trkpt>
      <trkpt lat="45.62343" lon="6.67876">
        <ele>1737.24</ele>
        <time>2011-03-05T14:06:07Z</time>
      </trkpt>
      <trkpt lat="45.62356" lon="6.67869">
        <ele>1738.68</ele>
        <time>2011-03-05T14:06:22Z</time>
      </trkpt>
      <trkpt lat="45.62358" lon="6.67865">
        <ele>1739.16</ele>
        <time>2011-03-05T14:06:27Z</time>
      </trkpt>
      <trkpt lat="45.6237" lon="6.6786">
        <ele>1741.08</ele>
        <time>2011-03-05T14:06:39Z</time>
      </trkpt>
      <trkpt lat="45.62375" lon="6.67855">
        <ele>1741.57</ele>
        <time>2011-03-05T14:06:44Z</time>
      </trkpt>
      <trkpt lat="45.62383" lon="6.6785">
        <ele>1743.01</ele>
        <time>2011-03-05T14:06:58Z</time>
      </trkpt>
      <trkpt lat="45.62385" lon="6.67847">
        <ele>1743.97</ele>
        <time>2011-03-05T14:07:01Z</time>
      </trkpt>
      <trkpt lat="45.62391" lon="6.67845">
        <ele>1743.97</ele>
        <time>2011-03-05T14:07:05Z</time>
      </trkpt>
      <trkpt lat="45.62402" lon="6.6784">
        <ele>1745.89</ele>
        <time>2011-03-05T14:07:19Z</time>
      </trkpt>
      <trkpt lat="45.62405" lon="6.67837">
        <ele>1746.85</ele>
        <time>2011-03-05T14:07:24Z</time>
      </trkpt>
      <trkpt lat="45.62412" lon="6.67832">
        <ele>1749.26</ele>
        <time>2011-03-05T14:07:38Z</time>
      </trkpt>
      <trkpt lat="45.62427" lon="6.67824">
        <ele>1751.18</ele>
        <time>2011-03-05T14:07:54Z</time>
      </trkpt>
      <trkpt lat="45.62433" lon="6.67823">
        <ele>1753.1</ele>
        <time>2011-03-05T14:08:06Z</time>
      </trkpt>
      <trkpt lat="45.62442" lon="6.67818">
        <ele>1755.02</ele>
        <time>2011-03-05T14:08:21Z</time>
      </trkpt>
      <trkpt lat="45.62445" lon="6.67814">
        <ele>1755.5</ele>
        <time>2011-03-05T14:08:24Z</time>
      </trkpt>
      <trkpt lat="45.62452" lon="6.67814">
        <ele>1756.47</ele>
        <time>2011-03-05T14:08:31Z</time>
      </trkpt>
      <trkpt lat="45.62461" lon="6.67805">
        <ele>1758.39</ele>
        <time>2011-03-05T14:08:43Z</time>
      </trkpt>
      <trkpt lat="45.62463" lon="6.67803">
        <ele>1758.39</ele>
        <time>2011-03-05T14:08:45Z</time>
      </trkpt>
      <trkpt lat="45.62465" lon="6.678">
        <ele>1758.87</ele>
        <time>2011-03-05T14:08:47Z</time>
      </trkpt>
      <trkpt lat="45.62476" lon="6.67789">
        <ele>1759.35</ele>
        <time>2011-03-05T14:09:02Z</time>
      </trkpt>
      <trkpt lat="45.62481" lon="6.6778">
        <ele>1760.31</ele>
        <time>2011-03-05T14:09:09Z</time>
      </trkpt>
      <trkpt lat="45.62485" lon="6.67773">
        <ele>1760.79</ele>
        <time>2011-03-05T14:09:14Z</time>
      </trkpt>
      <trkpt lat="45.62488" lon="6.67771">
        <ele>1762.23</ele>
        <time>2011-03-05T14:09:18Z</time>
      </trkpt>
      <trkpt lat="45.62499" lon="6.6776">
        <ele>1764.16</ele>
        <time>2011-03-05T14:09:33Z</time>
      </trkpt>
      <trkpt lat="45.62501" lon="6.67759">
        <ele>1765.12</ele>
        <time>2011-03-05T14:09:35Z</time>
      </trkpt>
      <trkpt lat="45.62502" lon="6.67755">
        <ele>1765.12</ele>
        <time>2011-03-05T14:09:38Z</time>
      </trkpt>
      <trkpt lat="45.62515" lon="6.67749">
        <ele>1766.08</ele>
        <time>2011-03-05T14:09:52Z</time>
      </trkpt>
      <trkpt lat="45.62526" lon="6.6774">
        <ele>1767.04</ele>
        <time>2011-03-05T14:10:06Z</time>
      </trkpt>
      <trkpt lat="45.62535" lon="6.67734">
        <ele>1768.96</ele>
        <time>2011-03-05T14:10:20Z</time>
      </trkpt>
      <trkpt lat="45.62547" lon="6.67728">
        <ele>1770.89</ele>
        <time>2011-03-05T14:10:34Z</time>
      </trkpt>
      <trkpt lat="45.62555" lon="6.67723">
        <ele>1772.33</ele>
        <time>2011-03-05T14:10:42Z</time>
      </trkpt>
      <trkpt lat="45.62562" lon="6.6772">
        <ele>1772.81</ele>
        <time>2011-03-05T14:10:51Z</time>
      </trkpt>
      <trkpt lat="45.62563" lon="6.67719">
        <ele>1773.29</ele>
        <time>2011-03-05T14:11:09Z</time>
      </trkpt>
      <trkpt lat="45.62562" lon="6.67722">
        <ele>1772.81</ele>
        <time>2011-03-05T14:11:14Z</time>
      </trkpt>
      <trkpt lat="45.62561" lon="6.67726">
        <ele>1772.33</ele>
        <time>2011-03-05T14:11:32Z</time>
      </trkpt>
      <trkpt lat="45.62561" lon="6.67726">
        <ele>1772.33</ele>
        <time>2011-03-05T14:11:57Z</time>
      </trkpt>
      <trkpt lat="45.62561" lon="6.67726">
        <ele>1772.33</ele>
        <time>2011-03-05T14:12:27Z</time>
      </trkpt>
      <trkpt lat="45.62561" lon="6.67726">
        <ele>1772.81</ele>
        <time>2011-03-05T14:12:59Z</time>
      </trkpt>
      <trkpt lat="45.62561" lon="6.67725">
        <ele>1772.81</ele>
        <time>2011-03-05T14:13:29Z</time>
      </trkpt>
      <trkpt lat="45.62561" lon="6.67726">
        <ele>1772.33</ele>
        <time>2011-03-05T14:13:50Z</time>
      </trkpt>
      <trkpt lat="45.62561" lon="6.67726">
        <ele>1773.29</ele>
        <time>2011-03-05T14:14:15Z</time>
      </trkpt>
      <trkpt lat="45.62561" lon="6.67726">
        <ele>1768.96</ele>
        <time>2011-03-05T14:14:22Z</time>
      </trkpt>
      <trkpt lat="45.62561" lon="6.67726">
        <ele>1774.25</ele>
        <time>2011-03-05T14:14:23Z</time>
      </trkpt>
      <trkpt lat="45.62561" lon="6.67726">
        <ele>1772.33</ele>
        <time>2011-03-05T14:14:50Z</time>
      </trkpt>
      <trkpt lat="45.62561" lon="6.67724">
        <ele>1772.81</ele>
        <time>2011-03-05T14:15:19Z</time>
      </trkpt>
      <trkpt lat="45.62561" lon="6.67724">
        <ele>1772.81</ele>
        <time>2011-03-05T14:15:46Z</time>
      </trkpt>
      <trkpt lat="45.62561" lon="6.67724">
        <ele>1772.33</ele>
        <time>2011-03-05T14:16:15Z</time>
      </trkpt>
      <trkpt lat="45.62561" lon="6.67724">
        <ele>1774.25</ele>
        <time>2011-03-05T14:16:36Z</time>
      </trkpt>
      <trkpt lat="45.62562" lon="6.67724">
        <ele>1774.25</ele>
        <time>2011-03-05T14:16:50Z</time>
      </trkpt>
      <trkpt lat="45.62567" lon="6.67719">
        <ele>1774.25</ele>
        <time>2011-03-05T14:17:00Z</time>
      </trkpt>
      <trkpt lat="45.6257" lon="6.67715">
        <ele>1773.77</ele>
        <time>2011-03-05T14:17:04Z</time>
      </trkpt>
      <trkpt lat="45.62577" lon="6.67706">
        <ele>1775.21</ele>
        <time>2011-03-05T14:17:15Z</time>
      </trkpt>
      <trkpt lat="45.62579" lon="6.67704">
        <ele>1775.21</ele>
        <time>2011-03-05T14:17:17Z</time>
      </trkpt>
      <trkpt lat="45.62582" lon="6.67699">
        <ele>1775.69</ele>
        <time>2011-03-05T14:17:24Z</time>
      </trkpt>
      <trkpt lat="45.62586" lon="6.67696">
        <ele>1776.65</ele>
        <time>2011-03-05T14:17:30Z</time>
      </trkpt>
      <trkpt lat="45.62594" lon="6.67693">
        <ele>1778.58</ele>
        <time>2011-03-05T14:17:40Z</time>
      </trkpt>
      <trkpt lat="45.62596" lon="6.67692">
        <ele>1778.58</ele>
        <time>2011-03-05T14:17:42Z</time>
      </trkpt>
      <trkpt lat="45.626" lon="6.67692">
        <ele>1780.02</ele>
        <time>2011-03-05T14:17:48Z</time>
      </trkpt>
      <trkpt lat="45.62602" lon="6.67692">
        <ele>1779.54</ele>
        <time>2011-03-05T14:17:50Z</time>
      </trkpt>
      <trkpt lat="45.62616" lon="6.67686">
        <ele>1782.9</ele>
        <time>2011-03-05T14:18:06Z</time>
      </trkpt>
      <trkpt lat="45.62627" lon="6.67681">
        <ele>1784.34</ele>
        <time>2011-03-05T14:18:19Z</time>
      </trkpt>
      <trkpt lat="45.62638" lon="6.67677">
        <ele>1785.79</ele>
        <time>2011-03-05T14:18:28Z</time>
      </trkpt>
      <trkpt lat="45.62651" lon="6.67672">
        <ele>1787.23</ele>
        <time>2011-03-05T14:18:43Z</time>
      </trkpt>
      <trkpt lat="45.62667" lon="6.6766">
        <ele>1790.11</ele>
        <time>2011-03-05T14:19:00Z</time>
      </trkpt>
      <trkpt lat="45.62677" lon="6.67651">
        <ele>1792.52</ele>
        <time>2011-03-05T14:19:13Z</time>
      </trkpt>
      <trkpt lat="45.62687" lon="6.67646">
        <ele>1794.44</ele>
        <time>2011-03-05T14:19:25Z</time>
      </trkpt>
      <trkpt lat="45.62698" lon="6.67643">
        <ele>1795.88</ele>
        <time>2011-03-05T14:19:38Z</time>
      </trkpt>
      <trkpt lat="45.62707" lon="6.67638">
        <ele>1798.28</ele>
        <time>2011-03-05T14:19:52Z</time>
      </trkpt>
      <trkpt lat="45.62708" lon="6.67638">
        <ele>1797.8</ele>
        <time>2011-03-05T14:19:54Z</time>
      </trkpt>
      <trkpt lat="45.62721" lon="6.67631">
        <ele>1799.73</ele>
        <time>2011-03-05T14:20:08Z</time>
      </trkpt>
      <trkpt lat="45.62725" lon="6.67631">
        <ele>1800.69</ele>
        <time>2011-03-05T14:20:13Z</time>
      </trkpt>
      <trkpt lat="45.62727" lon="6.67631">
        <ele>1801.17</ele>
        <time>2011-03-05T14:20:16Z</time>
      </trkpt>
      <trkpt lat="45.62738" lon="6.67624">
        <ele>1802.13</ele>
        <time>2011-03-05T14:20:31Z</time>
      </trkpt>
      <trkpt lat="45.6274" lon="6.67624">
        <ele>1802.61</ele>
        <time>2011-03-05T14:20:33Z</time>
      </trkpt>
      <trkpt lat="45.62753" lon="6.67619">
        <ele>1805.01</ele>
        <time>2011-03-05T14:20:47Z</time>
      </trkpt>
      <trkpt lat="45.62767" lon="6.67614">
        <ele>1806.94</ele>
        <time>2011-03-05T14:21:01Z</time>
      </trkpt>
      <trkpt lat="45.62777" lon="6.6761">
        <ele>1808.86</ele>
        <time>2011-03-05T14:21:13Z</time>
      </trkpt>
      <trkpt lat="45.6278" lon="6.67609">
        <ele>1808.86</ele>
        <time>2011-03-05T14:21:15Z</time>
      </trkpt>
      <trkpt lat="45.62788" lon="6.67606">
        <ele>1810.3</ele>
        <time>2011-03-05T14:21:26Z</time>
      </trkpt>
      <trkpt lat="45.62793" lon="6.67605">
        <ele>1810.78</ele>
        <time>2011-03-05T14:21:33Z</time>
      </trkpt>
      <trkpt lat="45.62795" lon="6.67604">
        <ele>1811.26</ele>
        <time>2011-03-05T14:21:35Z</time>
      </trkpt>
      <trkpt lat="45.62809" lon="6.67595">
        <ele>1813.18</ele>
        <time>2011-03-05T14:21:49Z</time>
      </trkpt>
      <trkpt lat="45.62824" lon="6.67589">
        <ele>1815.11</ele>
        <time>2011-03-05T14:22:06Z</time>
      </trkpt>
      <trkpt lat="45.62834" lon="6.67588">
        <ele>1817.99</ele>
        <time>2011-03-05T14:22:19Z</time>
      </trkpt>
      <trkpt lat="45.62836" lon="6.67585">
        <ele>1818.47</ele>
        <time>2011-03-05T14:22:23Z</time>
      </trkpt>
      <trkpt lat="45.62839" lon="6.67585">
        <ele>1818.95</ele>
        <time>2011-03-05T14:22:25Z</time>
      </trkpt>
      <trkpt lat="45.62849" lon="6.67578">
        <ele>1821.84</ele>
        <time>2011-03-05T14:22:39Z</time>
      </trkpt>
      <trkpt lat="45.6286" lon="6.67575">
        <ele>1822.32</ele>
        <time>2011-03-05T14:22:52Z</time>
      </trkpt>
      <trkpt lat="45.62872" lon="6.67574">
        <ele>1824.72</ele>
        <time>2011-03-05T14:23:07Z</time>
      </trkpt>
      <trkpt lat="45.6288" lon="6.67568">
        <ele>1825.68</ele>
        <time>2011-03-05T14:23:19Z</time>
      </trkpt>
      <trkpt lat="45.62887" lon="6.67566">
        <ele>1826.64</ele>
        <time>2011-03-05T14:23:30Z</time>
      </trkpt>
      <trkpt lat="45.62888" lon="6.67566">
        <ele>1827.12</ele>
        <time>2011-03-05T14:23:34Z</time>
      </trkpt>
      <trkpt lat="45.62903" lon="6.67564">
        <ele>1829.53</ele>
        <time>2011-03-05T14:23:50Z</time>
      </trkpt>
      <trkpt lat="45.62912" lon="6.67566">
        <ele>1831.45</ele>
        <time>2011-03-05T14:24:04Z</time>
      </trkpt>
      <trkpt lat="45.62922" lon="6.67565">
        <ele>1833.37</ele>
        <time>2011-03-05T14:24:15Z</time>
      </trkpt>
      <trkpt lat="45.62928" lon="6.67562">
        <ele>1834.81</ele>
        <time>2011-03-05T14:24:24Z</time>
      </trkpt>
      <trkpt lat="45.62941" lon="6.67561">
        <ele>1836.74</ele>
        <time>2011-03-05T14:24:39Z</time>
      </trkpt>
      <trkpt lat="45.62954" lon="6.67555">
        <ele>1837.7</ele>
        <time>2011-03-05T14:24:52Z</time>
      </trkpt>
      <trkpt lat="45.62962" lon="6.6755">
        <ele>1838.66</ele>
        <time>2011-03-05T14:25:01Z</time>
      </trkpt>
      <trkpt lat="45.62973" lon="6.67547">
        <ele>1840.58</ele>
        <time>2011-03-05T14:25:15Z</time>
      </trkpt>
      <trkpt lat="45.62988" lon="6.67546">
        <ele>1842.98</ele>
        <time>2011-03-05T14:25:30Z</time>
      </trkpt>
      <trkpt lat="45.62994" lon="6.67544">
        <ele>1845.39</ele>
        <time>2011-03-05T14:25:44Z</time>
      </trkpt>
      <trkpt lat="45.63003" lon="6.67538">
        <ele>1845.87</ele>
        <time>2011-03-05T14:26:00Z</time>
      </trkpt>
      <trkpt lat="45.6302" lon="6.67528">
        <ele>1848.27</ele>
        <time>2011-03-05T14:26:18Z</time>
      </trkpt>
      <trkpt lat="45.63031" lon="6.67521">
        <ele>1849.71</ele>
        <time>2011-03-05T14:26:31Z</time>
      </trkpt>
      <trkpt lat="45.63037" lon="6.67517">
        <ele>1850.68</ele>
        <time>2011-03-05T14:26:37Z</time>
      </trkpt>
      <trkpt lat="45.63039" lon="6.67517">
        <ele>1851.16</ele>
        <time>2011-03-05T14:26:39Z</time>
      </trkpt>
      <trkpt lat="45.63052" lon="6.67507">
        <ele>1853.08</ele>
        <time>2011-03-05T14:26:55Z</time>
      </trkpt>
      <trkpt lat="45.63057" lon="6.67503">
        <ele>1854.52</ele>
        <time>2011-03-05T14:27:02Z</time>
      </trkpt>
      <trkpt lat="45.63068" lon="6.67488">
        <ele>1856.44</ele>
        <time>2011-03-05T14:27:17Z</time>
      </trkpt>
      <trkpt lat="45.6308" lon="6.6748">
        <ele>1858.85</ele>
        <time>2011-03-05T14:27:33Z</time>
      </trkpt>
      <trkpt lat="45.63084" lon="6.67476">
        <ele>1859.81</ele>
        <time>2011-03-05T14:27:38Z</time>
      </trkpt>
      <trkpt lat="45.63089" lon="6.67471">
        <ele>1860.29</ele>
        <time>2011-03-05T14:27:45Z</time>
      </trkpt>
      <trkpt lat="45.63096" lon="6.67463">
        <ele>1861.73</ele>
        <time>2011-03-05T14:27:57Z</time>
      </trkpt>
      <trkpt lat="45.63107" lon="6.67455">
        <ele>1864.13</ele>
        <time>2011-03-05T14:28:12Z</time>
      </trkpt>
      <trkpt lat="45.63113" lon="6.67451">
        <ele>1865.09</ele>
        <time>2011-03-05T14:28:20Z</time>
      </trkpt>
      <trkpt lat="45.63122" lon="6.67445">
        <ele>1865.58</ele>
        <time>2011-03-05T14:28:30Z</time>
      </trkpt>
      <trkpt lat="45.63126" lon="6.67443">
        <ele>1867.02</ele>
        <time>2011-03-05T14:28:36Z</time>
      </trkpt>
      <trkpt lat="45.63138" lon="6.67442">
        <ele>1868.46</ele>
        <time>2011-03-05T14:28:50Z</time>
      </trkpt>
      <trkpt lat="45.63147" lon="6.67438">
        <ele>1868.94</ele>
        <time>2011-03-05T14:29:01Z</time>
      </trkpt>
      <trkpt lat="45.63148" lon="6.67437">
        <ele>1868.94</ele>
        <time>2011-03-05T14:29:03Z</time>
      </trkpt>
      <trkpt lat="45.63157" lon="6.67427">
        <ele>1871.34</ele>
        <time>2011-03-05T14:29:18Z</time>
      </trkpt>
      <trkpt lat="45.63165" lon="6.67424">
        <ele>1873.75</ele>
        <time>2011-03-05T14:29:32Z</time>
      </trkpt>
      <trkpt lat="45.63175" lon="6.67431">
        <ele>1876.63</ele>
        <time>2011-03-05T14:29:46Z</time>
      </trkpt>
      <trkpt lat="45.63181" lon="6.67443">
        <ele>1878.55</ele>
        <time>2011-03-05T14:30:00Z</time>
      </trkpt>
      <trkpt lat="45.63193" lon="6.67454">
        <ele>1880.96</ele>
        <time>2011-03-05T14:30:15Z</time>
      </trkpt>
      <trkpt lat="45.63202" lon="6.67459">
        <ele>1883.36</ele>
        <time>2011-03-05T14:30:27Z</time>
      </trkpt>
      <trkpt lat="45.63208" lon="6.67457">
        <ele>1884.32</ele>
        <time>2011-03-05T14:30:34Z</time>
      </trkpt>
      <trkpt lat="45.63218" lon="6.67453">
        <ele>1885.76</ele>
        <time>2011-03-05T14:30:47Z</time>
      </trkpt>
      <trkpt lat="45.63226" lon="6.67449">
        <ele>1888.17</ele>
        <time>2011-03-05T14:30:59Z</time>
      </trkpt>
      <trkpt lat="45.63233" lon="6.67449">
        <ele>1890.09</ele>
        <time>2011-03-05T14:31:12Z</time>
      </trkpt>
      <trkpt lat="45.63233" lon="6.67449">
        <ele>1890.57</ele>
        <time>2011-03-05T14:31:28Z</time>
      </trkpt>
      <trkpt lat="45.63231" lon="6.67449">
        <ele>1888.65</ele>
        <time>2011-03-05T14:31:44Z</time>
      </trkpt>
      <trkpt lat="45.63231" lon="6.67449">
        <ele>1889.13</ele>
        <time>2011-03-05T14:32:05Z</time>
      </trkpt>
      <trkpt lat="45.63231" lon="6.6745">
        <ele>1890.09</ele>
        <time>2011-03-05T14:32:31Z</time>
      </trkpt>
      <trkpt lat="45.63231" lon="6.6745">
        <ele>1890.09</ele>
        <time>2011-03-05T14:32:32Z</time>
      </trkpt>
      <trkpt lat="45.63231" lon="6.6745">
        <ele>1888.65</ele>
        <time>2011-03-05T14:32:52Z</time>
      </trkpt>
      <trkpt lat="45.63231" lon="6.6745">
        <ele>1888.17</ele>
        <time>2011-03-05T14:33:21Z</time>
      </trkpt>
      <trkpt lat="45.63231" lon="6.67451">
        <ele>1888.65</ele>
        <time>2011-03-05T14:33:54Z</time>
      </trkpt>
      <trkpt lat="45.63232" lon="6.67451">
        <ele>1888.65</ele>
        <time>2011-03-05T14:34:26Z</time>
      </trkpt>
      <trkpt lat="45.63232" lon="6.67451">
        <ele>1888.65</ele>
        <time>2011-03-05T14:34:55Z</time>
      </trkpt>
      <trkpt lat="45.63231" lon="6.67447">
        <ele>1889.13</ele>
        <time>2011-03-05T14:35:26Z</time>
      </trkpt>
      <trkpt lat="45.63232" lon="6.67448">
        <ele>1889.13</ele>
        <time>2011-03-05T14:35:30Z</time>
      </trkpt>
      <trkpt lat="45.63232" lon="6.67448">
        <ele>1889.13</ele>
        <time>2011-03-05T14:35:47Z</time>
      </trkpt>
      <trkpt lat="45.63232" lon="6.67448">
        <ele>1889.13</ele>
        <time>2011-03-05T14:36:08Z</time>
      </trkpt>
      <trkpt lat="45.63242" lon="6.67447">
        <ele>1891.05</ele>
        <time>2011-03-05T14:36:24Z</time>
      </trkpt>
      <trkpt lat="45.63247" lon="6.67447">
        <ele>1892.49</ele>
        <time>2011-03-05T14:36:38Z</time>
      </trkpt>
      <trkpt lat="45.63257" lon="6.67446">
        <ele>1894.9</ele>
        <time>2011-03-05T14:36:50Z</time>
      </trkpt>
      <trkpt lat="45.6326" lon="6.67444">
        <ele>1894.9</ele>
        <time>2011-03-05T14:36:53Z</time>
      </trkpt>
      <trkpt lat="45.63271" lon="6.67432">
        <ele>1897.78</ele>
        <time>2011-03-05T14:37:07Z</time>
      </trkpt>
      <trkpt lat="45.63282" lon="6.67423">
        <ele>1900.18</ele>
        <time>2011-03-05T14:37:20Z</time>
      </trkpt>
      <trkpt lat="45.63293" lon="6.67422">
        <ele>1903.07</ele>
        <time>2011-03-05T14:37:31Z</time>
      </trkpt>
      <trkpt lat="45.63294" lon="6.67422">
        <ele>1903.55</ele>
        <time>2011-03-05T14:37:33Z</time>
      </trkpt>
      <trkpt lat="45.63305" lon="6.67425">
        <ele>1906.43</ele>
        <time>2011-03-05T14:37:47Z</time>
      </trkpt>
      <trkpt lat="45.63314" lon="6.67434">
        <ele>1908.83</ele>
        <time>2011-03-05T14:38:00Z</time>
      </trkpt>
      <trkpt lat="45.63324" lon="6.67442">
        <ele>1911.72</ele>
        <time>2011-03-05T14:38:16Z</time>
      </trkpt>
      <trkpt lat="45.63329" lon="6.67443">
        <ele>1911.72</ele>
        <time>2011-03-05T14:38:23Z</time>
      </trkpt>
      <trkpt lat="45.63332" lon="6.67441">
        <ele>1911.72</ele>
        <time>2011-03-05T14:38:26Z</time>
      </trkpt>
      <trkpt lat="45.63337" lon="6.67428">
        <ele>1913.64</ele>
        <time>2011-03-05T14:38:39Z</time>
      </trkpt>
      <trkpt lat="45.63345" lon="6.67413">
        <ele>1915.08</ele>
        <time>2011-03-05T14:38:54Z</time>
      </trkpt>
      <trkpt lat="45.63351" lon="6.67405">
        <ele>1917.49</ele>
        <time>2011-03-05T14:39:06Z</time>
      </trkpt>
      <trkpt lat="45.63355" lon="6.674">
        <ele>1918.45</ele>
        <time>2011-03-05T14:39:14Z</time>
      </trkpt>
      <trkpt lat="45.6336" lon="6.67406">
        <ele>1919.89</ele>
        <time>2011-03-05T14:39:22Z</time>
      </trkpt>
      <trkpt lat="45.63373" lon="6.67403">
        <ele>1921.33</ele>
        <time>2011-03-05T14:39:37Z</time>
      </trkpt>
      <trkpt lat="45.63383" lon="6.67404">
        <ele>1922.77</ele>
        <time>2011-03-05T14:39:50Z</time>
      </trkpt>
      <trkpt lat="45.63388" lon="6.67401">
        <ele>1922.77</ele>
        <time>2011-03-05T14:39:58Z</time>
      </trkpt>
      <trkpt lat="45.63397" lon="6.67389">
        <ele>1925.18</ele>
        <time>2011-03-05T14:40:11Z</time>
      </trkpt>
      <trkpt lat="45.63403" lon="6.67379">
        <ele>1926.14</ele>
        <time>2011-03-05T14:40:23Z</time>
      </trkpt>
      <trkpt lat="45.63406" lon="6.67372">
        <ele>1926.62</ele>
        <time>2011-03-05T14:40:29Z</time>
      </trkpt>
      <trkpt lat="45.63408" lon="6.67362">
        <ele>1928.06</ele>
        <time>2011-03-05T14:40:37Z</time>
      </trkpt>
      <trkpt lat="45.63408" lon="6.67346">
        <ele>1929.98</ele>
        <time>2011-03-05T14:40:50Z</time>
      </trkpt>
      <trkpt lat="45.63412" lon="6.67331">
        <ele>1931.43</ele>
        <time>2011-03-05T14:41:05Z</time>
      </trkpt>
      <trkpt lat="45.63417" lon="6.67319">
        <ele>1933.83</ele>
        <time>2011-03-05T14:41:18Z</time>
      </trkpt>
      <trkpt lat="45.63421" lon="6.67303">
        <ele>1935.75</ele>
        <time>2011-03-05T14:41:31Z</time>
      </trkpt>
      <trkpt lat="45.63421" lon="6.67299">
        <ele>1935.75</ele>
        <time>2011-03-05T14:41:34Z</time>
      </trkpt>
      <trkpt lat="45.63422" lon="6.67293">
        <ele>1937.19</ele>
        <time>2011-03-05T14:41:40Z</time>
      </trkpt>
      <trkpt lat="45.63422" lon="6.67289">
        <ele>1937.19</ele>
        <time>2011-03-05T14:41:43Z</time>
      </trkpt>
      <trkpt lat="45.63419" lon="6.67278">
        <ele>1938.64</ele>
        <time>2011-03-05T14:41:53Z</time>
      </trkpt>
      <trkpt lat="45.63416" lon="6.67267">
        <ele>1939.12</ele>
        <time>2011-03-05T14:42:04Z</time>
      </trkpt>
      <trkpt lat="45.63415" lon="6.67254">
        <ele>1941.04</ele>
        <time>2011-03-05T14:42:16Z</time>
      </trkpt>
      <trkpt lat="45.6341" lon="6.67238">
        <ele>1942.96</ele>
        <time>2011-03-05T14:42:31Z</time>
      </trkpt>
      <trkpt lat="45.63404" lon="6.67224">
        <ele>1943.92</ele>
        <time>2011-03-05T14:42:44Z</time>
      </trkpt>
      <trkpt lat="45.63399" lon="6.67212">
        <ele>1945.36</ele>
        <time>2011-03-05T14:42:56Z</time>
      </trkpt>
      <trkpt lat="45.63396" lon="6.67205">
        <ele>1946.81</ele>
        <time>2011-03-05T14:43:04Z</time>
      </trkpt>
      <trkpt lat="45.63395" lon="6.67187">
        <ele>1948.73</ele>
        <time>2011-03-05T14:43:18Z</time>
      </trkpt>
      <trkpt lat="45.63393" lon="6.67175">
        <ele>1950.17</ele>
        <time>2011-03-05T14:43:30Z</time>
      </trkpt>
      <trkpt lat="45.63393" lon="6.67173">
        <ele>1950.65</ele>
        <time>2011-03-05T14:43:34Z</time>
      </trkpt>
      <trkpt lat="45.63387" lon="6.67161">
        <ele>1952.09</ele>
        <time>2011-03-05T14:43:46Z</time>
      </trkpt>
      <trkpt lat="45.63384" lon="6.67156">
        <ele>1952.57</ele>
        <time>2011-03-05T14:43:51Z</time>
      </trkpt>
      <trkpt lat="45.63376" lon="6.67144">
        <ele>1954.02</ele>
        <time>2011-03-05T14:44:06Z</time>
      </trkpt>
      <trkpt lat="45.63369" lon="6.67131">
        <ele>1954.02</ele>
        <time>2011-03-05T14:44:19Z</time>
      </trkpt>
      <trkpt lat="45.63369" lon="6.6713">
        <ele>1954.98</ele>
        <time>2011-03-05T14:44:20Z</time>
      </trkpt>
      <trkpt lat="45.63368" lon="6.67128">
        <ele>1954.5</ele>
        <time>2011-03-05T14:44:22Z</time>
      </trkpt>
      <trkpt lat="45.63366" lon="6.67126">
        <ele>1955.94</ele>
        <time>2011-03-05T14:44:25Z</time>
      </trkpt>
      <trkpt lat="45.63363" lon="6.67121">
        <ele>1956.9</ele>
        <time>2011-03-05T14:44:32Z</time>
      </trkpt>
      <trkpt lat="45.63356" lon="6.67105">
        <ele>1958.34</ele>
        <time>2011-03-05T14:44:47Z</time>
      </trkpt>
      <trkpt lat="45.6335" lon="6.67092">
        <ele>1960.75</ele>
        <time>2011-03-05T14:45:01Z</time>
      </trkpt>
      <trkpt lat="45.63347" lon="6.67081">
        <ele>1963.15</ele>
        <time>2011-03-05T14:45:15Z</time>
      </trkpt>
      <trkpt lat="45.63343" lon="6.67068">
        <ele>1966.03</ele>
        <time>2011-03-05T14:45:30Z</time>
      </trkpt>
      <trkpt lat="45.6334" lon="6.67062">
        <ele>1968.44</ele>
        <time>2011-03-05T14:45:39Z</time>
      </trkpt>
      <trkpt lat="45.63335" lon="6.67057">
        <ele>1970.36</ele>
        <time>2011-03-05T14:45:48Z</time>
      </trkpt>
      <trkpt lat="45.63327" lon="6.67055">
        <ele>1973.72</ele>
        <time>2011-03-05T14:46:01Z</time>
      </trkpt>
      <trkpt lat="45.63319" lon="6.6705">
        <ele>1976.61</ele>
        <time>2011-03-05T14:46:15Z</time>
      </trkpt>
      <trkpt lat="45.63319" lon="6.67049">
        <ele>1976.61</ele>
        <time>2011-03-05T14:46:16Z</time>
      </trkpt>
      <trkpt lat="45.63316" lon="6.67048">
        <ele>1977.57</ele>
        <time>2011-03-05T14:46:20Z</time>
      </trkpt>
      <trkpt lat="45.6331" lon="6.67039">
        <ele>1979.49</ele>
        <time>2011-03-05T14:46:34Z</time>
      </trkpt>
      <trkpt lat="45.63304" lon="6.67028">
        <ele>1981.41</ele>
        <time>2011-03-05T14:46:48Z</time>
      </trkpt>
      <trkpt lat="45.63297" lon="6.67018">
        <ele>1983.82</ele>
        <time>2011-03-05T14:47:02Z</time>
      </trkpt>
      <trkpt lat="45.63291" lon="6.67008">
        <ele>1986.22</ele>
        <time>2011-03-05T14:47:15Z</time>
      </trkpt>
      <trkpt lat="45.63283" lon="6.67">
        <ele>1988.14</ele>
        <time>2011-03-05T14:47:29Z</time>
      </trkpt>
      <trkpt lat="45.6328" lon="6.66999">
        <ele>1988.62</ele>
        <time>2011-03-05T14:47:33Z</time>
      </trkpt>
      <trkpt lat="45.63272" lon="6.66991">
        <ele>1991.51</ele>
        <time>2011-03-05T14:47:48Z</time>
      </trkpt>
      <trkpt lat="45.63263" lon="6.66979">
        <ele>1993.43</ele>
        <time>2011-03-05T14:48:03Z</time>
      </trkpt>
      <trkpt lat="45.63262" lon="6.66976">
        <ele>1993.91</ele>
        <time>2011-03-05T14:48:06Z</time>
      </trkpt>
      <trkpt lat="45.63254" lon="6.66965">
        <ele>1995.35</ele>
        <time>2011-03-05T14:48:20Z</time>
      </trkpt>
      <trkpt lat="45.63245" lon="6.66956">
        <ele>1997.28</ele>
        <time>2011-03-05T14:48:34Z</time>
      </trkpt>
      <trkpt lat="45.63244" lon="6.66953">
        <ele>1998.24</ele>
        <time>2011-03-05T14:48:38Z</time>
      </trkpt>
      <trkpt lat="45.63239" lon="6.66947">
        <ele>1999.68</ele>
        <time>2011-03-05T14:48:45Z</time>
      </trkpt>
      <trkpt lat="45.63236" lon="6.66944">
        <ele>2000.64</ele>
        <time>2011-03-05T14:48:48Z</time>
      </trkpt>
      <trkpt lat="45.63228" lon="6.66938">
        <ele>2001.6</ele>
        <time>2011-03-05T14:49:01Z</time>
      </trkpt>
      <trkpt lat="45.63222" lon="6.66933">
        <ele>2004.97</ele>
        <time>2011-03-05T14:49:13Z</time>
      </trkpt>
      <trkpt lat="45.63213" lon="6.66923">
        <ele>2005.45</ele>
        <time>2011-03-05T14:49:28Z</time>
      </trkpt>
      <trkpt lat="45.63211" lon="6.66913">
        <ele>2007.85</ele>
        <time>2011-03-05T14:49:42Z</time>
      </trkpt>
      <trkpt lat="45.63212" lon="6.66908">
        <ele>2008.33</ele>
        <time>2011-03-05T14:49:57Z</time>
      </trkpt>
      <trkpt lat="45.63212" lon="6.66908">
        <ele>2008.33</ele>
        <time>2011-03-05T14:50:16Z</time>
      </trkpt>
      <trkpt lat="45.63212" lon="6.66908">
        <ele>2008.33</ele>
        <time>2011-03-05T14:50:34Z</time>
      </trkpt>
      <trkpt lat="45.63218" lon="6.66907">
        <ele>2006.89</ele>
        <time>2011-03-05T14:50:45Z</time>
      </trkpt>
      <trkpt lat="45.63218" lon="6.66906">
        <ele>2007.37</ele>
        <time>2011-03-05T14:51:04Z</time>
      </trkpt>
      <trkpt lat="45.63218" lon="6.66906">
        <ele>2006.41</ele>
        <time>2011-03-05T14:51:31Z</time>
      </trkpt>
      <trkpt lat="45.63219" lon="6.66906">
        <ele>2006.41</ele>
        <time>2011-03-05T14:52:01Z</time>
      </trkpt>
      <trkpt lat="45.63219" lon="6.66906">
        <ele>2006.41</ele>
        <time>2011-03-05T14:52:31Z</time>
      </trkpt>
      <trkpt lat="45.63221" lon="6.66905">
        <ele>2006.41</ele>
        <time>2011-03-05T14:53:01Z</time>
      </trkpt>
      <trkpt lat="45.63221" lon="6.66905">
        <ele>2005.93</ele>
        <time>2011-03-05T14:53:29Z</time>
      </trkpt>
      <trkpt lat="45.63221" lon="6.66905">
        <ele>2006.41</ele>
        <time>2011-03-05T14:53:57Z</time>
      </trkpt>
      <trkpt lat="45.63222" lon="6.66905">
        <ele>2006.41</ele>
        <time>2011-03-05T14:54:26Z</time>
      </trkpt>
      <trkpt lat="45.63221" lon="6.66906">
        <ele>2005.93</ele>
        <time>2011-03-05T14:55:01Z</time>
      </trkpt>
      <trkpt lat="45.63221" lon="6.66906">
        <ele>2005.93</ele>
        <time>2011-03-05T14:55:32Z</time>
      </trkpt>
      <trkpt lat="45.63221" lon="6.66906">
        <ele>2005.93</ele>
        <time>2011-03-05T14:56:00Z</time>
      </trkpt>
      <trkpt lat="45.63221" lon="6.66906">
        <ele>2005.93</ele>
        <time>2011-03-05T14:56:29Z</time>
      </trkpt>
      <trkpt lat="45.63222" lon="6.66903">
        <ele>2006.89</ele>
        <time>2011-03-05T14:56:52Z</time>
      </trkpt>
      <trkpt lat="45.63222" lon="6.66903">
        <ele>2003.52</ele>
        <time>2011-03-05T14:56:56Z</time>
      </trkpt>
      <trkpt lat="45.63222" lon="6.66903">
        <ele>2006.89</ele>
        <time>2011-03-05T14:56:57Z</time>
      </trkpt>
      <trkpt lat="45.63222" lon="6.66903">
        <ele>2005.45</ele>
        <time>2011-03-05T14:57:02Z</time>
      </trkpt>
      <trkpt lat="45.63222" lon="6.66903">
        <ele>2006.89</ele>
        <time>2011-03-05T14:57:05Z</time>
      </trkpt>
      <trkpt lat="45.63221" lon="6.66896">
        <ele>2003.04</ele>
        <time>2011-03-05T14:57:17Z</time>
      </trkpt>
      <trkpt lat="45.63221" lon="6.66895">
        <ele>2006.89</ele>
        <time>2011-03-05T14:57:18Z</time>
      </trkpt>
      <trkpt lat="45.63222" lon="6.66887">
        <ele>2008.33</ele>
        <time>2011-03-05T14:57:30Z</time>
      </trkpt>
      <trkpt lat="45.63222" lon="6.66887">
        <ele>2006.41</ele>
        <time>2011-03-05T14:57:31Z</time>
      </trkpt>
      <trkpt lat="45.63222" lon="6.66887">
        <ele>2006.89</ele>
        <time>2011-03-05T14:57:33Z</time>
      </trkpt>
      <trkpt lat="45.63215" lon="6.66888">
        <ele>2004.97</ele>
        <time>2011-03-05T14:57:51Z</time>
      </trkpt>
      <trkpt lat="45.63215" lon="6.66888">
        <ele>2009.29</ele>
        <time>2011-03-05T14:57:52Z</time>
      </trkpt>
      <trkpt lat="45.63215" lon="6.66888">
        <ele>2006.89</ele>
        <time>2011-03-05T14:57:53Z</time>
      </trkpt>
      <trkpt lat="45.63215" lon="6.66888">
        <ele>2006.41</ele>
        <time>2011-03-05T14:57:55Z</time>
      </trkpt>
      <trkpt lat="45.63222" lon="6.66895">
        <ele>2005.93</ele>
        <time>2011-03-05T14:58:17Z</time>
      </trkpt>
      <trkpt lat="45.63222" lon="6.66892">
        <ele>2006.41</ele>
        <time>2011-03-05T14:58:35Z</time>
      </trkpt>
      <trkpt lat="45.63223" lon="6.66893">
        <ele>2007.37</ele>
        <time>2011-03-05T14:58:40Z</time>
      </trkpt>
      <trkpt lat="45.63223" lon="6.66894">
        <ele>2004.97</ele>
        <time>2011-03-05T14:58:42Z</time>
      </trkpt>
      <trkpt lat="45.63226" lon="6.66904">
        <ele>2005.93</ele>
        <time>2011-03-05T14:59:04Z</time>
      </trkpt>
      <trkpt lat="45.63226" lon="6.66905">
        <ele>2000.64</ele>
        <time>2011-03-05T14:59:06Z</time>
      </trkpt>
      <trkpt lat="45.63226" lon="6.66905">
        <ele>2008.81</ele>
        <time>2011-03-05T14:59:07Z</time>
      </trkpt>
      <trkpt lat="45.63227" lon="6.66905">
        <ele>2002.08</ele>
        <time>2011-03-05T14:59:11Z</time>
      </trkpt>
      <trkpt lat="45.63227" lon="6.66905">
        <ele>2007.37</ele>
        <time>2011-03-05T14:59:12Z</time>
      </trkpt>
      <trkpt lat="45.63227" lon="6.66905">
        <ele>2013.62</ele>
        <time>2011-03-05T14:59:18Z</time>
      </trkpt>
      <trkpt lat="45.63227" lon="6.66905">
        <ele>2007.37</ele>
        <time>2011-03-05T14:59:19Z</time>
      </trkpt>
      <trkpt lat="45.63228" lon="6.66907">
        <ele>2005.93</ele>
        <time>2011-03-05T14:59:42Z</time>
      </trkpt>
      <trkpt lat="45.63201" lon="6.66918">
        <ele>2003.04</ele>
        <time>2011-03-05T15:24:28Z</time>
      </trkpt>
      <trkpt lat="45.63206" lon="6.66913">
        <ele>2006.89</ele>
        <time>2011-03-05T15:24:39Z</time>
      </trkpt>
      <trkpt lat="45.63205" lon="6.66914">
        <ele>2006.41</ele>
        <time>2011-03-05T15:24:40Z</time>
      </trkpt>
      <trkpt lat="45.63207" lon="6.66914">
        <ele>2009.29</ele>
        <time>2011-03-05T15:24:45Z</time>
      </trkpt>
      <trkpt lat="45.63207" lon="6.66914">
        <ele>2005.93</ele>
        <time>2011-03-05T15:24:48Z</time>
      </trkpt>
      <trkpt lat="45.63207" lon="6.66914">
        <ele>2006.89</ele>
        <time>2011-03-05T15:24:52Z</time>
      </trkpt>
      <trkpt lat="45.63209" lon="6.66913">
        <ele>2005.45</ele>
        <time>2011-03-05T15:24:59Z</time>
      </trkpt>
      <trkpt lat="45.63209" lon="6.66913">
        <ele>2006.89</ele>
        <time>2011-03-05T15:25:01Z</time>
      </trkpt>
      <trkpt lat="45.63209" lon="6.66914">
        <ele>2006.89</ele>
        <time>2011-03-05T15:25:18Z</time>
      </trkpt>
      <trkpt lat="45.63211" lon="6.66913">
        <ele>2005.93</ele>
        <time>2011-03-05T15:25:24Z</time>
      </trkpt>
      <trkpt lat="45.63212" lon="6.66911">
        <ele>2007.37</ele>
        <time>2011-03-05T15:25:26Z</time>
      </trkpt>
      <trkpt lat="45.63213" lon="6.66912">
        <ele>2007.37</ele>
        <time>2011-03-05T15:25:39Z</time>
      </trkpt>
      <trkpt lat="45.63214" lon="6.6691">
        <ele>2007.37</ele>
        <time>2011-03-05T15:25:52Z</time>
      </trkpt>
      <trkpt lat="45.63211" lon="6.66912">
        <ele>2006.41</ele>
        <time>2011-03-05T15:26:06Z</time>
      </trkpt>
      <trkpt lat="45.63212" lon="6.6691">
        <ele>2007.37</ele>
        <time>2011-03-05T15:26:22Z</time>
      </trkpt>
      <trkpt lat="45.63209" lon="6.66902">
        <ele>2008.81</ele>
        <time>2011-03-05T15:26:32Z</time>
      </trkpt>
      <trkpt lat="45.63194" lon="6.66882">
        <ele>2009.77</ele>
        <time>2011-03-05T15:26:47Z</time>
      </trkpt>
      <trkpt lat="45.63181" lon="6.66869">
        <ele>2012.18</ele>
        <time>2011-03-05T15:27:00Z</time>
      </trkpt>
      <trkpt lat="45.63177" lon="6.66868">
        <ele>2011.22</ele>
        <time>2011-03-05T15:27:04Z</time>
      </trkpt>
      <trkpt lat="45.6317" lon="6.66862">
        <ele>2009.77</ele>
        <time>2011-03-05T15:27:10Z</time>
      </trkpt>
      <trkpt lat="45.63165" lon="6.66863">
        <ele>2011.22</ele>
        <time>2011-03-05T15:27:19Z</time>
      </trkpt>
      <trkpt lat="45.63158" lon="6.66843">
        <ele>2012.66</ele>
        <time>2011-03-05T15:27:33Z</time>
      </trkpt>
      <trkpt lat="45.63148" lon="6.66828">
        <ele>2015.54</ele>
        <time>2011-03-05T15:27:48Z</time>
      </trkpt>
      <trkpt lat="45.63142" lon="6.66822">
        <ele>2016.02</ele>
        <time>2011-03-05T15:27:54Z</time>
      </trkpt>
      <trkpt lat="45.63135" lon="6.66825">
        <ele>2018.43</ele>
        <time>2011-03-05T15:28:04Z</time>
      </trkpt>
      <trkpt lat="45.63126" lon="6.6683">
        <ele>2020.83</ele>
        <time>2011-03-05T15:28:15Z</time>
      </trkpt>
      <trkpt lat="45.63123" lon="6.66828">
        <ele>2022.27</ele>
        <time>2011-03-05T15:28:20Z</time>
      </trkpt>
      <trkpt lat="45.63115" lon="6.66815">
        <ele>2025.64</ele>
        <time>2011-03-05T15:28:35Z</time>
      </trkpt>
      <trkpt lat="45.63108" lon="6.66811">
        <ele>2028.04</ele>
        <time>2011-03-05T15:28:49Z</time>
      </trkpt>
      <trkpt lat="45.63102" lon="6.66816">
        <ele>2030.44</ele>
        <time>2011-03-05T15:29:01Z</time>
      </trkpt>
      <trkpt lat="45.63095" lon="6.66819">
        <ele>2033.33</ele>
        <time>2011-03-05T15:29:13Z</time>
      </trkpt>
      <trkpt lat="45.63088" lon="6.66815">
        <ele>2035.25</ele>
        <time>2011-03-05T15:29:26Z</time>
      </trkpt>
      <trkpt lat="45.63085" lon="6.66803">
        <ele>2038.13</ele>
        <time>2011-03-05T15:29:39Z</time>
      </trkpt>
      <trkpt lat="45.63082" lon="6.66792">
        <ele>2039.57</ele>
        <time>2011-03-05T15:29:51Z</time>
      </trkpt>
      <trkpt lat="45.63079" lon="6.66783">
        <ele>2042.46</ele>
        <time>2011-03-05T15:30:04Z</time>
      </trkpt>
      <trkpt lat="45.63077" lon="6.66783">
        <ele>2043.42</ele>
        <time>2011-03-05T15:30:14Z</time>
      </trkpt>
      <trkpt lat="45.63073" lon="6.66787">
        <ele>2045.82</ele>
        <time>2011-03-05T15:30:26Z</time>
      </trkpt>
      <trkpt lat="45.63069" lon="6.66788">
        <ele>2048.23</ele>
        <time>2011-03-05T15:30:39Z</time>
      </trkpt>
      <trkpt lat="45.63067" lon="6.66777">
        <ele>2050.63</ele>
        <time>2011-03-05T15:30:53Z</time>
      </trkpt>
      <trkpt lat="45.63064" lon="6.66765">
        <ele>2053.99</ele>
        <time>2011-03-05T15:31:07Z</time>
      </trkpt>
      <trkpt lat="45.63061" lon="6.66755">
        <ele>2056.4</ele>
        <time>2011-03-05T15:31:20Z</time>
      </trkpt>
      <trkpt lat="45.6306" lon="6.66755">
        <ele>2057.84</ele>
        <time>2011-03-05T15:31:24Z</time>
      </trkpt>
      <trkpt lat="45.63059" lon="6.66758">
        <ele>2058.8</ele>
        <time>2011-03-05T15:31:33Z</time>
      </trkpt>
      <trkpt lat="45.63055" lon="6.66764">
        <ele>2060.72</ele>
        <time>2011-03-05T15:31:45Z</time>
      </trkpt>
      <trkpt lat="45.63052" lon="6.66768">
        <ele>2062.65</ele>
        <time>2011-03-05T15:31:56Z</time>
      </trkpt>
      <trkpt lat="45.63046" lon="6.66774">
        <ele>2064.57</ele>
        <time>2011-03-05T15:32:08Z</time>
      </trkpt>
      <trkpt lat="45.63043" lon="6.6678">
        <ele>2067.45</ele>
        <time>2011-03-05T15:32:19Z</time>
      </trkpt>
      <trkpt lat="45.6304" lon="6.66782">
        <ele>2069.86</ele>
        <time>2011-03-05T15:32:33Z</time>
      </trkpt>
      <trkpt lat="45.63034" lon="6.66787">
        <ele>2072.26</ele>
        <time>2011-03-05T15:32:47Z</time>
      </trkpt>
      <trkpt lat="45.63028" lon="6.6679">
        <ele>2074.66</ele>
        <time>2011-03-05T15:32:59Z</time>
      </trkpt>
      <trkpt lat="45.63023" lon="6.66794">
        <ele>2074.66</ele>
        <time>2011-03-05T15:33:10Z</time>
      </trkpt>
      <trkpt lat="45.63023" lon="6.66785">
        <ele>2077.55</ele>
        <time>2011-03-05T15:33:21Z</time>
      </trkpt>
      <trkpt lat="45.63024" lon="6.66782">
        <ele>2078.03</ele>
        <time>2011-03-05T15:33:25Z</time>
      </trkpt>
      <trkpt lat="45.63024" lon="6.66772">
        <ele>2080.43</ele>
        <time>2011-03-05T15:33:39Z</time>
      </trkpt>
      <trkpt lat="45.63024" lon="6.66765">
        <ele>2082.83</ele>
        <time>2011-03-05T15:33:52Z</time>
      </trkpt>
      <trkpt lat="45.63023" lon="6.66756">
        <ele>2084.28</ele>
        <time>2011-03-05T15:34:05Z</time>
      </trkpt>
      <trkpt lat="45.63021" lon="6.66749">
        <ele>2086.2</ele>
        <time>2011-03-05T15:34:17Z</time>
      </trkpt>
      <trkpt lat="45.6302" lon="6.6675">
        <ele>2086.2</ele>
        <time>2011-03-05T15:34:28Z</time>
      </trkpt>
      <trkpt lat="45.63016" lon="6.66756">
        <ele>2088.12</ele>
        <time>2011-03-05T15:34:38Z</time>
      </trkpt>
      <trkpt lat="45.63011" lon="6.66761">
        <ele>2090.04</ele>
        <time>2011-03-05T15:34:50Z</time>
      </trkpt>
      <trkpt lat="45.63007" lon="6.66763">
        <ele>2090.52</ele>
        <time>2011-03-05T15:35:00Z</time>
      </trkpt>
      <trkpt lat="45.63004" lon="6.66762">
        <ele>2092.93</ele>
        <time>2011-03-05T15:35:11Z</time>
      </trkpt>
      <trkpt lat="45.63004" lon="6.66757">
        <ele>2094.85</ele>
        <time>2011-03-05T15:35:24Z</time>
      </trkpt>
      <trkpt lat="45.63004" lon="6.66748">
        <ele>2097.25</ele>
        <time>2011-03-05T15:35:38Z</time>
      </trkpt>
      <trkpt lat="45.63004" lon="6.66746">
        <ele>2097.73</ele>
        <time>2011-03-05T15:35:48Z</time>
      </trkpt>
      <trkpt lat="45.63" lon="6.66748">
        <ele>2099.66</ele>
        <time>2011-03-05T15:35:59Z</time>
      </trkpt>
      <trkpt lat="45.62997" lon="6.66745">
        <ele>2101.58</ele>
        <time>2011-03-05T15:36:10Z</time>
      </trkpt>
      <trkpt lat="45.62996" lon="6.66737">
        <ele>2104.94</ele>
        <time>2011-03-05T15:36:22Z</time>
      </trkpt>
      <trkpt lat="45.62995" lon="6.6673">
        <ele>2106.39</ele>
        <time>2011-03-05T15:36:37Z</time>
      </trkpt>
      <trkpt lat="45.62989" lon="6.66724">
        <ele>2108.79</ele>
        <time>2011-03-05T15:36:49Z</time>
      </trkpt>
      <trkpt lat="45.62984" lon="6.66718">
        <ele>2111.67</ele>
        <time>2011-03-05T15:37:03Z</time>
      </trkpt>
      <trkpt lat="45.62977" lon="6.66714">
        <ele>2113.6</ele>
        <time>2011-03-05T15:37:16Z</time>
      </trkpt>
      <trkpt lat="45.62968" lon="6.6671">
        <ele>2115.04</ele>
        <time>2011-03-05T15:37:31Z</time>
      </trkpt>
      <trkpt lat="45.62963" lon="6.66702">
        <ele>2117.44</ele>
        <time>2011-03-05T15:37:44Z</time>
      </trkpt>
      <trkpt lat="45.62958" lon="6.66695">
        <ele>2119.84</ele>
        <time>2011-03-05T15:37:58Z</time>
      </trkpt>
      <trkpt lat="45.62956" lon="6.66689">
        <ele>2121.29</ele>
        <time>2011-03-05T15:38:09Z</time>
      </trkpt>
      <trkpt lat="45.62949" lon="6.66692">
        <ele>2123.21</ele>
        <time>2011-03-05T15:38:23Z</time>
      </trkpt>
      <trkpt lat="45.62943" lon="6.66698">
        <ele>2126.09</ele>
        <time>2011-03-05T15:38:36Z</time>
      </trkpt>
      <trkpt lat="45.6294" lon="6.66702">
        <ele>2127.53</ele>
        <time>2011-03-05T15:38:48Z</time>
      </trkpt>
      <trkpt lat="45.62937" lon="6.66707">
        <ele>2129.46</ele>
        <time>2011-03-05T15:38:59Z</time>
      </trkpt>
      <trkpt lat="45.62936" lon="6.66706">
        <ele>2130.9</ele>
        <time>2011-03-05T15:39:10Z</time>
      </trkpt>
      <trkpt lat="45.62931" lon="6.66697">
        <ele>2132.82</ele>
        <time>2011-03-05T15:39:24Z</time>
      </trkpt>
      <trkpt lat="45.62928" lon="6.66692">
        <ele>2133.78</ele>
        <time>2011-03-05T15:39:39Z</time>
      </trkpt>
      <trkpt lat="45.62926" lon="6.6669">
        <ele>2135.71</ele>
        <time>2011-03-05T15:39:52Z</time>
      </trkpt>
      <trkpt lat="45.62925" lon="6.66689">
        <ele>2136.19</ele>
        <time>2011-03-05T15:40:05Z</time>
      </trkpt>
      <trkpt lat="45.62923" lon="6.66686">
        <ele>2137.63</ele>
        <time>2011-03-05T15:40:19Z</time>
      </trkpt>
      <trkpt lat="45.62922" lon="6.66685">
        <ele>2138.59</ele>
        <time>2011-03-05T15:40:35Z</time>
      </trkpt>
      <trkpt lat="45.6292" lon="6.66685">
        <ele>2138.59</ele>
        <time>2011-03-05T15:40:45Z</time>
      </trkpt>
      <trkpt lat="45.62918" lon="6.66688">
        <ele>2140.03</ele>
        <time>2011-03-05T15:40:58Z</time>
      </trkpt>
      <trkpt lat="45.62916" lon="6.66689">
        <ele>2140.99</ele>
        <time>2011-03-05T15:41:12Z</time>
      </trkpt>
      <trkpt lat="45.62915" lon="6.66689">
        <ele>2141.47</ele>
        <time>2011-03-05T15:41:24Z</time>
      </trkpt>
      <trkpt lat="45.62914" lon="6.66683">
        <ele>2143.4</ele>
        <time>2011-03-05T15:41:35Z</time>
      </trkpt>
      <trkpt lat="45.62912" lon="6.66683">
        <ele>2144.84</ele>
        <time>2011-03-05T15:41:45Z</time>
      </trkpt>
      <trkpt lat="45.62909" lon="6.66686">
        <ele>2147.72</ele>
        <time>2011-03-05T15:41:57Z</time>
      </trkpt>
      <trkpt lat="45.62906" lon="6.6669">
        <ele>2149.16</ele>
        <time>2011-03-05T15:42:10Z</time>
      </trkpt>
      <trkpt lat="45.62902" lon="6.66695">
        <ele>2151.09</ele>
        <time>2011-03-05T15:42:21Z</time>
      </trkpt>
      <trkpt lat="45.62898" lon="6.66697">
        <ele>2152.53</ele>
        <time>2011-03-05T15:42:33Z</time>
      </trkpt>
      <trkpt lat="45.62893" lon="6.66699">
        <ele>2154.45</ele>
        <time>2011-03-05T15:42:44Z</time>
      </trkpt>
      <trkpt lat="45.6289" lon="6.66699">
        <ele>2155.89</ele>
        <time>2011-03-05T15:42:56Z</time>
      </trkpt>
      <trkpt lat="45.62889" lon="6.66697">
        <ele>2157.34</ele>
        <time>2011-03-05T15:43:09Z</time>
      </trkpt>
      <trkpt lat="45.62886" lon="6.66688">
        <ele>2159.26</ele>
        <time>2011-03-05T15:43:21Z</time>
      </trkpt>
      <trkpt lat="45.62885" lon="6.66684">
        <ele>2161.66</ele>
        <time>2011-03-05T15:43:34Z</time>
      </trkpt>
      <trkpt lat="45.62885" lon="6.66682">
        <ele>2162.14</ele>
        <time>2011-03-05T15:43:46Z</time>
      </trkpt>
      <trkpt lat="45.62882" lon="6.66682">
        <ele>2164.06</ele>
        <time>2011-03-05T15:43:58Z</time>
      </trkpt>
      <trkpt lat="45.62881" lon="6.66682">
        <ele>2165.03</ele>
        <time>2011-03-05T15:44:14Z</time>
      </trkpt>
      <trkpt lat="45.62874" lon="6.66683">
        <ele>2166.95</ele>
        <time>2011-03-05T15:44:25Z</time>
      </trkpt>
      <trkpt lat="45.6287" lon="6.66683">
        <ele>2168.39</ele>
        <time>2011-03-05T15:44:36Z</time>
      </trkpt>
      <trkpt lat="45.6287" lon="6.66683">
        <ele>2168.39</ele>
        <time>2011-03-05T15:44:47Z</time>
      </trkpt>
      <trkpt lat="45.62868" lon="6.66679">
        <ele>2169.83</ele>
        <time>2011-03-05T15:45:04Z</time>
      </trkpt>
      <trkpt lat="45.62868" lon="6.66679">
        <ele>2170.31</ele>
        <time>2011-03-05T15:45:05Z</time>
      </trkpt>
      <trkpt lat="45.62863" lon="6.66669">
        <ele>2172.24</ele>
        <time>2011-03-05T15:45:20Z</time>
      </trkpt>
      <trkpt lat="45.62859" lon="6.66668">
        <ele>2175.6</ele>
        <time>2011-03-05T15:45:32Z</time>
      </trkpt>
      <trkpt lat="45.62854" lon="6.66669">
        <ele>2178</ele>
        <time>2011-03-05T15:45:46Z</time>
      </trkpt>
      <trkpt lat="45.62848" lon="6.66668">
        <ele>2180.89</ele>
        <time>2011-03-05T15:46:00Z</time>
      </trkpt>
      <trkpt lat="45.62841" lon="6.66666">
        <ele>2182.81</ele>
        <time>2011-03-05T15:46:13Z</time>
      </trkpt>
      <trkpt lat="45.62835" lon="6.66662">
        <ele>2185.21</ele>
        <time>2011-03-05T15:46:26Z</time>
      </trkpt>
      <trkpt lat="45.62827" lon="6.66658">
        <ele>2187.62</ele>
        <time>2011-03-05T15:46:41Z</time>
      </trkpt>
      <trkpt lat="45.62824" lon="6.66656">
        <ele>2188.58</ele>
        <time>2011-03-05T15:46:53Z</time>
      </trkpt>
      <trkpt lat="45.62818" lon="6.66655">
        <ele>2190.98</ele>
        <time>2011-03-05T15:47:05Z</time>
      </trkpt>
      <trkpt lat="45.62814" lon="6.66656">
        <ele>2191.94</ele>
        <time>2011-03-05T15:47:15Z</time>
      </trkpt>
      <trkpt lat="45.62812" lon="6.66657">
        <ele>2191.94</ele>
        <time>2011-03-05T15:47:30Z</time>
      </trkpt>
      <trkpt lat="45.62809" lon="6.66657">
        <ele>2192.9</ele>
        <time>2011-03-05T15:47:44Z</time>
      </trkpt>
      <trkpt lat="45.62808" lon="6.66658">
        <ele>2193.39</ele>
        <time>2011-03-05T15:47:55Z</time>
      </trkpt>
      <trkpt lat="45.62806" lon="6.6666">
        <ele>2191.94</ele>
        <time>2011-03-05T15:48:10Z</time>
      </trkpt>
      <trkpt lat="45.62806" lon="6.6666">
        <ele>2191.94</ele>
        <time>2011-03-05T15:48:46Z</time>
      </trkpt>
      <trkpt lat="45.62806" lon="6.6666">
        <ele>2192.42</ele>
        <time>2011-03-05T15:49:19Z</time>
      </trkpt>
      <trkpt lat="45.62806" lon="6.6666">
        <ele>2192.42</ele>
        <time>2011-03-05T15:49:56Z</time>
      </trkpt>
      <trkpt lat="45.62806" lon="6.66659">
        <ele>2192.9</ele>
        <time>2011-03-05T15:50:16Z</time>
      </trkpt>
      <trkpt lat="45.62806" lon="6.66659">
        <ele>2192.9</ele>
        <time>2011-03-05T15:50:43Z</time>
      </trkpt>
      <trkpt lat="45.62806" lon="6.66659">
        <ele>2192.9</ele>
        <time>2011-03-05T15:51:13Z</time>
      </trkpt>
      <trkpt lat="45.62806" lon="6.6666">
        <ele>2193.39</ele>
        <time>2011-03-05T15:51:51Z</time>
      </trkpt>
      <trkpt lat="45.62806" lon="6.6666">
        <ele>2192.42</ele>
        <time>2011-03-05T15:52:24Z</time>
      </trkpt>
      <trkpt lat="45.62805" lon="6.66659">
        <ele>2192.9</ele>
        <time>2011-03-05T15:52:45Z</time>
      </trkpt>
      <trkpt lat="45.62805" lon="6.66659">
        <ele>2192.9</ele>
        <time>2011-03-05T15:53:27Z</time>
      </trkpt>
      <trkpt lat="45.62805" lon="6.66659">
        <ele>2193.87</ele>
        <time>2011-03-05T15:54:09Z</time>
      </trkpt>
      <trkpt lat="45.62805" lon="6.66659">
        <ele>2193.39</ele>
        <time>2011-03-05T15:54:45Z</time>
      </trkpt>
      <trkpt lat="45.62805" lon="6.66659">
        <ele>2193.39</ele>
        <time>2011-03-05T15:55:15Z</time>
      </trkpt>
      <trkpt lat="45.62805" lon="6.66659">
        <ele>2192.9</ele>
        <time>2011-03-05T15:55:55Z</time>
      </trkpt>
      <trkpt lat="45.62805" lon="6.6666">
        <ele>2192.42</ele>
        <time>2011-03-05T15:56:36Z</time>
      </trkpt>
      <trkpt lat="45.62805" lon="6.6666">
        <ele>2192.9</ele>
        <time>2011-03-05T15:57:11Z</time>
      </trkpt>
      <trkpt lat="45.62805" lon="6.6666">
        <ele>2191.94</ele>
        <time>2011-03-05T15:57:31Z</time>
      </trkpt>
      <trkpt lat="45.62805" lon="6.6666">
        <ele>2183.77</ele>
        <time>2011-03-05T15:57:38Z</time>
      </trkpt>
      <trkpt lat="45.62804" lon="6.6666">
        <ele>2197.23</ele>
        <time>2011-03-05T15:57:39Z</time>
      </trkpt>
      <trkpt lat="45.62804" lon="6.6666">
        <ele>2191.94</ele>
        <time>2011-03-05T15:57:40Z</time>
      </trkpt>
      <trkpt lat="45.62804" lon="6.66659">
        <ele>2196.27</ele>
        <time>2011-03-05T15:57:41Z</time>
      </trkpt>
      <trkpt lat="45.62804" lon="6.66659">
        <ele>2192.9</ele>
        <time>2011-03-05T15:57:45Z</time>
      </trkpt>
      <trkpt lat="45.62804" lon="6.66658">
        <ele>2197.71</ele>
        <time>2011-03-05T15:57:56Z</time>
      </trkpt>
      <trkpt lat="45.62805" lon="6.66657">
        <ele>2193.39</ele>
        <time>2011-03-05T15:57:57Z</time>
      </trkpt>
      <trkpt lat="45.62805" lon="6.66657">
        <ele>2192.42</ele>
        <time>2011-03-05T15:58:13Z</time>
      </trkpt>
      <trkpt lat="45.62805" lon="6.66657">
        <ele>2192.42</ele>
        <time>2011-03-05T15:58:46Z</time>
      </trkpt>
      <trkpt lat="45.62805" lon="6.66658">
        <ele>2190.5</ele>
        <time>2011-03-05T15:58:56Z</time>
      </trkpt>
      <trkpt lat="45.62805" lon="6.66659">
        <ele>2194.83</ele>
        <time>2011-03-05T15:58:58Z</time>
      </trkpt>
      <trkpt lat="45.62805" lon="6.66659">
        <ele>2193.39</ele>
        <time>2011-03-05T15:58:59Z</time>
      </trkpt>
      <trkpt lat="45.62805" lon="6.66659">
        <ele>2192.9</ele>
        <time>2011-03-05T15:59:19Z</time>
      </trkpt>
      <trkpt lat="45.62805" lon="6.66659">
        <ele>2192.9</ele>
        <time>2011-03-05T15:59:56Z</time>
      </trkpt>
      <trkpt lat="45.62805" lon="6.66659">
        <ele>2193.39</ele>
        <time>2011-03-05T16:00:31Z</time>
      </trkpt>
      <trkpt lat="45.62806" lon="6.66658">
        <ele>2193.87</ele>
        <time>2011-03-05T16:00:55Z</time>
      </trkpt>
      <trkpt lat="45.62805" lon="6.66658">
        <ele>2192.42</ele>
        <time>2011-03-05T16:01:16Z</time>
      </trkpt>
      <trkpt lat="45.62806" lon="6.66658">
        <ele>2192.9</ele>
        <time>2011-03-05T16:01:21Z</time>
      </trkpt>
      <trkpt lat="45.62808" lon="6.66657">
        <ele>2193.39</ele>
        <time>2011-03-05T16:01:35Z</time>
      </trkpt>
      <trkpt lat="45.62808" lon="6.66657">
        <ele>2193.87</ele>
        <time>2011-03-05T16:01:57Z</time>
      </trkpt>
      <trkpt lat="45.62807" lon="6.66656">
        <ele>2193.39</ele>
        <time>2011-03-05T16:02:16Z</time>
      </trkpt>
      <trkpt lat="45.62806" lon="6.66656">
        <ele>2193.87</ele>
        <time>2011-03-05T16:02:35Z</time>
      </trkpt>
      <trkpt lat="45.62806" lon="6.66656">
        <ele>2193.87</ele>
        <time>2011-03-05T16:02:36Z</time>
      </trkpt>
      <trkpt lat="45.6281" lon="6.66655">
        <ele>2192.9</ele>
        <time>2011-03-05T16:02:40Z</time>
      </trkpt>
      <trkpt lat="45.62814" lon="6.66657">
        <ele>2192.42</ele>
        <time>2011-03-05T16:02:52Z</time>
      </trkpt>
      <trkpt lat="45.62814" lon="6.66657">
        <ele>2192.42</ele>
        <time>2011-03-05T16:03:21Z</time>
      </trkpt>
      <trkpt lat="45.62813" lon="6.66657">
        <ele>2192.9</ele>
        <time>2011-03-05T16:03:50Z</time>
      </trkpt>
      <trkpt lat="45.62813" lon="6.66657">
        <ele>2192.42</ele>
        <time>2011-03-05T16:04:14Z</time>
      </trkpt>
      <trkpt lat="45.62813" lon="6.66656">
        <ele>2191.94</ele>
        <time>2011-03-05T16:04:34Z</time>
      </trkpt>
      <trkpt lat="45.62813" lon="6.66656">
        <ele>2192.9</ele>
        <time>2011-03-05T16:04:59Z</time>
      </trkpt>
      <trkpt lat="45.62813" lon="6.66656">
        <ele>2192.42</ele>
        <time>2011-03-05T16:05:22Z</time>
      </trkpt>
      <trkpt lat="45.62813" lon="6.66656">
        <ele>2192.42</ele>
        <time>2011-03-05T16:05:57Z</time>
      </trkpt>
      <trkpt lat="45.62814" lon="6.66654">
        <ele>2192.42</ele>
        <time>2011-03-05T16:06:06Z</time>
      </trkpt>
      <trkpt lat="45.62816" lon="6.66648">
        <ele>2191.94</ele>
        <time>2011-03-05T16:06:19Z</time>
      </trkpt>
      <trkpt lat="45.62817" lon="6.66648">
        <ele>2191.46</ele>
        <time>2011-03-05T16:06:35Z</time>
      </trkpt>
      <trkpt lat="45.62816" lon="6.66647">
        <ele>2191.46</ele>
        <time>2011-03-05T16:06:49Z</time>
      </trkpt>
      <trkpt lat="45.62815" lon="6.66643">
        <ele>2191.46</ele>
        <time>2011-03-05T16:06:51Z</time>
      </trkpt>
      <trkpt lat="45.62807" lon="6.66624">
        <ele>2187.14</ele>
        <time>2011-03-05T16:06:56Z</time>
      </trkpt>
      <trkpt lat="45.62803" lon="6.66608">
        <ele>2183.77</ele>
        <time>2011-03-05T16:06:59Z</time>
      </trkpt>
      <trkpt lat="45.62808" lon="6.66595">
        <ele>2178.97</ele>
        <time>2011-03-05T16:07:03Z</time>
      </trkpt>
      <trkpt lat="45.62812" lon="6.66586">
        <ele>2174.16</ele>
        <time>2011-03-05T16:07:05Z</time>
      </trkpt>
      <trkpt lat="45.62816" lon="6.66581">
        <ele>2170.79</ele>
        <time>2011-03-05T16:07:06Z</time>
      </trkpt>
      <trkpt lat="45.62822" lon="6.6657">
        <ele>2166.95</ele>
        <time>2011-03-05T16:07:08Z</time>
      </trkpt>
      <trkpt lat="45.62834" lon="6.66558">
        <ele>2164.55</ele>
        <time>2011-03-05T16:07:11Z</time>
      </trkpt>
      <trkpt lat="45.62857" lon="6.66551">
        <ele>2163.58</ele>
        <time>2011-03-05T16:07:17Z</time>
      </trkpt>
      <trkpt lat="45.62867" lon="6.66555">
        <ele>2163.58</ele>
        <time>2011-03-05T16:07:29Z</time>
      </trkpt>
      <trkpt lat="45.62869" lon="6.66556">
        <ele>2163.58</ele>
        <time>2011-03-05T16:07:32Z</time>
      </trkpt>
      <trkpt lat="45.62887" lon="6.66562">
        <ele>2160.22</ele>
        <time>2011-03-05T16:07:45Z</time>
      </trkpt>
      <trkpt lat="45.62888" lon="6.66567">
        <ele>2159.74</ele>
        <time>2011-03-05T16:07:57Z</time>
      </trkpt>
      <trkpt lat="45.62889" lon="6.66567">
        <ele>2160.22</ele>
        <time>2011-03-05T16:08:03Z</time>
      </trkpt>
      <trkpt lat="45.6289" lon="6.66575">
        <ele>2158.3</ele>
        <time>2011-03-05T16:08:06Z</time>
      </trkpt>
      <trkpt lat="45.6289" lon="6.66584">
        <ele>2156.86</ele>
        <time>2011-03-05T16:08:08Z</time>
      </trkpt>
      <trkpt lat="45.62892" lon="6.666">
        <ele>2152.53</ele>
        <time>2011-03-05T16:08:11Z</time>
      </trkpt>
      <trkpt lat="45.62895" lon="6.6661">
        <ele>2152.05</ele>
        <time>2011-03-05T16:08:13Z</time>
      </trkpt>
      <trkpt lat="45.62904" lon="6.66631">
        <ele>2148.68</ele>
        <time>2011-03-05T16:08:18Z</time>
      </trkpt>
      <trkpt lat="45.62912" lon="6.66649">
        <ele>2145.8</ele>
        <time>2011-03-05T16:08:22Z</time>
      </trkpt>
      <trkpt lat="45.6292" lon="6.66676">
        <ele>2143.4</ele>
        <time>2011-03-05T16:08:33Z</time>
      </trkpt>
      <trkpt lat="45.6292" lon="6.66679">
        <ele>2141.47</ele>
        <time>2011-03-05T16:08:37Z</time>
      </trkpt>
      <trkpt lat="45.62925" lon="6.66687">
        <ele>2136.19</ele>
        <time>2011-03-05T16:08:41Z</time>
      </trkpt>
      <trkpt lat="45.62928" lon="6.6669">
        <ele>2132.82</ele>
        <time>2011-03-05T16:08:43Z</time>
      </trkpt>
      <trkpt lat="45.62929" lon="6.6669">
        <ele>2132.34</ele>
        <time>2011-03-05T16:08:44Z</time>
      </trkpt>
      <trkpt lat="45.62931" lon="6.66689">
        <ele>2132.82</ele>
        <time>2011-03-05T16:08:55Z</time>
      </trkpt>
      <trkpt lat="45.62931" lon="6.66689">
        <ele>2132.82</ele>
        <time>2011-03-05T16:08:56Z</time>
      </trkpt>
      <trkpt lat="45.62938" lon="6.6669">
        <ele>2129.94</ele>
        <time>2011-03-05T16:09:00Z</time>
      </trkpt>
      <trkpt lat="45.62948" lon="6.66692">
        <ele>2126.09</ele>
        <time>2011-03-05T16:09:03Z</time>
      </trkpt>
      <trkpt lat="45.62956" lon="6.66694">
        <ele>2122.73</ele>
        <time>2011-03-05T16:09:05Z</time>
      </trkpt>
      <trkpt lat="45.62961" lon="6.66697">
        <ele>2119.36</ele>
        <time>2011-03-05T16:09:07Z</time>
      </trkpt>
      <trkpt lat="45.62969" lon="6.66703">
        <ele>2115.52</ele>
        <time>2011-03-05T16:09:10Z</time>
      </trkpt>
      <trkpt lat="45.62988" lon="6.66719">
        <ele>2112.15</ele>
        <time>2011-03-05T16:09:23Z</time>
      </trkpt>
      <trkpt lat="45.62988" lon="6.6672">
        <ele>2112.15</ele>
        <time>2011-03-05T16:09:28Z</time>
      </trkpt>
      <trkpt lat="45.62988" lon="6.66719">
        <ele>2111.19</ele>
        <time>2011-03-05T16:09:41Z</time>
      </trkpt>
      <trkpt lat="45.62988" lon="6.66719">
        <ele>2111.67</ele>
        <time>2011-03-05T16:10:09Z</time>
      </trkpt>
      <trkpt lat="45.62989" lon="6.66718">
        <ele>2111.67</ele>
        <time>2011-03-05T16:10:26Z</time>
      </trkpt>
      <trkpt lat="45.62992" lon="6.66706">
        <ele>2107.35</ele>
        <time>2011-03-05T16:10:31Z</time>
      </trkpt>
      <trkpt lat="45.62994" lon="6.66703">
        <ele>2106.87</ele>
        <time>2011-03-05T16:10:32Z</time>
      </trkpt>
      <trkpt lat="45.62999" lon="6.66698">
        <ele>2101.58</ele>
        <time>2011-03-05T16:10:34Z</time>
      </trkpt>
      <trkpt lat="45.63003" lon="6.66692">
        <ele>2100.14</ele>
        <time>2011-03-05T16:10:37Z</time>
      </trkpt>
      <trkpt lat="45.63007" lon="6.66699">
        <ele>2098.7</ele>
        <time>2011-03-05T16:10:48Z</time>
      </trkpt>
      <trkpt lat="45.6301" lon="6.66701">
        <ele>2097.25</ele>
        <time>2011-03-05T16:10:53Z</time>
      </trkpt>
      <trkpt lat="45.63017" lon="6.66703">
        <ele>2092.93</ele>
        <time>2011-03-05T16:10:57Z</time>
      </trkpt>
      <trkpt lat="45.63023" lon="6.66709">
        <ele>2089.56</ele>
        <time>2011-03-05T16:11:00Z</time>
      </trkpt>
      <trkpt lat="45.63027" lon="6.66719">
        <ele>2085.72</ele>
        <time>2011-03-05T16:11:09Z</time>
      </trkpt>
      <trkpt lat="45.63031" lon="6.66728">
        <ele>2080.91</ele>
        <time>2011-03-05T16:11:12Z</time>
      </trkpt>
      <trkpt lat="45.63034" lon="6.66741">
        <ele>2078.03</ele>
        <time>2011-03-05T16:11:15Z</time>
      </trkpt>
      <trkpt lat="45.63039" lon="6.66748">
        <ele>2073.7</ele>
        <time>2011-03-05T16:11:17Z</time>
      </trkpt>
      <trkpt lat="45.63042" lon="6.66754">
        <ele>2068.89</ele>
        <time>2011-03-05T16:11:19Z</time>
      </trkpt>
      <trkpt lat="45.63045" lon="6.66758">
        <ele>2067.93</ele>
        <time>2011-03-05T16:11:20Z</time>
      </trkpt>
      <trkpt lat="45.63048" lon="6.66773">
        <ele>2065.05</ele>
        <time>2011-03-05T16:11:29Z</time>
      </trkpt>
      <trkpt lat="45.63049" lon="6.66767">
        <ele>2064.57</ele>
        <time>2011-03-05T16:11:30Z</time>
      </trkpt>
      <trkpt lat="45.63052" lon="6.6677">
        <ele>2062.17</ele>
        <time>2011-03-05T16:11:33Z</time>
      </trkpt>
      <trkpt lat="45.63056" lon="6.66775">
        <ele>2057.36</ele>
        <time>2011-03-05T16:11:36Z</time>
      </trkpt>
      <trkpt lat="45.63057" lon="6.66776">
        <ele>2054.47</ele>
        <time>2011-03-05T16:11:37Z</time>
      </trkpt>
      <trkpt lat="45.6306" lon="6.6678">
        <ele>2052.55</ele>
        <time>2011-03-05T16:11:39Z</time>
      </trkpt>
      <trkpt lat="45.63065" lon="6.66782">
        <ele>2051.11</ele>
        <time>2011-03-05T16:11:44Z</time>
      </trkpt>
      <trkpt lat="45.6307" lon="6.66777">
        <ele>2046.78</ele>
        <time>2011-03-05T16:11:48Z</time>
      </trkpt>
      <trkpt lat="45.63074" lon="6.66778">
        <ele>2043.42</ele>
        <time>2011-03-05T16:11:52Z</time>
      </trkpt>
      <trkpt lat="45.63075" lon="6.66784">
        <ele>2040.54</ele>
        <time>2011-03-05T16:11:54Z</time>
      </trkpt>
      <trkpt lat="45.63075" lon="6.66792">
        <ele>2039.09</ele>
        <time>2011-03-05T16:11:57Z</time>
      </trkpt>
      <trkpt lat="45.63076" lon="6.6681">
        <ele>2035.73</ele>
        <time>2011-03-05T16:12:01Z</time>
      </trkpt>
      <trkpt lat="45.63076" lon="6.66809">
        <ele>2033.33</ele>
        <time>2011-03-05T16:12:03Z</time>
      </trkpt>
      <trkpt lat="45.63077" lon="6.66806">
        <ele>2031.4</ele>
        <time>2011-03-05T16:12:04Z</time>
      </trkpt>
      <trkpt lat="45.63078" lon="6.66805">
        <ele>2029.96</ele>
        <time>2011-03-05T16:12:05Z</time>
      </trkpt>
      <trkpt lat="45.63091" lon="6.66806">
        <ele>2026.6</ele>
        <time>2011-03-05T16:12:07Z</time>
      </trkpt>
      <trkpt lat="45.63105" lon="6.66816">
        <ele>2022.27</ele>
        <time>2011-03-05T16:12:10Z</time>
      </trkpt>
      <trkpt lat="45.63111" lon="6.66816">
        <ele>2019.39</ele>
        <time>2011-03-05T16:12:11Z</time>
      </trkpt>
      <trkpt lat="45.63126" lon="6.66825">
        <ele>2015.06</ele>
        <time>2011-03-05T16:12:15Z</time>
      </trkpt>
      <trkpt lat="45.63131" lon="6.6683">
        <ele>2014.58</ele>
        <time>2011-03-05T16:12:16Z</time>
      </trkpt>
      <trkpt lat="45.63141" lon="6.66839">
        <ele>2013.62</ele>
        <time>2011-03-05T16:12:18Z</time>
      </trkpt>
      <trkpt lat="45.63168" lon="6.66873">
        <ele>2012.66</ele>
        <time>2011-03-05T16:12:29Z</time>
      </trkpt>
      <trkpt lat="45.63173" lon="6.66871">
        <ele>2011.7</ele>
        <time>2011-03-05T16:12:39Z</time>
      </trkpt>
      <trkpt lat="45.63174" lon="6.66869">
        <ele>2013.14</ele>
        <time>2011-03-05T16:12:52Z</time>
      </trkpt>
      <trkpt lat="45.63179" lon="6.6688">
        <ele>2013.14</ele>
        <time>2011-03-05T16:13:05Z</time>
      </trkpt>
      <trkpt lat="45.63196" lon="6.66899">
        <ele>2012.18</ele>
        <time>2011-03-05T16:13:15Z</time>
      </trkpt>
      <trkpt lat="45.6321" lon="6.66909">
        <ele>2011.7</ele>
        <time>2011-03-05T16:13:26Z</time>
      </trkpt>
      <trkpt lat="45.6321" lon="6.66909">
        <ele>2011.22</ele>
        <time>2011-03-05T16:13:41Z</time>
      </trkpt>
      <trkpt lat="45.6321" lon="6.66909">
        <ele>2011.7</ele>
        <time>2011-03-05T16:13:53Z</time>
      </trkpt>
      <trkpt lat="45.63211" lon="6.66909">
        <ele>2011.22</ele>
        <time>2011-03-05T16:14:11Z</time>
      </trkpt>
      <trkpt lat="45.63211" lon="6.66911">
        <ele>2011.22</ele>
        <time>2011-03-05T16:14:27Z</time>
      </trkpt>
      <trkpt lat="45.63215" lon="6.66911">
        <ele>2010.73</ele>
        <time>2011-03-05T16:14:34Z</time>
      </trkpt>
      <trkpt lat="45.63217" lon="6.66908">
        <ele>2010.73</ele>
        <time>2011-03-05T16:14:49Z</time>
      </trkpt>
      <trkpt lat="45.63216" lon="6.66906">
        <ele>2009.77</ele>
        <time>2011-03-05T16:15:08Z</time>
      </trkpt>
      <trkpt lat="45.63216" lon="6.66906">
        <ele>2010.25</ele>
        <time>2011-03-05T16:15:32Z</time>
      </trkpt>
      <trkpt lat="45.63215" lon="6.66906">
        <ele>2015.54</ele>
        <time>2011-03-05T16:15:54Z</time>
      </trkpt>
      <trkpt lat="45.63215" lon="6.66906">
        <ele>2011.22</ele>
        <time>2011-03-05T16:15:55Z</time>
      </trkpt>
      <trkpt lat="45.63214" lon="6.66907">
        <ele>2010.25</ele>
        <time>2011-03-05T16:16:14Z</time>
      </trkpt>
      <trkpt lat="45.63214" lon="6.66907">
        <ele>2010.73</ele>
        <time>2011-03-05T16:16:30Z</time>
      </trkpt>
      <trkpt lat="45.63213" lon="6.6691">
        <ele>2010.73</ele>
        <time>2011-03-05T16:16:55Z</time>
      </trkpt>
      <trkpt lat="45.63213" lon="6.66905">
        <ele>1995.35</ele>
        <time>2011-03-06T08:08:17Z</time>
      </trkpt>
      <trkpt lat="45.63212" lon="6.66905">
        <ele>1995.35</ele>
        <time>2011-03-06T08:08:18Z</time>
      </trkpt>
      <trkpt lat="45.63211" lon="6.66906">
        <ele>1995.35</ele>
        <time>2011-03-06T08:08:34Z</time>
      </trkpt>
      <trkpt lat="45.63214" lon="6.66906">
        <ele>1984.3</ele>
        <time>2011-03-06T08:08:39Z</time>
      </trkpt>
      <trkpt lat="45.63214" lon="6.66906">
        <ele>2000.16</ele>
        <time>2011-03-06T08:08:40Z</time>
      </trkpt>
      <trkpt lat="45.63214" lon="6.66905">
        <ele>2000.16</ele>
        <time>2011-03-06T08:08:41Z</time>
      </trkpt>
      <trkpt lat="45.63214" lon="6.66906">
        <ele>1995.83</ele>
        <time>2011-03-06T08:08:43Z</time>
      </trkpt>
      <trkpt lat="45.63214" lon="6.66906">
        <ele>1996.32</ele>
        <time>2011-03-06T08:08:44Z</time>
      </trkpt>
      <trkpt lat="45.63215" lon="6.66905">
        <ele>1996.32</ele>
        <time>2011-03-06T08:08:54Z</time>
      </trkpt>
      <trkpt lat="45.63216" lon="6.66909">
        <ele>1996.32</ele>
        <time>2011-03-06T08:09:11Z</time>
      </trkpt>
      <trkpt lat="45.6322" lon="6.6691">
        <ele>1997.28</ele>
        <time>2011-03-06T08:09:32Z</time>
      </trkpt>
      <trkpt lat="45.63217" lon="6.66904">
        <ele>1997.28</ele>
        <time>2011-03-06T08:09:59Z</time>
      </trkpt>
      <trkpt lat="45.63211" lon="6.66911">
        <ele>1996.8</ele>
        <time>2011-03-06T08:10:13Z</time>
      </trkpt>
      <trkpt lat="45.63212" lon="6.66912">
        <ele>1997.28</ele>
        <time>2011-03-06T08:10:35Z</time>
      </trkpt>
      <trkpt lat="45.63212" lon="6.66912">
        <ele>1992.47</ele>
        <time>2011-03-06T08:10:38Z</time>
      </trkpt>
      <trkpt lat="45.63212" lon="6.66912">
        <ele>1998.24</ele>
        <time>2011-03-06T08:10:39Z</time>
      </trkpt>
      <trkpt lat="45.63212" lon="6.66912">
        <ele>2003.52</ele>
        <time>2011-03-06T08:10:46Z</time>
      </trkpt>
      <trkpt lat="45.63212" lon="6.66912">
        <ele>1998.24</ele>
        <time>2011-03-06T08:10:47Z</time>
      </trkpt>
      <trkpt lat="45.63212" lon="6.66912">
        <ele>1996.8</ele>
        <time>2011-03-06T08:10:49Z</time>
      </trkpt>
      <trkpt lat="45.63212" lon="6.66912">
        <ele>1997.28</ele>
        <time>2011-03-06T08:11:16Z</time>
      </trkpt>
      <trkpt lat="45.63212" lon="6.66912">
        <ele>1975.65</ele>
        <time>2011-03-06T08:11:25Z</time>
      </trkpt>
      <trkpt lat="45.63212" lon="6.66912">
        <ele>1982.86</ele>
        <time>2011-03-06T08:11:26Z</time>
      </trkpt>
      <trkpt lat="45.63212" lon="6.66912">
        <ele>1998.72</ele>
        <time>2011-03-06T08:11:27Z</time>
      </trkpt>
      <trkpt lat="45.63212" lon="6.66912">
        <ele>1997.76</ele>
        <time>2011-03-06T08:11:29Z</time>
      </trkpt>
      <trkpt lat="45.63212" lon="6.66911">
        <ele>2024.67</ele>
        <time>2011-03-06T08:11:30Z</time>
      </trkpt>
      <trkpt lat="45.63213" lon="6.66909">
        <ele>1999.68</ele>
        <time>2011-03-06T08:11:31Z</time>
      </trkpt>
      <trkpt lat="45.63213" lon="6.66907">
        <ele>1995.83</ele>
        <time>2011-03-06T08:11:33Z</time>
      </trkpt>
      <trkpt lat="45.63213" lon="6.66906">
        <ele>1998.24</ele>
        <time>2011-03-06T08:11:57Z</time>
      </trkpt>
      <trkpt lat="45.63213" lon="6.66906">
        <ele>1998.24</ele>
        <time>2011-03-06T08:12:18Z</time>
      </trkpt>
      <trkpt lat="45.63213" lon="6.66906">
        <ele>1997.28</ele>
        <time>2011-03-06T08:12:40Z</time>
      </trkpt>
      <trkpt lat="45.63213" lon="6.66908">
        <ele>1997.28</ele>
        <time>2011-03-06T08:13:03Z</time>
      </trkpt>
      <trkpt lat="45.63213" lon="6.66908">
        <ele>1997.76</ele>
        <time>2011-03-06T08:13:32Z</time>
      </trkpt>
      <trkpt lat="45.63212" lon="6.66908">
        <ele>1997.28</ele>
        <time>2011-03-06T08:13:59Z</time>
      </trkpt>
      <trkpt lat="45.63212" lon="6.66908">
        <ele>1999.2</ele>
        <time>2011-03-06T08:14:20Z</time>
      </trkpt>
      <trkpt lat="45.6321" lon="6.66906">
        <ele>1997.76</ele>
        <time>2011-03-06T08:14:34Z</time>
      </trkpt>
      <trkpt lat="45.63213" lon="6.66891">
        <ele>2000.16</ele>
        <time>2011-03-06T08:14:53Z</time>
      </trkpt>
      <trkpt lat="45.63213" lon="6.66887">
        <ele>1997.76</ele>
        <time>2011-03-06T08:15:02Z</time>
      </trkpt>
      <trkpt lat="45.63213" lon="6.66886">
        <ele>1998.72</ele>
        <time>2011-03-06T08:15:04Z</time>
      </trkpt>
      <trkpt lat="45.63213" lon="6.66884">
        <ele>1995.83</ele>
        <time>2011-03-06T08:15:06Z</time>
      </trkpt>
      <trkpt lat="45.63213" lon="6.66883">
        <ele>1999.2</ele>
        <time>2011-03-06T08:15:07Z</time>
      </trkpt>
      <trkpt lat="45.63213" lon="6.66883">
        <ele>1970.36</ele>
        <time>2011-03-06T08:15:08Z</time>
      </trkpt>
      <trkpt lat="45.63213" lon="6.66882">
        <ele>2004.49</ele>
        <time>2011-03-06T08:15:09Z</time>
      </trkpt>
      <trkpt lat="45.63212" lon="6.66881">
        <ele>1969.4</ele>
        <time>2011-03-06T08:15:10Z</time>
      </trkpt>
      <trkpt lat="45.63212" lon="6.6688">
        <ele>2009.29</ele>
        <time>2011-03-06T08:15:11Z</time>
      </trkpt>
      <trkpt lat="45.63211" lon="6.66879">
        <ele>2026.6</ele>
        <time>2011-03-06T08:15:12Z</time>
      </trkpt>
      <trkpt lat="45.63211" lon="6.66879">
        <ele>2011.7</ele>
        <time>2011-03-06T08:15:13Z</time>
      </trkpt>
      <trkpt lat="45.63211" lon="6.66878">
        <ele>1969.4</ele>
        <time>2011-03-06T08:15:14Z</time>
      </trkpt>
      <trkpt lat="45.6321" lon="6.66878">
        <ele>2051.59</ele>
        <time>2011-03-06T08:15:15Z</time>
      </trkpt>
      <trkpt lat="45.63211" lon="6.66878">
        <ele>2004.49</ele>
        <time>2011-03-06T08:15:16Z</time>
      </trkpt>
      <trkpt lat="45.63211" lon="6.66878">
        <ele>2001.12</ele>
        <time>2011-03-06T08:15:17Z</time>
      </trkpt>
      <trkpt lat="45.63211" lon="6.66878">
        <ele>2001.12</ele>
        <time>2011-03-06T08:15:18Z</time>
      </trkpt>
      <trkpt lat="45.63217" lon="6.66867">
        <ele>2003.52</ele>
        <time>2011-03-06T08:15:34Z</time>
      </trkpt>
      <trkpt lat="45.63217" lon="6.66849">
        <ele>2004.49</ele>
        <time>2011-03-06T08:15:44Z</time>
      </trkpt>
      <trkpt lat="45.63219" lon="6.66823">
        <ele>2006.89</ele>
        <time>2011-03-06T08:16:02Z</time>
      </trkpt>
      <trkpt lat="45.6322" lon="6.66804">
        <ele>2007.85</ele>
        <time>2011-03-06T08:16:14Z</time>
      </trkpt>
      <trkpt lat="45.63224" lon="6.66783">
        <ele>2009.29</ele>
        <time>2011-03-06T08:16:31Z</time>
      </trkpt>
      <trkpt lat="45.63226" lon="6.66758">
        <ele>2011.7</ele>
        <time>2011-03-06T08:16:49Z</time>
      </trkpt>
      <trkpt lat="45.63232" lon="6.66732">
        <ele>2013.62</ele>
        <time>2011-03-06T08:17:07Z</time>
      </trkpt>
      <trkpt lat="45.63235" lon="6.66725">
        <ele>2013.62</ele>
        <time>2011-03-06T08:17:14Z</time>
      </trkpt>
      <trkpt lat="45.63234" lon="6.66706">
        <ele>2016.02</ele>
        <time>2011-03-06T08:17:33Z</time>
      </trkpt>
      <trkpt lat="45.63236" lon="6.66694">
        <ele>2017.94</ele>
        <time>2011-03-06T08:17:48Z</time>
      </trkpt>
      <trkpt lat="45.63238" lon="6.66673">
        <ele>2020.35</ele>
        <time>2011-03-06T08:18:03Z</time>
      </trkpt>
      <trkpt lat="45.63237" lon="6.66669">
        <ele>2020.83</ele>
        <time>2011-03-06T08:18:07Z</time>
      </trkpt>
      <trkpt lat="45.63239" lon="6.66665">
        <ele>2022.27</ele>
        <time>2011-03-06T08:18:10Z</time>
      </trkpt>
      <trkpt lat="45.63243" lon="6.66661">
        <ele>2022.27</ele>
        <time>2011-03-06T08:18:14Z</time>
      </trkpt>
      <trkpt lat="45.6325" lon="6.66647">
        <ele>2023.23</ele>
        <time>2011-03-06T08:18:28Z</time>
      </trkpt>
      <trkpt lat="45.63252" lon="6.66643">
        <ele>2023.71</ele>
        <time>2011-03-06T08:18:31Z</time>
      </trkpt>
      <trkpt lat="45.63257" lon="6.66621">
        <ele>2025.15</ele>
        <time>2011-03-06T08:18:47Z</time>
      </trkpt>
      <trkpt lat="45.63263" lon="6.66601">
        <ele>2026.6</ele>
        <time>2011-03-06T08:19:03Z</time>
      </trkpt>
      <trkpt lat="45.63262" lon="6.66586">
        <ele>2027.56</ele>
        <time>2011-03-06T08:19:18Z</time>
      </trkpt>
      <trkpt lat="45.63258" lon="6.66563">
        <ele>2029.96</ele>
        <time>2011-03-06T08:19:37Z</time>
      </trkpt>
      <trkpt lat="45.63258" lon="6.66563">
        <ele>2030.44</ele>
        <time>2011-03-06T08:19:59Z</time>
      </trkpt>
      <trkpt lat="45.63258" lon="6.66564">
        <ele>2026.6</ele>
        <time>2011-03-06T08:20:08Z</time>
      </trkpt>
      <trkpt lat="45.63258" lon="6.66564">
        <ele>2032.84</ele>
        <time>2011-03-06T08:20:09Z</time>
      </trkpt>
      <trkpt lat="45.63258" lon="6.66564">
        <ele>2029</ele>
        <time>2011-03-06T08:20:13Z</time>
      </trkpt>
      <trkpt lat="45.63258" lon="6.66564">
        <ele>2029.48</ele>
        <time>2011-03-06T08:20:39Z</time>
      </trkpt>
      <trkpt lat="45.63258" lon="6.66564">
        <ele>2029.96</ele>
        <time>2011-03-06T08:21:10Z</time>
      </trkpt>
      <trkpt lat="45.63258" lon="6.66564">
        <ele>2040.54</ele>
        <time>2011-03-06T08:21:13Z</time>
      </trkpt>
      <trkpt lat="45.63259" lon="6.66565">
        <ele>2031.88</ele>
        <time>2011-03-06T08:21:14Z</time>
      </trkpt>
      <trkpt lat="45.63259" lon="6.66566">
        <ele>2030.92</ele>
        <time>2011-03-06T08:21:16Z</time>
      </trkpt>
      <trkpt lat="45.6326" lon="6.66566">
        <ele>2030.92</ele>
        <time>2011-03-06T08:21:32Z</time>
      </trkpt>
      <trkpt lat="45.6326" lon="6.66566">
        <ele>2031.4</ele>
        <time>2011-03-06T08:21:47Z</time>
      </trkpt>
      <trkpt lat="45.63261" lon="6.66558">
        <ele>2032.36</ele>
        <time>2011-03-06T08:22:02Z</time>
      </trkpt>
      <trkpt lat="45.63259" lon="6.66539">
        <ele>2034.77</ele>
        <time>2011-03-06T08:22:16Z</time>
      </trkpt>
      <trkpt lat="45.63258" lon="6.66521">
        <ele>2037.17</ele>
        <time>2011-03-06T08:22:30Z</time>
      </trkpt>
      <trkpt lat="45.63258" lon="6.66508">
        <ele>2039.57</ele>
        <time>2011-03-06T08:22:43Z</time>
      </trkpt>
      <trkpt lat="45.63258" lon="6.66508">
        <ele>2039.09</ele>
        <time>2011-03-06T08:22:45Z</time>
      </trkpt>
      <trkpt lat="45.63255" lon="6.66488">
        <ele>2041.5</ele>
        <time>2011-03-06T08:22:58Z</time>
      </trkpt>
      <trkpt lat="45.63255" lon="6.66485">
        <ele>2041.98</ele>
        <time>2011-03-06T08:23:00Z</time>
      </trkpt>
      <trkpt lat="45.63258" lon="6.66472">
        <ele>2043.9</ele>
        <time>2011-03-06T08:23:11Z</time>
      </trkpt>
      <trkpt lat="45.63261" lon="6.66471">
        <ele>2044.38</ele>
        <time>2011-03-06T08:23:13Z</time>
      </trkpt>
      <trkpt lat="45.63269" lon="6.6647">
        <ele>2046.3</ele>
        <time>2011-03-06T08:23:22Z</time>
      </trkpt>
      <trkpt lat="45.63277" lon="6.66471">
        <ele>2048.23</ele>
        <time>2011-03-06T08:23:35Z</time>
      </trkpt>
      <trkpt lat="45.63279" lon="6.66472">
        <ele>2049.19</ele>
        <time>2011-03-06T08:23:37Z</time>
      </trkpt>
      <trkpt lat="45.63287" lon="6.66468">
        <ele>2052.07</ele>
        <time>2011-03-06T08:23:52Z</time>
      </trkpt>
      <trkpt lat="45.63287" lon="6.66467">
        <ele>2052.07</ele>
        <time>2011-03-06T08:23:53Z</time>
      </trkpt>
      <trkpt lat="45.63284" lon="6.66455">
        <ele>2054.47</ele>
        <time>2011-03-06T08:24:06Z</time>
      </trkpt>
      <trkpt lat="45.63279" lon="6.66438">
        <ele>2056.88</ele>
        <time>2011-03-06T08:24:21Z</time>
      </trkpt>
      <trkpt lat="45.63279" lon="6.66422">
        <ele>2059.28</ele>
        <time>2011-03-06T08:24:36Z</time>
      </trkpt>
      <trkpt lat="45.6328" lon="6.66409">
        <ele>2061.68</ele>
        <time>2011-03-06T08:24:49Z</time>
      </trkpt>
      <trkpt lat="45.63283" lon="6.66399">
        <ele>2063.13</ele>
        <time>2011-03-06T08:25:02Z</time>
      </trkpt>
      <trkpt lat="45.63287" lon="6.66388">
        <ele>2065.05</ele>
        <time>2011-03-06T08:25:15Z</time>
      </trkpt>
      <trkpt lat="45.63289" lon="6.66382">
        <ele>2066.01</ele>
        <time>2011-03-06T08:25:31Z</time>
      </trkpt>
      <trkpt lat="45.63289" lon="6.66383">
        <ele>2065.05</ele>
        <time>2011-03-06T08:25:48Z</time>
      </trkpt>
      <trkpt lat="45.63289" lon="6.66383">
        <ele>2064.57</ele>
        <time>2011-03-06T08:26:10Z</time>
      </trkpt>
      <trkpt lat="45.63289" lon="6.66383">
        <ele>2064.57</ele>
        <time>2011-03-06T08:26:41Z</time>
      </trkpt>
      <trkpt lat="45.63289" lon="6.66382">
        <ele>2064.57</ele>
        <time>2011-03-06T08:27:17Z</time>
      </trkpt>
      <trkpt lat="45.63288" lon="6.66382">
        <ele>2064.09</ele>
        <time>2011-03-06T08:27:58Z</time>
      </trkpt>
      <trkpt lat="45.63288" lon="6.66382">
        <ele>2064.57</ele>
        <time>2011-03-06T08:28:25Z</time>
      </trkpt>
      <trkpt lat="45.63288" lon="6.66382">
        <ele>2065.05</ele>
        <time>2011-03-06T08:28:53Z</time>
      </trkpt>
      <trkpt lat="45.63288" lon="6.66383">
        <ele>2065.53</ele>
        <time>2011-03-06T08:29:18Z</time>
      </trkpt>
      <trkpt lat="45.63289" lon="6.66383">
        <ele>2065.53</ele>
        <time>2011-03-06T08:29:35Z</time>
      </trkpt>
      <trkpt lat="45.63298" lon="6.66379">
        <ele>2067.93</ele>
        <time>2011-03-06T08:29:47Z</time>
      </trkpt>
      <trkpt lat="45.63311" lon="6.66372">
        <ele>2071.78</ele>
        <time>2011-03-06T08:30:02Z</time>
      </trkpt>
      <trkpt lat="45.63311" lon="6.6637">
        <ele>2071.78</ele>
        <time>2011-03-06T08:30:03Z</time>
      </trkpt>
      <trkpt lat="45.63312" lon="6.66365">
        <ele>2072.26</ele>
        <time>2011-03-06T08:30:08Z</time>
      </trkpt>
      <trkpt lat="45.63322" lon="6.66352">
        <ele>2075.14</ele>
        <time>2011-03-06T08:30:22Z</time>
      </trkpt>
      <trkpt lat="45.63322" lon="6.66352">
        <ele>2075.62</ele>
        <time>2011-03-06T08:30:23Z</time>
      </trkpt>
      <trkpt lat="45.63336" lon="6.66339">
        <ele>2076.1</ele>
        <time>2011-03-06T08:30:37Z</time>
      </trkpt>
      <trkpt lat="45.63338" lon="6.66338">
        <ele>2077.07</ele>
        <time>2011-03-06T08:30:39Z</time>
      </trkpt>
      <trkpt lat="45.6334" lon="6.66337">
        <ele>2077.55</ele>
        <time>2011-03-06T08:30:41Z</time>
      </trkpt>
      <trkpt lat="45.6335" lon="6.66328">
        <ele>2079.47</ele>
        <time>2011-03-06T08:30:55Z</time>
      </trkpt>
      <trkpt lat="45.63358" lon="6.6632">
        <ele>2081.87</ele>
        <time>2011-03-06T08:31:09Z</time>
      </trkpt>
      <trkpt lat="45.63364" lon="6.66314">
        <ele>2084.76</ele>
        <time>2011-03-06T08:31:22Z</time>
      </trkpt>
      <trkpt lat="45.63368" lon="6.66311">
        <ele>2085.24</ele>
        <time>2011-03-06T08:31:38Z</time>
      </trkpt>
      <trkpt lat="45.6337" lon="6.6631">
        <ele>2087.64</ele>
        <time>2011-03-06T08:31:53Z</time>
      </trkpt>
      <trkpt lat="45.63374" lon="6.66321">
        <ele>2090.04</ele>
        <time>2011-03-06T08:32:07Z</time>
      </trkpt>
      <trkpt lat="45.6338" lon="6.66331">
        <ele>2092.45</ele>
        <time>2011-03-06T08:32:21Z</time>
      </trkpt>
      <trkpt lat="45.63384" lon="6.66338">
        <ele>2094.85</ele>
        <time>2011-03-06T08:32:35Z</time>
      </trkpt>
      <trkpt lat="45.63388" lon="6.66335">
        <ele>2096.77</ele>
        <time>2011-03-06T08:32:44Z</time>
      </trkpt>
      <trkpt lat="45.63397" lon="6.66322">
        <ele>2099.18</ele>
        <time>2011-03-06T08:32:59Z</time>
      </trkpt>
      <trkpt lat="45.63402" lon="6.66305">
        <ele>2101.58</ele>
        <time>2011-03-06T08:33:15Z</time>
      </trkpt>
      <trkpt lat="45.63408" lon="6.66297">
        <ele>2103.98</ele>
        <time>2011-03-06T08:33:29Z</time>
      </trkpt>
      <trkpt lat="45.63418" lon="6.66292">
        <ele>2105.91</ele>
        <time>2011-03-06T08:33:42Z</time>
      </trkpt>
      <trkpt lat="45.63419" lon="6.66291">
        <ele>2106.39</ele>
        <time>2011-03-06T08:33:57Z</time>
      </trkpt>
      <trkpt lat="45.6342" lon="6.66291">
        <ele>2107.35</ele>
        <time>2011-03-06T08:33:58Z</time>
      </trkpt>
      <trkpt lat="45.63424" lon="6.66287">
        <ele>2107.35</ele>
        <time>2011-03-06T08:34:03Z</time>
      </trkpt>
      <trkpt lat="45.63438" lon="6.66272">
        <ele>2109.75</ele>
        <time>2011-03-06T08:34:19Z</time>
      </trkpt>
      <trkpt lat="45.63442" lon="6.66268">
        <ele>2109.75</ele>
        <time>2011-03-06T08:34:23Z</time>
      </trkpt>
      <trkpt lat="45.63445" lon="6.66264">
        <ele>2110.71</ele>
        <time>2011-03-06T08:34:28Z</time>
      </trkpt>
      <trkpt lat="45.63456" lon="6.66257">
        <ele>2112.63</ele>
        <time>2011-03-06T08:34:39Z</time>
      </trkpt>
      <trkpt lat="45.63461" lon="6.66258">
        <ele>2113.12</ele>
        <time>2011-03-06T08:34:44Z</time>
      </trkpt>
      <trkpt lat="45.63463" lon="6.6626">
        <ele>2114.08</ele>
        <time>2011-03-06T08:34:47Z</time>
      </trkpt>
      <trkpt lat="45.63477" lon="6.6625">
        <ele>2115.04</ele>
        <time>2011-03-06T08:35:02Z</time>
      </trkpt>
      <trkpt lat="45.63493" lon="6.6624">
        <ele>2116.96</ele>
        <time>2011-03-06T08:35:16Z</time>
      </trkpt>
      <trkpt lat="45.63497" lon="6.66233">
        <ele>2117.44</ele>
        <time>2011-03-06T08:35:24Z</time>
      </trkpt>
      <trkpt lat="45.635" lon="6.66225">
        <ele>2119.36</ele>
        <time>2011-03-06T08:35:32Z</time>
      </trkpt>
      <trkpt lat="45.63503" lon="6.6621">
        <ele>2121.77</ele>
        <time>2011-03-06T08:35:45Z</time>
      </trkpt>
      <trkpt lat="45.63507" lon="6.66204">
        <ele>2123.21</ele>
        <time>2011-03-06T08:35:57Z</time>
      </trkpt>
      <trkpt lat="45.63508" lon="6.662">
        <ele>2124.17</ele>
        <time>2011-03-06T08:36:14Z</time>
      </trkpt>
      <trkpt lat="45.6351" lon="6.66196">
        <ele>2124.65</ele>
        <time>2011-03-06T08:36:30Z</time>
      </trkpt>
      <trkpt lat="45.63511" lon="6.66192">
        <ele>2125.61</ele>
        <time>2011-03-06T08:36:44Z</time>
      </trkpt>
      <trkpt lat="45.63518" lon="6.66196">
        <ele>2127.53</ele>
        <time>2011-03-06T08:36:58Z</time>
      </trkpt>
      <trkpt lat="45.63522" lon="6.66185">
        <ele>2129.94</ele>
        <time>2011-03-06T08:37:12Z</time>
      </trkpt>
      <trkpt lat="45.63527" lon="6.66176">
        <ele>2132.82</ele>
        <time>2011-03-06T08:37:25Z</time>
      </trkpt>
      <trkpt lat="45.63527" lon="6.66173">
        <ele>2132.34</ele>
        <time>2011-03-06T08:37:27Z</time>
      </trkpt>
      <trkpt lat="45.6353" lon="6.66164">
        <ele>2133.78</ele>
        <time>2011-03-06T08:37:35Z</time>
      </trkpt>
      <trkpt lat="45.63537" lon="6.66154">
        <ele>2137.15</ele>
        <time>2011-03-06T08:37:48Z</time>
      </trkpt>
      <trkpt lat="45.63537" lon="6.66144">
        <ele>2140.03</ele>
        <time>2011-03-06T08:38:01Z</time>
      </trkpt>
      <trkpt lat="45.63538" lon="6.66141">
        <ele>2140.03</ele>
        <time>2011-03-06T08:38:04Z</time>
      </trkpt>
      <trkpt lat="45.63546" lon="6.66137">
        <ele>2140.99</ele>
        <time>2011-03-06T08:38:16Z</time>
      </trkpt>
      <trkpt lat="45.63551" lon="6.66139">
        <ele>2142.44</ele>
        <time>2011-03-06T08:38:23Z</time>
      </trkpt>
      <trkpt lat="45.63556" lon="6.6614">
        <ele>2147.72</ele>
        <time>2011-03-06T08:38:28Z</time>
      </trkpt>
      <trkpt lat="45.63557" lon="6.6614">
        <ele>2142.92</ele>
        <time>2011-03-06T08:38:29Z</time>
      </trkpt>
      <trkpt lat="45.63559" lon="6.66141">
        <ele>2146.28</ele>
        <time>2011-03-06T08:38:35Z</time>
      </trkpt>
      <trkpt lat="45.6356" lon="6.66141">
        <ele>2145.8</ele>
        <time>2011-03-06T08:38:36Z</time>
      </trkpt>
      <trkpt lat="45.63565" lon="6.66139">
        <ele>2146.28</ele>
        <time>2011-03-06T08:38:50Z</time>
      </trkpt>
      <trkpt lat="45.63565" lon="6.66139">
        <ele>2149.65</ele>
        <time>2011-03-06T08:38:51Z</time>
      </trkpt>
      <trkpt lat="45.63565" lon="6.66139">
        <ele>2147.24</ele>
        <time>2011-03-06T08:38:52Z</time>
      </trkpt>
      <trkpt lat="45.63565" lon="6.66139">
        <ele>2144.84</ele>
        <time>2011-03-06T08:38:55Z</time>
      </trkpt>
      <trkpt lat="45.63573" lon="6.66145">
        <ele>2146.28</ele>
        <time>2011-03-06T08:39:07Z</time>
      </trkpt>
      <trkpt lat="45.63576" lon="6.66148">
        <ele>2147.24</ele>
        <time>2011-03-06T08:39:12Z</time>
      </trkpt>
      <trkpt lat="45.63587" lon="6.66139">
        <ele>2144.84</ele>
        <time>2011-03-06T08:39:20Z</time>
      </trkpt>
      <trkpt lat="45.63602" lon="6.66139">
        <ele>2146.28</ele>
        <time>2011-03-06T08:39:33Z</time>
      </trkpt>
      <trkpt lat="45.63607" lon="6.66145">
        <ele>2146.76</ele>
        <time>2011-03-06T08:39:39Z</time>
      </trkpt>
      <trkpt lat="45.6361" lon="6.66151">
        <ele>2148.2</ele>
        <time>2011-03-06T08:39:45Z</time>
      </trkpt>
      <trkpt lat="45.63615" lon="6.66154">
        <ele>2148.68</ele>
        <time>2011-03-06T08:39:49Z</time>
      </trkpt>
      <trkpt lat="45.63625" lon="6.66152">
        <ele>2145.8</ele>
        <time>2011-03-06T08:39:54Z</time>
      </trkpt>
      <trkpt lat="45.63642" lon="6.66149">
        <ele>2146.28</ele>
        <time>2011-03-06T08:40:05Z</time>
      </trkpt>
      <trkpt lat="45.63654" lon="6.66163">
        <ele>2148.2</ele>
        <time>2011-03-06T08:40:20Z</time>
      </trkpt>
      <trkpt lat="45.63663" lon="6.66172">
        <ele>2151.57</ele>
        <time>2011-03-06T08:40:33Z</time>
      </trkpt>
      <trkpt lat="45.63671" lon="6.66177">
        <ele>2153.49</ele>
        <time>2011-03-06T08:40:47Z</time>
      </trkpt>
      <trkpt lat="45.63678" lon="6.6619">
        <ele>2155.89</ele>
        <time>2011-03-06T08:41:03Z</time>
      </trkpt>
      <trkpt lat="45.63681" lon="6.66194">
        <ele>2156.86</ele>
        <time>2011-03-06T08:41:21Z</time>
      </trkpt>
      <trkpt lat="45.63691" lon="6.66205">
        <ele>2158.78</ele>
        <time>2011-03-06T08:41:34Z</time>
      </trkpt>
      <trkpt lat="45.63699" lon="6.66213">
        <ele>2161.66</ele>
        <time>2011-03-06T08:41:49Z</time>
      </trkpt>
      <trkpt lat="45.63707" lon="6.66217">
        <ele>2162.62</ele>
        <time>2011-03-06T08:42:03Z</time>
      </trkpt>
      <trkpt lat="45.6371" lon="6.66218">
        <ele>2163.58</ele>
        <time>2011-03-06T08:42:07Z</time>
      </trkpt>
      <trkpt lat="45.63712" lon="6.66219">
        <ele>2164.06</ele>
        <time>2011-03-06T08:42:09Z</time>
      </trkpt>
      <trkpt lat="45.63727" lon="6.66227">
        <ele>2165.99</ele>
        <time>2011-03-06T08:42:25Z</time>
      </trkpt>
      <trkpt lat="45.63736" lon="6.66239">
        <ele>2168.39</ele>
        <time>2011-03-06T08:42:40Z</time>
      </trkpt>
      <trkpt lat="45.63741" lon="6.66244">
        <ele>2171.27</ele>
        <time>2011-03-06T08:42:55Z</time>
      </trkpt>
      <trkpt lat="45.63749" lon="6.66252">
        <ele>2172.24</ele>
        <time>2011-03-06T08:43:04Z</time>
      </trkpt>
      <trkpt lat="45.63751" lon="6.66253">
        <ele>2172.24</ele>
        <time>2011-03-06T08:43:06Z</time>
      </trkpt>
      <trkpt lat="45.63761" lon="6.6626">
        <ele>2174.64</ele>
        <time>2011-03-06T08:43:19Z</time>
      </trkpt>
      <trkpt lat="45.63762" lon="6.6626">
        <ele>2174.64</ele>
        <time>2011-03-06T08:43:21Z</time>
      </trkpt>
      <trkpt lat="45.63765" lon="6.66261">
        <ele>2175.6</ele>
        <time>2011-03-06T08:43:24Z</time>
      </trkpt>
      <trkpt lat="45.63768" lon="6.66262">
        <ele>2176.56</ele>
        <time>2011-03-06T08:43:30Z</time>
      </trkpt>
      <trkpt lat="45.63778" lon="6.6627">
        <ele>2179.45</ele>
        <time>2011-03-06T08:43:45Z</time>
      </trkpt>
      <trkpt lat="45.6378" lon="6.66269">
        <ele>2180.89</ele>
        <time>2011-03-06T08:43:52Z</time>
      </trkpt>
      <trkpt lat="45.63783" lon="6.66267">
        <ele>2181.85</ele>
        <time>2011-03-06T08:43:55Z</time>
      </trkpt>
      <trkpt lat="45.63794" lon="6.66271">
        <ele>2183.77</ele>
        <time>2011-03-06T08:44:10Z</time>
      </trkpt>
      <trkpt lat="45.63797" lon="6.66273">
        <ele>2184.25</ele>
        <time>2011-03-06T08:44:14Z</time>
      </trkpt>
      <trkpt lat="45.638" lon="6.66274">
        <ele>2184.73</ele>
        <time>2011-03-06T08:44:18Z</time>
      </trkpt>
      <trkpt lat="45.63812" lon="6.6628">
        <ele>2187.14</ele>
        <time>2011-03-06T08:44:32Z</time>
      </trkpt>
      <trkpt lat="45.63819" lon="6.66286">
        <ele>2189.06</ele>
        <time>2011-03-06T08:44:47Z</time>
      </trkpt>
      <trkpt lat="45.63832" lon="6.66291">
        <ele>2190.98</ele>
        <time>2011-03-06T08:45:00Z</time>
      </trkpt>
      <trkpt lat="45.63838" lon="6.66295">
        <ele>2191.94</ele>
        <time>2011-03-06T08:45:08Z</time>
      </trkpt>
      <trkpt lat="45.6385" lon="6.66301">
        <ele>2194.35</ele>
        <time>2011-03-06T08:45:23Z</time>
      </trkpt>
      <trkpt lat="45.6385" lon="6.66302">
        <ele>2193.87</ele>
        <time>2011-03-06T08:45:24Z</time>
      </trkpt>
      <trkpt lat="45.63853" lon="6.66303">
        <ele>2194.83</ele>
        <time>2011-03-06T08:45:27Z</time>
      </trkpt>
      <trkpt lat="45.63863" lon="6.66316">
        <ele>2196.27</ele>
        <time>2011-03-06T08:45:42Z</time>
      </trkpt>
      <trkpt lat="45.63864" lon="6.66318">
        <ele>2197.23</ele>
        <time>2011-03-06T08:45:47Z</time>
      </trkpt>
      <trkpt lat="45.63872" lon="6.66322">
        <ele>2199.63</ele>
        <time>2011-03-06T08:46:03Z</time>
      </trkpt>
      <trkpt lat="45.63881" lon="6.66325">
        <ele>2201.08</ele>
        <time>2011-03-06T08:46:15Z</time>
      </trkpt>
      <trkpt lat="45.63883" lon="6.66325">
        <ele>2201.08</ele>
        <time>2011-03-06T08:46:17Z</time>
      </trkpt>
      <trkpt lat="45.63894" lon="6.66322">
        <ele>2202.52</ele>
        <time>2011-03-06T08:46:30Z</time>
      </trkpt>
      <trkpt lat="45.63911" lon="6.66321">
        <ele>2203.96</ele>
        <time>2011-03-06T08:46:45Z</time>
      </trkpt>
      <trkpt lat="45.63928" lon="6.66327">
        <ele>2206.84</ele>
        <time>2011-03-06T08:47:00Z</time>
      </trkpt>
      <trkpt lat="45.63929" lon="6.66327">
        <ele>2206.84</ele>
        <time>2011-03-06T08:47:02Z</time>
      </trkpt>
      <trkpt lat="45.63945" lon="6.66331">
        <ele>2209.25</ele>
        <time>2011-03-06T08:47:16Z</time>
      </trkpt>
      <trkpt lat="45.63948" lon="6.66329">
        <ele>2209.25</ele>
        <time>2011-03-06T08:47:18Z</time>
      </trkpt>
      <trkpt lat="45.6395" lon="6.66323">
        <ele>2210.69</ele>
        <time>2011-03-06T08:47:22Z</time>
      </trkpt>
      <trkpt lat="45.6396" lon="6.66328">
        <ele>2213.09</ele>
        <time>2011-03-06T08:47:33Z</time>
      </trkpt>
      <trkpt lat="45.63967" lon="6.66329">
        <ele>2214.53</ele>
        <time>2011-03-06T08:47:40Z</time>
      </trkpt>
      <trkpt lat="45.63974" lon="6.66331">
        <ele>2215.01</ele>
        <time>2011-03-06T08:47:48Z</time>
      </trkpt>
      <trkpt lat="45.63977" lon="6.66331">
        <ele>2216.94</ele>
        <time>2011-03-06T08:47:55Z</time>
      </trkpt>
      <trkpt lat="45.63988" lon="6.66334">
        <ele>2218.86</ele>
        <time>2011-03-06T08:48:08Z</time>
      </trkpt>
      <trkpt lat="45.64" lon="6.66336">
        <ele>2220.78</ele>
        <time>2011-03-06T08:48:23Z</time>
      </trkpt>
      <trkpt lat="45.64005" lon="6.66341">
        <ele>2222.71</ele>
        <time>2011-03-06T08:48:31Z</time>
      </trkpt>
      <trkpt lat="45.64016" lon="6.66348">
        <ele>2225.59</ele>
        <time>2011-03-06T08:48:47Z</time>
      </trkpt>
      <trkpt lat="45.64026" lon="6.6635">
        <ele>2227.51</ele>
        <time>2011-03-06T08:49:01Z</time>
      </trkpt>
      <trkpt lat="45.64037" lon="6.66355">
        <ele>2230.4</ele>
        <time>2011-03-06T08:49:14Z</time>
      </trkpt>
      <trkpt lat="45.64045" lon="6.66352">
        <ele>2233.28</ele>
        <time>2011-03-06T08:49:27Z</time>
      </trkpt>
      <trkpt lat="45.64051" lon="6.66344">
        <ele>2235.2</ele>
        <time>2011-03-06T08:49:39Z</time>
      </trkpt>
      <trkpt lat="45.64055" lon="6.66338">
        <ele>2236.64</ele>
        <time>2011-03-06T08:49:55Z</time>
      </trkpt>
      <trkpt lat="45.64057" lon="6.66337">
        <ele>2237.13</ele>
        <time>2011-03-06T08:49:57Z</time>
      </trkpt>
      <trkpt lat="45.64072" lon="6.66345">
        <ele>2239.53</ele>
        <time>2011-03-06T08:50:12Z</time>
      </trkpt>
      <trkpt lat="45.6408" lon="6.66338">
        <ele>2242.41</ele>
        <time>2011-03-06T08:50:26Z</time>
      </trkpt>
      <trkpt lat="45.64087" lon="6.66336">
        <ele>2243.85</ele>
        <time>2011-03-06T08:50:34Z</time>
      </trkpt>
      <trkpt lat="45.64101" lon="6.66338">
        <ele>2245.78</ele>
        <time>2011-03-06T08:50:51Z</time>
      </trkpt>
      <trkpt lat="45.64105" lon="6.66341">
        <ele>2248.18</ele>
        <time>2011-03-06T08:51:00Z</time>
      </trkpt>
      <trkpt lat="45.6411" lon="6.6634">
        <ele>2250.58</ele>
        <time>2011-03-06T08:51:08Z</time>
      </trkpt>
      <trkpt lat="45.64115" lon="6.6633">
        <ele>2252.03</ele>
        <time>2011-03-06T08:51:19Z</time>
      </trkpt>
      <trkpt lat="45.64125" lon="6.66327">
        <ele>2255.87</ele>
        <time>2011-03-06T08:51:33Z</time>
      </trkpt>
      <trkpt lat="45.64125" lon="6.66321">
        <ele>2256.83</ele>
        <time>2011-03-06T08:51:42Z</time>
      </trkpt>
      <trkpt lat="45.64138" lon="6.66323">
        <ele>2259.24</ele>
        <time>2011-03-06T08:51:54Z</time>
      </trkpt>
      <trkpt lat="45.64146" lon="6.66322">
        <ele>2261.16</ele>
        <time>2011-03-06T08:52:08Z</time>
      </trkpt>
      <trkpt lat="45.6415" lon="6.66321">
        <ele>2263.56</ele>
        <time>2011-03-06T08:52:19Z</time>
      </trkpt>
      <trkpt lat="45.64151" lon="6.66318">
        <ele>2264.52</ele>
        <time>2011-03-06T08:52:28Z</time>
      </trkpt>
      <trkpt lat="45.64158" lon="6.66317">
        <ele>2267.89</ele>
        <time>2011-03-06T08:52:43Z</time>
      </trkpt>
      <trkpt lat="45.64164" lon="6.66316">
        <ele>2269.81</ele>
        <time>2011-03-06T08:52:51Z</time>
      </trkpt>
      <trkpt lat="45.64167" lon="6.66314">
        <ele>2269.33</ele>
        <time>2011-03-06T08:52:54Z</time>
      </trkpt>
      <trkpt lat="45.64171" lon="6.66307">
        <ele>2271.73</ele>
        <time>2011-03-06T08:53:02Z</time>
      </trkpt>
      <trkpt lat="45.6417" lon="6.66302">
        <ele>2272.69</ele>
        <time>2011-03-06T08:53:08Z</time>
      </trkpt>
      <trkpt lat="45.6417" lon="6.66289">
        <ele>2274.62</ele>
        <time>2011-03-06T08:53:22Z</time>
      </trkpt>
      <trkpt lat="45.64171" lon="6.66276">
        <ele>2277.02</ele>
        <time>2011-03-06T08:53:36Z</time>
      </trkpt>
      <trkpt lat="45.64177" lon="6.6627">
        <ele>2278.46</ele>
        <time>2011-03-06T08:53:48Z</time>
      </trkpt>
      <trkpt lat="45.64183" lon="6.66268">
        <ele>2279.42</ele>
        <time>2011-03-06T08:53:56Z</time>
      </trkpt>
      <trkpt lat="45.64196" lon="6.66269">
        <ele>2282.31</ele>
        <time>2011-03-06T08:54:13Z</time>
      </trkpt>
      <trkpt lat="45.64204" lon="6.66276">
        <ele>2284.71</ele>
        <time>2011-03-06T08:54:28Z</time>
      </trkpt>
      <trkpt lat="45.64211" lon="6.66285">
        <ele>2287.59</ele>
        <time>2011-03-06T08:54:42Z</time>
      </trkpt>
      <trkpt lat="45.64213" lon="6.66285">
        <ele>2288.56</ele>
        <time>2011-03-06T08:54:57Z</time>
      </trkpt>
      <trkpt lat="45.64213" lon="6.66285">
        <ele>2291.44</ele>
        <time>2011-03-06T08:55:13Z</time>
      </trkpt>
      <trkpt lat="45.64228" lon="6.66292">
        <ele>2292.88</ele>
        <time>2011-03-06T08:55:24Z</time>
      </trkpt>
      <trkpt lat="45.6423" lon="6.66295">
        <ele>2293.84</ele>
        <time>2011-03-06T08:55:42Z</time>
      </trkpt>
      <trkpt lat="45.6423" lon="6.66295">
        <ele>2294.32</ele>
        <time>2011-03-06T08:55:55Z</time>
      </trkpt>
      <trkpt lat="45.64232" lon="6.66291">
        <ele>2296.73</ele>
        <time>2011-03-06T08:56:06Z</time>
      </trkpt>
      <trkpt lat="45.6424" lon="6.66282">
        <ele>2299.13</ele>
        <time>2011-03-06T08:56:19Z</time>
      </trkpt>
      <trkpt lat="45.64247" lon="6.66285">
        <ele>2300.57</ele>
        <time>2011-03-06T08:56:33Z</time>
      </trkpt>
      <trkpt lat="45.64251" lon="6.66285">
        <ele>2303.46</ele>
        <time>2011-03-06T08:56:44Z</time>
      </trkpt>
      <trkpt lat="45.64258" lon="6.66285">
        <ele>2305.38</ele>
        <time>2011-03-06T08:56:59Z</time>
      </trkpt>
      <trkpt lat="45.64267" lon="6.66287">
        <ele>2307.3</ele>
        <time>2011-03-06T08:57:15Z</time>
      </trkpt>
      <trkpt lat="45.64269" lon="6.66287">
        <ele>2308.26</ele>
        <time>2011-03-06T08:57:19Z</time>
      </trkpt>
      <trkpt lat="45.64278" lon="6.66293">
        <ele>2310.67</ele>
        <time>2011-03-06T08:57:34Z</time>
      </trkpt>
      <trkpt lat="45.64286" lon="6.66297">
        <ele>2313.07</ele>
        <time>2011-03-06T08:57:48Z</time>
      </trkpt>
      <trkpt lat="45.64299" lon="6.66297">
        <ele>2314.99</ele>
        <time>2011-03-06T08:58:04Z</time>
      </trkpt>
      <trkpt lat="45.64309" lon="6.66301">
        <ele>2317.4</ele>
        <time>2011-03-06T08:58:20Z</time>
      </trkpt>
      <trkpt lat="45.64317" lon="6.66303">
        <ele>2319.32</ele>
        <time>2011-03-06T08:58:37Z</time>
      </trkpt>
      <trkpt lat="45.64317" lon="6.66303">
        <ele>2318.84</ele>
        <time>2011-03-06T08:58:58Z</time>
      </trkpt>
      <trkpt lat="45.64317" lon="6.66303">
        <ele>2318.36</ele>
        <time>2011-03-06T08:59:15Z</time>
      </trkpt>
      <trkpt lat="45.64318" lon="6.66302">
        <ele>2319.32</ele>
        <time>2011-03-06T08:59:29Z</time>
      </trkpt>
      <trkpt lat="45.64319" lon="6.66302">
        <ele>2320.28</ele>
        <time>2011-03-06T08:59:44Z</time>
      </trkpt>
      <trkpt lat="45.64319" lon="6.66302">
        <ele>2319.8</ele>
        <time>2011-03-06T09:00:02Z</time>
      </trkpt>
      <trkpt lat="45.64319" lon="6.66301">
        <ele>2318.84</ele>
        <time>2011-03-06T09:00:17Z</time>
      </trkpt>
      <trkpt lat="45.64319" lon="6.66301">
        <ele>2313.55</ele>
        <time>2011-03-06T09:00:23Z</time>
      </trkpt>
      <trkpt lat="45.64319" lon="6.66301">
        <ele>2333.26</ele>
        <time>2011-03-06T09:00:24Z</time>
      </trkpt>
      <trkpt lat="45.64319" lon="6.66301">
        <ele>2322.2</ele>
        <time>2011-03-06T09:00:25Z</time>
      </trkpt>
      <trkpt lat="45.64319" lon="6.66301">
        <ele>2317.4</ele>
        <time>2011-03-06T09:00:32Z</time>
      </trkpt>
      <trkpt lat="45.64319" lon="6.66301">
        <ele>2320.76</ele>
        <time>2011-03-06T09:00:34Z</time>
      </trkpt>
      <trkpt lat="45.64319" lon="6.663">
        <ele>2320.28</ele>
        <time>2011-03-06T09:01:02Z</time>
      </trkpt>
      <trkpt lat="45.64318" lon="6.66303">
        <ele>2319.32</ele>
        <time>2011-03-06T09:01:34Z</time>
      </trkpt>
      <trkpt lat="45.64318" lon="6.66303">
        <ele>2319.32</ele>
        <time>2011-03-06T09:02:05Z</time>
      </trkpt>
      <trkpt lat="45.64318" lon="6.66302">
        <ele>2319.8</ele>
        <time>2011-03-06T09:02:41Z</time>
      </trkpt>
      <trkpt lat="45.64318" lon="6.66302">
        <ele>2319.8</ele>
        <time>2011-03-06T09:03:14Z</time>
      </trkpt>
      <trkpt lat="45.64318" lon="6.66301">
        <ele>2319.8</ele>
        <time>2011-03-06T09:03:47Z</time>
      </trkpt>
      <trkpt lat="45.64318" lon="6.66301">
        <ele>2319.8</ele>
        <time>2011-03-06T09:04:26Z</time>
      </trkpt>
      <trkpt lat="45.64318" lon="6.66301">
        <ele>2320.28</ele>
        <time>2011-03-06T09:05:03Z</time>
      </trkpt>
      <trkpt lat="45.64318" lon="6.66301">
        <ele>2320.76</ele>
        <time>2011-03-06T09:05:35Z</time>
      </trkpt>
      <trkpt lat="45.64318" lon="6.66301">
        <ele>2320.76</ele>
        <time>2011-03-06T09:06:04Z</time>
      </trkpt>
      <trkpt lat="45.64317" lon="6.66301">
        <ele>2320.28</ele>
        <time>2011-03-06T09:06:31Z</time>
      </trkpt>
      <trkpt lat="45.64318" lon="6.66303">
        <ele>2321.72</ele>
        <time>2011-03-06T09:06:48Z</time>
      </trkpt>
      <trkpt lat="45.64316" lon="6.66303">
        <ele>2321.24</ele>
        <time>2011-03-06T09:07:26Z</time>
      </trkpt>
      <trkpt lat="45.64316" lon="6.66303">
        <ele>2320.76</ele>
        <time>2011-03-06T09:07:55Z</time>
      </trkpt>
      <trkpt lat="45.64318" lon="6.66303">
        <ele>2322.2</ele>
        <time>2011-03-06T09:08:24Z</time>
      </trkpt>
      <trkpt lat="45.64318" lon="6.66305">
        <ele>2323.16</ele>
        <time>2011-03-06T09:08:43Z</time>
      </trkpt>
      <trkpt lat="45.64316" lon="6.66306">
        <ele>2321.24</ele>
        <time>2011-03-06T09:08:55Z</time>
      </trkpt>
      <trkpt lat="45.64315" lon="6.6631">
        <ele>2321.24</ele>
        <time>2011-03-06T09:09:08Z</time>
      </trkpt>
      <trkpt lat="45.64315" lon="6.66309">
        <ele>2321.24</ele>
        <time>2011-03-06T09:09:24Z</time>
      </trkpt>
      <trkpt lat="45.64315" lon="6.66309">
        <ele>2321.24</ele>
        <time>2011-03-06T09:09:46Z</time>
      </trkpt>
      <trkpt lat="45.64317" lon="6.6631">
        <ele>2321.72</ele>
        <time>2011-03-06T09:10:01Z</time>
      </trkpt>
      <trkpt lat="45.64318" lon="6.66309">
        <ele>2322.2</ele>
        <time>2011-03-06T09:10:25Z</time>
      </trkpt>
      <trkpt lat="45.64318" lon="6.66309">
        <ele>2321.72</ele>
        <time>2011-03-06T09:10:46Z</time>
      </trkpt>
      <trkpt lat="45.64323" lon="6.66312">
        <ele>2322.68</ele>
        <time>2011-03-06T09:11:10Z</time>
      </trkpt>
      <trkpt lat="45.64335" lon="6.66307">
        <ele>2325.09</ele>
        <time>2011-03-06T09:11:25Z</time>
      </trkpt>
      <trkpt lat="45.64336" lon="6.66307">
        <ele>2325.09</ele>
        <time>2011-03-06T09:11:27Z</time>
      </trkpt>
      <trkpt lat="45.64346" lon="6.66304">
        <ele>2327.01</ele>
        <time>2011-03-06T09:11:36Z</time>
      </trkpt>
      <trkpt lat="45.64357" lon="6.66301">
        <ele>2330.37</ele>
        <time>2011-03-06T09:11:48Z</time>
      </trkpt>
      <trkpt lat="45.64375" lon="6.66297">
        <ele>2331.33</ele>
        <time>2011-03-06T09:12:05Z</time>
      </trkpt>
      <trkpt lat="45.64388" lon="6.663">
        <ele>2333.74</ele>
        <time>2011-03-06T09:12:20Z</time>
      </trkpt>
      <trkpt lat="45.64402" lon="6.66302">
        <ele>2335.66</ele>
        <time>2011-03-06T09:12:35Z</time>
      </trkpt>
      <trkpt lat="45.64416" lon="6.66307">
        <ele>2338.06</ele>
        <time>2011-03-06T09:12:50Z</time>
      </trkpt>
      <trkpt lat="45.64427" lon="6.66311">
        <ele>2340.47</ele>
        <time>2011-03-06T09:13:04Z</time>
      </trkpt>
      <trkpt lat="45.64439" lon="6.66312">
        <ele>2343.83</ele>
        <time>2011-03-06T09:13:20Z</time>
      </trkpt>
      <trkpt lat="45.6445" lon="6.66314">
        <ele>2347.2</ele>
        <time>2011-03-06T09:13:36Z</time>
      </trkpt>
      <trkpt lat="45.64461" lon="6.66315">
        <ele>2350.56</ele>
        <time>2011-03-06T09:13:53Z</time>
      </trkpt>
      <trkpt lat="45.64469" lon="6.66317">
        <ele>2353.93</ele>
        <time>2011-03-06T09:14:07Z</time>
      </trkpt>
      <trkpt lat="45.6448" lon="6.66319">
        <ele>2356.81</ele>
        <time>2011-03-06T09:14:24Z</time>
      </trkpt>
      <trkpt lat="45.64484" lon="6.66321">
        <ele>2360.17</ele>
        <time>2011-03-06T09:14:38Z</time>
      </trkpt>
      <trkpt lat="45.64494" lon="6.66324">
        <ele>2362.58</ele>
        <time>2011-03-06T09:14:54Z</time>
      </trkpt>
      <trkpt lat="45.64501" lon="6.66323">
        <ele>2365.46</ele>
        <time>2011-03-06T09:15:10Z</time>
      </trkpt>
      <trkpt lat="45.6451" lon="6.66326">
        <ele>2367.86</ele>
        <time>2011-03-06T09:15:24Z</time>
      </trkpt>
      <trkpt lat="45.64517" lon="6.66328">
        <ele>2369.79</ele>
        <time>2011-03-06T09:15:37Z</time>
      </trkpt>
      <trkpt lat="45.64526" lon="6.66331">
        <ele>2371.71</ele>
        <time>2011-03-06T09:15:53Z</time>
      </trkpt>
      <trkpt lat="45.64536" lon="6.66334">
        <ele>2375.07</ele>
        <time>2011-03-06T09:16:07Z</time>
      </trkpt>
      <trkpt lat="45.64542" lon="6.66337">
        <ele>2377.96</ele>
        <time>2011-03-06T09:16:21Z</time>
      </trkpt>
      <trkpt lat="45.64552" lon="6.66344">
        <ele>2380.36</ele>
        <time>2011-03-06T09:16:37Z</time>
      </trkpt>
      <trkpt lat="45.6456" lon="6.66352">
        <ele>2382.76</ele>
        <time>2011-03-06T09:16:52Z</time>
      </trkpt>
      <trkpt lat="45.64566" lon="6.66353">
        <ele>2385.65</ele>
        <time>2011-03-06T09:17:08Z</time>
      </trkpt>
      <trkpt lat="45.64574" lon="6.66356">
        <ele>2388.05</ele>
        <time>2011-03-06T09:17:21Z</time>
      </trkpt>
      <trkpt lat="45.64583" lon="6.66357">
        <ele>2389.01</ele>
        <time>2011-03-06T09:17:35Z</time>
      </trkpt>
      <trkpt lat="45.64594" lon="6.66358">
        <ele>2391.42</ele>
        <time>2011-03-06T09:17:50Z</time>
      </trkpt>
      <trkpt lat="45.64602" lon="6.66359">
        <ele>2393.34</ele>
        <time>2011-03-06T09:18:03Z</time>
      </trkpt>
      <trkpt lat="45.64613" lon="6.66361">
        <ele>2393.34</ele>
        <time>2011-03-06T09:18:15Z</time>
      </trkpt>
      <trkpt lat="45.64623" lon="6.66361">
        <ele>2395.26</ele>
        <time>2011-03-06T09:18:30Z</time>
      </trkpt>
      <trkpt lat="45.64631" lon="6.66363">
        <ele>2397.67</ele>
        <time>2011-03-06T09:18:44Z</time>
      </trkpt>
      <trkpt lat="45.64639" lon="6.66364">
        <ele>2400.07</ele>
        <time>2011-03-06T09:18:57Z</time>
      </trkpt>
      <trkpt lat="45.64649" lon="6.66368">
        <ele>2402.47</ele>
        <time>2011-03-06T09:19:12Z</time>
      </trkpt>
      <trkpt lat="45.64657" lon="6.66371">
        <ele>2404.88</ele>
        <time>2011-03-06T09:19:27Z</time>
      </trkpt>
      <trkpt lat="45.64659" lon="6.6638">
        <ele>2406.32</ele>
        <time>2011-03-06T09:19:42Z</time>
      </trkpt>
      <trkpt lat="45.64658" lon="6.66386">
        <ele>2408.24</ele>
        <time>2011-03-06T09:19:54Z</time>
      </trkpt>
      <trkpt lat="45.64659" lon="6.66386">
        <ele>2409.2</ele>
        <time>2011-03-06T09:19:56Z</time>
      </trkpt>
      <trkpt lat="45.64666" lon="6.66375">
        <ele>2410.64</ele>
        <time>2011-03-06T09:20:11Z</time>
      </trkpt>
      <trkpt lat="45.64666" lon="6.66375">
        <ele>2412.57</ele>
        <time>2011-03-06T09:20:26Z</time>
      </trkpt>
      <trkpt lat="45.64666" lon="6.66388">
        <ele>2413.05</ele>
        <time>2011-03-06T09:20:39Z</time>
      </trkpt>
      <trkpt lat="45.64666" lon="6.66392">
        <ele>2414.01</ele>
        <time>2011-03-06T09:20:44Z</time>
      </trkpt>
      <trkpt lat="45.64665" lon="6.66395">
        <ele>2414.97</ele>
        <time>2011-03-06T09:21:02Z</time>
      </trkpt>
      <trkpt lat="45.64671" lon="6.6639">
        <ele>2415.93</ele>
        <time>2011-03-06T09:21:20Z</time>
      </trkpt>
      <trkpt lat="45.64675" lon="6.66388">
        <ele>2417.37</ele>
        <time>2011-03-06T09:21:31Z</time>
      </trkpt>
      <trkpt lat="45.64677" lon="6.6639">
        <ele>2418.33</ele>
        <time>2011-03-06T09:21:49Z</time>
      </trkpt>
      <trkpt lat="45.64677" lon="6.66392">
        <ele>2418.81</ele>
        <time>2011-03-06T09:21:54Z</time>
      </trkpt>
      <trkpt lat="45.64678" lon="6.66394">
        <ele>2418.33</ele>
        <time>2011-03-06T09:21:58Z</time>
      </trkpt>
      <trkpt lat="45.64677" lon="6.66402">
        <ele>2419.78</ele>
        <time>2011-03-06T09:22:13Z</time>
      </trkpt>
      <trkpt lat="45.64677" lon="6.66403">
        <ele>2420.26</ele>
        <time>2011-03-06T09:22:29Z</time>
      </trkpt>
      <trkpt lat="45.64678" lon="6.66399">
        <ele>2422.18</ele>
        <time>2011-03-06T09:22:45Z</time>
      </trkpt>
      <trkpt lat="45.6468" lon="6.66398">
        <ele>2424.1</ele>
        <time>2011-03-06T09:23:02Z</time>
      </trkpt>
      <trkpt lat="45.6468" lon="6.664">
        <ele>2424.1</ele>
        <time>2011-03-06T09:23:21Z</time>
      </trkpt>
      <trkpt lat="45.6468" lon="6.664">
        <ele>2425.06</ele>
        <time>2011-03-06T09:23:36Z</time>
      </trkpt>
      <trkpt lat="45.64683" lon="6.66402">
        <ele>2426.99</ele>
        <time>2011-03-06T09:23:50Z</time>
      </trkpt>
      <trkpt lat="45.64687" lon="6.66403">
        <ele>2427.95</ele>
        <time>2011-03-06T09:24:02Z</time>
      </trkpt>
      <trkpt lat="45.6469" lon="6.66412">
        <ele>2429.39</ele>
        <time>2011-03-06T09:24:19Z</time>
      </trkpt>
      <trkpt lat="45.64694" lon="6.66417">
        <ele>2430.83</ele>
        <time>2011-03-06T09:24:32Z</time>
      </trkpt>
      <trkpt lat="45.64699" lon="6.66424">
        <ele>2434.2</ele>
        <time>2011-03-06T09:24:43Z</time>
      </trkpt>
      <trkpt lat="45.64702" lon="6.66416">
        <ele>2435.64</ele>
        <time>2011-03-06T09:24:56Z</time>
      </trkpt>
      <trkpt lat="45.64702" lon="6.66413">
        <ele>2436.12</ele>
        <time>2011-03-06T09:25:15Z</time>
      </trkpt>
      <trkpt lat="45.64704" lon="6.66413">
        <ele>2437.56</ele>
        <time>2011-03-06T09:25:28Z</time>
      </trkpt>
      <trkpt lat="45.64706" lon="6.66415">
        <ele>2438.04</ele>
        <time>2011-03-06T09:25:31Z</time>
      </trkpt>
      <trkpt lat="45.6471" lon="6.6642">
        <ele>2439.96</ele>
        <time>2011-03-06T09:25:42Z</time>
      </trkpt>
      <trkpt lat="45.64713" lon="6.66413">
        <ele>2441.41</ele>
        <time>2011-03-06T09:25:54Z</time>
      </trkpt>
      <trkpt lat="45.64715" lon="6.66399">
        <ele>2444.29</ele>
        <time>2011-03-06T09:26:08Z</time>
      </trkpt>
      <trkpt lat="45.64719" lon="6.66388">
        <ele>2445.73</ele>
        <time>2011-03-06T09:26:22Z</time>
      </trkpt>
      <trkpt lat="45.64728" lon="6.6639">
        <ele>2447.17</ele>
        <time>2011-03-06T09:26:35Z</time>
      </trkpt>
      <trkpt lat="45.64736" lon="6.66397">
        <ele>2450.54</ele>
        <time>2011-03-06T09:26:51Z</time>
      </trkpt>
      <trkpt lat="45.6474" lon="6.66401">
        <ele>2452.46</ele>
        <time>2011-03-06T09:27:05Z</time>
      </trkpt>
      <trkpt lat="45.64743" lon="6.66411">
        <ele>2453.9</ele>
        <time>2011-03-06T09:27:21Z</time>
      </trkpt>
      <trkpt lat="45.64744" lon="6.66416">
        <ele>2454.86</ele>
        <time>2011-03-06T09:27:24Z</time>
      </trkpt>
      <trkpt lat="45.64744" lon="6.66421">
        <ele>2456.31</ele>
        <time>2011-03-06T09:27:39Z</time>
      </trkpt>
      <trkpt lat="45.64745" lon="6.66422">
        <ele>2456.79</ele>
        <time>2011-03-06T09:27:41Z</time>
      </trkpt>
      <trkpt lat="45.64747" lon="6.6643">
        <ele>2456.79</ele>
        <time>2011-03-06T09:27:58Z</time>
      </trkpt>
      <trkpt lat="45.64746" lon="6.66431">
        <ele>2458.23</ele>
        <time>2011-03-06T09:28:12Z</time>
      </trkpt>
      <trkpt lat="45.64748" lon="6.66442">
        <ele>2460.15</ele>
        <time>2011-03-06T09:28:28Z</time>
      </trkpt>
      <trkpt lat="45.6475" lon="6.66448">
        <ele>2460.63</ele>
        <time>2011-03-06T09:28:37Z</time>
      </trkpt>
      <trkpt lat="45.64751" lon="6.66452">
        <ele>2463.04</ele>
        <time>2011-03-06T09:28:56Z</time>
      </trkpt>
      <trkpt lat="45.64755" lon="6.66453">
        <ele>2464.96</ele>
        <time>2011-03-06T09:29:12Z</time>
      </trkpt>
      <trkpt lat="45.64762" lon="6.66454">
        <ele>2467.36</ele>
        <time>2011-03-06T09:29:28Z</time>
      </trkpt>
      <trkpt lat="45.64763" lon="6.66453">
        <ele>2468.32</ele>
        <time>2011-03-06T09:29:30Z</time>
      </trkpt>
      <trkpt lat="45.64765" lon="6.66453">
        <ele>2469.76</ele>
        <time>2011-03-06T09:29:47Z</time>
      </trkpt>
      <trkpt lat="45.64771" lon="6.66458">
        <ele>2473.13</ele>
        <time>2011-03-06T09:30:03Z</time>
      </trkpt>
      <trkpt lat="45.6478" lon="6.66464">
        <ele>2475.53</ele>
        <time>2011-03-06T09:30:20Z</time>
      </trkpt>
      <trkpt lat="45.64787" lon="6.66468">
        <ele>2477.94</ele>
        <time>2011-03-06T09:30:35Z</time>
      </trkpt>
      <trkpt lat="45.64793" lon="6.66467">
        <ele>2481.3</ele>
        <time>2011-03-06T09:30:50Z</time>
      </trkpt>
      <trkpt lat="45.64798" lon="6.66466">
        <ele>2483.7</ele>
        <time>2011-03-06T09:31:04Z</time>
      </trkpt>
      <trkpt lat="45.64807" lon="6.66466">
        <ele>2486.11</ele>
        <time>2011-03-06T09:31:20Z</time>
      </trkpt>
      <trkpt lat="45.64814" lon="6.66462">
        <ele>2489.47</ele>
        <time>2011-03-06T09:31:35Z</time>
      </trkpt>
      <trkpt lat="45.64819" lon="6.66456">
        <ele>2491.39</ele>
        <time>2011-03-06T09:31:49Z</time>
      </trkpt>
      <trkpt lat="45.64819" lon="6.66447">
        <ele>2494.28</ele>
        <time>2011-03-06T09:32:03Z</time>
      </trkpt>
      <trkpt lat="45.64818" lon="6.66432">
        <ele>2495.72</ele>
        <time>2011-03-06T09:32:19Z</time>
      </trkpt>
      <trkpt lat="45.64819" lon="6.66421">
        <ele>2499.08</ele>
        <time>2011-03-06T09:32:33Z</time>
      </trkpt>
      <trkpt lat="45.64824" lon="6.6641">
        <ele>2501.49</ele>
        <time>2011-03-06T09:32:49Z</time>
      </trkpt>
      <trkpt lat="45.64828" lon="6.66406">
        <ele>2503.41</ele>
        <time>2011-03-06T09:33:04Z</time>
      </trkpt>
      <trkpt lat="45.64831" lon="6.66401">
        <ele>2505.33</ele>
        <time>2011-03-06T09:33:22Z</time>
      </trkpt>
      <trkpt lat="45.64826" lon="6.66397">
        <ele>2505.81</ele>
        <time>2011-03-06T09:33:40Z</time>
      </trkpt>
      <trkpt lat="45.64825" lon="6.66398">
        <ele>2505.81</ele>
        <time>2011-03-06T09:34:00Z</time>
      </trkpt>
      <trkpt lat="45.64825" lon="6.66398">
        <ele>2505.33</ele>
        <time>2011-03-06T09:34:17Z</time>
      </trkpt>
      <trkpt lat="45.64824" lon="6.66393">
        <ele>2506.29</ele>
        <time>2011-03-06T09:34:30Z</time>
      </trkpt>
      <trkpt lat="45.64824" lon="6.66389">
        <ele>2505.81</ele>
        <time>2011-03-06T09:34:45Z</time>
      </trkpt>
      <trkpt lat="45.64824" lon="6.66389">
        <ele>2505.81</ele>
        <time>2011-03-06T09:35:02Z</time>
      </trkpt>
      <trkpt lat="45.64824" lon="6.6639">
        <ele>2505.33</ele>
        <time>2011-03-06T09:35:32Z</time>
      </trkpt>
      <trkpt lat="45.64824" lon="6.6639">
        <ele>2505.81</ele>
        <time>2011-03-06T09:35:36Z</time>
      </trkpt>
      <trkpt lat="45.64824" lon="6.6639">
        <ele>2502.45</ele>
        <time>2011-03-06T09:35:41Z</time>
      </trkpt>
      <trkpt lat="45.64824" lon="6.6639">
        <ele>2507.74</ele>
        <time>2011-03-06T09:35:42Z</time>
      </trkpt>
      <trkpt lat="45.64824" lon="6.6639">
        <ele>2502.45</ele>
        <time>2011-03-06T09:35:54Z</time>
      </trkpt>
      <trkpt lat="45.64824" lon="6.6639">
        <ele>2506.29</ele>
        <time>2011-03-06T09:35:55Z</time>
      </trkpt>
      <trkpt lat="45.64824" lon="6.6639">
        <ele>2505.33</ele>
        <time>2011-03-06T09:36:16Z</time>
      </trkpt>
      <trkpt lat="45.64824" lon="6.6639">
        <ele>2506.29</ele>
        <time>2011-03-06T09:36:41Z</time>
      </trkpt>
      <trkpt lat="45.64824" lon="6.6639">
        <ele>2505.81</ele>
        <time>2011-03-06T09:37:07Z</time>
      </trkpt>
      <trkpt lat="45.64824" lon="6.6639">
        <ele>2506.29</ele>
        <time>2011-03-06T09:37:33Z</time>
      </trkpt>
      <trkpt lat="45.64824" lon="6.66388">
        <ele>2506.29</ele>
        <time>2011-03-06T09:38:02Z</time>
      </trkpt>
      <trkpt lat="45.64824" lon="6.6639">
        <ele>2506.77</ele>
        <time>2011-03-06T09:38:36Z</time>
      </trkpt>
      <trkpt lat="45.64824" lon="6.6639">
        <ele>2506.29</ele>
        <time>2011-03-06T09:39:09Z</time>
      </trkpt>
      <trkpt lat="45.64824" lon="6.6639">
        <ele>2506.77</ele>
        <time>2011-03-06T09:39:44Z</time>
      </trkpt>
      <trkpt lat="45.64824" lon="6.66392">
        <ele>2506.77</ele>
        <time>2011-03-06T09:40:25Z</time>
      </trkpt>
      <trkpt lat="45.64824" lon="6.66392">
        <ele>2507.26</ele>
        <time>2011-03-06T09:41:01Z</time>
      </trkpt>
      <trkpt lat="45.64824" lon="6.66391">
        <ele>2506.77</ele>
        <time>2011-03-06T09:41:40Z</time>
      </trkpt>
      <trkpt lat="45.64824" lon="6.66391">
        <ele>2506.29</ele>
        <time>2011-03-06T09:42:14Z</time>
      </trkpt>
      <trkpt lat="45.64824" lon="6.66391">
        <ele>2507.26</ele>
        <time>2011-03-06T09:42:50Z</time>
      </trkpt>
      <trkpt lat="45.64824" lon="6.66391">
        <ele>2507.26</ele>
        <time>2011-03-06T09:43:09Z</time>
      </trkpt>
      <trkpt lat="45.64825" lon="6.6639">
        <ele>2507.26</ele>
        <time>2011-03-06T09:43:38Z</time>
      </trkpt>
      <trkpt lat="45.64825" lon="6.6639">
        <ele>2506.77</ele>
        <time>2011-03-06T09:44:15Z</time>
      </trkpt>
      <trkpt lat="45.64825" lon="6.66389">
        <ele>2507.26</ele>
        <time>2011-03-06T09:44:50Z</time>
      </trkpt>
      <trkpt lat="45.64825" lon="6.66389">
        <ele>2507.74</ele>
        <time>2011-03-06T09:45:20Z</time>
      </trkpt>
      <trkpt lat="45.64824" lon="6.66389">
        <ele>2507.26</ele>
        <time>2011-03-06T09:45:50Z</time>
      </trkpt>
      <trkpt lat="45.64824" lon="6.66389">
        <ele>2507.26</ele>
        <time>2011-03-06T09:46:24Z</time>
      </trkpt>
      <trkpt lat="45.64825" lon="6.66389">
        <ele>2507.74</ele>
        <time>2011-03-06T09:46:53Z</time>
      </trkpt>
      <trkpt lat="45.64824" lon="6.6639">
        <ele>2507.74</ele>
        <time>2011-03-06T09:47:25Z</time>
      </trkpt>
      <trkpt lat="45.64824" lon="6.66389">
        <ele>2507.74</ele>
        <time>2011-03-06T09:47:59Z</time>
      </trkpt>
      <trkpt lat="45.64824" lon="6.66389">
        <ele>2507.74</ele>
        <time>2011-03-06T09:48:31Z</time>
      </trkpt>
      <trkpt lat="45.64824" lon="6.66389">
        <ele>2507.26</ele>
        <time>2011-03-06T09:49:03Z</time>
      </trkpt>
      <trkpt lat="45.64825" lon="6.66389">
        <ele>2507.74</ele>
        <time>2011-03-06T09:49:32Z</time>
      </trkpt>
      <trkpt lat="45.64825" lon="6.66389">
        <ele>2504.37</ele>
        <time>2011-03-06T09:49:35Z</time>
      </trkpt>
      <trkpt lat="45.64825" lon="6.66389">
        <ele>2508.7</ele>
        <time>2011-03-06T09:49:36Z</time>
      </trkpt>
      <trkpt lat="45.64824" lon="6.66388">
        <ele>2501.97</ele>
        <time>2011-03-06T09:49:49Z</time>
      </trkpt>
      <trkpt lat="45.64824" lon="6.66388">
        <ele>2507.74</ele>
        <time>2011-03-06T09:49:50Z</time>
      </trkpt>
      <trkpt lat="45.64824" lon="6.66388">
        <ele>2502.45</ele>
        <time>2011-03-06T09:49:52Z</time>
      </trkpt>
      <trkpt lat="45.64824" lon="6.66388">
        <ele>2509.18</ele>
        <time>2011-03-06T09:49:53Z</time>
      </trkpt>
      <trkpt lat="45.64824" lon="6.66388">
        <ele>2491.39</ele>
        <time>2011-03-06T09:49:54Z</time>
      </trkpt>
      <trkpt lat="45.64824" lon="6.66388">
        <ele>2513.02</ele>
        <time>2011-03-06T09:49:55Z</time>
      </trkpt>
      <trkpt lat="45.64824" lon="6.66388">
        <ele>2507.74</ele>
        <time>2011-03-06T09:49:57Z</time>
      </trkpt>
      <trkpt lat="45.64825" lon="6.66389">
        <ele>2503.89</ele>
        <time>2011-03-06T09:50:01Z</time>
      </trkpt>
      <trkpt lat="45.64825" lon="6.66389">
        <ele>2509.66</ele>
        <time>2011-03-06T09:50:02Z</time>
      </trkpt>
      <trkpt lat="45.64825" lon="6.66388">
        <ele>2503.89</ele>
        <time>2011-03-06T09:50:14Z</time>
      </trkpt>
      <trkpt lat="45.64825" lon="6.66388">
        <ele>2507.26</ele>
        <time>2011-03-06T09:50:15Z</time>
      </trkpt>
      <trkpt lat="45.64825" lon="6.66388">
        <ele>2507.74</ele>
        <time>2011-03-06T09:50:41Z</time>
      </trkpt>
      <trkpt lat="45.64825" lon="6.66388">
        <ele>2507.26</ele>
        <time>2011-03-06T09:51:07Z</time>
      </trkpt>
      <trkpt lat="45.64825" lon="6.66388">
        <ele>2507.74</ele>
        <time>2011-03-06T09:51:37Z</time>
      </trkpt>
      <trkpt lat="45.64826" lon="6.66389">
        <ele>2507.74</ele>
        <time>2011-03-06T09:52:11Z</time>
      </trkpt>
      <trkpt lat="45.64826" lon="6.66389">
        <ele>2507.26</ele>
        <time>2011-03-06T09:52:40Z</time>
      </trkpt>
      <trkpt lat="45.64826" lon="6.66388">
        <ele>2507.26</ele>
        <time>2011-03-06T09:53:11Z</time>
      </trkpt>
      <trkpt lat="45.64826" lon="6.66388">
        <ele>2507.26</ele>
        <time>2011-03-06T09:53:43Z</time>
      </trkpt>
      <trkpt lat="45.64825" lon="6.66389">
        <ele>2507.26</ele>
        <time>2011-03-06T09:54:12Z</time>
      </trkpt>
      <trkpt lat="45.64825" lon="6.66389">
        <ele>2507.26</ele>
        <time>2011-03-06T09:54:42Z</time>
      </trkpt>
      <trkpt lat="45.64825" lon="6.66388">
        <ele>2507.26</ele>
        <time>2011-03-06T09:55:15Z</time>
      </trkpt>
      <trkpt lat="45.64825" lon="6.66388">
        <ele>2506.77</ele>
        <time>2011-03-06T09:55:42Z</time>
      </trkpt>
      <trkpt lat="45.64825" lon="6.66388">
        <ele>2500.05</ele>
        <time>2011-03-06T09:55:49Z</time>
      </trkpt>
      <trkpt lat="45.64825" lon="6.66388">
        <ele>2506.29</ele>
        <time>2011-03-06T09:55:50Z</time>
      </trkpt>
      <trkpt lat="45.64825" lon="6.66389">
        <ele>2506.29</ele>
        <time>2011-03-06T09:56:26Z</time>
      </trkpt>
      <trkpt lat="45.64825" lon="6.66389">
        <ele>2506.29</ele>
        <time>2011-03-06T09:56:59Z</time>
      </trkpt>
      <trkpt lat="45.64825" lon="6.6639">
        <ele>2506.29</ele>
        <time>2011-03-06T09:57:31Z</time>
      </trkpt>
      <trkpt lat="45.64825" lon="6.66389">
        <ele>2506.77</ele>
        <time>2011-03-06T09:58:02Z</time>
      </trkpt>
      <trkpt lat="45.64825" lon="6.66389">
        <ele>2506.29</ele>
        <time>2011-03-06T09:58:38Z</time>
      </trkpt>
      <trkpt lat="45.64825" lon="6.6639">
        <ele>2505.81</ele>
        <time>2011-03-06T09:59:11Z</time>
      </trkpt>
      <trkpt lat="45.64825" lon="6.6639">
        <ele>2505.81</ele>
        <time>2011-03-06T09:59:42Z</time>
      </trkpt>
      <trkpt lat="45.64825" lon="6.6639">
        <ele>2506.29</ele>
        <time>2011-03-06T10:00:19Z</time>
      </trkpt>
      <trkpt lat="45.64825" lon="6.66389">
        <ele>2506.29</ele>
        <time>2011-03-06T10:00:52Z</time>
      </trkpt>
      <trkpt lat="45.64825" lon="6.6639">
        <ele>2506.77</ele>
        <time>2011-03-06T10:01:19Z</time>
      </trkpt>
      <trkpt lat="45.64826" lon="6.66391">
        <ele>2506.29</ele>
        <time>2011-03-06T10:01:37Z</time>
      </trkpt>
      <trkpt lat="45.64826" lon="6.6639">
        <ele>2506.29</ele>
        <time>2011-03-06T10:02:09Z</time>
      </trkpt>
      <trkpt lat="45.64825" lon="6.66389">
        <ele>2506.29</ele>
        <time>2011-03-06T10:02:44Z</time>
      </trkpt>
      <trkpt lat="45.64825" lon="6.66389">
        <ele>2506.29</ele>
        <time>2011-03-06T10:03:10Z</time>
      </trkpt>
      <trkpt lat="45.64825" lon="6.66389">
        <ele>2505.33</ele>
        <time>2011-03-06T10:03:38Z</time>
      </trkpt>
      <trkpt lat="45.64824" lon="6.66389">
        <ele>2506.29</ele>
        <time>2011-03-06T10:04:05Z</time>
      </trkpt>
      <trkpt lat="45.64824" lon="6.66389">
        <ele>2506.77</ele>
        <time>2011-03-06T10:04:38Z</time>
      </trkpt>
      <trkpt lat="45.64824" lon="6.66389">
        <ele>2506.29</ele>
        <time>2011-03-06T10:05:17Z</time>
      </trkpt>
      <trkpt lat="45.64824" lon="6.66389">
        <ele>2506.29</ele>
        <time>2011-03-06T10:05:49Z</time>
      </trkpt>
      <trkpt lat="45.64824" lon="6.66388">
        <ele>2506.29</ele>
        <time>2011-03-06T10:06:20Z</time>
      </trkpt>
      <trkpt lat="45.64824" lon="6.66388">
        <ele>2506.77</ele>
        <time>2011-03-06T10:06:46Z</time>
      </trkpt>
      <trkpt lat="45.64824" lon="6.66388">
        <ele>2506.29</ele>
        <time>2011-03-06T10:07:17Z</time>
      </trkpt>
      <trkpt lat="45.64824" lon="6.66388">
        <ele>2506.29</ele>
        <time>2011-03-06T10:07:49Z</time>
      </trkpt>
      <trkpt lat="45.64824" lon="6.66388">
        <ele>2506.29</ele>
        <time>2011-03-06T10:08:22Z</time>
      </trkpt>
      <trkpt lat="45.64824" lon="6.66388">
        <ele>2506.29</ele>
        <time>2011-03-06T10:08:56Z</time>
      </trkpt>
      <trkpt lat="45.64824" lon="6.66388">
        <ele>2506.29</ele>
        <time>2011-03-06T10:09:32Z</time>
      </trkpt>
      <trkpt lat="45.64824" lon="6.66388">
        <ele>2501.01</ele>
        <time>2011-03-06T10:09:58Z</time>
      </trkpt>
      <trkpt lat="45.64824" lon="6.66388">
        <ele>2505.81</ele>
        <time>2011-03-06T10:09:59Z</time>
      </trkpt>
      <trkpt lat="45.64823" lon="6.66388">
        <ele>2506.77</ele>
        <time>2011-03-06T10:10:01Z</time>
      </trkpt>
      <trkpt lat="45.64823" lon="6.66388">
        <ele>2507.26</ele>
        <time>2011-03-06T10:10:32Z</time>
      </trkpt>
      <trkpt lat="45.64823" lon="6.66388">
        <ele>2506.77</ele>
        <time>2011-03-06T10:11:00Z</time>
      </trkpt>
      <trkpt lat="45.64823" lon="6.66387">
        <ele>2506.29</ele>
        <time>2011-03-06T10:11:25Z</time>
      </trkpt>
      <trkpt lat="45.64822" lon="6.66388">
        <ele>2506.77</ele>
        <time>2011-03-06T10:11:42Z</time>
      </trkpt>
      <trkpt lat="45.64822" lon="6.66388">
        <ele>2496.2</ele>
        <time>2011-03-06T10:11:51Z</time>
      </trkpt>
      <trkpt lat="45.64822" lon="6.66387">
        <ele>2510.62</ele>
        <time>2011-03-06T10:11:52Z</time>
      </trkpt>
      <trkpt lat="45.64822" lon="6.66387">
        <ele>2497.64</ele>
        <time>2011-03-06T10:11:53Z</time>
      </trkpt>
      <trkpt lat="45.64822" lon="6.66387">
        <ele>2513.98</ele>
        <time>2011-03-06T10:11:54Z</time>
      </trkpt>
      <trkpt lat="45.64822" lon="6.66387">
        <ele>2505.33</ele>
        <time>2011-03-06T10:11:55Z</time>
      </trkpt>
      <trkpt lat="45.64822" lon="6.66388">
        <ele>2506.29</ele>
        <time>2011-03-06T10:12:13Z</time>
      </trkpt>
      <trkpt lat="45.64822" lon="6.66388">
        <ele>2506.77</ele>
        <time>2011-03-06T10:12:15Z</time>
      </trkpt>
      <trkpt lat="45.64824" lon="6.6639">
        <ele>2506.29</ele>
        <time>2011-03-06T10:12:32Z</time>
      </trkpt>
      <trkpt lat="45.64825" lon="6.66392">
        <ele>2506.29</ele>
        <time>2011-03-06T10:12:46Z</time>
      </trkpt>
      <trkpt lat="45.64825" lon="6.66392">
        <ele>2507.26</ele>
        <time>2011-03-06T10:12:58Z</time>
      </trkpt>
      <trkpt lat="45.64825" lon="6.66392">
        <ele>2506.77</ele>
        <time>2011-03-06T10:13:16Z</time>
      </trkpt>
      <trkpt lat="45.64825" lon="6.66392">
        <ele>2506.77</ele>
        <time>2011-03-06T10:13:31Z</time>
      </trkpt>
      <trkpt lat="45.64827" lon="6.66394">
        <ele>2504.37</ele>
        <time>2011-03-06T10:13:53Z</time>
      </trkpt>
      <trkpt lat="45.64827" lon="6.66394">
        <ele>2504.37</ele>
        <time>2011-03-06T10:13:54Z</time>
      </trkpt>
      <trkpt lat="45.64829" lon="6.66395">
        <ele>2503.89</ele>
        <time>2011-03-06T10:14:12Z</time>
      </trkpt>
      <trkpt lat="45.64834" lon="6.66399">
        <ele>2502.93</ele>
        <time>2011-03-06T10:14:17Z</time>
      </trkpt>
      <trkpt lat="45.64838" lon="6.66405">
        <ele>2500.53</ele>
        <time>2011-03-06T10:14:21Z</time>
      </trkpt>
      <trkpt lat="45.64844" lon="6.66417">
        <ele>2494.76</ele>
        <time>2011-03-06T10:14:25Z</time>
      </trkpt>
      <trkpt lat="45.64854" lon="6.66433">
        <ele>2495.24</ele>
        <time>2011-03-06T10:14:30Z</time>
      </trkpt>
      <trkpt lat="45.64857" lon="6.66437">
        <ele>2496.2</ele>
        <time>2011-03-06T10:14:33Z</time>
      </trkpt>
      <trkpt lat="45.64862" lon="6.66442">
        <ele>2494.76</ele>
        <time>2011-03-06T10:14:42Z</time>
      </trkpt>
      <trkpt lat="45.64874" lon="6.6646">
        <ele>2498.12</ele>
        <time>2011-03-06T10:14:56Z</time>
      </trkpt>
      <trkpt lat="45.64885" lon="6.66483">
        <ele>2497.64</ele>
        <time>2011-03-06T10:15:10Z</time>
      </trkpt>
      <trkpt lat="45.64891" lon="6.66504">
        <ele>2498.6</ele>
        <time>2011-03-06T10:15:25Z</time>
      </trkpt>
      <trkpt lat="45.64897" lon="6.66516">
        <ele>2501.01</ele>
        <time>2011-03-06T10:15:38Z</time>
      </trkpt>
      <trkpt lat="45.64901" lon="6.66525">
        <ele>2501.49</ele>
        <time>2011-03-06T10:15:45Z</time>
      </trkpt>
      <trkpt lat="45.64906" lon="6.66539">
        <ele>2503.41</ele>
        <time>2011-03-06T10:16:00Z</time>
      </trkpt>
      <trkpt lat="45.64911" lon="6.66547">
        <ele>2505.81</ele>
        <time>2011-03-06T10:16:11Z</time>
      </trkpt>
      <trkpt lat="45.64922" lon="6.66562">
        <ele>2508.22</ele>
        <time>2011-03-06T10:16:24Z</time>
      </trkpt>
      <trkpt lat="45.6493" lon="6.66575">
        <ele>2510.14</ele>
        <time>2011-03-06T10:16:37Z</time>
      </trkpt>
      <trkpt lat="45.64935" lon="6.6659">
        <ele>2511.1</ele>
        <time>2011-03-06T10:16:52Z</time>
      </trkpt>
      <trkpt lat="45.64939" lon="6.66596">
        <ele>2512.06</ele>
        <time>2011-03-06T10:16:58Z</time>
      </trkpt>
      <trkpt lat="45.64942" lon="6.66607">
        <ele>2513.02</ele>
        <time>2011-03-06T10:17:07Z</time>
      </trkpt>
      <trkpt lat="45.64946" lon="6.66614">
        <ele>2513.5</ele>
        <time>2011-03-06T10:17:13Z</time>
      </trkpt>
      <trkpt lat="45.64952" lon="6.66628">
        <ele>2515.43</ele>
        <time>2011-03-06T10:17:29Z</time>
      </trkpt>
      <trkpt lat="45.64957" lon="6.66637">
        <ele>2517.83</ele>
        <time>2011-03-06T10:17:44Z</time>
      </trkpt>
      <trkpt lat="45.64967" lon="6.66648">
        <ele>2520.71</ele>
        <time>2011-03-06T10:18:00Z</time>
      </trkpt>
      <trkpt lat="45.64975" lon="6.66649">
        <ele>2523.6</ele>
        <time>2011-03-06T10:18:16Z</time>
      </trkpt>
      <trkpt lat="45.64983" lon="6.66655">
        <ele>2525.52</ele>
        <time>2011-03-06T10:18:29Z</time>
      </trkpt>
      <trkpt lat="45.64986" lon="6.66658">
        <ele>2525.52</ele>
        <time>2011-03-06T10:18:32Z</time>
      </trkpt>
      <trkpt lat="45.65005" lon="6.6668">
        <ele>2523.6</ele>
        <time>2011-03-06T10:18:47Z</time>
      </trkpt>
      <trkpt lat="45.65013" lon="6.66682">
        <ele>2525.52</ele>
        <time>2011-03-06T10:19:02Z</time>
      </trkpt>
      <trkpt lat="45.65022" lon="6.66683">
        <ele>2527.44</ele>
        <time>2011-03-06T10:19:16Z</time>
      </trkpt>
      <trkpt lat="45.65032" lon="6.66684">
        <ele>2529.37</ele>
        <time>2011-03-06T10:19:30Z</time>
      </trkpt>
      <trkpt lat="45.65035" lon="6.66683">
        <ele>2530.81</ele>
        <time>2011-03-06T10:19:46Z</time>
      </trkpt>
      <trkpt lat="45.65035" lon="6.66692">
        <ele>2531.29</ele>
        <time>2011-03-06T10:19:52Z</time>
      </trkpt>
      <trkpt lat="45.65033" lon="6.66698">
        <ele>2531.77</ele>
        <time>2011-03-06T10:19:55Z</time>
      </trkpt>
      <trkpt lat="45.65028" lon="6.66716">
        <ele>2534.65</ele>
        <time>2011-03-06T10:20:09Z</time>
      </trkpt>
      <trkpt lat="45.65027" lon="6.66718">
        <ele>2534.65</ele>
        <time>2011-03-06T10:20:12Z</time>
      </trkpt>
      <trkpt lat="45.65036" lon="6.66704">
        <ele>2536.1</ele>
        <time>2011-03-06T10:20:25Z</time>
      </trkpt>
      <trkpt lat="45.65045" lon="6.667">
        <ele>2538.5</ele>
        <time>2011-03-06T10:20:39Z</time>
      </trkpt>
      <trkpt lat="45.65052" lon="6.66698">
        <ele>2539.94</ele>
        <time>2011-03-06T10:20:52Z</time>
      </trkpt>
      <trkpt lat="45.65053" lon="6.66698">
        <ele>2540.42</ele>
        <time>2011-03-06T10:20:57Z</time>
      </trkpt>
      <trkpt lat="45.65054" lon="6.6671">
        <ele>2542.34</ele>
        <time>2011-03-06T10:21:10Z</time>
      </trkpt>
      <trkpt lat="45.65056" lon="6.66717">
        <ele>2544.75</ele>
        <time>2011-03-06T10:21:23Z</time>
      </trkpt>
      <trkpt lat="45.65057" lon="6.66716">
        <ele>2544.75</ele>
        <time>2011-03-06T10:21:24Z</time>
      </trkpt>
      <trkpt lat="45.65065" lon="6.66721">
        <ele>2547.15</ele>
        <time>2011-03-06T10:21:41Z</time>
      </trkpt>
      <trkpt lat="45.65072" lon="6.66725">
        <ele>2549.55</ele>
        <time>2011-03-06T10:21:56Z</time>
      </trkpt>
      <trkpt lat="45.65077" lon="6.66735">
        <ele>2551</ele>
        <time>2011-03-06T10:22:05Z</time>
      </trkpt>
      <trkpt lat="45.65081" lon="6.66739">
        <ele>2551.96</ele>
        <time>2011-03-06T10:22:10Z</time>
      </trkpt>
      <trkpt lat="45.65083" lon="6.66743">
        <ele>2552.92</ele>
        <time>2011-03-06T10:22:13Z</time>
      </trkpt>
      <trkpt lat="45.65086" lon="6.66752">
        <ele>2552.92</ele>
        <time>2011-03-06T10:22:24Z</time>
      </trkpt>
      <trkpt lat="45.65089" lon="6.66774">
        <ele>2555.8</ele>
        <time>2011-03-06T10:22:40Z</time>
      </trkpt>
      <trkpt lat="45.65091" lon="6.66784">
        <ele>2558.69</ele>
        <time>2011-03-06T10:22:54Z</time>
      </trkpt>
      <trkpt lat="45.65093" lon="6.6679">
        <ele>2559.17</ele>
        <time>2011-03-06T10:23:02Z</time>
      </trkpt>
      <trkpt lat="45.65096" lon="6.66801">
        <ele>2561.57</ele>
        <time>2011-03-06T10:23:17Z</time>
      </trkpt>
      <trkpt lat="45.65097" lon="6.66801">
        <ele>2561.57</ele>
        <time>2011-03-06T10:23:19Z</time>
      </trkpt>
      <trkpt lat="45.65102" lon="6.66806">
        <ele>2563.01</ele>
        <time>2011-03-06T10:23:34Z</time>
      </trkpt>
      <trkpt lat="45.65097" lon="6.66809">
        <ele>2564.45</ele>
        <time>2011-03-06T10:23:40Z</time>
      </trkpt>
      <trkpt lat="45.65096" lon="6.66811">
        <ele>2564.45</ele>
        <time>2011-03-06T10:23:43Z</time>
      </trkpt>
      <trkpt lat="45.65096" lon="6.66813">
        <ele>2565.42</ele>
        <time>2011-03-06T10:23:46Z</time>
      </trkpt>
      <trkpt lat="45.65089" lon="6.66824">
        <ele>2566.86</ele>
        <time>2011-03-06T10:23:58Z</time>
      </trkpt>
      <trkpt lat="45.65091" lon="6.66822">
        <ele>2568.3</ele>
        <time>2011-03-06T10:24:08Z</time>
      </trkpt>
      <trkpt lat="45.65098" lon="6.66823">
        <ele>2570.22</ele>
        <time>2011-03-06T10:24:24Z</time>
      </trkpt>
      <trkpt lat="45.65104" lon="6.66829">
        <ele>2571.18</ele>
        <time>2011-03-06T10:24:39Z</time>
      </trkpt>
      <trkpt lat="45.65104" lon="6.6683">
        <ele>2572.14</ele>
        <time>2011-03-06T10:24:40Z</time>
      </trkpt>
      <trkpt lat="45.65104" lon="6.66838">
        <ele>2573.59</ele>
        <time>2011-03-06T10:24:54Z</time>
      </trkpt>
      <trkpt lat="45.6511" lon="6.66844">
        <ele>2576.47</ele>
        <time>2011-03-06T10:25:10Z</time>
      </trkpt>
      <trkpt lat="45.6511" lon="6.66845">
        <ele>2575.99</ele>
        <time>2011-03-06T10:25:11Z</time>
      </trkpt>
      <trkpt lat="45.65111" lon="6.6685">
        <ele>2576.95</ele>
        <time>2011-03-06T10:25:15Z</time>
      </trkpt>
      <trkpt lat="45.6511" lon="6.66861">
        <ele>2579.35</ele>
        <time>2011-03-06T10:25:29Z</time>
      </trkpt>
      <trkpt lat="45.65107" lon="6.66872">
        <ele>2581.28</ele>
        <time>2011-03-06T10:25:42Z</time>
      </trkpt>
      <trkpt lat="45.6511" lon="6.6687">
        <ele>2581.76</ele>
        <time>2011-03-06T10:25:47Z</time>
      </trkpt>
      <trkpt lat="45.65114" lon="6.66867">
        <ele>2582.72</ele>
        <time>2011-03-06T10:26:05Z</time>
      </trkpt>
      <trkpt lat="45.65122" lon="6.66867">
        <ele>2585.12</ele>
        <time>2011-03-06T10:26:20Z</time>
      </trkpt>
      <trkpt lat="45.65128" lon="6.66866">
        <ele>2586.56</ele>
        <time>2011-03-06T10:26:24Z</time>
      </trkpt>
      <trkpt lat="45.65129" lon="6.66866">
        <ele>2587.04</ele>
        <time>2011-03-06T10:26:28Z</time>
      </trkpt>
      <trkpt lat="45.65138" lon="6.66866">
        <ele>2588.97</ele>
        <time>2011-03-06T10:26:42Z</time>
      </trkpt>
      <trkpt lat="45.65141" lon="6.66872">
        <ele>2590.41</ele>
        <time>2011-03-06T10:26:48Z</time>
      </trkpt>
      <trkpt lat="45.65142" lon="6.66875">
        <ele>2592.81</ele>
        <time>2011-03-06T10:27:06Z</time>
      </trkpt>
      <trkpt lat="45.65142" lon="6.66875">
        <ele>2592.81</ele>
        <time>2011-03-06T10:27:08Z</time>
      </trkpt>
      <trkpt lat="45.65146" lon="6.66877">
        <ele>2594.74</ele>
        <time>2011-03-06T10:27:23Z</time>
      </trkpt>
      <trkpt lat="45.65154" lon="6.66879">
        <ele>2597.14</ele>
        <time>2011-03-06T10:27:38Z</time>
      </trkpt>
      <trkpt lat="45.65168" lon="6.6688">
        <ele>2598.58</ele>
        <time>2011-03-06T10:27:51Z</time>
      </trkpt>
      <trkpt lat="45.65175" lon="6.66883">
        <ele>2600.5</ele>
        <time>2011-03-06T10:28:05Z</time>
      </trkpt>
      <trkpt lat="45.6518" lon="6.66889">
        <ele>2601.95</ele>
        <time>2011-03-06T10:28:19Z</time>
      </trkpt>
      <trkpt lat="45.65186" lon="6.669">
        <ele>2604.35</ele>
        <time>2011-03-06T10:28:34Z</time>
      </trkpt>
      <trkpt lat="45.65191" lon="6.66908">
        <ele>2606.75</ele>
        <time>2011-03-06T10:28:50Z</time>
      </trkpt>
      <trkpt lat="45.65197" lon="6.66916">
        <ele>2608.67</ele>
        <time>2011-03-06T10:29:06Z</time>
      </trkpt>
      <trkpt lat="45.65204" lon="6.66923">
        <ele>2610.6</ele>
        <time>2011-03-06T10:29:20Z</time>
      </trkpt>
      <trkpt lat="45.65211" lon="6.6693">
        <ele>2612.04</ele>
        <time>2011-03-06T10:29:32Z</time>
      </trkpt>
      <trkpt lat="45.65218" lon="6.6694">
        <ele>2613.48</ele>
        <time>2011-03-06T10:29:46Z</time>
      </trkpt>
      <trkpt lat="45.65221" lon="6.66952">
        <ele>2613.96</ele>
        <time>2011-03-06T10:29:59Z</time>
      </trkpt>
      <trkpt lat="45.65223" lon="6.66957">
        <ele>2614.44</ele>
        <time>2011-03-06T10:30:03Z</time>
      </trkpt>
      <trkpt lat="45.65226" lon="6.66972">
        <ele>2614.92</ele>
        <time>2011-03-06T10:30:17Z</time>
      </trkpt>
      <trkpt lat="45.65228" lon="6.66982">
        <ele>2615.88</ele>
        <time>2011-03-06T10:30:31Z</time>
      </trkpt>
      <trkpt lat="45.65228" lon="6.6699">
        <ele>2615.88</ele>
        <time>2011-03-06T10:30:42Z</time>
      </trkpt>
      <trkpt lat="45.65229" lon="6.66995">
        <ele>2615.88</ele>
        <time>2011-03-06T10:31:05Z</time>
      </trkpt>
      <trkpt lat="45.65229" lon="6.66995">
        <ele>2615.4</ele>
        <time>2011-03-06T10:31:30Z</time>
      </trkpt>
      <trkpt lat="45.65229" lon="6.66995">
        <ele>2615.88</ele>
        <time>2011-03-06T10:31:45Z</time>
      </trkpt>
      <trkpt lat="45.65229" lon="6.66995">
        <ele>2616.37</ele>
        <time>2011-03-06T10:32:06Z</time>
      </trkpt>
      <trkpt lat="45.65229" lon="6.66995">
        <ele>2616.85</ele>
        <time>2011-03-06T10:32:10Z</time>
      </trkpt>
      <trkpt lat="45.65229" lon="6.66995">
        <ele>2616.37</ele>
        <time>2011-03-06T10:32:12Z</time>
      </trkpt>
      <trkpt lat="45.65229" lon="6.66993">
        <ele>2615.88</ele>
        <time>2011-03-06T10:32:28Z</time>
      </trkpt>
      <trkpt lat="45.65229" lon="6.66993">
        <ele>2615.88</ele>
        <time>2011-03-06T10:32:58Z</time>
      </trkpt>
      <trkpt lat="45.65228" lon="6.66993">
        <ele>2617.33</ele>
        <time>2011-03-06T10:33:02Z</time>
      </trkpt>
      <trkpt lat="45.65228" lon="6.66993">
        <ele>2617.81</ele>
        <time>2011-03-06T10:33:10Z</time>
      </trkpt>
      <trkpt lat="45.65228" lon="6.66993">
        <ele>2612.52</ele>
        <time>2011-03-06T10:33:18Z</time>
      </trkpt>
      <trkpt lat="45.65228" lon="6.66993">
        <ele>2615.4</ele>
        <time>2011-03-06T10:33:19Z</time>
      </trkpt>
      <trkpt lat="45.65228" lon="6.66993">
        <ele>2616.85</ele>
        <time>2011-03-06T10:33:21Z</time>
      </trkpt>
      <trkpt lat="45.65228" lon="6.66993">
        <ele>2612.52</ele>
        <time>2011-03-06T10:33:22Z</time>
      </trkpt>
      <trkpt lat="45.65228" lon="6.66993">
        <ele>2617.81</ele>
        <time>2011-03-06T10:33:23Z</time>
      </trkpt>
      <trkpt lat="45.65228" lon="6.66993">
        <ele>2610.12</ele>
        <time>2011-03-06T10:33:26Z</time>
      </trkpt>
      <trkpt lat="45.65228" lon="6.66993">
        <ele>2617.81</ele>
        <time>2011-03-06T10:33:27Z</time>
      </trkpt>
      <trkpt lat="45.65228" lon="6.66994">
        <ele>2604.83</ele>
        <time>2011-03-06T10:33:42Z</time>
      </trkpt>
      <trkpt lat="45.65228" lon="6.66994">
        <ele>2619.73</ele>
        <time>2011-03-06T10:33:43Z</time>
      </trkpt>
      <trkpt lat="45.65228" lon="6.66994">
        <ele>2616.37</ele>
        <time>2011-03-06T10:33:44Z</time>
      </trkpt>
      <trkpt lat="45.65228" lon="6.66994">
        <ele>2615.88</ele>
        <time>2011-03-06T10:34:18Z</time>
      </trkpt>
      <trkpt lat="45.65228" lon="6.66995">
        <ele>2615.4</ele>
        <time>2011-03-06T10:34:54Z</time>
      </trkpt>
      <trkpt lat="45.65228" lon="6.66995">
        <ele>2616.37</ele>
        <time>2011-03-06T10:35:30Z</time>
      </trkpt>
      <trkpt lat="45.65228" lon="6.66995">
        <ele>2615.88</ele>
        <time>2011-03-06T10:36:10Z</time>
      </trkpt>
      <trkpt lat="45.65228" lon="6.66996">
        <ele>2615.88</ele>
        <time>2011-03-06T10:36:56Z</time>
      </trkpt>
      <trkpt lat="45.65227" lon="6.66996">
        <ele>2615.4</ele>
        <time>2011-03-06T10:37:41Z</time>
      </trkpt>
      <trkpt lat="45.65227" lon="6.66997">
        <ele>2615.88</ele>
        <time>2011-03-06T10:38:21Z</time>
      </trkpt>
      <trkpt lat="45.65227" lon="6.66997">
        <ele>2614.92</ele>
        <time>2011-03-06T10:38:58Z</time>
      </trkpt>
      <trkpt lat="45.65227" lon="6.66997">
        <ele>2615.4</ele>
        <time>2011-03-06T10:39:28Z</time>
      </trkpt>
      <trkpt lat="45.65227" lon="6.66996">
        <ele>2616.37</ele>
        <time>2011-03-06T10:39:55Z</time>
      </trkpt>
      <trkpt lat="45.65228" lon="6.66996">
        <ele>2615.4</ele>
        <time>2011-03-06T10:40:28Z</time>
      </trkpt>
      <trkpt lat="45.65228" lon="6.66996">
        <ele>2615.88</ele>
        <time>2011-03-06T10:41:07Z</time>
      </trkpt>
      <trkpt lat="45.65227" lon="6.66997">
        <ele>2615.88</ele>
        <time>2011-03-06T10:41:47Z</time>
      </trkpt>
      <trkpt lat="45.65228" lon="6.66996">
        <ele>2615.88</ele>
        <time>2011-03-06T10:42:19Z</time>
      </trkpt>
      <trkpt lat="45.65228" lon="6.66996">
        <ele>2616.37</ele>
        <time>2011-03-06T10:42:45Z</time>
      </trkpt>
      <trkpt lat="45.65228" lon="6.66996">
        <ele>2617.33</ele>
        <time>2011-03-06T10:43:07Z</time>
      </trkpt>
      <trkpt lat="45.65228" lon="6.66996">
        <ele>2613.96</ele>
        <time>2011-03-06T10:43:09Z</time>
      </trkpt>
      <trkpt lat="45.65228" lon="6.66996">
        <ele>2617.33</ele>
        <time>2011-03-06T10:43:12Z</time>
      </trkpt>
      <trkpt lat="45.65228" lon="6.66995">
        <ele>2616.85</ele>
        <time>2011-03-06T10:43:43Z</time>
      </trkpt>
      <trkpt lat="45.65228" lon="6.66995">
        <ele>2616.37</ele>
        <time>2011-03-06T10:44:05Z</time>
      </trkpt>
      <trkpt lat="45.65228" lon="6.66994">
        <ele>2616.37</ele>
        <time>2011-03-06T10:44:43Z</time>
      </trkpt>
      <trkpt lat="45.65228" lon="6.66994">
        <ele>2617.81</ele>
        <time>2011-03-06T10:45:14Z</time>
      </trkpt>
      <trkpt lat="45.65227" lon="6.66993">
        <ele>2616.85</ele>
        <time>2011-03-06T10:45:30Z</time>
      </trkpt>
      <trkpt lat="45.65229" lon="6.66993">
        <ele>2617.81</ele>
        <time>2011-03-06T10:45:43Z</time>
      </trkpt>
      <trkpt lat="45.65229" lon="6.66993">
        <ele>2617.81</ele>
        <time>2011-03-06T10:46:00Z</time>
      </trkpt>
      <trkpt lat="45.65229" lon="6.66991">
        <ele>2616.85</ele>
        <time>2011-03-06T10:46:21Z</time>
      </trkpt>
      <trkpt lat="45.65227" lon="6.6697">
        <ele>2616.85</ele>
        <time>2011-03-06T10:46:28Z</time>
      </trkpt>
      <trkpt lat="45.65219" lon="6.66943">
        <ele>2614.92</ele>
        <time>2011-03-06T10:46:41Z</time>
      </trkpt>
      <trkpt lat="45.65202" lon="6.6692">
        <ele>2613</ele>
        <time>2011-03-06T10:46:51Z</time>
      </trkpt>
      <trkpt lat="45.65191" lon="6.66909">
        <ele>2610.6</ele>
        <time>2011-03-06T10:46:55Z</time>
      </trkpt>
      <trkpt lat="45.65189" lon="6.66909">
        <ele>2611.08</ele>
        <time>2011-03-06T10:47:04Z</time>
      </trkpt>
      <trkpt lat="45.65189" lon="6.66909">
        <ele>2611.08</ele>
        <time>2011-03-06T10:47:28Z</time>
      </trkpt>
      <trkpt lat="45.6519" lon="6.6691">
        <ele>2611.08</ele>
        <time>2011-03-06T10:47:48Z</time>
      </trkpt>
      <trkpt lat="45.6519" lon="6.6691">
        <ele>2611.56</ele>
        <time>2011-03-06T10:48:09Z</time>
      </trkpt>
      <trkpt lat="45.6519" lon="6.6691">
        <ele>2611.08</ele>
        <time>2011-03-06T10:48:24Z</time>
      </trkpt>
      <trkpt lat="45.65187" lon="6.66909">
        <ele>2610.12</ele>
        <time>2011-03-06T10:48:26Z</time>
      </trkpt>
      <trkpt lat="45.65172" lon="6.66902">
        <ele>2606.75</ele>
        <time>2011-03-06T10:48:30Z</time>
      </trkpt>
      <trkpt lat="45.65158" lon="6.66889">
        <ele>2600.5</ele>
        <time>2011-03-06T10:48:33Z</time>
      </trkpt>
      <trkpt lat="45.65143" lon="6.66886">
        <ele>2597.14</ele>
        <time>2011-03-06T10:48:36Z</time>
      </trkpt>
      <trkpt lat="45.65122" lon="6.66886">
        <ele>2592.33</ele>
        <time>2011-03-06T10:48:40Z</time>
      </trkpt>
      <trkpt lat="45.65111" lon="6.66879">
        <ele>2588.01</ele>
        <time>2011-03-06T10:48:43Z</time>
      </trkpt>
      <trkpt lat="45.65103" lon="6.6687">
        <ele>2583.68</ele>
        <time>2011-03-06T10:48:45Z</time>
      </trkpt>
      <trkpt lat="45.65101" lon="6.6686">
        <ele>2580.8</ele>
        <time>2011-03-06T10:48:47Z</time>
      </trkpt>
      <trkpt lat="45.65102" lon="6.66858">
        <ele>2580.8</ele>
        <time>2011-03-06T10:48:48Z</time>
      </trkpt>
      <trkpt lat="45.65105" lon="6.66855">
        <ele>2580.32</ele>
        <time>2011-03-06T10:48:57Z</time>
      </trkpt>
      <trkpt lat="45.65107" lon="6.66851">
        <ele>2579.84</ele>
        <time>2011-03-06T10:49:00Z</time>
      </trkpt>
      <trkpt lat="45.65114" lon="6.66836">
        <ele>2578.39</ele>
        <time>2011-03-06T10:49:09Z</time>
      </trkpt>
      <trkpt lat="45.65117" lon="6.66826">
        <ele>2576.47</ele>
        <time>2011-03-06T10:49:11Z</time>
      </trkpt>
      <trkpt lat="45.65116" lon="6.66805">
        <ele>2570.7</ele>
        <time>2011-03-06T10:49:14Z</time>
      </trkpt>
      <trkpt lat="45.65111" lon="6.66787">
        <ele>2565.42</ele>
        <time>2011-03-06T10:49:16Z</time>
      </trkpt>
      <trkpt lat="45.65093" lon="6.66749">
        <ele>2556.76</ele>
        <time>2011-03-06T10:49:21Z</time>
      </trkpt>
      <trkpt lat="45.65079" lon="6.66726">
        <ele>2551.96</ele>
        <time>2011-03-06T10:49:25Z</time>
      </trkpt>
      <trkpt lat="45.65073" lon="6.66707">
        <ele>2549.55</ele>
        <time>2011-03-06T10:49:29Z</time>
      </trkpt>
      <trkpt lat="45.65073" lon="6.66708">
        <ele>2549.55</ele>
        <time>2011-03-06T10:49:45Z</time>
      </trkpt>
      <trkpt lat="45.65073" lon="6.66707">
        <ele>2549.07</ele>
        <time>2011-03-06T10:50:13Z</time>
      </trkpt>
      <trkpt lat="45.65073" lon="6.66708">
        <ele>2549.07</ele>
        <time>2011-03-06T10:50:35Z</time>
      </trkpt>
      <trkpt lat="45.65073" lon="6.66708">
        <ele>2549.07</ele>
        <time>2011-03-06T10:50:57Z</time>
      </trkpt>
      <trkpt lat="45.65074" lon="6.66707">
        <ele>2549.07</ele>
        <time>2011-03-06T10:51:15Z</time>
      </trkpt>
      <trkpt lat="45.65074" lon="6.66708">
        <ele>2549.55</ele>
        <time>2011-03-06T10:51:36Z</time>
      </trkpt>
      <trkpt lat="45.65074" lon="6.66708">
        <ele>2549.55</ele>
        <time>2011-03-06T10:51:56Z</time>
      </trkpt>
      <trkpt lat="45.65074" lon="6.66708">
        <ele>2550.03</ele>
        <time>2011-03-06T10:52:17Z</time>
      </trkpt>
      <trkpt lat="45.65074" lon="6.66708">
        <ele>2550.03</ele>
        <time>2011-03-06T10:52:43Z</time>
      </trkpt>
      <trkpt lat="45.65075" lon="6.66709">
        <ele>2550.51</ele>
        <time>2011-03-06T10:53:13Z</time>
      </trkpt>
      <trkpt lat="45.65075" lon="6.6671">
        <ele>2549.55</ele>
        <time>2011-03-06T10:53:37Z</time>
      </trkpt>
      <trkpt lat="45.65075" lon="6.66708">
        <ele>2550.03</ele>
        <time>2011-03-06T10:53:51Z</time>
      </trkpt>
      <trkpt lat="45.65074" lon="6.66709">
        <ele>2549.55</ele>
        <time>2011-03-06T10:54:13Z</time>
      </trkpt>
      <trkpt lat="45.65074" lon="6.66708">
        <ele>2550.51</ele>
        <time>2011-03-06T10:54:30Z</time>
      </trkpt>
      <trkpt lat="45.65074" lon="6.66708">
        <ele>2550.03</ele>
        <time>2011-03-06T10:54:58Z</time>
      </trkpt>
      <trkpt lat="45.65075" lon="6.66709">
        <ele>2550.51</ele>
        <time>2011-03-06T10:55:11Z</time>
      </trkpt>
      <trkpt lat="45.65075" lon="6.66709">
        <ele>2550.51</ele>
        <time>2011-03-06T10:55:27Z</time>
      </trkpt>
      <trkpt lat="45.65074" lon="6.66708">
        <ele>2550.51</ele>
        <time>2011-03-06T10:55:40Z</time>
      </trkpt>
      <trkpt lat="45.65074" lon="6.66708">
        <ele>2550.03</ele>
        <time>2011-03-06T10:55:50Z</time>
      </trkpt>
      <trkpt lat="45.65073" lon="6.66709">
        <ele>2550.03</ele>
        <time>2011-03-06T10:56:01Z</time>
      </trkpt>
      <trkpt lat="45.65074" lon="6.66708">
        <ele>2550.51</ele>
        <time>2011-03-06T10:56:10Z</time>
      </trkpt>
      <trkpt lat="45.65074" lon="6.66708">
        <ele>2550.51</ele>
        <time>2011-03-06T10:56:19Z</time>
      </trkpt>
      <trkpt lat="45.65074" lon="6.66708">
        <ele>2546.67</ele>
        <time>2011-03-06T10:56:21Z</time>
      </trkpt>
      <trkpt lat="45.65074" lon="6.66708">
        <ele>2550.03</ele>
        <time>2011-03-06T10:56:43Z</time>
      </trkpt>
      <trkpt lat="45.65074" lon="6.66707">
        <ele>2549.07</ele>
        <time>2011-03-06T10:57:14Z</time>
      </trkpt>
      <trkpt lat="45.65074" lon="6.66707">
        <ele>2548.59</ele>
        <time>2011-03-06T10:57:51Z</time>
      </trkpt>
      <trkpt lat="45.65074" lon="6.66708">
        <ele>2551</ele>
        <time>2011-03-06T10:57:54Z</time>
      </trkpt>
      <trkpt lat="45.65074" lon="6.66709">
        <ele>2550.51</ele>
        <time>2011-03-06T10:58:09Z</time>
      </trkpt>
      <trkpt lat="45.65075" lon="6.66708">
        <ele>2550.51</ele>
        <time>2011-03-06T10:58:23Z</time>
      </trkpt>
      <trkpt lat="45.65074" lon="6.66706">
        <ele>2551</ele>
        <time>2011-03-06T10:58:34Z</time>
      </trkpt>
      <trkpt lat="45.65063" lon="6.66695">
        <ele>2546.19</ele>
        <time>2011-03-06T10:58:39Z</time>
      </trkpt>
      <trkpt lat="45.65054" lon="6.6669">
        <ele>2542.82</ele>
        <time>2011-03-06T10:58:42Z</time>
      </trkpt>
      <trkpt lat="45.65049" lon="6.66691">
        <ele>2540.9</ele>
        <time>2011-03-06T10:58:43Z</time>
      </trkpt>
      <trkpt lat="45.65044" lon="6.66691">
        <ele>2539.94</ele>
        <time>2011-03-06T10:58:44Z</time>
      </trkpt>
      <trkpt lat="45.65037" lon="6.66691">
        <ele>2536.58</ele>
        <time>2011-03-06T10:58:45Z</time>
      </trkpt>
      <trkpt lat="45.6503" lon="6.66692">
        <ele>2536.1</ele>
        <time>2011-03-06T10:58:46Z</time>
      </trkpt>
      <trkpt lat="45.65015" lon="6.66691">
        <ele>2533.21</ele>
        <time>2011-03-06T10:58:48Z</time>
      </trkpt>
      <trkpt lat="45.65006" lon="6.66688">
        <ele>2531.77</ele>
        <time>2011-03-06T10:58:49Z</time>
      </trkpt>
      <trkpt lat="45.64998" lon="6.66682">
        <ele>2529.85</ele>
        <time>2011-03-06T10:58:50Z</time>
      </trkpt>
      <trkpt lat="45.64991" lon="6.66675">
        <ele>2528.4</ele>
        <time>2011-03-06T10:58:51Z</time>
      </trkpt>
      <trkpt lat="45.64985" lon="6.66668">
        <ele>2527.44</ele>
        <time>2011-03-06T10:58:52Z</time>
      </trkpt>
      <trkpt lat="45.6498" lon="6.66662">
        <ele>2526.96</ele>
        <time>2011-03-06T10:58:53Z</time>
      </trkpt>
      <trkpt lat="45.64972" lon="6.66653">
        <ele>2526.48</ele>
        <time>2011-03-06T10:58:55Z</time>
      </trkpt>
      <trkpt lat="45.64966" lon="6.6665">
        <ele>2526</ele>
        <time>2011-03-06T10:58:56Z</time>
      </trkpt>
      <trkpt lat="45.6496" lon="6.66645">
        <ele>2524.08</ele>
        <time>2011-03-06T10:58:57Z</time>
      </trkpt>
      <trkpt lat="45.64954" lon="6.66638">
        <ele>2522.64</ele>
        <time>2011-03-06T10:58:58Z</time>
      </trkpt>
      <trkpt lat="45.64947" lon="6.66629">
        <ele>2521.19</ele>
        <time>2011-03-06T10:58:59Z</time>
      </trkpt>
      <trkpt lat="45.64941" lon="6.66618">
        <ele>2519.27</ele>
        <time>2011-03-06T10:59:00Z</time>
      </trkpt>
      <trkpt lat="45.64936" lon="6.66607">
        <ele>2517.35</ele>
        <time>2011-03-06T10:59:01Z</time>
      </trkpt>
      <trkpt lat="45.64927" lon="6.66586">
        <ele>2516.39</ele>
        <time>2011-03-06T10:59:03Z</time>
      </trkpt>
      <trkpt lat="45.64923" lon="6.66575">
        <ele>2514.47</ele>
        <time>2011-03-06T10:59:04Z</time>
      </trkpt>
      <trkpt lat="45.64919" lon="6.66564">
        <ele>2513.98</ele>
        <time>2011-03-06T10:59:05Z</time>
      </trkpt>
      <trkpt lat="45.64914" lon="6.66554">
        <ele>2512.54</ele>
        <time>2011-03-06T10:59:06Z</time>
      </trkpt>
      <trkpt lat="45.64909" lon="6.66544">
        <ele>2510.14</ele>
        <time>2011-03-06T10:59:07Z</time>
      </trkpt>
      <trkpt lat="45.64903" lon="6.66533">
        <ele>2509.18</ele>
        <time>2011-03-06T10:59:08Z</time>
      </trkpt>
      <trkpt lat="45.64898" lon="6.66521">
        <ele>2507.26</ele>
        <time>2011-03-06T10:59:09Z</time>
      </trkpt>
      <trkpt lat="45.64888" lon="6.66494">
        <ele>2503.41</ele>
        <time>2011-03-06T10:59:11Z</time>
      </trkpt>
      <trkpt lat="45.6488" lon="6.66471">
        <ele>2502.45</ele>
        <time>2011-03-06T10:59:13Z</time>
      </trkpt>
      <trkpt lat="45.64863" lon="6.66432">
        <ele>2498.12</ele>
        <time>2011-03-06T10:59:17Z</time>
      </trkpt>
      <trkpt lat="45.64859" lon="6.66425">
        <ele>2499.08</ele>
        <time>2011-03-06T10:59:18Z</time>
      </trkpt>
      <trkpt lat="45.64856" lon="6.66421">
        <ele>2499.57</ele>
        <time>2011-03-06T10:59:19Z</time>
      </trkpt>
      <trkpt lat="45.64854" lon="6.66421">
        <ele>2501.49</ele>
        <time>2011-03-06T10:59:22Z</time>
      </trkpt>
      <trkpt lat="45.64854" lon="6.66421">
        <ele>2500.53</ele>
        <time>2011-03-06T10:59:37Z</time>
      </trkpt>
      <trkpt lat="45.64854" lon="6.6642">
        <ele>2500.53</ele>
        <time>2011-03-06T10:59:51Z</time>
      </trkpt>
      <trkpt lat="45.64854" lon="6.66421">
        <ele>2501.01</ele>
        <time>2011-03-06T11:00:04Z</time>
      </trkpt>
      <trkpt lat="45.64854" lon="6.66421">
        <ele>2500.53</ele>
        <time>2011-03-06T11:00:19Z</time>
      </trkpt>
      <trkpt lat="45.64854" lon="6.66421">
        <ele>2500.53</ele>
        <time>2011-03-06T11:00:37Z</time>
      </trkpt>
      <trkpt lat="45.64854" lon="6.66422">
        <ele>2501.01</ele>
        <time>2011-03-06T11:00:40Z</time>
      </trkpt>
      <trkpt lat="45.64854" lon="6.66419">
        <ele>2501.01</ele>
        <time>2011-03-06T11:00:49Z</time>
      </trkpt>
      <trkpt lat="45.64853" lon="6.66418">
        <ele>2502.93</ele>
        <time>2011-03-06T11:01:01Z</time>
      </trkpt>
      <trkpt lat="45.64853" lon="6.66418">
        <ele>2502.45</ele>
        <time>2011-03-06T11:01:04Z</time>
      </trkpt>
      <trkpt lat="45.64853" lon="6.66417">
        <ele>2502.45</ele>
        <time>2011-03-06T11:01:16Z</time>
      </trkpt>
      <trkpt lat="45.64852" lon="6.66416">
        <ele>2502.45</ele>
        <time>2011-03-06T11:01:27Z</time>
      </trkpt>
      <trkpt lat="45.64851" lon="6.66414">
        <ele>2502.93</ele>
        <time>2011-03-06T11:01:36Z</time>
      </trkpt>
      <trkpt lat="45.6485" lon="6.66415">
        <ele>2502.93</ele>
        <time>2011-03-06T11:01:46Z</time>
      </trkpt>
      <trkpt lat="45.64847" lon="6.66415">
        <ele>2504.37</ele>
        <time>2011-03-06T11:01:57Z</time>
      </trkpt>
      <trkpt lat="45.64846" lon="6.66415">
        <ele>2504.37</ele>
        <time>2011-03-06T11:02:08Z</time>
      </trkpt>
      <trkpt lat="45.64843" lon="6.66409">
        <ele>2505.33</ele>
        <time>2011-03-06T11:02:19Z</time>
      </trkpt>
      <trkpt lat="45.64837" lon="6.66405">
        <ele>2506.29</ele>
        <time>2011-03-06T11:02:31Z</time>
      </trkpt>
      <trkpt lat="45.6483" lon="6.66398">
        <ele>2508.22</ele>
        <time>2011-03-06T11:02:46Z</time>
      </trkpt>
      <trkpt lat="45.64829" lon="6.66393">
        <ele>2507.74</ele>
        <time>2011-03-06T11:02:58Z</time>
      </trkpt>
      <trkpt lat="45.64823" lon="6.66392">
        <ele>2508.7</ele>
        <time>2011-03-06T11:03:12Z</time>
      </trkpt>
      <trkpt lat="45.64822" lon="6.66394">
        <ele>2508.7</ele>
        <time>2011-03-06T11:03:25Z</time>
      </trkpt>
      <trkpt lat="45.64822" lon="6.66392">
        <ele>2507.74</ele>
        <time>2011-03-06T11:03:39Z</time>
      </trkpt>
      <trkpt lat="45.64822" lon="6.66392">
        <ele>2511.1</ele>
        <time>2011-03-06T11:04:00Z</time>
      </trkpt>
      <trkpt lat="45.64822" lon="6.66392">
        <ele>2510.62</ele>
        <time>2011-03-06T11:04:01Z</time>
      </trkpt>
      <trkpt lat="45.64822" lon="6.66392">
        <ele>2507.26</ele>
        <time>2011-03-06T11:04:03Z</time>
      </trkpt>
      <trkpt lat="45.64822" lon="6.66392">
        <ele>2507.74</ele>
        <time>2011-03-06T11:04:04Z</time>
      </trkpt>
      <trkpt lat="45.64822" lon="6.66392">
        <ele>2508.7</ele>
        <time>2011-03-06T11:04:29Z</time>
      </trkpt>
      <trkpt lat="45.64822" lon="6.66392">
        <ele>2508.22</ele>
        <time>2011-03-06T11:04:54Z</time>
      </trkpt>
      <trkpt lat="45.64822" lon="6.66392">
        <ele>2508.22</ele>
        <time>2011-03-06T11:05:27Z</time>
      </trkpt>
      <trkpt lat="45.64822" lon="6.66392">
        <ele>2508.7</ele>
        <time>2011-03-06T11:05:51Z</time>
      </trkpt>
      <trkpt lat="45.64822" lon="6.66389">
        <ele>2508.22</ele>
        <time>2011-03-06T11:06:04Z</time>
      </trkpt>
      <trkpt lat="45.64822" lon="6.66389">
        <ele>2508.22</ele>
        <time>2011-03-06T11:06:25Z</time>
      </trkpt>
      <trkpt lat="45.64823" lon="6.66388">
        <ele>2508.22</ele>
        <time>2011-03-06T11:07:01Z</time>
      </trkpt>
      <trkpt lat="45.64823" lon="6.66387">
        <ele>2508.22</ele>
        <time>2011-03-06T11:07:09Z</time>
      </trkpt>
      <trkpt lat="45.64817" lon="6.66395">
        <ele>2507.74</ele>
        <time>2011-03-06T11:08:01Z</time>
      </trkpt>
      <trkpt lat="45.64819" lon="6.66391">
        <ele>2507.74</ele>
        <time>2011-03-06T11:08:02Z</time>
      </trkpt>
      <trkpt lat="45.64822" lon="6.66388">
        <ele>2508.22</ele>
        <time>2011-03-06T11:08:04Z</time>
      </trkpt>
      <trkpt lat="45.64822" lon="6.66386">
        <ele>2507.74</ele>
        <time>2011-03-06T11:08:21Z</time>
      </trkpt>
      <trkpt lat="45.64822" lon="6.6639">
        <ele>2509.18</ele>
        <time>2011-03-06T11:08:39Z</time>
      </trkpt>
      <trkpt lat="45.64821" lon="6.66389">
        <ele>2508.7</ele>
        <time>2011-03-06T11:08:54Z</time>
      </trkpt>
      <trkpt lat="45.64822" lon="6.66387">
        <ele>2509.66</ele>
        <time>2011-03-06T11:09:29Z</time>
      </trkpt>
      <trkpt lat="45.64823" lon="6.66386">
        <ele>2509.66</ele>
        <time>2011-03-06T11:09:54Z</time>
      </trkpt>
      <trkpt lat="45.64822" lon="6.66388">
        <ele>2509.66</ele>
        <time>2011-03-06T11:10:17Z</time>
      </trkpt>
      <trkpt lat="45.64821" lon="6.66389">
        <ele>2509.18</ele>
        <time>2011-03-06T11:10:32Z</time>
      </trkpt>
      <trkpt lat="45.64822" lon="6.66388">
        <ele>2509.18</ele>
        <time>2011-03-06T11:11:11Z</time>
      </trkpt>
      <trkpt lat="45.64822" lon="6.66388">
        <ele>2509.66</ele>
        <time>2011-03-06T11:11:44Z</time>
      </trkpt>
      <trkpt lat="45.64821" lon="6.66388">
        <ele>2509.18</ele>
        <time>2011-03-06T11:12:20Z</time>
      </trkpt>
      <trkpt lat="45.64821" lon="6.66388">
        <ele>2509.66</ele>
        <time>2011-03-06T11:12:54Z</time>
      </trkpt>
      <trkpt lat="45.64821" lon="6.66388">
        <ele>2510.14</ele>
        <time>2011-03-06T11:13:34Z</time>
      </trkpt>
      <trkpt lat="45.64821" lon="6.66388">
        <ele>2510.62</ele>
        <time>2011-03-06T11:14:12Z</time>
      </trkpt>
      <trkpt lat="45.64821" lon="6.66388">
        <ele>2510.62</ele>
        <time>2011-03-06T11:14:50Z</time>
      </trkpt>
      <trkpt lat="45.64821" lon="6.66388">
        <ele>2510.14</ele>
        <time>2011-03-06T11:15:26Z</time>
      </trkpt>
      <trkpt lat="45.64822" lon="6.66388">
        <ele>2510.62</ele>
        <time>2011-03-06T11:16:05Z</time>
      </trkpt>
      <trkpt lat="45.64822" lon="6.66388">
        <ele>2510.62</ele>
        <time>2011-03-06T11:16:43Z</time>
      </trkpt>
      <trkpt lat="45.64822" lon="6.66388">
        <ele>2510.62</ele>
        <time>2011-03-06T11:17:15Z</time>
      </trkpt>
      <trkpt lat="45.64822" lon="6.66388">
        <ele>2510.14</ele>
        <time>2011-03-06T11:17:53Z</time>
      </trkpt>
      <trkpt lat="45.64822" lon="6.66389">
        <ele>2510.14</ele>
        <time>2011-03-06T11:18:29Z</time>
      </trkpt>
      <trkpt lat="45.64822" lon="6.66388">
        <ele>2511.1</ele>
        <time>2011-03-06T11:19:13Z</time>
      </trkpt>
      <trkpt lat="45.64822" lon="6.66388">
        <ele>2511.1</ele>
        <time>2011-03-06T11:19:50Z</time>
      </trkpt>
      <trkpt lat="45.64822" lon="6.66388">
        <ele>2511.1</ele>
        <time>2011-03-06T11:20:30Z</time>
      </trkpt>
      <trkpt lat="45.64822" lon="6.66388">
        <ele>2511.1</ele>
        <time>2011-03-06T11:21:11Z</time>
      </trkpt>
      <trkpt lat="45.64822" lon="6.66388">
        <ele>2511.58</ele>
        <time>2011-03-06T11:21:54Z</time>
      </trkpt>
      <trkpt lat="45.64822" lon="6.66388">
        <ele>2511.1</ele>
        <time>2011-03-06T11:22:36Z</time>
      </trkpt>
      <trkpt lat="45.64822" lon="6.66387">
        <ele>2511.1</ele>
        <time>2011-03-06T11:23:21Z</time>
      </trkpt>
      <trkpt lat="45.64822" lon="6.66387">
        <ele>2511.1</ele>
        <time>2011-03-06T11:24:02Z</time>
      </trkpt>
      <trkpt lat="45.64822" lon="6.66387">
        <ele>2512.06</ele>
        <time>2011-03-06T11:24:47Z</time>
      </trkpt>
      <trkpt lat="45.64822" lon="6.66387">
        <ele>2512.06</ele>
        <time>2011-03-06T11:25:34Z</time>
      </trkpt>
      <trkpt lat="45.64822" lon="6.66387">
        <ele>2511.58</ele>
        <time>2011-03-06T11:26:22Z</time>
      </trkpt>
      <trkpt lat="45.64822" lon="6.66386">
        <ele>2512.06</ele>
        <time>2011-03-06T11:27:10Z</time>
      </trkpt>
      <trkpt lat="45.64822" lon="6.66386">
        <ele>2511.58</ele>
        <time>2011-03-06T11:27:55Z</time>
      </trkpt>
      <trkpt lat="45.64822" lon="6.66387">
        <ele>2511.58</ele>
        <time>2011-03-06T11:28:37Z</time>
      </trkpt>
      <trkpt lat="45.64822" lon="6.66387">
        <ele>2511.58</ele>
        <time>2011-03-06T11:29:23Z</time>
      </trkpt>
      <trkpt lat="45.64822" lon="6.66386">
        <ele>2511.58</ele>
        <time>2011-03-06T11:30:05Z</time>
      </trkpt>
      <trkpt lat="45.64822" lon="6.66386">
        <ele>2511.58</ele>
        <time>2011-03-06T11:30:46Z</time>
      </trkpt>
      <trkpt lat="45.64822" lon="6.66386">
        <ele>2511.58</ele>
        <time>2011-03-06T11:31:29Z</time>
      </trkpt>
      <trkpt lat="45.64822" lon="6.66386">
        <ele>2512.06</ele>
        <time>2011-03-06T11:32:16Z</time>
      </trkpt>
      <trkpt lat="45.64822" lon="6.66387">
        <ele>2512.06</ele>
        <time>2011-03-06T11:33:08Z</time>
      </trkpt>
      <trkpt lat="45.64822" lon="6.66387">
        <ele>2512.06</ele>
        <time>2011-03-06T11:33:50Z</time>
      </trkpt>
      <trkpt lat="45.64822" lon="6.66387">
        <ele>2512.54</ele>
        <time>2011-03-06T11:34:35Z</time>
      </trkpt>
      <trkpt lat="45.64822" lon="6.66387">
        <ele>2512.54</ele>
        <time>2011-03-06T11:35:16Z</time>
      </trkpt>
      <trkpt lat="45.64822" lon="6.66387">
        <ele>2512.54</ele>
        <time>2011-03-06T11:35:58Z</time>
      </trkpt>
      <trkpt lat="45.64822" lon="6.66387">
        <ele>2512.54</ele>
        <time>2011-03-06T11:36:43Z</time>
      </trkpt>
      <trkpt lat="45.64822" lon="6.66387">
        <ele>2511.58</ele>
        <time>2011-03-06T11:37:27Z</time>
      </trkpt>
      <trkpt lat="45.64822" lon="6.66387">
        <ele>2512.06</ele>
        <time>2011-03-06T11:38:11Z</time>
      </trkpt>
      <trkpt lat="45.64822" lon="6.66387">
        <ele>2512.06</ele>
        <time>2011-03-06T11:38:57Z</time>
      </trkpt>
      <trkpt lat="45.64822" lon="6.66387">
        <ele>2512.06</ele>
        <time>2011-03-06T11:39:34Z</time>
      </trkpt>
      <trkpt lat="45.64822" lon="6.66387">
        <ele>2512.06</ele>
        <time>2011-03-06T11:40:11Z</time>
      </trkpt>
      <trkpt lat="45.64822" lon="6.66387">
        <ele>2512.06</ele>
        <time>2011-03-06T11:40:45Z</time>
      </trkpt>
      <trkpt lat="45.64822" lon="6.66387">
        <ele>2512.06</ele>
        <time>2011-03-06T11:41:23Z</time>
      </trkpt>
      <trkpt lat="45.64822" lon="6.66386">
        <ele>2512.06</ele>
        <time>2011-03-06T11:42:02Z</time>
      </trkpt>
      <trkpt lat="45.64822" lon="6.66387">
        <ele>2512.06</ele>
        <time>2011-03-06T11:42:36Z</time>
      </trkpt>
      <trkpt lat="45.64822" lon="6.66387">
        <ele>2512.06</ele>
        <time>2011-03-06T11:43:17Z</time>
      </trkpt>
      <trkpt lat="45.64822" lon="6.66387">
        <ele>2512.06</ele>
        <time>2011-03-06T11:43:58Z</time>
      </trkpt>
      <trkpt lat="45.64822" lon="6.66387">
        <ele>2512.06</ele>
        <time>2011-03-06T11:44:38Z</time>
      </trkpt>
      <trkpt lat="45.64822" lon="6.66387">
        <ele>2512.06</ele>
        <time>2011-03-06T11:45:18Z</time>
      </trkpt>
      <trkpt lat="45.64822" lon="6.66387">
        <ele>2512.06</ele>
        <time>2011-03-06T11:45:59Z</time>
      </trkpt>
      <trkpt lat="45.64822" lon="6.66387">
        <ele>2512.54</ele>
        <time>2011-03-06T11:46:40Z</time>
      </trkpt>
      <trkpt lat="45.64823" lon="6.66387">
        <ele>2512.06</ele>
        <time>2011-03-06T11:47:18Z</time>
      </trkpt>
      <trkpt lat="45.64823" lon="6.66387">
        <ele>2512.54</ele>
        <time>2011-03-06T11:47:53Z</time>
      </trkpt>
      <trkpt lat="45.64822" lon="6.66387">
        <ele>2512.06</ele>
        <time>2011-03-06T11:48:32Z</time>
      </trkpt>
      <trkpt lat="45.64822" lon="6.66387">
        <ele>2512.06</ele>
        <time>2011-03-06T11:49:04Z</time>
      </trkpt>
      <trkpt lat="45.64822" lon="6.66387">
        <ele>2512.06</ele>
        <time>2011-03-06T11:49:40Z</time>
      </trkpt>
      <trkpt lat="45.64822" lon="6.66387">
        <ele>2512.06</ele>
        <time>2011-03-06T11:50:14Z</time>
      </trkpt>
      <trkpt lat="45.64822" lon="6.66387">
        <ele>2511.58</ele>
        <time>2011-03-06T11:50:53Z</time>
      </trkpt>
      <trkpt lat="45.64823" lon="6.66387">
        <ele>2512.06</ele>
        <time>2011-03-06T11:51:28Z</time>
      </trkpt>
      <trkpt lat="45.64823" lon="6.66387">
        <ele>2511.58</ele>
        <time>2011-03-06T11:52:03Z</time>
      </trkpt>
      <trkpt lat="45.64823" lon="6.66387">
        <ele>2512.06</ele>
        <time>2011-03-06T11:52:45Z</time>
      </trkpt>
      <trkpt lat="45.64823" lon="6.66387">
        <ele>2511.58</ele>
        <time>2011-03-06T11:53:26Z</time>
      </trkpt>
      <trkpt lat="45.64823" lon="6.66387">
        <ele>2511.58</ele>
        <time>2011-03-06T11:54:02Z</time>
      </trkpt>
      <trkpt lat="45.64823" lon="6.66386">
        <ele>2511.58</ele>
        <time>2011-03-06T11:54:40Z</time>
      </trkpt>
      <trkpt lat="45.64823" lon="6.66387">
        <ele>2512.06</ele>
        <time>2011-03-06T11:55:21Z</time>
      </trkpt>
      <trkpt lat="45.64823" lon="6.66387">
        <ele>2512.06</ele>
        <time>2011-03-06T11:56:00Z</time>
      </trkpt>
      <trkpt lat="45.64823" lon="6.66387">
        <ele>2512.54</ele>
        <time>2011-03-06T11:56:36Z</time>
      </trkpt>
      <trkpt lat="45.64823" lon="6.66388">
        <ele>2512.06</ele>
        <time>2011-03-06T11:57:14Z</time>
      </trkpt>
      <trkpt lat="45.64823" lon="6.66387">
        <ele>2512.54</ele>
        <time>2011-03-06T11:57:51Z</time>
      </trkpt>
      <trkpt lat="45.64823" lon="6.66387">
        <ele>2512.06</ele>
        <time>2011-03-06T11:58:34Z</time>
      </trkpt>
      <trkpt lat="45.64822" lon="6.66387">
        <ele>2512.54</ele>
        <time>2011-03-06T11:59:11Z</time>
      </trkpt>
      <trkpt lat="45.64823" lon="6.66387">
        <ele>2512.54</ele>
        <time>2011-03-06T11:59:50Z</time>
      </trkpt>
      <trkpt lat="45.64822" lon="6.66387">
        <ele>2512.06</ele>
        <time>2011-03-06T12:00:30Z</time>
      </trkpt>
      <trkpt lat="45.64822" lon="6.66387">
        <ele>2513.02</ele>
        <time>2011-03-06T12:01:05Z</time>
      </trkpt>
      <trkpt lat="45.64822" lon="6.66387">
        <ele>2512.54</ele>
        <time>2011-03-06T12:01:41Z</time>
      </trkpt>
      <trkpt lat="45.64822" lon="6.66387">
        <ele>2512.54</ele>
        <time>2011-03-06T12:02:23Z</time>
      </trkpt>
      <trkpt lat="45.64822" lon="6.66387">
        <ele>2512.54</ele>
        <time>2011-03-06T12:03:08Z</time>
      </trkpt>
      <trkpt lat="45.64822" lon="6.66387">
        <ele>2512.54</ele>
        <time>2011-03-06T12:03:43Z</time>
      </trkpt>
      <trkpt lat="45.64822" lon="6.66387">
        <ele>2512.54</ele>
        <time>2011-03-06T12:04:23Z</time>
      </trkpt>
      <trkpt lat="45.64822" lon="6.66387">
        <ele>2512.54</ele>
        <time>2011-03-06T12:05:03Z</time>
      </trkpt>
      <trkpt lat="45.64822" lon="6.66388">
        <ele>2513.02</ele>
        <time>2011-03-06T12:05:40Z</time>
      </trkpt>
      <trkpt lat="45.64822" lon="6.66388">
        <ele>2512.06</ele>
        <time>2011-03-06T12:06:14Z</time>
      </trkpt>
      <trkpt lat="45.64822" lon="6.66388">
        <ele>2512.06</ele>
        <time>2011-03-06T12:06:51Z</time>
      </trkpt>
      <trkpt lat="45.64822" lon="6.66388">
        <ele>2512.54</ele>
        <time>2011-03-06T12:07:32Z</time>
      </trkpt>
      <trkpt lat="45.64822" lon="6.66388">
        <ele>2512.54</ele>
        <time>2011-03-06T12:08:15Z</time>
      </trkpt>
      <trkpt lat="45.64822" lon="6.66389">
        <ele>2512.06</ele>
        <time>2011-03-06T12:08:53Z</time>
      </trkpt>
      <trkpt lat="45.64822" lon="6.66388">
        <ele>2512.06</ele>
        <time>2011-03-06T12:09:36Z</time>
      </trkpt>
      <trkpt lat="45.64822" lon="6.66388">
        <ele>2512.54</ele>
        <time>2011-03-06T12:10:20Z</time>
      </trkpt>
      <trkpt lat="45.64822" lon="6.66388">
        <ele>2512.54</ele>
        <time>2011-03-06T12:10:56Z</time>
      </trkpt>
      <trkpt lat="45.64822" lon="6.66388">
        <ele>2512.06</ele>
        <time>2011-03-06T12:11:35Z</time>
      </trkpt>
      <trkpt lat="45.64822" lon="6.66388">
        <ele>2511.58</ele>
        <time>2011-03-06T12:12:15Z</time>
      </trkpt>
      <trkpt lat="45.64822" lon="6.66388">
        <ele>2512.06</ele>
        <time>2011-03-06T12:12:53Z</time>
      </trkpt>
      <trkpt lat="45.64822" lon="6.66389">
        <ele>2512.06</ele>
        <time>2011-03-06T12:13:28Z</time>
      </trkpt>
      <trkpt lat="45.64822" lon="6.66389">
        <ele>2511.58</ele>
        <time>2011-03-06T12:14:08Z</time>
      </trkpt>
      <trkpt lat="45.64822" lon="6.66389">
        <ele>2512.54</ele>
        <time>2011-03-06T12:14:46Z</time>
      </trkpt>
      <trkpt lat="45.64822" lon="6.66388">
        <ele>2512.06</ele>
        <time>2011-03-06T12:15:27Z</time>
      </trkpt>
      <trkpt lat="45.64822" lon="6.66388">
        <ele>2512.06</ele>
        <time>2011-03-06T12:16:02Z</time>
      </trkpt>
      <trkpt lat="45.64822" lon="6.66388">
        <ele>2512.54</ele>
        <time>2011-03-06T12:16:38Z</time>
      </trkpt>
      <trkpt lat="45.64822" lon="6.66388">
        <ele>2512.06</ele>
        <time>2011-03-06T12:17:14Z</time>
      </trkpt>
      <trkpt lat="45.64822" lon="6.66388">
        <ele>2512.06</ele>
        <time>2011-03-06T12:17:46Z</time>
      </trkpt>
      <trkpt lat="45.64823" lon="6.66388">
        <ele>2512.06</ele>
        <time>2011-03-06T12:18:19Z</time>
      </trkpt>
      <trkpt lat="45.64823" lon="6.66388">
        <ele>2512.06</ele>
        <time>2011-03-06T12:18:45Z</time>
      </trkpt>
      <trkpt lat="45.64822" lon="6.66388">
        <ele>2512.06</ele>
        <time>2011-03-06T12:19:10Z</time>
      </trkpt>
      <trkpt lat="45.64822" lon="6.66388">
        <ele>2512.06</ele>
        <time>2011-03-06T12:19:39Z</time>
      </trkpt>
      <trkpt lat="45.64822" lon="6.66388">
        <ele>2512.54</ele>
        <time>2011-03-06T12:20:10Z</time>
      </trkpt>
      <trkpt lat="45.64822" lon="6.66388">
        <ele>2512.54</ele>
        <time>2011-03-06T12:20:45Z</time>
      </trkpt>
      <trkpt lat="45.64822" lon="6.66388">
        <ele>2512.06</ele>
        <time>2011-03-06T12:21:11Z</time>
      </trkpt>
      <trkpt lat="45.64822" lon="6.66388">
        <ele>2511.58</ele>
        <time>2011-03-06T12:21:40Z</time>
      </trkpt>
      <trkpt lat="45.64822" lon="6.66387">
        <ele>2512.06</ele>
        <time>2011-03-06T12:22:04Z</time>
      </trkpt>
      <trkpt lat="45.64822" lon="6.66387">
        <ele>2512.54</ele>
        <time>2011-03-06T12:22:31Z</time>
      </trkpt>
      <trkpt lat="45.64822" lon="6.66387">
        <ele>2512.06</ele>
        <time>2011-03-06T12:23:03Z</time>
      </trkpt>
      <trkpt lat="45.64822" lon="6.66387">
        <ele>2511.58</ele>
        <time>2011-03-06T12:23:31Z</time>
      </trkpt>
      <trkpt lat="45.64822" lon="6.66387">
        <ele>2512.06</ele>
        <time>2011-03-06T12:24:01Z</time>
      </trkpt>
      <trkpt lat="45.64822" lon="6.66386">
        <ele>2511.58</ele>
        <time>2011-03-06T12:24:30Z</time>
      </trkpt>
      <trkpt lat="45.64822" lon="6.66386">
        <ele>2512.06</ele>
        <time>2011-03-06T12:25:00Z</time>
      </trkpt>
      <trkpt lat="45.64823" lon="6.66386">
        <ele>2512.06</ele>
        <time>2011-03-06T12:25:29Z</time>
      </trkpt>
      <trkpt lat="45.64822" lon="6.66386">
        <ele>2512.54</ele>
        <time>2011-03-06T12:25:59Z</time>
      </trkpt>
      <trkpt lat="45.64823" lon="6.66386">
        <ele>2512.06</ele>
        <time>2011-03-06T12:26:30Z</time>
      </trkpt>
      <trkpt lat="45.64823" lon="6.66386">
        <ele>2511.58</ele>
        <time>2011-03-06T12:27:00Z</time>
      </trkpt>
      <trkpt lat="45.64823" lon="6.66387">
        <ele>2511.58</ele>
        <time>2011-03-06T12:27:31Z</time>
      </trkpt>
      <trkpt lat="45.64823" lon="6.66387">
        <ele>2512.06</ele>
        <time>2011-03-06T12:28:07Z</time>
      </trkpt>
      <trkpt lat="45.64823" lon="6.66388">
        <ele>2511.58</ele>
        <time>2011-03-06T12:28:39Z</time>
      </trkpt>
      <trkpt lat="45.64823" lon="6.66388">
        <ele>2511.58</ele>
        <time>2011-03-06T12:29:12Z</time>
      </trkpt>
      <trkpt lat="45.64823" lon="6.66388">
        <ele>2511.58</ele>
        <time>2011-03-06T12:29:43Z</time>
      </trkpt>
      <trkpt lat="45.64823" lon="6.66387">
        <ele>2512.06</ele>
        <time>2011-03-06T12:30:15Z</time>
      </trkpt>
      <trkpt lat="45.64822" lon="6.66387">
        <ele>2512.06</ele>
        <time>2011-03-06T12:30:44Z</time>
      </trkpt>
      <trkpt lat="45.64822" lon="6.66386">
        <ele>2511.58</ele>
        <time>2011-03-06T12:31:16Z</time>
      </trkpt>
      <trkpt lat="45.64822" lon="6.66386">
        <ele>2512.06</ele>
        <time>2011-03-06T12:31:47Z</time>
      </trkpt>
      <trkpt lat="45.64822" lon="6.66386">
        <ele>2511.58</ele>
        <time>2011-03-06T12:32:22Z</time>
      </trkpt>
      <trkpt lat="45.64822" lon="6.66386">
        <ele>2511.58</ele>
        <time>2011-03-06T12:32:56Z</time>
      </trkpt>
      <trkpt lat="45.64822" lon="6.66386">
        <ele>2512.06</ele>
        <time>2011-03-06T12:33:30Z</time>
      </trkpt>
      <trkpt lat="45.64822" lon="6.66386">
        <ele>2511.58</ele>
        <time>2011-03-06T12:34:00Z</time>
      </trkpt>
      <trkpt lat="45.64822" lon="6.66387">
        <ele>2512.54</ele>
        <time>2011-03-06T12:34:32Z</time>
      </trkpt>
      <trkpt lat="45.64822" lon="6.66387">
        <ele>2512.54</ele>
        <time>2011-03-06T12:35:02Z</time>
      </trkpt>
      <trkpt lat="45.64822" lon="6.66387">
        <ele>2512.06</ele>
        <time>2011-03-06T12:35:34Z</time>
      </trkpt>
      <trkpt lat="45.64822" lon="6.66387">
        <ele>2512.06</ele>
        <time>2011-03-06T12:36:12Z</time>
      </trkpt>
      <trkpt lat="45.64822" lon="6.66386">
        <ele>2512.06</ele>
        <time>2011-03-06T12:36:44Z</time>
      </trkpt>
      <trkpt lat="45.64822" lon="6.66385">
        <ele>2512.06</ele>
        <time>2011-03-06T12:36:58Z</time>
      </trkpt>
      <trkpt lat="45.64822" lon="6.66385">
        <ele>2512.06</ele>
        <time>2011-03-06T12:37:28Z</time>
      </trkpt>
      <trkpt lat="45.64821" lon="6.66385">
        <ele>2511.58</ele>
        <time>2011-03-06T12:37:58Z</time>
      </trkpt>
      <trkpt lat="45.64822" lon="6.66385">
        <ele>2511.58</ele>
        <time>2011-03-06T12:38:30Z</time>
      </trkpt>
      <trkpt lat="45.64822" lon="6.66385">
        <ele>2511.58</ele>
        <time>2011-03-06T12:39:06Z</time>
      </trkpt>
      <trkpt lat="45.64822" lon="6.66385">
        <ele>2512.54</ele>
        <time>2011-03-06T12:39:41Z</time>
      </trkpt>
      <trkpt lat="45.64822" lon="6.66384">
        <ele>2497.64</ele>
        <time>2011-03-06T12:39:56Z</time>
      </trkpt>
      <trkpt lat="45.64822" lon="6.66384">
        <ele>2514.47</ele>
        <time>2011-03-06T12:39:57Z</time>
      </trkpt>
      <trkpt lat="45.64822" lon="6.66384">
        <ele>2511.58</ele>
        <time>2011-03-06T12:40:01Z</time>
      </trkpt>
      <trkpt lat="45.64822" lon="6.66384">
        <ele>2511.58</ele>
        <time>2011-03-06T12:40:28Z</time>
      </trkpt>
      <trkpt lat="45.64822" lon="6.66385">
        <ele>2511.58</ele>
        <time>2011-03-06T12:41:00Z</time>
      </trkpt>
      <trkpt lat="45.64822" lon="6.66385">
        <ele>2512.06</ele>
        <time>2011-03-06T12:41:28Z</time>
      </trkpt>
      <trkpt lat="45.64822" lon="6.66385">
        <ele>2512.06</ele>
        <time>2011-03-06T12:41:51Z</time>
      </trkpt>
      <trkpt lat="45.64822" lon="6.66385">
        <ele>2512.06</ele>
        <time>2011-03-06T12:42:13Z</time>
      </trkpt>
      <trkpt lat="45.64822" lon="6.66386">
        <ele>2512.54</ele>
        <time>2011-03-06T12:42:40Z</time>
      </trkpt>
      <trkpt lat="45.64822" lon="6.66386">
        <ele>2512.54</ele>
        <time>2011-03-06T12:43:03Z</time>
      </trkpt>
      <trkpt lat="45.64822" lon="6.66386">
        <ele>2512.54</ele>
        <time>2011-03-06T12:43:26Z</time>
      </trkpt>
      <trkpt lat="45.64822" lon="6.66386">
        <ele>2512.06</ele>
        <time>2011-03-06T12:43:58Z</time>
      </trkpt>
      <trkpt lat="45.64822" lon="6.66385">
        <ele>2513.02</ele>
        <time>2011-03-06T12:44:16Z</time>
      </trkpt>
      <trkpt lat="45.64822" lon="6.66387">
        <ele>2513.98</ele>
        <time>2011-03-06T12:44:21Z</time>
      </trkpt>
      <trkpt lat="45.64821" lon="6.66391">
        <ele>2513.5</ele>
        <time>2011-03-06T12:44:26Z</time>
      </trkpt>
      <trkpt lat="45.64827" lon="6.66393">
        <ele>2513.5</ele>
        <time>2011-03-06T12:44:38Z</time>
      </trkpt>
      <trkpt lat="45.64825" lon="6.66393">
        <ele>2513.5</ele>
        <time>2011-03-06T12:44:49Z</time>
      </trkpt>
      <trkpt lat="45.64821" lon="6.66385">
        <ele>2513.98</ele>
        <time>2011-03-06T12:44:58Z</time>
      </trkpt>
      <trkpt lat="45.64824" lon="6.66377">
        <ele>2513.98</ele>
        <time>2011-03-06T12:45:11Z</time>
      </trkpt>
      <trkpt lat="45.64824" lon="6.66377">
        <ele>2513.5</ele>
        <time>2011-03-06T12:45:31Z</time>
      </trkpt>
      <trkpt lat="45.64824" lon="6.66377">
        <ele>2514.47</ele>
        <time>2011-03-06T12:45:36Z</time>
      </trkpt>
      <trkpt lat="45.64824" lon="6.66377">
        <ele>2514.47</ele>
        <time>2011-03-06T12:45:51Z</time>
      </trkpt>
      <trkpt lat="45.64825" lon="6.66377">
        <ele>2513.98</ele>
        <time>2011-03-06T12:46:06Z</time>
      </trkpt>
      <trkpt lat="45.64825" lon="6.66376">
        <ele>2513.98</ele>
        <time>2011-03-06T12:46:07Z</time>
      </trkpt>
      <trkpt lat="45.64833" lon="6.66363">
        <ele>2509.66</ele>
        <time>2011-03-06T12:46:12Z</time>
      </trkpt>
      <trkpt lat="45.64836" lon="6.6635">
        <ele>2506.77</ele>
        <time>2011-03-06T12:46:14Z</time>
      </trkpt>
      <trkpt lat="45.64838" lon="6.66344">
        <ele>2504.85</ele>
        <time>2011-03-06T12:46:15Z</time>
      </trkpt>
      <trkpt lat="45.64834" lon="6.66327">
        <ele>2501.97</ele>
        <time>2011-03-06T12:46:18Z</time>
      </trkpt>
      <trkpt lat="45.64832" lon="6.66306">
        <ele>2498.6</ele>
        <time>2011-03-06T12:46:25Z</time>
      </trkpt>
      <trkpt lat="45.6483" lon="6.66308">
        <ele>2495.72</ele>
        <time>2011-03-06T12:46:29Z</time>
      </trkpt>
      <trkpt lat="45.64819" lon="6.66307">
        <ele>2486.59</ele>
        <time>2011-03-06T12:46:32Z</time>
      </trkpt>
      <trkpt lat="45.64811" lon="6.663">
        <ele>2479.86</ele>
        <time>2011-03-06T12:46:34Z</time>
      </trkpt>
      <trkpt lat="45.64808" lon="6.66296">
        <ele>2476.49</ele>
        <time>2011-03-06T12:46:35Z</time>
      </trkpt>
      <trkpt lat="45.64803" lon="6.66288">
        <ele>2469.76</ele>
        <time>2011-03-06T12:46:37Z</time>
      </trkpt>
      <trkpt lat="45.64795" lon="6.66279">
        <ele>2464.96</ele>
        <time>2011-03-06T12:46:39Z</time>
      </trkpt>
      <trkpt lat="45.64793" lon="6.66276">
        <ele>2461.59</ele>
        <time>2011-03-06T12:46:40Z</time>
      </trkpt>
      <trkpt lat="45.64788" lon="6.6627">
        <ele>2455.34</ele>
        <time>2011-03-06T12:46:42Z</time>
      </trkpt>
      <trkpt lat="45.64782" lon="6.66264">
        <ele>2448.62</ele>
        <time>2011-03-06T12:46:44Z</time>
      </trkpt>
      <trkpt lat="45.64779" lon="6.66263">
        <ele>2446.21</ele>
        <time>2011-03-06T12:46:46Z</time>
      </trkpt>
      <trkpt lat="45.64773" lon="6.66259">
        <ele>2441.89</ele>
        <time>2011-03-06T12:46:48Z</time>
      </trkpt>
      <trkpt lat="45.64769" lon="6.66257">
        <ele>2439</ele>
        <time>2011-03-06T12:46:49Z</time>
      </trkpt>
      <trkpt lat="45.64763" lon="6.66251">
        <ele>2434.2</ele>
        <time>2011-03-06T12:46:51Z</time>
      </trkpt>
      <trkpt lat="45.64759" lon="6.66247">
        <ele>2433.71</ele>
        <time>2011-03-06T12:46:52Z</time>
      </trkpt>
      <trkpt lat="45.64754" lon="6.66237">
        <ele>2430.83</ele>
        <time>2011-03-06T12:46:54Z</time>
      </trkpt>
      <trkpt lat="45.6474" lon="6.66223">
        <ele>2425.54</ele>
        <time>2011-03-06T12:46:57Z</time>
      </trkpt>
      <trkpt lat="45.64725" lon="6.66207">
        <ele>2421.22</ele>
        <time>2011-03-06T12:47:00Z</time>
      </trkpt>
      <trkpt lat="45.64696" lon="6.66183">
        <ele>2419.78</ele>
        <time>2011-03-06T12:47:11Z</time>
      </trkpt>
      <trkpt lat="45.64696" lon="6.66183">
        <ele>2420.74</ele>
        <time>2011-03-06T12:47:29Z</time>
      </trkpt>
      <trkpt lat="45.64697" lon="6.66185">
        <ele>2420.26</ele>
        <time>2011-03-06T12:47:52Z</time>
      </trkpt>
      <trkpt lat="45.647" lon="6.66187">
        <ele>2419.3</ele>
        <time>2011-03-06T12:48:00Z</time>
      </trkpt>
      <trkpt lat="45.647" lon="6.66187">
        <ele>2420.26</ele>
        <time>2011-03-06T12:48:27Z</time>
      </trkpt>
      <trkpt lat="45.64701" lon="6.6619">
        <ele>2421.22</ele>
        <time>2011-03-06T12:48:43Z</time>
      </trkpt>
      <trkpt lat="45.64702" lon="6.66192">
        <ele>2421.7</ele>
        <time>2011-03-06T12:49:05Z</time>
      </trkpt>
      <trkpt lat="45.64702" lon="6.66193">
        <ele>2421.7</ele>
        <time>2011-03-06T12:49:21Z</time>
      </trkpt>
      <trkpt lat="45.64699" lon="6.66195">
        <ele>2420.26</ele>
        <time>2011-03-06T12:49:23Z</time>
      </trkpt>
      <trkpt lat="45.64691" lon="6.6621">
        <ele>2414.49</ele>
        <time>2011-03-06T12:49:26Z</time>
      </trkpt>
      <trkpt lat="45.6468" lon="6.66223">
        <ele>2411.12</ele>
        <time>2011-03-06T12:49:28Z</time>
      </trkpt>
      <trkpt lat="45.64672" lon="6.66232">
        <ele>2407.76</ele>
        <time>2011-03-06T12:49:29Z</time>
      </trkpt>
      <trkpt lat="45.64655" lon="6.66247">
        <ele>2400.07</ele>
        <time>2011-03-06T12:49:31Z</time>
      </trkpt>
      <trkpt lat="45.64645" lon="6.66251">
        <ele>2393.34</ele>
        <time>2011-03-06T12:49:33Z</time>
      </trkpt>
      <trkpt lat="45.64639" lon="6.66254">
        <ele>2388.53</ele>
        <time>2011-03-06T12:49:34Z</time>
      </trkpt>
      <trkpt lat="45.64632" lon="6.66255">
        <ele>2386.13</ele>
        <time>2011-03-06T12:49:35Z</time>
      </trkpt>
      <trkpt lat="45.64622" lon="6.66258">
        <ele>2382.76</ele>
        <time>2011-03-06T12:49:37Z</time>
      </trkpt>
      <trkpt lat="45.64613" lon="6.66258">
        <ele>2382.28</ele>
        <time>2011-03-06T12:49:38Z</time>
      </trkpt>
      <trkpt lat="45.64581" lon="6.66242">
        <ele>2378.44</ele>
        <time>2011-03-06T12:49:41Z</time>
      </trkpt>
      <trkpt lat="45.64571" lon="6.66238">
        <ele>2376.52</ele>
        <time>2011-03-06T12:49:42Z</time>
      </trkpt>
      <trkpt lat="45.64539" lon="6.66236">
        <ele>2371.71</ele>
        <time>2011-03-06T12:49:45Z</time>
      </trkpt>
      <trkpt lat="45.64529" lon="6.66235">
        <ele>2370.75</ele>
        <time>2011-03-06T12:49:46Z</time>
      </trkpt>
      <trkpt lat="45.64492" lon="6.66231">
        <ele>2366.42</ele>
        <time>2011-03-06T12:49:50Z</time>
      </trkpt>
      <trkpt lat="45.64467" lon="6.66227">
        <ele>2362.58</ele>
        <time>2011-03-06T12:49:53Z</time>
      </trkpt>
      <trkpt lat="45.64449" lon="6.66226">
        <ele>2359.69</ele>
        <time>2011-03-06T12:49:55Z</time>
      </trkpt>
      <trkpt lat="45.64423" lon="6.66227">
        <ele>2356.33</ele>
        <time>2011-03-06T12:49:58Z</time>
      </trkpt>
      <trkpt lat="45.64392" lon="6.66227">
        <ele>2352</ele>
        <time>2011-03-06T12:50:02Z</time>
      </trkpt>
      <trkpt lat="45.64385" lon="6.6623">
        <ele>2350.56</ele>
        <time>2011-03-06T12:50:03Z</time>
      </trkpt>
      <trkpt lat="45.64378" lon="6.66233">
        <ele>2349.6</ele>
        <time>2011-03-06T12:50:04Z</time>
      </trkpt>
      <trkpt lat="45.6437" lon="6.66237">
        <ele>2347.68</ele>
        <time>2011-03-06T12:50:05Z</time>
      </trkpt>
      <trkpt lat="45.64363" lon="6.6624">
        <ele>2346.23</ele>
        <time>2011-03-06T12:50:06Z</time>
      </trkpt>
      <trkpt lat="45.64356" lon="6.66242">
        <ele>2345.27</ele>
        <time>2011-03-06T12:50:07Z</time>
      </trkpt>
      <trkpt lat="45.64349" lon="6.66245">
        <ele>2344.31</ele>
        <time>2011-03-06T12:50:08Z</time>
      </trkpt>
      <trkpt lat="45.64323" lon="6.66249">
        <ele>2340.47</ele>
        <time>2011-03-06T12:50:12Z</time>
      </trkpt>
      <trkpt lat="45.64305" lon="6.66253">
        <ele>2337.1</ele>
        <time>2011-03-06T12:50:15Z</time>
      </trkpt>
      <trkpt lat="45.64299" lon="6.66258">
        <ele>2336.14</ele>
        <time>2011-03-06T12:50:16Z</time>
      </trkpt>
      <trkpt lat="45.64294" lon="6.66261">
        <ele>2334.22</ele>
        <time>2011-03-06T12:50:17Z</time>
      </trkpt>
      <trkpt lat="45.64288" lon="6.66263">
        <ele>2333.74</ele>
        <time>2011-03-06T12:50:18Z</time>
      </trkpt>
      <trkpt lat="45.64283" lon="6.66265">
        <ele>2332.3</ele>
        <time>2011-03-06T12:50:19Z</time>
      </trkpt>
      <trkpt lat="45.64277" lon="6.66268">
        <ele>2331.33</ele>
        <time>2011-03-06T12:50:20Z</time>
      </trkpt>
      <trkpt lat="45.64271" lon="6.66272">
        <ele>2330.37</ele>
        <time>2011-03-06T12:50:21Z</time>
      </trkpt>
      <trkpt lat="45.64264" lon="6.66275">
        <ele>2327.97</ele>
        <time>2011-03-06T12:50:22Z</time>
      </trkpt>
      <trkpt lat="45.64257" lon="6.66276">
        <ele>2327.49</ele>
        <time>2011-03-06T12:50:23Z</time>
      </trkpt>
      <trkpt lat="45.64251" lon="6.66277">
        <ele>2326.05</ele>
        <time>2011-03-06T12:50:24Z</time>
      </trkpt>
      <trkpt lat="45.64246" lon="6.66276">
        <ele>2325.57</ele>
        <time>2011-03-06T12:50:25Z</time>
      </trkpt>
      <trkpt lat="45.6424" lon="6.66274">
        <ele>2323.16</ele>
        <time>2011-03-06T12:50:26Z</time>
      </trkpt>
      <trkpt lat="45.64235" lon="6.6627">
        <ele>2322.68</ele>
        <time>2011-03-06T12:50:27Z</time>
      </trkpt>
      <trkpt lat="45.64224" lon="6.66265">
        <ele>2319.32</ele>
        <time>2011-03-06T12:50:29Z</time>
      </trkpt>
      <trkpt lat="45.6421" lon="6.66259">
        <ele>2315.47</ele>
        <time>2011-03-06T12:50:31Z</time>
      </trkpt>
      <trkpt lat="45.64204" lon="6.66256">
        <ele>2313.55</ele>
        <time>2011-03-06T12:50:32Z</time>
      </trkpt>
      <trkpt lat="45.64197" lon="6.66253">
        <ele>2313.07</ele>
        <time>2011-03-06T12:50:33Z</time>
      </trkpt>
      <trkpt lat="45.64183" lon="6.6625">
        <ele>2308.26</ele>
        <time>2011-03-06T12:50:35Z</time>
      </trkpt>
      <trkpt lat="45.64176" lon="6.66251">
        <ele>2306.34</ele>
        <time>2011-03-06T12:50:36Z</time>
      </trkpt>
      <trkpt lat="45.6416" lon="6.6625">
        <ele>2302.49</ele>
        <time>2011-03-06T12:50:38Z</time>
      </trkpt>
      <trkpt lat="45.64153" lon="6.66248">
        <ele>2297.21</ele>
        <time>2011-03-06T12:50:39Z</time>
      </trkpt>
      <trkpt lat="45.64145" lon="6.66248">
        <ele>2296.25</ele>
        <time>2011-03-06T12:50:40Z</time>
      </trkpt>
      <trkpt lat="45.64137" lon="6.66249">
        <ele>2291.44</ele>
        <time>2011-03-06T12:50:41Z</time>
      </trkpt>
      <trkpt lat="45.6413" lon="6.66248">
        <ele>2290</ele>
        <time>2011-03-06T12:50:42Z</time>
      </trkpt>
      <trkpt lat="45.64116" lon="6.66247">
        <ele>2286.15</ele>
        <time>2011-03-06T12:50:44Z</time>
      </trkpt>
      <trkpt lat="45.64111" lon="6.66245">
        <ele>2284.71</ele>
        <time>2011-03-06T12:50:45Z</time>
      </trkpt>
      <trkpt lat="45.64105" lon="6.66248">
        <ele>2283.75</ele>
        <time>2011-03-06T12:50:46Z</time>
      </trkpt>
      <trkpt lat="45.64092" lon="6.66258">
        <ele>2280.87</ele>
        <time>2011-03-06T12:50:48Z</time>
      </trkpt>
      <trkpt lat="45.64084" lon="6.66259">
        <ele>2277.5</ele>
        <time>2011-03-06T12:50:49Z</time>
      </trkpt>
      <trkpt lat="45.64077" lon="6.66258">
        <ele>2274.62</ele>
        <time>2011-03-06T12:50:50Z</time>
      </trkpt>
      <trkpt lat="45.64069" lon="6.66256">
        <ele>2274.14</ele>
        <time>2011-03-06T12:50:51Z</time>
      </trkpt>
      <trkpt lat="45.64065" lon="6.66249">
        <ele>2272.21</ele>
        <time>2011-03-06T12:50:52Z</time>
      </trkpt>
      <trkpt lat="45.64059" lon="6.66244">
        <ele>2269.33</ele>
        <time>2011-03-06T12:50:53Z</time>
      </trkpt>
      <trkpt lat="45.64053" lon="6.66241">
        <ele>2267.41</ele>
        <time>2011-03-06T12:50:54Z</time>
      </trkpt>
      <trkpt lat="45.64045" lon="6.66239">
        <ele>2265.48</ele>
        <time>2011-03-06T12:50:55Z</time>
      </trkpt>
      <trkpt lat="45.64037" lon="6.66238">
        <ele>2262.6</ele>
        <time>2011-03-06T12:50:56Z</time>
      </trkpt>
      <trkpt lat="45.64029" lon="6.66237">
        <ele>2259.24</ele>
        <time>2011-03-06T12:50:57Z</time>
      </trkpt>
      <trkpt lat="45.6402" lon="6.66237">
        <ele>2256.35</ele>
        <time>2011-03-06T12:50:58Z</time>
      </trkpt>
      <trkpt lat="45.64011" lon="6.66237">
        <ele>2255.39</ele>
        <time>2011-03-06T12:50:59Z</time>
      </trkpt>
      <trkpt lat="45.64004" lon="6.66233">
        <ele>2251.54</ele>
        <time>2011-03-06T12:51:00Z</time>
      </trkpt>
      <trkpt lat="45.63997" lon="6.66231">
        <ele>2250.58</ele>
        <time>2011-03-06T12:51:01Z</time>
      </trkpt>
      <trkpt lat="45.6399" lon="6.66231">
        <ele>2248.66</ele>
        <time>2011-03-06T12:51:02Z</time>
      </trkpt>
      <trkpt lat="45.63982" lon="6.66231">
        <ele>2247.22</ele>
        <time>2011-03-06T12:51:03Z</time>
      </trkpt>
      <trkpt lat="45.63974" lon="6.66231">
        <ele>2245.78</ele>
        <time>2011-03-06T12:51:04Z</time>
      </trkpt>
      <trkpt lat="45.63967" lon="6.66231">
        <ele>2242.41</ele>
        <time>2011-03-06T12:51:05Z</time>
      </trkpt>
      <trkpt lat="45.6396" lon="6.66232">
        <ele>2241.93</ele>
        <time>2011-03-06T12:51:06Z</time>
      </trkpt>
      <trkpt lat="45.63952" lon="6.66231">
        <ele>2240.01</ele>
        <time>2011-03-06T12:51:07Z</time>
      </trkpt>
      <trkpt lat="45.63944" lon="6.66231">
        <ele>2238.57</ele>
        <time>2011-03-06T12:51:08Z</time>
      </trkpt>
      <trkpt lat="45.63936" lon="6.66232">
        <ele>2237.13</ele>
        <time>2011-03-06T12:51:09Z</time>
      </trkpt>
      <trkpt lat="45.63928" lon="6.66232">
        <ele>2233.76</ele>
        <time>2011-03-06T12:51:10Z</time>
      </trkpt>
      <trkpt lat="45.6392" lon="6.66231">
        <ele>2231.84</ele>
        <time>2011-03-06T12:51:11Z</time>
      </trkpt>
      <trkpt lat="45.63911" lon="6.66232">
        <ele>2231.84</ele>
        <time>2011-03-06T12:51:12Z</time>
      </trkpt>
      <trkpt lat="45.63904" lon="6.66233">
        <ele>2229.92</ele>
        <time>2011-03-06T12:51:13Z</time>
      </trkpt>
      <trkpt lat="45.63896" lon="6.66233">
        <ele>2228.47</ele>
        <time>2011-03-06T12:51:14Z</time>
      </trkpt>
      <trkpt lat="45.63888" lon="6.66235">
        <ele>2227.99</ele>
        <time>2011-03-06T12:51:15Z</time>
      </trkpt>
      <trkpt lat="45.63879" lon="6.66238">
        <ele>2225.11</ele>
        <time>2011-03-06T12:51:16Z</time>
      </trkpt>
      <trkpt lat="45.63871" lon="6.66239">
        <ele>2222.22</ele>
        <time>2011-03-06T12:51:17Z</time>
      </trkpt>
      <trkpt lat="45.63864" lon="6.66237">
        <ele>2220.78</ele>
        <time>2011-03-06T12:51:18Z</time>
      </trkpt>
      <trkpt lat="45.63857" lon="6.66236">
        <ele>2218.86</ele>
        <time>2011-03-06T12:51:19Z</time>
      </trkpt>
      <trkpt lat="45.6385" lon="6.66238">
        <ele>2217.9</ele>
        <time>2011-03-06T12:51:20Z</time>
      </trkpt>
      <trkpt lat="45.63844" lon="6.66254">
        <ele>2214.53</ele>
        <time>2011-03-06T12:51:22Z</time>
      </trkpt>
      <trkpt lat="45.63839" lon="6.66271">
        <ele>2211.17</ele>
        <time>2011-03-06T12:51:24Z</time>
      </trkpt>
      <trkpt lat="45.63834" lon="6.66274">
        <ele>2210.21</ele>
        <time>2011-03-06T12:51:25Z</time>
      </trkpt>
      <trkpt lat="45.63831" lon="6.66274">
        <ele>2208.77</ele>
        <time>2011-03-06T12:51:26Z</time>
      </trkpt>
      <trkpt lat="45.63826" lon="6.66272">
        <ele>2208.29</ele>
        <time>2011-03-06T12:51:27Z</time>
      </trkpt>
      <trkpt lat="45.6382" lon="6.66268">
        <ele>2206.84</ele>
        <time>2011-03-06T12:51:28Z</time>
      </trkpt>
      <trkpt lat="45.63815" lon="6.66264">
        <ele>2205.88</ele>
        <time>2011-03-06T12:51:29Z</time>
      </trkpt>
      <trkpt lat="45.63809" lon="6.66262">
        <ele>2204.92</ele>
        <time>2011-03-06T12:51:30Z</time>
      </trkpt>
      <trkpt lat="45.63803" lon="6.66262">
        <ele>2203.48</ele>
        <time>2011-03-06T12:51:31Z</time>
      </trkpt>
      <trkpt lat="45.63796" lon="6.66265">
        <ele>2202.52</ele>
        <time>2011-03-06T12:51:32Z</time>
      </trkpt>
      <trkpt lat="45.63789" lon="6.6627">
        <ele>2200.59</ele>
        <time>2011-03-06T12:51:33Z</time>
      </trkpt>
      <trkpt lat="45.63782" lon="6.66274">
        <ele>2199.15</ele>
        <time>2011-03-06T12:51:34Z</time>
      </trkpt>
      <trkpt lat="45.63775" lon="6.66276">
        <ele>2198.19</ele>
        <time>2011-03-06T12:51:35Z</time>
      </trkpt>
      <trkpt lat="45.63742" lon="6.6628">
        <ele>2194.83</ele>
        <time>2011-03-06T12:51:40Z</time>
      </trkpt>
      <trkpt lat="45.63722" lon="6.66278">
        <ele>2190.98</ele>
        <time>2011-03-06T12:51:43Z</time>
      </trkpt>
      <trkpt lat="45.63716" lon="6.66276">
        <ele>2190.5</ele>
        <time>2011-03-06T12:51:44Z</time>
      </trkpt>
      <trkpt lat="45.63698" lon="6.66268">
        <ele>2187.14</ele>
        <time>2011-03-06T12:51:47Z</time>
      </trkpt>
      <trkpt lat="45.63686" lon="6.66264">
        <ele>2185.69</ele>
        <time>2011-03-06T12:51:49Z</time>
      </trkpt>
      <trkpt lat="45.63669" lon="6.66254">
        <ele>2182.81</ele>
        <time>2011-03-06T12:51:52Z</time>
      </trkpt>
      <trkpt lat="45.63663" lon="6.66251">
        <ele>2181.85</ele>
        <time>2011-03-06T12:51:53Z</time>
      </trkpt>
      <trkpt lat="45.63653" lon="6.66245">
        <ele>2180.89</ele>
        <time>2011-03-06T12:51:55Z</time>
      </trkpt>
      <trkpt lat="45.63649" lon="6.66242">
        <ele>2179.93</ele>
        <time>2011-03-06T12:51:56Z</time>
      </trkpt>
      <trkpt lat="45.63644" lon="6.66239">
        <ele>2178.48</ele>
        <time>2011-03-06T12:51:57Z</time>
      </trkpt>
      <trkpt lat="45.63638" lon="6.66238">
        <ele>2177.52</ele>
        <time>2011-03-06T12:51:58Z</time>
      </trkpt>
      <trkpt lat="45.63632" lon="6.66239">
        <ele>2176.56</ele>
        <time>2011-03-06T12:51:59Z</time>
      </trkpt>
      <trkpt lat="45.63627" lon="6.66241">
        <ele>2176.08</ele>
        <time>2011-03-06T12:52:00Z</time>
      </trkpt>
      <trkpt lat="45.63622" lon="6.66244">
        <ele>2175.12</ele>
        <time>2011-03-06T12:52:01Z</time>
      </trkpt>
      <trkpt lat="45.63615" lon="6.66245">
        <ele>2173.68</ele>
        <time>2011-03-06T12:52:02Z</time>
      </trkpt>
      <trkpt lat="45.63608" lon="6.66246">
        <ele>2172.72</ele>
        <time>2011-03-06T12:52:03Z</time>
      </trkpt>
      <trkpt lat="45.63601" lon="6.66246">
        <ele>2171.27</ele>
        <time>2011-03-06T12:52:04Z</time>
      </trkpt>
      <trkpt lat="45.63588" lon="6.66247">
        <ele>2168.87</ele>
        <time>2011-03-06T12:52:06Z</time>
      </trkpt>
      <trkpt lat="45.63583" lon="6.66249">
        <ele>2168.39</ele>
        <time>2011-03-06T12:52:07Z</time>
      </trkpt>
      <trkpt lat="45.63579" lon="6.66249">
        <ele>2168.39</ele>
        <time>2011-03-06T12:52:08Z</time>
      </trkpt>
      <trkpt lat="45.63569" lon="6.66251">
        <ele>2166.47</ele>
        <time>2011-03-06T12:52:10Z</time>
      </trkpt>
      <trkpt lat="45.63565" lon="6.66253">
        <ele>2166.47</ele>
        <time>2011-03-06T12:52:11Z</time>
      </trkpt>
      <trkpt lat="45.63562" lon="6.66255">
        <ele>2166.47</ele>
        <time>2011-03-06T12:52:12Z</time>
      </trkpt>
      <trkpt lat="45.63559" lon="6.6626">
        <ele>2166.47</ele>
        <time>2011-03-06T12:52:20Z</time>
      </trkpt>
      <trkpt lat="45.63556" lon="6.6626">
        <ele>2166.47</ele>
        <time>2011-03-06T12:52:36Z</time>
      </trkpt>
      <trkpt lat="45.63551" lon="6.66262">
        <ele>2164.55</ele>
        <time>2011-03-06T12:52:38Z</time>
      </trkpt>
      <trkpt lat="45.63547" lon="6.66265">
        <ele>2164.06</ele>
        <time>2011-03-06T12:52:39Z</time>
      </trkpt>
      <trkpt lat="45.63545" lon="6.66267">
        <ele>2164.06</ele>
        <time>2011-03-06T12:52:40Z</time>
      </trkpt>
      <trkpt lat="45.63532" lon="6.66283">
        <ele>2162.14</ele>
        <time>2011-03-06T12:52:46Z</time>
      </trkpt>
      <trkpt lat="45.63509" lon="6.66307">
        <ele>2160.22</ele>
        <time>2011-03-06T12:52:59Z</time>
      </trkpt>
      <trkpt lat="45.63488" lon="6.66325">
        <ele>2157.82</ele>
        <time>2011-03-06T12:53:07Z</time>
      </trkpt>
      <trkpt lat="45.63486" lon="6.66325">
        <ele>2157.82</ele>
        <time>2011-03-06T12:53:08Z</time>
      </trkpt>
      <trkpt lat="45.63485" lon="6.66326">
        <ele>2157.82</ele>
        <time>2011-03-06T12:53:19Z</time>
      </trkpt>
      <trkpt lat="45.63485" lon="6.66326">
        <ele>2157.34</ele>
        <time>2011-03-06T12:53:50Z</time>
      </trkpt>
      <trkpt lat="45.63486" lon="6.66326">
        <ele>2157.34</ele>
        <time>2011-03-06T12:54:09Z</time>
      </trkpt>
      <trkpt lat="45.63486" lon="6.66326">
        <ele>2157.82</ele>
        <time>2011-03-06T12:54:37Z</time>
      </trkpt>
      <trkpt lat="45.63487" lon="6.66326">
        <ele>2157.34</ele>
        <time>2011-03-06T12:55:01Z</time>
      </trkpt>
      <trkpt lat="45.63487" lon="6.66326">
        <ele>2157.34</ele>
        <time>2011-03-06T12:55:22Z</time>
      </trkpt>
      <trkpt lat="45.63486" lon="6.66326">
        <ele>2156.86</ele>
        <time>2011-03-06T12:55:51Z</time>
      </trkpt>
      <trkpt lat="45.63486" lon="6.66326">
        <ele>2156.86</ele>
        <time>2011-03-06T12:56:14Z</time>
      </trkpt>
      <trkpt lat="45.63486" lon="6.66326">
        <ele>2156.86</ele>
        <time>2011-03-06T12:56:36Z</time>
      </trkpt>
      <trkpt lat="45.63486" lon="6.66326">
        <ele>2156.86</ele>
        <time>2011-03-06T12:56:56Z</time>
      </trkpt>
      <trkpt lat="45.63486" lon="6.66326">
        <ele>2156.86</ele>
        <time>2011-03-06T12:57:17Z</time>
      </trkpt>
      <trkpt lat="45.63485" lon="6.66325">
        <ele>2155.89</ele>
        <time>2011-03-06T12:57:36Z</time>
      </trkpt>
      <trkpt lat="45.63484" lon="6.66324">
        <ele>2156.37</ele>
        <time>2011-03-06T12:57:48Z</time>
      </trkpt>
      <trkpt lat="45.63479" lon="6.66316">
        <ele>2150.61</ele>
        <time>2011-03-06T12:57:52Z</time>
      </trkpt>
      <trkpt lat="45.63477" lon="6.66308">
        <ele>2146.76</ele>
        <time>2011-03-06T12:57:55Z</time>
      </trkpt>
      <trkpt lat="45.63476" lon="6.66306">
        <ele>2143.88</ele>
        <time>2011-03-06T12:57:56Z</time>
      </trkpt>
      <trkpt lat="45.63472" lon="6.66301">
        <ele>2140.03</ele>
        <time>2011-03-06T12:57:59Z</time>
      </trkpt>
      <trkpt lat="45.63466" lon="6.66303">
        <ele>2138.59</ele>
        <time>2011-03-06T12:58:01Z</time>
      </trkpt>
      <trkpt lat="45.63447" lon="6.66311">
        <ele>2132.34</ele>
        <time>2011-03-06T12:58:05Z</time>
      </trkpt>
      <trkpt lat="45.63428" lon="6.66316">
        <ele>2126.57</ele>
        <time>2011-03-06T12:58:08Z</time>
      </trkpt>
      <trkpt lat="45.63421" lon="6.6632">
        <ele>2126.57</ele>
        <time>2011-03-06T12:58:09Z</time>
      </trkpt>
      <trkpt lat="45.63407" lon="6.66331">
        <ele>2123.21</ele>
        <time>2011-03-06T12:58:11Z</time>
      </trkpt>
      <trkpt lat="45.63395" lon="6.66341">
        <ele>2121.77</ele>
        <time>2011-03-06T12:58:13Z</time>
      </trkpt>
      <trkpt lat="45.6339" lon="6.6634">
        <ele>2119.84</ele>
        <time>2011-03-06T12:58:14Z</time>
      </trkpt>
      <trkpt lat="45.63385" lon="6.66341">
        <ele>2117.92</ele>
        <time>2011-03-06T12:58:15Z</time>
      </trkpt>
      <trkpt lat="45.63381" lon="6.66343">
        <ele>2116</ele>
        <time>2011-03-06T12:58:16Z</time>
      </trkpt>
      <trkpt lat="45.6338" lon="6.6635">
        <ele>2115.04</ele>
        <time>2011-03-06T12:58:17Z</time>
      </trkpt>
      <trkpt lat="45.63379" lon="6.66354">
        <ele>2114.56</ele>
        <time>2011-03-06T12:58:18Z</time>
      </trkpt>
      <trkpt lat="45.63378" lon="6.66359">
        <ele>2114.56</ele>
        <time>2011-03-06T12:58:19Z</time>
      </trkpt>
      <trkpt lat="45.63377" lon="6.66363">
        <ele>2113.6</ele>
        <time>2011-03-06T12:58:20Z</time>
      </trkpt>
      <trkpt lat="45.63376" lon="6.66367">
        <ele>2112.15</ele>
        <time>2011-03-06T12:58:21Z</time>
      </trkpt>
      <trkpt lat="45.63375" lon="6.66371">
        <ele>2112.15</ele>
        <time>2011-03-06T12:58:22Z</time>
      </trkpt>
      <trkpt lat="45.63373" lon="6.66378">
        <ele>2111.19</ele>
        <time>2011-03-06T12:58:25Z</time>
      </trkpt>
      <trkpt lat="45.63372" lon="6.6638">
        <ele>2110.71</ele>
        <time>2011-03-06T12:58:26Z</time>
      </trkpt>
      <trkpt lat="45.63371" lon="6.66384">
        <ele>2110.23</ele>
        <time>2011-03-06T12:58:27Z</time>
      </trkpt>
      <trkpt lat="45.63365" lon="6.66406">
        <ele>2105.42</ele>
        <time>2011-03-06T12:58:31Z</time>
      </trkpt>
      <trkpt lat="45.63361" lon="6.66409">
        <ele>2103.02</ele>
        <time>2011-03-06T12:58:32Z</time>
      </trkpt>
      <trkpt lat="45.63358" lon="6.66412">
        <ele>2100.14</ele>
        <time>2011-03-06T12:58:33Z</time>
      </trkpt>
      <trkpt lat="45.63354" lon="6.66415">
        <ele>2098.21</ele>
        <time>2011-03-06T12:58:34Z</time>
      </trkpt>
      <trkpt lat="45.63348" lon="6.66418">
        <ele>2095.33</ele>
        <time>2011-03-06T12:58:35Z</time>
      </trkpt>
      <trkpt lat="45.63341" lon="6.6642">
        <ele>2092.45</ele>
        <time>2011-03-06T12:58:36Z</time>
      </trkpt>
      <trkpt lat="45.63334" lon="6.66424">
        <ele>2089.56</ele>
        <time>2011-03-06T12:58:37Z</time>
      </trkpt>
      <trkpt lat="45.6332" lon="6.66432">
        <ele>2084.28</ele>
        <time>2011-03-06T12:58:39Z</time>
      </trkpt>
      <trkpt lat="45.63314" lon="6.66433">
        <ele>2081.39</ele>
        <time>2011-03-06T12:58:40Z</time>
      </trkpt>
      <trkpt lat="45.63309" lon="6.66438">
        <ele>2080.91</ele>
        <time>2011-03-06T12:58:41Z</time>
      </trkpt>
      <trkpt lat="45.63307" lon="6.66446">
        <ele>2078.99</ele>
        <time>2011-03-06T12:58:42Z</time>
      </trkpt>
      <trkpt lat="45.63306" lon="6.66456">
        <ele>2077.55</ele>
        <time>2011-03-06T12:58:43Z</time>
      </trkpt>
      <trkpt lat="45.63304" lon="6.66464">
        <ele>2075.14</ele>
        <time>2011-03-06T12:58:44Z</time>
      </trkpt>
      <trkpt lat="45.633" lon="6.66477">
        <ele>2073.22</ele>
        <time>2011-03-06T12:58:46Z</time>
      </trkpt>
      <trkpt lat="45.633" lon="6.66485">
        <ele>2071.78</ele>
        <time>2011-03-06T12:58:47Z</time>
      </trkpt>
      <trkpt lat="45.633" lon="6.66493">
        <ele>2072.26</ele>
        <time>2011-03-06T12:58:48Z</time>
      </trkpt>
      <trkpt lat="45.63299" lon="6.66501">
        <ele>2070.34</ele>
        <time>2011-03-06T12:58:49Z</time>
      </trkpt>
      <trkpt lat="45.63299" lon="6.66509">
        <ele>2069.86</ele>
        <time>2011-03-06T12:58:50Z</time>
      </trkpt>
      <trkpt lat="45.63298" lon="6.66518">
        <ele>2067.93</ele>
        <time>2011-03-06T12:58:51Z</time>
      </trkpt>
      <trkpt lat="45.63295" lon="6.66524">
        <ele>2066.49</ele>
        <time>2011-03-06T12:58:52Z</time>
      </trkpt>
      <trkpt lat="45.6329" lon="6.66525">
        <ele>2064.09</ele>
        <time>2011-03-06T12:58:53Z</time>
      </trkpt>
      <trkpt lat="45.63285" lon="6.66524">
        <ele>2062.65</ele>
        <time>2011-03-06T12:58:54Z</time>
      </trkpt>
      <trkpt lat="45.63279" lon="6.66523">
        <ele>2060.24</ele>
        <time>2011-03-06T12:58:55Z</time>
      </trkpt>
      <trkpt lat="45.63273" lon="6.66524">
        <ele>2058.32</ele>
        <time>2011-03-06T12:58:56Z</time>
      </trkpt>
      <trkpt lat="45.6327" lon="6.66527">
        <ele>2057.36</ele>
        <time>2011-03-06T12:58:57Z</time>
      </trkpt>
      <trkpt lat="45.63269" lon="6.66534">
        <ele>2055.92</ele>
        <time>2011-03-06T12:58:58Z</time>
      </trkpt>
      <trkpt lat="45.63266" lon="6.66541">
        <ele>2053.99</ele>
        <time>2011-03-06T12:58:59Z</time>
      </trkpt>
      <trkpt lat="45.63262" lon="6.66545">
        <ele>2052.55</ele>
        <time>2011-03-06T12:59:00Z</time>
      </trkpt>
      <trkpt lat="45.63259" lon="6.66551">
        <ele>2050.63</ele>
        <time>2011-03-06T12:59:01Z</time>
      </trkpt>
      <trkpt lat="45.63258" lon="6.66559">
        <ele>2049.67</ele>
        <time>2011-03-06T12:59:02Z</time>
      </trkpt>
      <trkpt lat="45.63259" lon="6.66567">
        <ele>2049.19</ele>
        <time>2011-03-06T12:59:03Z</time>
      </trkpt>
      <trkpt lat="45.63259" lon="6.66576">
        <ele>2047.75</ele>
        <time>2011-03-06T12:59:04Z</time>
      </trkpt>
      <trkpt lat="45.63257" lon="6.66595">
        <ele>2045.34</ele>
        <time>2011-03-06T12:59:06Z</time>
      </trkpt>
      <trkpt lat="45.6325" lon="6.66623">
        <ele>2043.9</ele>
        <time>2011-03-06T12:59:09Z</time>
      </trkpt>
      <trkpt lat="45.63248" lon="6.66631">
        <ele>2041.98</ele>
        <time>2011-03-06T12:59:10Z</time>
      </trkpt>
      <trkpt lat="45.63248" lon="6.66638">
        <ele>2041.5</ele>
        <time>2011-03-06T12:59:11Z</time>
      </trkpt>
      <trkpt lat="45.63247" lon="6.66662">
        <ele>2041.02</ele>
        <time>2011-03-06T12:59:16Z</time>
      </trkpt>
      <trkpt lat="45.63244" lon="6.66669">
        <ele>2040.54</ele>
        <time>2011-03-06T12:59:17Z</time>
      </trkpt>
      <trkpt lat="45.63242" lon="6.66677">
        <ele>2039.09</ele>
        <time>2011-03-06T12:59:18Z</time>
      </trkpt>
      <trkpt lat="45.63237" lon="6.66696">
        <ele>2036.21</ele>
        <time>2011-03-06T12:59:20Z</time>
      </trkpt>
      <trkpt lat="45.63229" lon="6.66724">
        <ele>2032.84</ele>
        <time>2011-03-06T12:59:23Z</time>
      </trkpt>
      <trkpt lat="45.6322" lon="6.66762">
        <ele>2029.96</ele>
        <time>2011-03-06T12:59:27Z</time>
      </trkpt>
      <trkpt lat="45.63215" lon="6.66778">
        <ele>2028.04</ele>
        <time>2011-03-06T12:59:29Z</time>
      </trkpt>
      <trkpt lat="45.63213" lon="6.66786">
        <ele>2028.04</ele>
        <time>2011-03-06T12:59:30Z</time>
      </trkpt>
      <trkpt lat="45.63213" lon="6.66795">
        <ele>2026.6</ele>
        <time>2011-03-06T12:59:31Z</time>
      </trkpt>
      <trkpt lat="45.6321" lon="6.66837">
        <ele>2023.23</ele>
        <time>2011-03-06T12:59:36Z</time>
      </trkpt>
      <trkpt lat="45.63207" lon="6.6686">
        <ele>2021.31</ele>
        <time>2011-03-06T12:59:39Z</time>
      </trkpt>
      <trkpt lat="45.63205" lon="6.66867">
        <ele>2021.31</ele>
        <time>2011-03-06T12:59:40Z</time>
      </trkpt>
      <trkpt lat="45.63205" lon="6.66872">
        <ele>2020.35</ele>
        <time>2011-03-06T12:59:41Z</time>
      </trkpt>
      <trkpt lat="45.63205" lon="6.66878">
        <ele>2019.87</ele>
        <time>2011-03-06T12:59:42Z</time>
      </trkpt>
      <trkpt lat="45.63207" lon="6.66885">
        <ele>2018.43</ele>
        <time>2011-03-06T12:59:43Z</time>
      </trkpt>
      <trkpt lat="45.63207" lon="6.66893">
        <ele>2018.43</ele>
        <time>2011-03-06T12:59:44Z</time>
      </trkpt>
      <trkpt lat="45.63207" lon="6.66899">
        <ele>2017.46</ele>
        <time>2011-03-06T12:59:45Z</time>
      </trkpt>
      <trkpt lat="45.63207" lon="6.66904">
        <ele>2016.98</ele>
        <time>2011-03-06T12:59:46Z</time>
      </trkpt>
      <trkpt lat="45.63209" lon="6.66905">
        <ele>2016.98</ele>
        <time>2011-03-06T12:59:47Z</time>
      </trkpt>
      <trkpt lat="45.63213" lon="6.66906">
        <ele>2016.98</ele>
        <time>2011-03-06T12:59:57Z</time>
      </trkpt>
      <trkpt lat="45.63213" lon="6.66905">
        <ele>2016.02</ele>
        <time>2011-03-06T13:00:11Z</time>
      </trkpt>
      <trkpt lat="45.63214" lon="6.66905">
        <ele>2016.5</ele>
        <time>2011-03-06T13:00:20Z</time>
      </trkpt>
      <trkpt lat="45.63211" lon="6.66906">
        <ele>2016.02</ele>
        <time>2011-03-06T13:00:31Z</time>
      </trkpt>
      <trkpt lat="45.63209" lon="6.66911">
        <ele>2016.02</ele>
        <time>2011-03-06T13:00:36Z</time>
      </trkpt>
      <trkpt lat="45.63208" lon="6.66913">
        <ele>2015.06</ele>
        <time>2011-03-06T13:00:38Z</time>
      </trkpt>
      <trkpt lat="45.63208" lon="6.66913">
        <ele>2014.58</ele>
        <time>2011-03-06T13:01:16Z</time>
      </trkpt>
      <trkpt lat="45.63208" lon="6.66913">
        <ele>2015.06</ele>
        <time>2011-03-06T13:01:57Z</time>
      </trkpt>
      <trkpt lat="45.63208" lon="6.66913">
        <ele>2014.58</ele>
        <time>2011-03-06T13:02:40Z</time>
      </trkpt>
      <trkpt lat="45.63208" lon="6.66913">
        <ele>2014.58</ele>
        <time>2011-03-06T13:03:18Z</time>
      </trkpt>
      <trkpt lat="45.63208" lon="6.66913">
        <ele>2015.06</ele>
        <time>2011-03-06T13:04:00Z</time>
      </trkpt>
      <trkpt lat="45.63208" lon="6.66914">
        <ele>2015.06</ele>
        <time>2011-03-06T13:04:39Z</time>
      </trkpt>
      <trkpt lat="45.63208" lon="6.66914">
        <ele>2015.06</ele>
        <time>2011-03-06T13:05:20Z</time>
      </trkpt>
      <trkpt lat="45.63208" lon="6.66913">
        <ele>2015.54</ele>
        <time>2011-03-06T13:05:57Z</time>
      </trkpt>
      <trkpt lat="45.63208" lon="6.66913">
        <ele>2015.54</ele>
        <time>2011-03-06T13:06:22Z</time>
      </trkpt>
      <trkpt lat="45.63208" lon="6.66914">
        <ele>2015.54</ele>
        <time>2011-03-06T13:06:58Z</time>
      </trkpt>
      <trkpt lat="45.63207" lon="6.66916">
        <ele>2015.54</ele>
        <time>2011-03-06T13:07:24Z</time>
      </trkpt>
      <trkpt lat="45.63206" lon="6.66916">
        <ele>2015.06</ele>
        <time>2011-03-06T13:07:38Z</time>
      </trkpt>
      <trkpt lat="45.63206" lon="6.66915">
        <ele>2016.5</ele>
        <time>2011-03-06T13:07:53Z</time>
      </trkpt>
      <trkpt lat="45.63207" lon="6.66913">
        <ele>2016.98</ele>
        <time>2011-03-06T13:07:55Z</time>
      </trkpt>
      <trkpt lat="45.6321" lon="6.66907">
        <ele>2017.46</ele>
        <time>2011-03-06T13:08:06Z</time>
      </trkpt>
      <trkpt lat="45.63211" lon="6.66907">
        <ele>2016.98</ele>
        <time>2011-03-06T13:08:21Z</time>
      </trkpt>
      <trkpt lat="45.63211" lon="6.66907">
        <ele>2016.5</ele>
        <time>2011-03-06T13:08:25Z</time>
      </trkpt>
      <trkpt lat="45.63211" lon="6.66906">
        <ele>2017.46</ele>
        <time>2011-03-06T13:08:41Z</time>
      </trkpt>
      <trkpt lat="45.63211" lon="6.66906">
        <ele>2017.46</ele>
        <time>2011-03-06T13:08:56Z</time>
      </trkpt>
      <trkpt lat="45.63211" lon="6.66906">
        <ele>2017.94</ele>
        <time>2011-03-06T13:09:06Z</time>
      </trkpt>
      <trkpt lat="45.63207" lon="6.66914">
        <ele>2016.98</ele>
        <time>2011-03-06T13:09:14Z</time>
      </trkpt>
      <trkpt lat="45.63207" lon="6.66933">
        <ele>2013.62</ele>
        <time>2011-03-06T13:09:20Z</time>
      </trkpt>
      <trkpt lat="45.6322" lon="6.66941">
        <ele>2011.22</ele>
        <time>2011-03-06T13:09:25Z</time>
      </trkpt>
      <trkpt lat="45.63234" lon="6.66945">
        <ele>2009.77</ele>
        <time>2011-03-06T13:09:29Z</time>
      </trkpt>
      <trkpt lat="45.6326" lon="6.66958">
        <ele>2005.93</ele>
        <time>2011-03-06T13:09:36Z</time>
      </trkpt>
      <trkpt lat="45.63266" lon="6.66975">
        <ele>2002.56</ele>
        <time>2011-03-06T13:09:40Z</time>
      </trkpt>
      <trkpt lat="45.63271" lon="6.66988">
        <ele>1999.68</ele>
        <time>2011-03-06T13:09:43Z</time>
      </trkpt>
      <trkpt lat="45.63281" lon="6.67001">
        <ele>1995.83</ele>
        <time>2011-03-06T13:09:47Z</time>
      </trkpt>
      <trkpt lat="45.63285" lon="6.67018">
        <ele>1992.95</ele>
        <time>2011-03-06T13:09:50Z</time>
      </trkpt>
      <trkpt lat="45.63297" lon="6.67031">
        <ele>1989.59</ele>
        <time>2011-03-06T13:09:53Z</time>
      </trkpt>
      <trkpt lat="45.63304" lon="6.67036">
        <ele>1988.62</ele>
        <time>2011-03-06T13:09:55Z</time>
      </trkpt>
      <trkpt lat="45.63318" lon="6.67048">
        <ele>1985.26</ele>
        <time>2011-03-06T13:10:01Z</time>
      </trkpt>
      <trkpt lat="45.63328" lon="6.67055">
        <ele>1980.93</ele>
        <time>2011-03-06T13:10:04Z</time>
      </trkpt>
      <trkpt lat="45.63335" lon="6.67064">
        <ele>1976.61</ele>
        <time>2011-03-06T13:10:06Z</time>
      </trkpt>
      <trkpt lat="45.63343" lon="6.67076">
        <ele>1973.72</ele>
        <time>2011-03-06T13:10:08Z</time>
      </trkpt>
      <trkpt lat="45.63351" lon="6.6709">
        <ele>1970.36</ele>
        <time>2011-03-06T13:10:10Z</time>
      </trkpt>
      <trkpt lat="45.63358" lon="6.67106">
        <ele>1966.99</ele>
        <time>2011-03-06T13:10:12Z</time>
      </trkpt>
      <trkpt lat="45.63365" lon="6.67124">
        <ele>1966.03</ele>
        <time>2011-03-06T13:10:14Z</time>
      </trkpt>
      <trkpt lat="45.63372" lon="6.67141">
        <ele>1964.11</ele>
        <time>2011-03-06T13:10:16Z</time>
      </trkpt>
      <trkpt lat="45.63377" lon="6.6715">
        <ele>1963.15</ele>
        <time>2011-03-06T13:10:17Z</time>
      </trkpt>
      <trkpt lat="45.63382" lon="6.67159">
        <ele>1961.71</ele>
        <time>2011-03-06T13:10:18Z</time>
      </trkpt>
      <trkpt lat="45.63387" lon="6.67167">
        <ele>1961.23</ele>
        <time>2011-03-06T13:10:19Z</time>
      </trkpt>
      <trkpt lat="45.63391" lon="6.67176">
        <ele>1960.27</ele>
        <time>2011-03-06T13:10:20Z</time>
      </trkpt>
      <trkpt lat="45.63393" lon="6.67185">
        <ele>1959.78</ele>
        <time>2011-03-06T13:10:21Z</time>
      </trkpt>
      <trkpt lat="45.63395" lon="6.67195">
        <ele>1957.38</ele>
        <time>2011-03-06T13:10:22Z</time>
      </trkpt>
      <trkpt lat="45.63397" lon="6.67204">
        <ele>1956.42</ele>
        <time>2011-03-06T13:10:23Z</time>
      </trkpt>
      <trkpt lat="45.63398" lon="6.67213">
        <ele>1955.46</ele>
        <time>2011-03-06T13:10:24Z</time>
      </trkpt>
      <trkpt lat="45.63401" lon="6.67222">
        <ele>1954.5</ele>
        <time>2011-03-06T13:10:25Z</time>
      </trkpt>
      <trkpt lat="45.63404" lon="6.67232">
        <ele>1952.57</ele>
        <time>2011-03-06T13:10:26Z</time>
      </trkpt>
      <trkpt lat="45.63408" lon="6.67242">
        <ele>1952.57</ele>
        <time>2011-03-06T13:10:27Z</time>
      </trkpt>
      <trkpt lat="45.63411" lon="6.67252">
        <ele>1950.65</ele>
        <time>2011-03-06T13:10:28Z</time>
      </trkpt>
      <trkpt lat="45.63414" lon="6.67262">
        <ele>1950.17</ele>
        <time>2011-03-06T13:10:29Z</time>
      </trkpt>
      <trkpt lat="45.63416" lon="6.67272">
        <ele>1948.25</ele>
        <time>2011-03-06T13:10:30Z</time>
      </trkpt>
      <trkpt lat="45.63419" lon="6.67282">
        <ele>1947.29</ele>
        <time>2011-03-06T13:10:31Z</time>
      </trkpt>
      <trkpt lat="45.63421" lon="6.67291">
        <ele>1946.81</ele>
        <time>2011-03-06T13:10:32Z</time>
      </trkpt>
      <trkpt lat="45.63422" lon="6.67299">
        <ele>1945.36</ele>
        <time>2011-03-06T13:10:33Z</time>
      </trkpt>
      <trkpt lat="45.6342" lon="6.67308">
        <ele>1946.33</ele>
        <time>2011-03-06T13:10:34Z</time>
      </trkpt>
      <trkpt lat="45.63417" lon="6.67317">
        <ele>1944.88</ele>
        <time>2011-03-06T13:10:35Z</time>
      </trkpt>
      <trkpt lat="45.63414" lon="6.67326">
        <ele>1942.48</ele>
        <time>2011-03-06T13:10:36Z</time>
      </trkpt>
      <trkpt lat="45.63411" lon="6.67338">
        <ele>1941.04</ele>
        <time>2011-03-06T13:10:37Z</time>
      </trkpt>
      <trkpt lat="45.63409" lon="6.67349">
        <ele>1940.08</ele>
        <time>2011-03-06T13:10:38Z</time>
      </trkpt>
      <trkpt lat="45.63408" lon="6.6736">
        <ele>1938.64</ele>
        <time>2011-03-06T13:10:39Z</time>
      </trkpt>
      <trkpt lat="45.63405" lon="6.67372">
        <ele>1937.19</ele>
        <time>2011-03-06T13:10:40Z</time>
      </trkpt>
      <trkpt lat="45.63401" lon="6.67382">
        <ele>1936.23</ele>
        <time>2011-03-06T13:10:41Z</time>
      </trkpt>
      <trkpt lat="45.63396" lon="6.67391">
        <ele>1935.75</ele>
        <time>2011-03-06T13:10:42Z</time>
      </trkpt>
      <trkpt lat="45.6339" lon="6.67399">
        <ele>1933.83</ele>
        <time>2011-03-06T13:10:43Z</time>
      </trkpt>
      <trkpt lat="45.63383" lon="6.67404">
        <ele>1933.83</ele>
        <time>2011-03-06T13:10:44Z</time>
      </trkpt>
      <trkpt lat="45.63375" lon="6.67406">
        <ele>1932.39</ele>
        <time>2011-03-06T13:10:45Z</time>
      </trkpt>
      <trkpt lat="45.63368" lon="6.67408">
        <ele>1930.46</ele>
        <time>2011-03-06T13:10:46Z</time>
      </trkpt>
      <trkpt lat="45.63363" lon="6.67413">
        <ele>1929.02</ele>
        <time>2011-03-06T13:10:47Z</time>
      </trkpt>
      <trkpt lat="45.6336" lon="6.67417">
        <ele>1928.54</ele>
        <time>2011-03-06T13:10:48Z</time>
      </trkpt>
      <trkpt lat="45.63358" lon="6.6742">
        <ele>1929.5</ele>
        <time>2011-03-06T13:10:49Z</time>
      </trkpt>
      <trkpt lat="45.63358" lon="6.67421">
        <ele>1929.98</ele>
        <time>2011-03-06T13:10:59Z</time>
      </trkpt>
      <trkpt lat="45.63357" lon="6.67421">
        <ele>1929.5</ele>
        <time>2011-03-06T13:11:05Z</time>
      </trkpt>
      <trkpt lat="45.63355" lon="6.67423">
        <ele>1929.02</ele>
        <time>2011-03-06T13:11:06Z</time>
      </trkpt>
      <trkpt lat="45.6334" lon="6.67428">
        <ele>1925.18</ele>
        <time>2011-03-06T13:11:09Z</time>
      </trkpt>
      <trkpt lat="45.63336" lon="6.67434">
        <ele>1923.74</ele>
        <time>2011-03-06T13:11:10Z</time>
      </trkpt>
      <trkpt lat="45.63332" lon="6.67442">
        <ele>1922.29</ele>
        <time>2011-03-06T13:11:11Z</time>
      </trkpt>
      <trkpt lat="45.63327" lon="6.6745">
        <ele>1921.81</ele>
        <time>2011-03-06T13:11:12Z</time>
      </trkpt>
      <trkpt lat="45.63322" lon="6.67455">
        <ele>1920.37</ele>
        <time>2011-03-06T13:11:13Z</time>
      </trkpt>
      <trkpt lat="45.63311" lon="6.67463">
        <ele>1918.45</ele>
        <time>2011-03-06T13:11:15Z</time>
      </trkpt>
      <trkpt lat="45.63298" lon="6.6747">
        <ele>1916.53</ele>
        <time>2011-03-06T13:11:17Z</time>
      </trkpt>
      <trkpt lat="45.63292" lon="6.67475">
        <ele>1915.08</ele>
        <time>2011-03-06T13:11:18Z</time>
      </trkpt>
      <trkpt lat="45.63285" lon="6.67478">
        <ele>1914.6</ele>
        <time>2011-03-06T13:11:19Z</time>
      </trkpt>
      <trkpt lat="45.63279" lon="6.67482">
        <ele>1913.64</ele>
        <time>2011-03-06T13:11:20Z</time>
      </trkpt>
      <trkpt lat="45.63275" lon="6.67487">
        <ele>1912.68</ele>
        <time>2011-03-06T13:11:21Z</time>
      </trkpt>
      <trkpt lat="45.6327" lon="6.67492">
        <ele>1912.2</ele>
        <time>2011-03-06T13:11:22Z</time>
      </trkpt>
      <trkpt lat="45.63265" lon="6.67499">
        <ele>1910.28</ele>
        <time>2011-03-06T13:11:23Z</time>
      </trkpt>
      <trkpt lat="45.63259" lon="6.67506">
        <ele>1909.32</ele>
        <time>2011-03-06T13:11:24Z</time>
      </trkpt>
      <trkpt lat="45.63252" lon="6.67512">
        <ele>1908.83</ele>
        <time>2011-03-06T13:11:25Z</time>
      </trkpt>
      <trkpt lat="45.63236" lon="6.67521">
        <ele>1904.99</ele>
        <time>2011-03-06T13:11:27Z</time>
      </trkpt>
      <trkpt lat="45.63229" lon="6.67523">
        <ele>1904.99</ele>
        <time>2011-03-06T13:11:28Z</time>
      </trkpt>
      <trkpt lat="45.63222" lon="6.67525">
        <ele>1904.03</ele>
        <time>2011-03-06T13:11:29Z</time>
      </trkpt>
      <trkpt lat="45.63216" lon="6.67527">
        <ele>1903.55</ele>
        <time>2011-03-06T13:11:30Z</time>
      </trkpt>
      <trkpt lat="45.6321" lon="6.67526">
        <ele>1902.11</ele>
        <time>2011-03-06T13:11:31Z</time>
      </trkpt>
      <trkpt lat="45.63203" lon="6.67527">
        <ele>1900.18</ele>
        <time>2011-03-06T13:11:32Z</time>
      </trkpt>
      <trkpt lat="45.63197" lon="6.67529">
        <ele>1899.7</ele>
        <time>2011-03-06T13:11:33Z</time>
      </trkpt>
      <trkpt lat="45.6319" lon="6.67531">
        <ele>1898.26</ele>
        <time>2011-03-06T13:11:34Z</time>
      </trkpt>
      <trkpt lat="45.63183" lon="6.67533">
        <ele>1897.3</ele>
        <time>2011-03-06T13:11:35Z</time>
      </trkpt>
      <trkpt lat="45.63176" lon="6.67537">
        <ele>1896.34</ele>
        <time>2011-03-06T13:11:36Z</time>
      </trkpt>
      <trkpt lat="45.6317" lon="6.67539">
        <ele>1896.34</ele>
        <time>2011-03-06T13:11:37Z</time>
      </trkpt>
      <trkpt lat="45.63163" lon="6.67539">
        <ele>1893.45</ele>
        <time>2011-03-06T13:11:38Z</time>
      </trkpt>
      <trkpt lat="45.63156" lon="6.67541">
        <ele>1893.45</ele>
        <time>2011-03-06T13:11:39Z</time>
      </trkpt>
      <trkpt lat="45.6315" lon="6.67543">
        <ele>1893.45</ele>
        <time>2011-03-06T13:11:40Z</time>
      </trkpt>
      <trkpt lat="45.63144" lon="6.67543">
        <ele>1891.05</ele>
        <time>2011-03-06T13:11:41Z</time>
      </trkpt>
      <trkpt lat="45.63138" lon="6.67544">
        <ele>1890.09</ele>
        <time>2011-03-06T13:11:42Z</time>
      </trkpt>
      <trkpt lat="45.63133" lon="6.67548">
        <ele>1890.09</ele>
        <time>2011-03-06T13:11:43Z</time>
      </trkpt>
      <trkpt lat="45.63122" lon="6.67555">
        <ele>1887.69</ele>
        <time>2011-03-06T13:11:45Z</time>
      </trkpt>
      <trkpt lat="45.63117" lon="6.67559">
        <ele>1886.72</ele>
        <time>2011-03-06T13:11:46Z</time>
      </trkpt>
      <trkpt lat="45.63107" lon="6.67567">
        <ele>1886.24</ele>
        <time>2011-03-06T13:11:48Z</time>
      </trkpt>
      <trkpt lat="45.63101" lon="6.67571">
        <ele>1883.84</ele>
        <time>2011-03-06T13:11:49Z</time>
      </trkpt>
      <trkpt lat="45.63086" lon="6.67585">
        <ele>1882.4</ele>
        <time>2011-03-06T13:11:52Z</time>
      </trkpt>
      <trkpt lat="45.63081" lon="6.67582">
        <ele>1880</ele>
        <time>2011-03-06T13:11:56Z</time>
      </trkpt>
      <trkpt lat="45.63081" lon="6.67582">
        <ele>1879.51</ele>
        <time>2011-03-06T13:12:14Z</time>
      </trkpt>
      <trkpt lat="45.63081" lon="6.67582">
        <ele>1879.03</ele>
        <time>2011-03-06T13:12:23Z</time>
      </trkpt>
      <trkpt lat="45.63073" lon="6.67573">
        <ele>1877.59</ele>
        <time>2011-03-06T13:12:27Z</time>
      </trkpt>
      <trkpt lat="45.6306" lon="6.67564">
        <ele>1871.82</ele>
        <time>2011-03-06T13:12:30Z</time>
      </trkpt>
      <trkpt lat="45.63055" lon="6.67563">
        <ele>1871.34</ele>
        <time>2011-03-06T13:12:31Z</time>
      </trkpt>
      <trkpt lat="45.6305" lon="6.6756">
        <ele>1869.42</ele>
        <time>2011-03-06T13:12:32Z</time>
      </trkpt>
      <trkpt lat="45.63047" lon="6.67556">
        <ele>1868.46</ele>
        <time>2011-03-06T13:12:33Z</time>
      </trkpt>
      <trkpt lat="45.63044" lon="6.67553">
        <ele>1866.54</ele>
        <time>2011-03-06T13:12:34Z</time>
      </trkpt>
      <trkpt lat="45.63039" lon="6.67554">
        <ele>1866.54</ele>
        <time>2011-03-06T13:12:35Z</time>
      </trkpt>
      <trkpt lat="45.63034" lon="6.67552">
        <ele>1863.65</ele>
        <time>2011-03-06T13:12:36Z</time>
      </trkpt>
      <trkpt lat="45.63031" lon="6.67548">
        <ele>1862.69</ele>
        <time>2011-03-06T13:12:37Z</time>
      </trkpt>
      <trkpt lat="45.63026" lon="6.67546">
        <ele>1861.25</ele>
        <time>2011-03-06T13:12:38Z</time>
      </trkpt>
      <trkpt lat="45.63021" lon="6.67541">
        <ele>1859.33</ele>
        <time>2011-03-06T13:12:39Z</time>
      </trkpt>
      <trkpt lat="45.63016" lon="6.6754">
        <ele>1857.4</ele>
        <time>2011-03-06T13:12:40Z</time>
      </trkpt>
      <trkpt lat="45.6301" lon="6.67541">
        <ele>1856.44</ele>
        <time>2011-03-06T13:12:41Z</time>
      </trkpt>
      <trkpt lat="45.63003" lon="6.67542">
        <ele>1855</ele>
        <time>2011-03-06T13:12:42Z</time>
      </trkpt>
      <trkpt lat="45.62997" lon="6.67544">
        <ele>1854.04</ele>
        <time>2011-03-06T13:12:43Z</time>
      </trkpt>
      <trkpt lat="45.62991" lon="6.67546">
        <ele>1853.56</ele>
        <time>2011-03-06T13:12:44Z</time>
      </trkpt>
      <trkpt lat="45.62985" lon="6.67549">
        <ele>1852.12</ele>
        <time>2011-03-06T13:12:45Z</time>
      </trkpt>
      <trkpt lat="45.62978" lon="6.67551">
        <ele>1852.12</ele>
        <time>2011-03-06T13:12:46Z</time>
      </trkpt>
      <trkpt lat="45.62972" lon="6.67552">
        <ele>1849.71</ele>
        <time>2011-03-06T13:12:47Z</time>
      </trkpt>
      <trkpt lat="45.62967" lon="6.67551">
        <ele>1850.19</ele>
        <time>2011-03-06T13:12:48Z</time>
      </trkpt>
      <trkpt lat="45.62964" lon="6.67547">
        <ele>1848.27</ele>
        <time>2011-03-06T13:12:49Z</time>
      </trkpt>
      <trkpt lat="45.6296" lon="6.67534">
        <ele>1844.91</ele>
        <time>2011-03-06T13:12:51Z</time>
      </trkpt>
      <trkpt lat="45.62957" lon="6.67531">
        <ele>1844.43</ele>
        <time>2011-03-06T13:12:52Z</time>
      </trkpt>
      <trkpt lat="45.62952" lon="6.67531">
        <ele>1843.95</ele>
        <time>2011-03-06T13:12:53Z</time>
      </trkpt>
      <trkpt lat="45.62947" lon="6.67533">
        <ele>1842.5</ele>
        <time>2011-03-06T13:12:55Z</time>
      </trkpt>
      <trkpt lat="45.62936" lon="6.67539">
        <ele>1841.54</ele>
        <time>2011-03-06T13:12:56Z</time>
      </trkpt>
      <trkpt lat="45.6293" lon="6.6754">
        <ele>1841.06</ele>
        <time>2011-03-06T13:12:57Z</time>
      </trkpt>
      <trkpt lat="45.62925" lon="6.67541">
        <ele>1838.66</ele>
        <time>2011-03-06T13:12:58Z</time>
      </trkpt>
      <trkpt lat="45.6292" lon="6.67543">
        <ele>1838.66</ele>
        <time>2011-03-06T13:12:59Z</time>
      </trkpt>
      <trkpt lat="45.62915" lon="6.67544">
        <ele>1838.18</ele>
        <time>2011-03-06T13:13:00Z</time>
      </trkpt>
      <trkpt lat="45.62909" lon="6.67543">
        <ele>1834.81</ele>
        <time>2011-03-06T13:13:01Z</time>
      </trkpt>
      <trkpt lat="45.62904" lon="6.67542">
        <ele>1835.77</ele>
        <time>2011-03-06T13:13:02Z</time>
      </trkpt>
      <trkpt lat="45.629" lon="6.67542">
        <ele>1834.33</ele>
        <time>2011-03-06T13:13:03Z</time>
      </trkpt>
      <trkpt lat="45.62896" lon="6.67544">
        <ele>1832.41</ele>
        <time>2011-03-06T13:13:04Z</time>
      </trkpt>
      <trkpt lat="45.62892" lon="6.67546">
        <ele>1832.89</ele>
        <time>2011-03-06T13:13:05Z</time>
      </trkpt>
      <trkpt lat="45.62889" lon="6.67547">
        <ele>1832.41</ele>
        <time>2011-03-06T13:13:06Z</time>
      </trkpt>
      <trkpt lat="45.62886" lon="6.67549">
        <ele>1832.41</ele>
        <time>2011-03-06T13:13:07Z</time>
      </trkpt>
      <trkpt lat="45.62883" lon="6.67552">
        <ele>1831.45</ele>
        <time>2011-03-06T13:13:08Z</time>
      </trkpt>
      <trkpt lat="45.6288" lon="6.67556">
        <ele>1831.45</ele>
        <time>2011-03-06T13:13:09Z</time>
      </trkpt>
      <trkpt lat="45.62878" lon="6.67558">
        <ele>1830.97</ele>
        <time>2011-03-06T13:13:11Z</time>
      </trkpt>
      <trkpt lat="45.62873" lon="6.6756">
        <ele>1830.49</ele>
        <time>2011-03-06T13:13:12Z</time>
      </trkpt>
      <trkpt lat="45.62869" lon="6.67558">
        <ele>1830.49</ele>
        <time>2011-03-06T13:13:13Z</time>
      </trkpt>
      <trkpt lat="45.62864" lon="6.67556">
        <ele>1828.56</ele>
        <time>2011-03-06T13:13:14Z</time>
      </trkpt>
      <trkpt lat="45.62859" lon="6.67556">
        <ele>1828.56</ele>
        <time>2011-03-06T13:13:15Z</time>
      </trkpt>
      <trkpt lat="45.62855" lon="6.67557">
        <ele>1827.12</ele>
        <time>2011-03-06T13:13:16Z</time>
      </trkpt>
      <trkpt lat="45.62851" lon="6.67557">
        <ele>1826.16</ele>
        <time>2011-03-06T13:13:17Z</time>
      </trkpt>
      <trkpt lat="45.62848" lon="6.67557">
        <ele>1826.16</ele>
        <time>2011-03-06T13:13:18Z</time>
      </trkpt>
      <trkpt lat="45.62829" lon="6.67555">
        <ele>1823.28</ele>
        <time>2011-03-06T13:13:22Z</time>
      </trkpt>
      <trkpt lat="45.62823" lon="6.67556">
        <ele>1822.8</ele>
        <time>2011-03-06T13:13:23Z</time>
      </trkpt>
      <trkpt lat="45.62816" lon="6.6756">
        <ele>1820.39</ele>
        <time>2011-03-06T13:13:24Z</time>
      </trkpt>
      <trkpt lat="45.6281" lon="6.67564">
        <ele>1819.43</ele>
        <time>2011-03-06T13:13:25Z</time>
      </trkpt>
      <trkpt lat="45.62804" lon="6.67568">
        <ele>1818.95</ele>
        <time>2011-03-06T13:13:26Z</time>
      </trkpt>
      <trkpt lat="45.62801" lon="6.67572">
        <ele>1818.95</ele>
        <time>2011-03-06T13:13:27Z</time>
      </trkpt>
      <trkpt lat="45.62797" lon="6.67575">
        <ele>1817.03</ele>
        <time>2011-03-06T13:13:29Z</time>
      </trkpt>
      <trkpt lat="45.62788" lon="6.6758">
        <ele>1815.11</ele>
        <time>2011-03-06T13:13:31Z</time>
      </trkpt>
      <trkpt lat="45.62777" lon="6.67587">
        <ele>1814.15</ele>
        <time>2011-03-06T13:13:32Z</time>
      </trkpt>
      <trkpt lat="45.62772" lon="6.67591">
        <ele>1814.15</ele>
        <time>2011-03-06T13:13:33Z</time>
      </trkpt>
      <trkpt lat="45.62767" lon="6.67596">
        <ele>1813.66</ele>
        <time>2011-03-06T13:13:34Z</time>
      </trkpt>
      <trkpt lat="45.62743" lon="6.67618">
        <ele>1810.3</ele>
        <time>2011-03-06T13:13:39Z</time>
      </trkpt>
      <trkpt lat="45.62735" lon="6.67625">
        <ele>1809.34</ele>
        <time>2011-03-06T13:13:41Z</time>
      </trkpt>
      <trkpt lat="45.6273" lon="6.67629">
        <ele>1808.86</ele>
        <time>2011-03-06T13:13:42Z</time>
      </trkpt>
      <trkpt lat="45.62724" lon="6.67632">
        <ele>1808.38</ele>
        <time>2011-03-06T13:13:43Z</time>
      </trkpt>
      <trkpt lat="45.62718" lon="6.67635">
        <ele>1805.97</ele>
        <time>2011-03-06T13:13:44Z</time>
      </trkpt>
      <trkpt lat="45.62713" lon="6.67638">
        <ele>1806.45</ele>
        <time>2011-03-06T13:13:45Z</time>
      </trkpt>
      <trkpt lat="45.62706" lon="6.6764">
        <ele>1805.01</ele>
        <time>2011-03-06T13:13:46Z</time>
      </trkpt>
      <trkpt lat="45.627" lon="6.67643">
        <ele>1804.05</ele>
        <time>2011-03-06T13:13:47Z</time>
      </trkpt>
      <trkpt lat="45.62692" lon="6.67645">
        <ele>1803.57</ele>
        <time>2011-03-06T13:13:48Z</time>
      </trkpt>
      <trkpt lat="45.62685" lon="6.67647">
        <ele>1802.13</ele>
        <time>2011-03-06T13:13:49Z</time>
      </trkpt>
      <trkpt lat="45.62678" lon="6.67649">
        <ele>1800.21</ele>
        <time>2011-03-06T13:13:50Z</time>
      </trkpt>
      <trkpt lat="45.62671" lon="6.67653">
        <ele>1800.69</ele>
        <time>2011-03-06T13:13:51Z</time>
      </trkpt>
      <trkpt lat="45.62665" lon="6.67659">
        <ele>1798.28</ele>
        <time>2011-03-06T13:13:52Z</time>
      </trkpt>
      <trkpt lat="45.62658" lon="6.67666">
        <ele>1796.84</ele>
        <time>2011-03-06T13:13:53Z</time>
      </trkpt>
      <trkpt lat="45.62644" lon="6.67676">
        <ele>1795.4</ele>
        <time>2011-03-06T13:13:55Z</time>
      </trkpt>
      <trkpt lat="45.62622" lon="6.67686">
        <ele>1791.07</ele>
        <time>2011-03-06T13:13:58Z</time>
      </trkpt>
      <trkpt lat="45.62615" lon="6.67689">
        <ele>1789.63</ele>
        <time>2011-03-06T13:13:59Z</time>
      </trkpt>
      <trkpt lat="45.62608" lon="6.67692">
        <ele>1789.63</ele>
        <time>2011-03-06T13:14:00Z</time>
      </trkpt>
      <trkpt lat="45.62586" lon="6.67699">
        <ele>1785.31</ele>
        <time>2011-03-06T13:14:03Z</time>
      </trkpt>
      <trkpt lat="45.62579" lon="6.67704">
        <ele>1783.86</ele>
        <time>2011-03-06T13:14:04Z</time>
      </trkpt>
      <trkpt lat="45.62572" lon="6.6771">
        <ele>1781.46</ele>
        <time>2011-03-06T13:14:05Z</time>
      </trkpt>
      <trkpt lat="45.62566" lon="6.67716">
        <ele>1781.94</ele>
        <time>2011-03-06T13:14:06Z</time>
      </trkpt>
      <trkpt lat="45.62559" lon="6.67722">
        <ele>1780.5</ele>
        <time>2011-03-06T13:14:07Z</time>
      </trkpt>
      <trkpt lat="45.62553" lon="6.67727">
        <ele>1780.98</ele>
        <time>2011-03-06T13:14:08Z</time>
      </trkpt>
      <trkpt lat="45.62546" lon="6.67731">
        <ele>1779.54</ele>
        <time>2011-03-06T13:14:09Z</time>
      </trkpt>
      <trkpt lat="45.62539" lon="6.67734">
        <ele>1778.1</ele>
        <time>2011-03-06T13:14:10Z</time>
      </trkpt>
      <trkpt lat="45.62532" lon="6.67736">
        <ele>1776.65</ele>
        <time>2011-03-06T13:14:11Z</time>
      </trkpt>
      <trkpt lat="45.62526" lon="6.67739">
        <ele>1775.21</ele>
        <time>2011-03-06T13:14:12Z</time>
      </trkpt>
      <trkpt lat="45.62513" lon="6.67748">
        <ele>1773.77</ele>
        <time>2011-03-06T13:14:14Z</time>
      </trkpt>
      <trkpt lat="45.62507" lon="6.67753">
        <ele>1773.29</ele>
        <time>2011-03-06T13:14:15Z</time>
      </trkpt>
      <trkpt lat="45.62488" lon="6.67768">
        <ele>1770.41</ele>
        <time>2011-03-06T13:14:18Z</time>
      </trkpt>
      <trkpt lat="45.62476" lon="6.67783">
        <ele>1767.52</ele>
        <time>2011-03-06T13:14:20Z</time>
      </trkpt>
      <trkpt lat="45.6247" lon="6.6779">
        <ele>1767.04</ele>
        <time>2011-03-06T13:14:21Z</time>
      </trkpt>
      <trkpt lat="45.62464" lon="6.67797">
        <ele>1765.6</ele>
        <time>2011-03-06T13:14:22Z</time>
      </trkpt>
      <trkpt lat="45.62451" lon="6.67807">
        <ele>1763.68</ele>
        <time>2011-03-06T13:14:24Z</time>
      </trkpt>
      <trkpt lat="45.62421" lon="6.67824">
        <ele>1759.83</ele>
        <time>2011-03-06T13:14:28Z</time>
      </trkpt>
      <trkpt lat="45.62413" lon="6.67829">
        <ele>1757.91</ele>
        <time>2011-03-06T13:14:29Z</time>
      </trkpt>
      <trkpt lat="45.62397" lon="6.6784">
        <ele>1755.5</ele>
        <time>2011-03-06T13:14:31Z</time>
      </trkpt>
      <trkpt lat="45.62389" lon="6.67847">
        <ele>1754.54</ele>
        <time>2011-03-06T13:14:32Z</time>
      </trkpt>
      <trkpt lat="45.62381" lon="6.67852">
        <ele>1753.1</ele>
        <time>2011-03-06T13:14:33Z</time>
      </trkpt>
      <trkpt lat="45.62363" lon="6.67864">
        <ele>1748.78</ele>
        <time>2011-03-06T13:14:35Z</time>
      </trkpt>
      <trkpt lat="45.62334" lon="6.67882">
        <ele>1745.41</ele>
        <time>2011-03-06T13:14:38Z</time>
      </trkpt>
      <trkpt lat="45.62324" lon="6.67885">
        <ele>1743.01</ele>
        <time>2011-03-06T13:14:39Z</time>
      </trkpt>
      <trkpt lat="45.62296" lon="6.67889">
        <ele>1741.57</ele>
        <time>2011-03-06T13:14:42Z</time>
      </trkpt>
      <trkpt lat="45.62287" lon="6.67892">
        <ele>1741.57</ele>
        <time>2011-03-06T13:14:43Z</time>
      </trkpt>
      <trkpt lat="45.6227" lon="6.67897">
        <ele>1740.6</ele>
        <time>2011-03-06T13:14:45Z</time>
      </trkpt>
      <trkpt lat="45.62261" lon="6.67898">
        <ele>1739.16</ele>
        <time>2011-03-06T13:14:46Z</time>
      </trkpt>
      <trkpt lat="45.62228" lon="6.67898">
        <ele>1736.28</ele>
        <time>2011-03-06T13:14:50Z</time>
      </trkpt>
      <trkpt lat="45.62219" lon="6.67899">
        <ele>1735.32</ele>
        <time>2011-03-06T13:14:51Z</time>
      </trkpt>
      <trkpt lat="45.62211" lon="6.67897">
        <ele>1734.36</ele>
        <time>2011-03-06T13:14:52Z</time>
      </trkpt>
      <trkpt lat="45.62203" lon="6.67894">
        <ele>1732.43</ele>
        <time>2011-03-06T13:14:53Z</time>
      </trkpt>
      <trkpt lat="45.62196" lon="6.67889">
        <ele>1731.95</ele>
        <time>2011-03-06T13:14:54Z</time>
      </trkpt>
      <trkpt lat="45.62188" lon="6.67886">
        <ele>1730.99</ele>
        <time>2011-03-06T13:14:55Z</time>
      </trkpt>
      <trkpt lat="45.62179" lon="6.67885">
        <ele>1729.55</ele>
        <time>2011-03-06T13:14:56Z</time>
      </trkpt>
      <trkpt lat="45.62162" lon="6.67884">
        <ele>1728.11</ele>
        <time>2011-03-06T13:14:58Z</time>
      </trkpt>
      <trkpt lat="45.62145" lon="6.67884">
        <ele>1726.67</ele>
        <time>2011-03-06T13:15:00Z</time>
      </trkpt>
      <trkpt lat="45.62137" lon="6.67879">
        <ele>1724.26</ele>
        <time>2011-03-06T13:15:01Z</time>
      </trkpt>
      <trkpt lat="45.62129" lon="6.67874">
        <ele>1723.3</ele>
        <time>2011-03-06T13:15:02Z</time>
      </trkpt>
      <trkpt lat="45.6212" lon="6.67873">
        <ele>1722.82</ele>
        <time>2011-03-06T13:15:03Z</time>
      </trkpt>
      <trkpt lat="45.62111" lon="6.67875">
        <ele>1721.38</ele>
        <time>2011-03-06T13:15:04Z</time>
      </trkpt>
      <trkpt lat="45.62102" lon="6.67879">
        <ele>1718.97</ele>
        <time>2011-03-06T13:15:05Z</time>
      </trkpt>
      <trkpt lat="45.62093" lon="6.67885">
        <ele>1717.53</ele>
        <time>2011-03-06T13:15:06Z</time>
      </trkpt>
      <trkpt lat="45.62083" lon="6.67888">
        <ele>1716.57</ele>
        <time>2011-03-06T13:15:07Z</time>
      </trkpt>
      <trkpt lat="45.62064" lon="6.67891">
        <ele>1713.21</ele>
        <time>2011-03-06T13:15:09Z</time>
      </trkpt>
      <trkpt lat="45.62044" lon="6.67895">
        <ele>1708.4</ele>
        <time>2011-03-06T13:15:11Z</time>
      </trkpt>
      <trkpt lat="45.62034" lon="6.67894">
        <ele>1707.92</ele>
        <time>2011-03-06T13:15:12Z</time>
      </trkpt>
      <trkpt lat="45.62024" lon="6.67895">
        <ele>1708.4</ele>
        <time>2011-03-06T13:15:13Z</time>
      </trkpt>
      <trkpt lat="45.61986" lon="6.67897">
        <ele>1704.55</ele>
        <time>2011-03-06T13:15:17Z</time>
      </trkpt>
      <trkpt lat="45.61959" lon="6.6789">
        <ele>1701.19</ele>
        <time>2011-03-06T13:15:20Z</time>
      </trkpt>
      <trkpt lat="45.61933" lon="6.6788">
        <ele>1697.34</ele>
        <time>2011-03-06T13:15:23Z</time>
      </trkpt>
      <trkpt lat="45.61901" lon="6.67864">
        <ele>1693.5</ele>
        <time>2011-03-06T13:15:27Z</time>
      </trkpt>
      <trkpt lat="45.61893" lon="6.67861">
        <ele>1693.02</ele>
        <time>2011-03-06T13:15:28Z</time>
      </trkpt>
      <trkpt lat="45.6187" lon="6.67853">
        <ele>1692.06</ele>
        <time>2011-03-06T13:15:31Z</time>
      </trkpt>
      <trkpt lat="45.61862" lon="6.6785">
        <ele>1691.1</ele>
        <time>2011-03-06T13:15:32Z</time>
      </trkpt>
      <trkpt lat="45.61855" lon="6.67847">
        <ele>1690.62</ele>
        <time>2011-03-06T13:15:33Z</time>
      </trkpt>
      <trkpt lat="45.61823" lon="6.67841">
        <ele>1687.25</ele>
        <time>2011-03-06T13:15:37Z</time>
      </trkpt>
      <trkpt lat="45.61815" lon="6.67841">
        <ele>1686.77</ele>
        <time>2011-03-06T13:15:38Z</time>
      </trkpt>
      <trkpt lat="45.61792" lon="6.67841">
        <ele>1684.85</ele>
        <time>2011-03-06T13:15:41Z</time>
      </trkpt>
      <trkpt lat="45.61785" lon="6.67837">
        <ele>1683.89</ele>
        <time>2011-03-06T13:15:42Z</time>
      </trkpt>
      <trkpt lat="45.61781" lon="6.67831">
        <ele>1682.93</ele>
        <time>2011-03-06T13:15:43Z</time>
      </trkpt>
      <trkpt lat="45.61779" lon="6.67824">
        <ele>1682.44</ele>
        <time>2011-03-06T13:15:44Z</time>
      </trkpt>
      <trkpt lat="45.61769" lon="6.67806">
        <ele>1680.52</ele>
        <time>2011-03-06T13:15:51Z</time>
      </trkpt>
      <trkpt lat="45.61767" lon="6.67801">
        <ele>1680.52</ele>
        <time>2011-03-06T13:15:52Z</time>
      </trkpt>
      <trkpt lat="45.61763" lon="6.67795">
        <ele>1679.56</ele>
        <time>2011-03-06T13:15:53Z</time>
      </trkpt>
      <trkpt lat="45.6176" lon="6.6779">
        <ele>1678.6</ele>
        <time>2011-03-06T13:15:54Z</time>
      </trkpt>
      <trkpt lat="45.61757" lon="6.67786">
        <ele>1678.12</ele>
        <time>2011-03-06T13:15:55Z</time>
      </trkpt>
      <trkpt lat="45.61754" lon="6.67783">
        <ele>1678.12</ele>
        <time>2011-03-06T13:15:56Z</time>
      </trkpt>
      <trkpt lat="45.61728" lon="6.67758">
        <ele>1675.72</ele>
        <time>2011-03-06T13:16:05Z</time>
      </trkpt>
      <trkpt lat="45.61725" lon="6.67757">
        <ele>1675.72</ele>
        <time>2011-03-06T13:16:06Z</time>
      </trkpt>
      <trkpt lat="45.61721" lon="6.67756">
        <ele>1676.2</ele>
        <time>2011-03-06T13:16:07Z</time>
      </trkpt>
      <trkpt lat="45.61717" lon="6.67755">
        <ele>1675.72</ele>
        <time>2011-03-06T13:16:08Z</time>
      </trkpt>
      <trkpt lat="45.61713" lon="6.67755">
        <ele>1675.23</ele>
        <time>2011-03-06T13:16:09Z</time>
      </trkpt>
      <trkpt lat="45.61709" lon="6.67754">
        <ele>1675.23</ele>
        <time>2011-03-06T13:16:10Z</time>
      </trkpt>
      <trkpt lat="45.61666" lon="6.67757">
        <ele>1672.35</ele>
        <time>2011-03-06T13:16:21Z</time>
      </trkpt>
      <trkpt lat="45.61641" lon="6.67767">
        <ele>1670.43</ele>
        <time>2011-03-06T13:16:27Z</time>
      </trkpt>
      <trkpt lat="45.61622" lon="6.67772">
        <ele>1668.99</ele>
        <time>2011-03-06T13:16:31Z</time>
      </trkpt>
      <trkpt lat="45.61616" lon="6.67772">
        <ele>1668.02</ele>
        <time>2011-03-06T13:16:32Z</time>
      </trkpt>
      <trkpt lat="45.61611" lon="6.6777">
        <ele>1668.02</ele>
        <time>2011-03-06T13:16:33Z</time>
      </trkpt>
      <trkpt lat="45.61606" lon="6.67768">
        <ele>1667.54</ele>
        <time>2011-03-06T13:16:34Z</time>
      </trkpt>
      <trkpt lat="45.616" lon="6.67766">
        <ele>1667.06</ele>
        <time>2011-03-06T13:16:35Z</time>
      </trkpt>
      <trkpt lat="45.61594" lon="6.67762">
        <ele>1666.58</ele>
        <time>2011-03-06T13:16:36Z</time>
      </trkpt>
      <trkpt lat="45.61578" lon="6.67751">
        <ele>1664.66</ele>
        <time>2011-03-06T13:16:39Z</time>
      </trkpt>
      <trkpt lat="45.61572" lon="6.67748">
        <ele>1664.18</ele>
        <time>2011-03-06T13:16:40Z</time>
      </trkpt>
      <trkpt lat="45.61565" lon="6.67745">
        <ele>1664.18</ele>
        <time>2011-03-06T13:16:41Z</time>
      </trkpt>
      <trkpt lat="45.61559" lon="6.67743">
        <ele>1662.74</ele>
        <time>2011-03-06T13:16:42Z</time>
      </trkpt>
      <trkpt lat="45.61552" lon="6.67742">
        <ele>1662.74</ele>
        <time>2011-03-06T13:16:43Z</time>
      </trkpt>
      <trkpt lat="45.61544" lon="6.67742">
        <ele>1662.26</ele>
        <time>2011-03-06T13:16:44Z</time>
      </trkpt>
      <trkpt lat="45.61537" lon="6.67742">
        <ele>1662.26</ele>
        <time>2011-03-06T13:16:45Z</time>
      </trkpt>
      <trkpt lat="45.615" lon="6.67744">
        <ele>1658.41</ele>
        <time>2011-03-06T13:16:50Z</time>
      </trkpt>
      <trkpt lat="45.61462" lon="6.67745">
        <ele>1654.09</ele>
        <time>2011-03-06T13:16:55Z</time>
      </trkpt>
      <trkpt lat="45.61454" lon="6.67746">
        <ele>1654.57</ele>
        <time>2011-03-06T13:16:56Z</time>
      </trkpt>
      <trkpt lat="45.6144" lon="6.6775">
        <ele>1652.16</ele>
        <time>2011-03-06T13:16:58Z</time>
      </trkpt>
      <trkpt lat="45.61432" lon="6.6775">
        <ele>1652.16</ele>
        <time>2011-03-06T13:16:59Z</time>
      </trkpt>
      <trkpt lat="45.61403" lon="6.67749">
        <ele>1650.24</ele>
        <time>2011-03-06T13:17:03Z</time>
      </trkpt>
      <trkpt lat="45.61367" lon="6.67746">
        <ele>1646.4</ele>
        <time>2011-03-06T13:17:08Z</time>
      </trkpt>
      <trkpt lat="45.61361" lon="6.67745">
        <ele>1646.4</ele>
        <time>2011-03-06T13:17:09Z</time>
      </trkpt>
      <trkpt lat="45.61322" lon="6.67742">
        <ele>1643.03</ele>
        <time>2011-03-06T13:17:15Z</time>
      </trkpt>
      <trkpt lat="45.61297" lon="6.6774">
        <ele>1641.11</ele>
        <time>2011-03-06T13:17:19Z</time>
      </trkpt>
      <trkpt lat="45.61266" lon="6.67743">
        <ele>1638.22</ele>
        <time>2011-03-06T13:17:24Z</time>
      </trkpt>
      <trkpt lat="45.6126" lon="6.67744">
        <ele>1638.22</ele>
        <time>2011-03-06T13:17:25Z</time>
      </trkpt>
      <trkpt lat="45.61232" lon="6.6775">
        <ele>1636.3</ele>
        <time>2011-03-06T13:17:30Z</time>
      </trkpt>
      <trkpt lat="45.61211" lon="6.6775">
        <ele>1634.86</ele>
        <time>2011-03-06T13:17:34Z</time>
      </trkpt>
      <trkpt lat="45.61197" lon="6.67746">
        <ele>1632.46</ele>
        <time>2011-03-06T13:17:37Z</time>
      </trkpt>
      <trkpt lat="45.61152" lon="6.67737">
        <ele>1631.01</ele>
        <time>2011-03-06T13:17:49Z</time>
      </trkpt>
      <trkpt lat="45.61139" lon="6.67732">
        <ele>1631.01</ele>
        <time>2011-03-06T13:17:53Z</time>
      </trkpt>
      <trkpt lat="45.61136" lon="6.6773">
        <ele>1630.53</ele>
        <time>2011-03-06T13:17:54Z</time>
      </trkpt>
      <trkpt lat="45.61132" lon="6.67727">
        <ele>1630.05</ele>
        <time>2011-03-06T13:17:55Z</time>
      </trkpt>
      <trkpt lat="45.61129" lon="6.67726">
        <ele>1630.05</ele>
        <time>2011-03-06T13:17:56Z</time>
      </trkpt>
      <trkpt lat="45.61125" lon="6.67725">
        <ele>1630.53</ele>
        <time>2011-03-06T13:17:57Z</time>
      </trkpt>
      <trkpt lat="45.61122" lon="6.67723">
        <ele>1630.53</ele>
        <time>2011-03-06T13:17:58Z</time>
      </trkpt>
      <trkpt lat="45.61115" lon="6.67719">
        <ele>1630.53</ele>
        <time>2011-03-06T13:18:00Z</time>
      </trkpt>
      <trkpt lat="45.61111" lon="6.67717">
        <ele>1629.57</ele>
        <time>2011-03-06T13:18:01Z</time>
      </trkpt>
      <trkpt lat="45.61107" lon="6.67715">
        <ele>1630.05</ele>
        <time>2011-03-06T13:18:02Z</time>
      </trkpt>
      <trkpt lat="45.61103" lon="6.67713">
        <ele>1629.57</ele>
        <time>2011-03-06T13:18:03Z</time>
      </trkpt>
      <trkpt lat="45.611" lon="6.6771">
        <ele>1628.61</ele>
        <time>2011-03-06T13:18:04Z</time>
      </trkpt>
      <trkpt lat="45.61096" lon="6.67708">
        <ele>1629.09</ele>
        <time>2011-03-06T13:18:05Z</time>
      </trkpt>
      <trkpt lat="45.61092" lon="6.67706">
        <ele>1629.09</ele>
        <time>2011-03-06T13:18:06Z</time>
      </trkpt>
      <trkpt lat="45.61089" lon="6.67703">
        <ele>1629.57</ele>
        <time>2011-03-06T13:18:07Z</time>
      </trkpt>
      <trkpt lat="45.61086" lon="6.67702">
        <ele>1629.57</ele>
        <time>2011-03-06T13:18:08Z</time>
      </trkpt>
      <trkpt lat="45.61082" lon="6.677">
        <ele>1629.57</ele>
        <time>2011-03-06T13:18:09Z</time>
      </trkpt>
      <trkpt lat="45.61078" lon="6.67698">
        <ele>1629.57</ele>
        <time>2011-03-06T13:18:10Z</time>
      </trkpt>
      <trkpt lat="45.61074" lon="6.67696">
        <ele>1628.61</ele>
        <time>2011-03-06T13:18:11Z</time>
      </trkpt>
      <trkpt lat="45.6107" lon="6.67695">
        <ele>1629.09</ele>
        <time>2011-03-06T13:18:12Z</time>
      </trkpt>
      <trkpt lat="45.61067" lon="6.67693">
        <ele>1629.09</ele>
        <time>2011-03-06T13:18:13Z</time>
      </trkpt>
      <trkpt lat="45.61063" lon="6.67691">
        <ele>1628.61</ele>
        <time>2011-03-06T13:18:14Z</time>
      </trkpt>
      <trkpt lat="45.6106" lon="6.67689">
        <ele>1629.09</ele>
        <time>2011-03-06T13:18:15Z</time>
      </trkpt>
      <trkpt lat="45.61057" lon="6.67687">
        <ele>1629.09</ele>
        <time>2011-03-06T13:18:16Z</time>
      </trkpt>
      <trkpt lat="45.61053" lon="6.67686">
        <ele>1629.09</ele>
        <time>2011-03-06T13:18:17Z</time>
      </trkpt>
      <trkpt lat="45.61043" lon="6.67683">
        <ele>1628.61</ele>
        <time>2011-03-06T13:18:20Z</time>
      </trkpt>
      <trkpt lat="45.61039" lon="6.67682">
        <ele>1628.61</ele>
        <time>2011-03-06T13:18:21Z</time>
      </trkpt>
      <trkpt lat="45.61036" lon="6.6768">
        <ele>1628.61</ele>
        <time>2011-03-06T13:18:22Z</time>
      </trkpt>
      <trkpt lat="45.61033" lon="6.67679">
        <ele>1628.13</ele>
        <time>2011-03-06T13:18:23Z</time>
      </trkpt>
      <trkpt lat="45.6103" lon="6.67678">
        <ele>1627.65</ele>
        <time>2011-03-06T13:18:24Z</time>
      </trkpt>
      <trkpt lat="45.61027" lon="6.67676">
        <ele>1628.13</ele>
        <time>2011-03-06T13:18:25Z</time>
      </trkpt>
      <trkpt lat="45.61025" lon="6.67673">
        <ele>1628.13</ele>
        <time>2011-03-06T13:18:26Z</time>
      </trkpt>
      <trkpt lat="45.61022" lon="6.67671">
        <ele>1627.65</ele>
        <time>2011-03-06T13:18:27Z</time>
      </trkpt>
      <trkpt lat="45.6102" lon="6.67669">
        <ele>1628.13</ele>
        <time>2011-03-06T13:18:28Z</time>
      </trkpt>
      <trkpt lat="45.61018" lon="6.67667">
        <ele>1627.65</ele>
        <time>2011-03-06T13:18:29Z</time>
      </trkpt>
      <trkpt lat="45.61016" lon="6.67665">
        <ele>1628.13</ele>
        <time>2011-03-06T13:18:30Z</time>
      </trkpt>
      <trkpt lat="45.61014" lon="6.67663">
        <ele>1628.13</ele>
        <time>2011-03-06T13:18:31Z</time>
      </trkpt>
      <trkpt lat="45.61004" lon="6.67651">
        <ele>1627.17</ele>
        <time>2011-03-06T13:18:36Z</time>
      </trkpt>
      <trkpt lat="45.61002" lon="6.67647">
        <ele>1627.17</ele>
        <time>2011-03-06T13:18:37Z</time>
      </trkpt>
      <trkpt lat="45.61" lon="6.67642">
        <ele>1627.17</ele>
        <time>2011-03-06T13:18:38Z</time>
      </trkpt>
      <trkpt lat="45.60999" lon="6.67638">
        <ele>1627.17</ele>
        <time>2011-03-06T13:18:39Z</time>
      </trkpt>
      <trkpt lat="45.60997" lon="6.67634">
        <ele>1627.65</ele>
        <time>2011-03-06T13:18:40Z</time>
      </trkpt>
      <trkpt lat="45.60995" lon="6.6763">
        <ele>1627.65</ele>
        <time>2011-03-06T13:18:41Z</time>
      </trkpt>
      <trkpt lat="45.60992" lon="6.67626">
        <ele>1628.13</ele>
        <time>2011-03-06T13:18:42Z</time>
      </trkpt>
      <trkpt lat="45.60982" lon="6.67614">
        <ele>1626.69</ele>
        <time>2011-03-06T13:18:49Z</time>
      </trkpt>
      <trkpt lat="45.60981" lon="6.67612">
        <ele>1626.21</ele>
        <time>2011-03-06T13:18:50Z</time>
      </trkpt>
      <trkpt lat="45.60979" lon="6.67611">
        <ele>1626.21</ele>
        <time>2011-03-06T13:18:51Z</time>
      </trkpt>
      <trkpt lat="45.60977" lon="6.67609">
        <ele>1626.69</ele>
        <time>2011-03-06T13:18:52Z</time>
      </trkpt>
      <trkpt lat="45.60976" lon="6.67607">
        <ele>1627.17</ele>
        <time>2011-03-06T13:18:53Z</time>
      </trkpt>
      <trkpt lat="45.60974" lon="6.67606">
        <ele>1627.17</ele>
        <time>2011-03-06T13:18:54Z</time>
      </trkpt>
      <trkpt lat="45.60972" lon="6.67604">
        <ele>1626.69</ele>
        <time>2011-03-06T13:18:55Z</time>
      </trkpt>
      <trkpt lat="45.6097" lon="6.67602">
        <ele>1627.17</ele>
        <time>2011-03-06T13:18:56Z</time>
      </trkpt>
      <trkpt lat="45.60968" lon="6.676">
        <ele>1626.69</ele>
        <time>2011-03-06T13:18:57Z</time>
      </trkpt>
      <trkpt lat="45.60966" lon="6.67599">
        <ele>1626.69</ele>
        <time>2011-03-06T13:18:58Z</time>
      </trkpt>
      <trkpt lat="45.60964" lon="6.67596">
        <ele>1626.69</ele>
        <time>2011-03-06T13:18:59Z</time>
      </trkpt>
      <trkpt lat="45.60963" lon="6.67593">
        <ele>1627.17</ele>
        <time>2011-03-06T13:19:00Z</time>
      </trkpt>
      <trkpt lat="45.60961" lon="6.67591">
        <ele>1626.69</ele>
        <time>2011-03-06T13:19:01Z</time>
      </trkpt>
      <trkpt lat="45.6096" lon="6.67588">
        <ele>1626.21</ele>
        <time>2011-03-06T13:19:02Z</time>
      </trkpt>
      <trkpt lat="45.60929" lon="6.67569">
        <ele>1625.73</ele>
        <time>2011-03-06T13:19:12Z</time>
      </trkpt>
      <trkpt lat="45.60896" lon="6.67546">
        <ele>1625.25</ele>
        <time>2011-03-06T13:19:22Z</time>
      </trkpt>
      <trkpt lat="45.60867" lon="6.67532">
        <ele>1624.77</ele>
        <time>2011-03-06T13:19:33Z</time>
      </trkpt>
      <trkpt lat="45.60831" lon="6.67512">
        <ele>1622.84</ele>
        <time>2011-03-06T13:19:47Z</time>
      </trkpt>
      <trkpt lat="45.60804" lon="6.67503">
        <ele>1622.36</ele>
        <time>2011-03-06T13:19:56Z</time>
      </trkpt>
      <trkpt lat="45.60765" lon="6.67496">
        <ele>1621.88</ele>
        <time>2011-03-06T13:20:08Z</time>
      </trkpt>
      <trkpt lat="45.60722" lon="6.67461">
        <ele>1618.52</ele>
        <time>2011-03-06T13:20:23Z</time>
      </trkpt>
      <trkpt lat="45.607" lon="6.67432">
        <ele>1616.11</ele>
        <time>2011-03-06T13:20:31Z</time>
      </trkpt>
      <trkpt lat="45.60675" lon="6.67402">
        <ele>1614.19</ele>
        <time>2011-03-06T13:20:40Z</time>
      </trkpt>
      <trkpt lat="45.60654" lon="6.6739">
        <ele>1611.31</ele>
        <time>2011-03-06T13:20:45Z</time>
      </trkpt>
      <trkpt lat="45.6065" lon="6.67388">
        <ele>1611.79</ele>
        <time>2011-03-06T13:20:46Z</time>
      </trkpt>
      <trkpt lat="45.60646" lon="6.67386">
        <ele>1610.83</ele>
        <time>2011-03-06T13:20:47Z</time>
      </trkpt>
      <trkpt lat="45.60641" lon="6.67386">
        <ele>1610.83</ele>
        <time>2011-03-06T13:20:48Z</time>
      </trkpt>
      <trkpt lat="45.60637" lon="6.67386">
        <ele>1610.35</ele>
        <time>2011-03-06T13:20:49Z</time>
      </trkpt>
      <trkpt lat="45.60632" lon="6.67387">
        <ele>1609.86</ele>
        <time>2011-03-06T13:20:50Z</time>
      </trkpt>
      <trkpt lat="45.60622" lon="6.67388">
        <ele>1608.9</ele>
        <time>2011-03-06T13:20:52Z</time>
      </trkpt>
      <trkpt lat="45.60601" lon="6.67396">
        <ele>1607.46</ele>
        <time>2011-03-06T13:20:56Z</time>
      </trkpt>
      <trkpt lat="45.60596" lon="6.67395">
        <ele>1607.46</ele>
        <time>2011-03-06T13:20:57Z</time>
      </trkpt>
      <trkpt lat="45.60591" lon="6.67395">
        <ele>1606.5</ele>
        <time>2011-03-06T13:20:58Z</time>
      </trkpt>
      <trkpt lat="45.60586" lon="6.67396">
        <ele>1606.5</ele>
        <time>2011-03-06T13:20:59Z</time>
      </trkpt>
      <trkpt lat="45.6058" lon="6.67396">
        <ele>1606.02</ele>
        <time>2011-03-06T13:21:00Z</time>
      </trkpt>
      <trkpt lat="45.60576" lon="6.67394">
        <ele>1605.54</ele>
        <time>2011-03-06T13:21:01Z</time>
      </trkpt>
      <trkpt lat="45.60571" lon="6.67391">
        <ele>1604.58</ele>
        <time>2011-03-06T13:21:02Z</time>
      </trkpt>
      <trkpt lat="45.60566" lon="6.67388">
        <ele>1604.58</ele>
        <time>2011-03-06T13:21:03Z</time>
      </trkpt>
      <trkpt lat="45.60561" lon="6.67385">
        <ele>1604.1</ele>
        <time>2011-03-06T13:21:04Z</time>
      </trkpt>
      <trkpt lat="45.60557" lon="6.67381">
        <ele>1602.66</ele>
        <time>2011-03-06T13:21:05Z</time>
      </trkpt>
      <trkpt lat="45.60553" lon="6.67377">
        <ele>1602.66</ele>
        <time>2011-03-06T13:21:06Z</time>
      </trkpt>
      <trkpt lat="45.6055" lon="6.67373">
        <ele>1602.17</ele>
        <time>2011-03-06T13:21:07Z</time>
      </trkpt>
      <trkpt lat="45.60548" lon="6.6737">
        <ele>1601.69</ele>
        <time>2011-03-06T13:21:08Z</time>
      </trkpt>
      <trkpt lat="45.60547" lon="6.67367">
        <ele>1602.17</ele>
        <time>2011-03-06T13:21:09Z</time>
      </trkpt>
      <trkpt lat="45.60545" lon="6.67366">
        <ele>1601.69</ele>
        <time>2011-03-06T13:21:13Z</time>
      </trkpt>
      <trkpt lat="45.60543" lon="6.67365">
        <ele>1601.21</ele>
        <time>2011-03-06T13:21:15Z</time>
      </trkpt>
      <trkpt lat="45.60542" lon="6.67363">
        <ele>1600.73</ele>
        <time>2011-03-06T13:21:16Z</time>
      </trkpt>
      <trkpt lat="45.60511" lon="6.67337">
        <ele>1597.85</ele>
        <time>2011-03-06T13:21:29Z</time>
      </trkpt>
      <trkpt lat="45.60489" lon="6.67309">
        <ele>1594.48</ele>
        <time>2011-03-06T13:21:39Z</time>
      </trkpt>
      <trkpt lat="45.60486" lon="6.67306">
        <ele>1594.48</ele>
        <time>2011-03-06T13:21:40Z</time>
      </trkpt>
      <trkpt lat="45.60473" lon="6.67291">
        <ele>1593.04</ele>
        <time>2011-03-06T13:21:47Z</time>
      </trkpt>
      <trkpt lat="45.6047" lon="6.67294">
        <ele>1592.56</ele>
        <time>2011-03-06T13:21:51Z</time>
      </trkpt>
      <trkpt lat="45.60466" lon="6.67295">
        <ele>1591.6</ele>
        <time>2011-03-06T13:21:55Z</time>
      </trkpt>
      <trkpt lat="45.60465" lon="6.67294">
        <ele>1592.08</ele>
        <time>2011-03-06T13:21:56Z</time>
      </trkpt>
      <trkpt lat="45.6046" lon="6.67292">
        <ele>1591.12</ele>
        <time>2011-03-06T13:22:02Z</time>
      </trkpt>
      <trkpt lat="45.60455" lon="6.67288">
        <ele>1591.12</ele>
        <time>2011-03-06T13:22:12Z</time>
      </trkpt>
      <trkpt lat="45.60451" lon="6.67286">
        <ele>1591.12</ele>
        <time>2011-03-06T13:22:16Z</time>
      </trkpt>
      <trkpt lat="45.6045" lon="6.67287">
        <ele>1590.64</ele>
        <time>2011-03-06T13:22:17Z</time>
      </trkpt>
      <trkpt lat="45.60408" lon="6.67281">
        <ele>1587.75</ele>
        <time>2011-03-06T13:22:32Z</time>
      </trkpt>
      <trkpt lat="45.60393" lon="6.67278">
        <ele>1586.31</ele>
        <time>2011-03-06T13:22:36Z</time>
      </trkpt>
      <trkpt lat="45.60384" lon="6.67275">
        <ele>1584.87</ele>
        <time>2011-03-06T13:22:43Z</time>
      </trkpt>
      <trkpt lat="45.60383" lon="6.67275">
        <ele>1584.87</ele>
        <time>2011-03-06T13:22:44Z</time>
      </trkpt>
      <trkpt lat="45.60376" lon="6.67272">
        <ele>1583.91</ele>
        <time>2011-03-06T13:22:48Z</time>
      </trkpt>
      <trkpt lat="45.60374" lon="6.67272">
        <ele>1583.91</ele>
        <time>2011-03-06T13:22:49Z</time>
      </trkpt>
      <trkpt lat="45.60373" lon="6.67272">
        <ele>1583.91</ele>
        <time>2011-03-06T13:22:50Z</time>
      </trkpt>
      <trkpt lat="45.60371" lon="6.67271">
        <ele>1583.43</ele>
        <time>2011-03-06T13:22:51Z</time>
      </trkpt>
      <trkpt lat="45.6037" lon="6.67268">
        <ele>1582.95</ele>
        <time>2011-03-06T13:22:55Z</time>
      </trkpt>
      <trkpt lat="45.60367" lon="6.67267">
        <ele>1582.95</ele>
        <time>2011-03-06T13:22:58Z</time>
      </trkpt>
      <trkpt lat="45.60366" lon="6.67266">
        <ele>1582.95</ele>
        <time>2011-03-06T13:22:59Z</time>
      </trkpt>
      <trkpt lat="45.60361" lon="6.67262">
        <ele>1581.51</ele>
        <time>2011-03-06T13:23:05Z</time>
      </trkpt>
      <trkpt lat="45.6036" lon="6.67261">
        <ele>1581.51</ele>
        <time>2011-03-06T13:23:06Z</time>
      </trkpt>
      <trkpt lat="45.60358" lon="6.6726">
        <ele>1581.99</ele>
        <time>2011-03-06T13:23:07Z</time>
      </trkpt>
      <trkpt lat="45.60357" lon="6.67261">
        <ele>1581.99</ele>
        <time>2011-03-06T13:23:08Z</time>
      </trkpt>
      <trkpt lat="45.60356" lon="6.67262">
        <ele>1581.99</ele>
        <time>2011-03-06T13:23:09Z</time>
      </trkpt>
      <trkpt lat="45.60353" lon="6.67263">
        <ele>1581.99</ele>
        <time>2011-03-06T13:23:23Z</time>
      </trkpt>
      <trkpt lat="45.60354" lon="6.67265">
        <ele>1581.99</ele>
        <time>2011-03-06T13:23:25Z</time>
      </trkpt>
      <trkpt lat="45.60354" lon="6.67266">
        <ele>1581.51</ele>
        <time>2011-03-06T13:23:26Z</time>
      </trkpt>
      <trkpt lat="45.60355" lon="6.67269">
        <ele>1581.03</ele>
        <time>2011-03-06T13:23:27Z</time>
      </trkpt>
      <trkpt lat="45.60378" lon="6.67313">
        <ele>1578.14</ele>
        <time>2011-03-06T13:23:42Z</time>
      </trkpt>
      <trkpt lat="45.60385" lon="6.67325">
        <ele>1576.7</ele>
        <time>2011-03-06T13:23:49Z</time>
      </trkpt>
      <trkpt lat="45.60384" lon="6.67326">
        <ele>1576.7</ele>
        <time>2011-03-06T13:23:50Z</time>
      </trkpt>
      <trkpt lat="45.60383" lon="6.67327">
        <ele>1576.7</ele>
        <time>2011-03-06T13:23:51Z</time>
      </trkpt>
      <trkpt lat="45.6038" lon="6.67328">
        <ele>1576.7</ele>
        <time>2011-03-06T13:23:52Z</time>
      </trkpt>
      <trkpt lat="45.60378" lon="6.67329">
        <ele>1576.22</ele>
        <time>2011-03-06T13:23:53Z</time>
      </trkpt>
      <trkpt lat="45.60376" lon="6.67329">
        <ele>1576.22</ele>
        <time>2011-03-06T13:23:54Z</time>
      </trkpt>
      <trkpt lat="45.60372" lon="6.67325">
        <ele>1575.74</ele>
        <time>2011-03-06T13:23:55Z</time>
      </trkpt>
      <trkpt lat="45.60368" lon="6.67323">
        <ele>1575.74</ele>
        <time>2011-03-06T13:23:56Z</time>
      </trkpt>
      <trkpt lat="45.60364" lon="6.67321">
        <ele>1575.74</ele>
        <time>2011-03-06T13:23:57Z</time>
      </trkpt>
      <trkpt lat="45.60331" lon="6.67305">
        <ele>1572.37</ele>
        <time>2011-03-06T13:24:06Z</time>
      </trkpt>
      <trkpt lat="45.60299" lon="6.67286">
        <ele>1569.01</ele>
        <time>2011-03-06T13:24:14Z</time>
      </trkpt>
      <trkpt lat="45.60295" lon="6.67283">
        <ele>1569.01</ele>
        <time>2011-03-06T13:24:15Z</time>
      </trkpt>
      <trkpt lat="45.60275" lon="6.67271">
        <ele>1566.61</ele>
        <time>2011-03-06T13:24:20Z</time>
      </trkpt>
      <trkpt lat="45.60257" lon="6.67265">
        <ele>1564.68</ele>
        <time>2011-03-06T13:24:25Z</time>
      </trkpt>
      <trkpt lat="45.60238" lon="6.67259">
        <ele>1562.76</ele>
        <time>2011-03-06T13:24:36Z</time>
      </trkpt>
      <trkpt lat="45.60221" lon="6.67254">
        <ele>1561.32</ele>
        <time>2011-03-06T13:24:50Z</time>
      </trkpt>
      <trkpt lat="45.60185" lon="6.67243">
        <ele>1557.95</ele>
        <time>2011-03-06T13:25:03Z</time>
      </trkpt>
      <trkpt lat="45.60173" lon="6.67237">
        <ele>1558.43</ele>
        <time>2011-03-06T13:25:06Z</time>
      </trkpt>
      <trkpt lat="45.60162" lon="6.67226">
        <ele>1556.51</ele>
        <time>2011-03-06T13:25:09Z</time>
      </trkpt>
      <trkpt lat="45.60159" lon="6.67221">
        <ele>1556.03</ele>
        <time>2011-03-06T13:25:10Z</time>
      </trkpt>
      <trkpt lat="45.60151" lon="6.67199">
        <ele>1553.63</ele>
        <time>2011-03-06T13:25:14Z</time>
      </trkpt>
      <trkpt lat="45.6016" lon="6.67181">
        <ele>1552.19</ele>
        <time>2011-03-06T13:25:20Z</time>
      </trkpt>
      <trkpt lat="45.60161" lon="6.67179">
        <ele>1551.71</ele>
        <time>2011-03-06T13:25:21Z</time>
      </trkpt>
      <trkpt lat="45.60164" lon="6.67176">
        <ele>1551.71</ele>
        <time>2011-03-06T13:25:22Z</time>
      </trkpt>
      <trkpt lat="45.60166" lon="6.67174">
        <ele>1551.22</ele>
        <time>2011-03-06T13:25:23Z</time>
      </trkpt>
      <trkpt lat="45.60167" lon="6.67172">
        <ele>1551.22</ele>
        <time>2011-03-06T13:25:24Z</time>
      </trkpt>
      <trkpt lat="45.60169" lon="6.67169">
        <ele>1551.22</ele>
        <time>2011-03-06T13:25:25Z</time>
      </trkpt>
      <trkpt lat="45.6017" lon="6.67167">
        <ele>1551.22</ele>
        <time>2011-03-06T13:25:26Z</time>
      </trkpt>
      <trkpt lat="45.60171" lon="6.67166">
        <ele>1550.74</ele>
        <time>2011-03-06T13:25:27Z</time>
      </trkpt>
      <trkpt lat="45.60173" lon="6.6716">
        <ele>1549.78</ele>
        <time>2011-03-06T13:25:33Z</time>
      </trkpt>
      <trkpt lat="45.60174" lon="6.67158">
        <ele>1549.78</ele>
        <time>2011-03-06T13:25:45Z</time>
      </trkpt>
      <trkpt lat="45.60174" lon="6.67158">
        <ele>1549.3</ele>
        <time>2011-03-06T13:26:00Z</time>
      </trkpt>
      <trkpt lat="45.60174" lon="6.67159">
        <ele>1549.3</ele>
        <time>2011-03-06T13:26:16Z</time>
      </trkpt>
      <trkpt lat="45.60174" lon="6.67159">
        <ele>1549.3</ele>
        <time>2011-03-06T13:26:33Z</time>
      </trkpt>
      <trkpt lat="45.60174" lon="6.67159">
        <ele>1549.3</ele>
        <time>2011-03-06T13:26:59Z</time>
      </trkpt>
      <trkpt lat="45.60174" lon="6.67159">
        <ele>1549.3</ele>
        <time>2011-03-06T13:27:21Z</time>
      </trkpt>
      <trkpt lat="45.60174" lon="6.67159">
        <ele>1548.82</ele>
        <time>2011-03-06T13:27:55Z</time>
      </trkpt>
      <trkpt lat="45.60177" lon="6.67157">
        <ele>1548.34</ele>
        <time>2011-03-06T13:28:09Z</time>
      </trkpt>
      <trkpt lat="45.60177" lon="6.67158">
        <ele>1547.86</ele>
        <time>2011-03-06T13:28:35Z</time>
      </trkpt>
      <trkpt lat="45.60176" lon="6.67159">
        <ele>1547.38</ele>
        <time>2011-03-06T13:29:12Z</time>
      </trkpt>
      <trkpt lat="45.60176" lon="6.67159">
        <ele>1545.46</ele>
        <time>2011-03-06T13:29:27Z</time>
      </trkpt>
      <trkpt lat="45.60177" lon="6.67159">
        <ele>1548.34</ele>
        <time>2011-03-06T13:29:30Z</time>
      </trkpt>
      <trkpt lat="45.60177" lon="6.67159">
        <ele>1547.38</ele>
        <time>2011-03-06T13:29:50Z</time>
      </trkpt>
      <trkpt lat="45.60177" lon="6.67159">
        <ele>1546.9</ele>
        <time>2011-03-06T13:30:17Z</time>
      </trkpt>
      <trkpt lat="45.60178" lon="6.67157">
        <ele>1548.34</ele>
        <time>2011-03-06T13:30:38Z</time>
      </trkpt>
      <trkpt lat="45.60178" lon="6.67154">
        <ele>1548.34</ele>
        <time>2011-03-06T13:30:53Z</time>
      </trkpt>
      <trkpt lat="45.60179" lon="6.67151">
        <ele>1548.34</ele>
        <time>2011-03-06T13:30:55Z</time>
      </trkpt>
      <trkpt lat="45.6018" lon="6.67137">
        <ele>1546.42</ele>
        <time>2011-03-06T13:31:02Z</time>
      </trkpt>
      <trkpt lat="45.6018" lon="6.67136">
        <ele>1547.38</ele>
        <time>2011-03-06T13:31:03Z</time>
      </trkpt>
      <trkpt lat="45.6018" lon="6.6713">
        <ele>1546.42</ele>
        <time>2011-03-06T13:31:10Z</time>
      </trkpt>
      <trkpt lat="45.60179" lon="6.67129">
        <ele>1546.9</ele>
        <time>2011-03-06T13:31:11Z</time>
      </trkpt>
      <trkpt lat="45.60179" lon="6.67127">
        <ele>1546.42</ele>
        <time>2011-03-06T13:31:12Z</time>
      </trkpt>
      <trkpt lat="45.60179" lon="6.67125">
        <ele>1545.94</ele>
        <time>2011-03-06T13:31:13Z</time>
      </trkpt>
      <trkpt lat="45.60178" lon="6.67124">
        <ele>1546.42</ele>
        <time>2011-03-06T13:31:14Z</time>
      </trkpt>
      <trkpt lat="45.60178" lon="6.67122">
        <ele>1546.42</ele>
        <time>2011-03-06T13:31:15Z</time>
      </trkpt>
      <trkpt lat="45.60178" lon="6.6712">
        <ele>1545.94</ele>
        <time>2011-03-06T13:31:16Z</time>
      </trkpt>
      <trkpt lat="45.60177" lon="6.67118">
        <ele>1546.42</ele>
        <time>2011-03-06T13:31:17Z</time>
      </trkpt>
      <trkpt lat="45.60164" lon="6.67094">
        <ele>1543.05</ele>
        <time>2011-03-06T13:31:33Z</time>
      </trkpt>
      <trkpt lat="45.60148" lon="6.67073">
        <ele>1540.65</ele>
        <time>2011-03-06T13:31:49Z</time>
      </trkpt>
      <trkpt lat="45.60138" lon="6.67061">
        <ele>1540.17</ele>
        <time>2011-03-06T13:31:59Z</time>
      </trkpt>
      <trkpt lat="45.60134" lon="6.67066">
        <ele>1538.25</ele>
        <time>2011-03-06T13:32:04Z</time>
      </trkpt>
      <trkpt lat="45.60133" lon="6.67067">
        <ele>1538.25</ele>
        <time>2011-03-06T13:32:05Z</time>
      </trkpt>
      <trkpt lat="45.60132" lon="6.67067">
        <ele>1537.77</ele>
        <time>2011-03-06T13:32:06Z</time>
      </trkpt>
      <trkpt lat="45.60131" lon="6.67066">
        <ele>1536.8</ele>
        <time>2011-03-06T13:32:07Z</time>
      </trkpt>
      <trkpt lat="45.6013" lon="6.67065">
        <ele>1537.29</ele>
        <time>2011-03-06T13:32:08Z</time>
      </trkpt>
      <trkpt lat="45.60129" lon="6.67065">
        <ele>1536.32</ele>
        <time>2011-03-06T13:32:09Z</time>
      </trkpt>
      <trkpt lat="45.60127" lon="6.67064">
        <ele>1536.32</ele>
        <time>2011-03-06T13:32:10Z</time>
      </trkpt>
      <trkpt lat="45.60126" lon="6.67064">
        <ele>1535.36</ele>
        <time>2011-03-06T13:32:11Z</time>
      </trkpt>
      <trkpt lat="45.60124" lon="6.67064">
        <ele>1535.84</ele>
        <time>2011-03-06T13:32:12Z</time>
      </trkpt>
      <trkpt lat="45.60123" lon="6.67063">
        <ele>1535.84</ele>
        <time>2011-03-06T13:32:13Z</time>
      </trkpt>
      <trkpt lat="45.60122" lon="6.67063">
        <ele>1534.88</ele>
        <time>2011-03-06T13:32:14Z</time>
      </trkpt>
      <trkpt lat="45.60115" lon="6.67057">
        <ele>1533.44</ele>
        <time>2011-03-06T13:32:21Z</time>
      </trkpt>
      <trkpt lat="45.60101" lon="6.67048">
        <ele>1530.56</ele>
        <time>2011-03-06T13:32:33Z</time>
      </trkpt>
      <trkpt lat="45.60088" lon="6.67036">
        <ele>1527.67</ele>
        <time>2011-03-06T13:32:45Z</time>
      </trkpt>
      <trkpt lat="45.60086" lon="6.67035">
        <ele>1527.67</ele>
        <time>2011-03-06T13:32:46Z</time>
      </trkpt>
      <trkpt lat="45.60085" lon="6.67034">
        <ele>1527.19</ele>
        <time>2011-03-06T13:32:47Z</time>
      </trkpt>
      <trkpt lat="45.60084" lon="6.67033">
        <ele>1526.23</ele>
        <time>2011-03-06T13:32:48Z</time>
      </trkpt>
      <trkpt lat="45.60082" lon="6.67031">
        <ele>1526.23</ele>
        <time>2011-03-06T13:32:49Z</time>
      </trkpt>
      <trkpt lat="45.60081" lon="6.6703">
        <ele>1526.23</ele>
        <time>2011-03-06T13:32:50Z</time>
      </trkpt>
      <trkpt lat="45.6008" lon="6.67029">
        <ele>1525.75</ele>
        <time>2011-03-06T13:32:51Z</time>
      </trkpt>
      <trkpt lat="45.60078" lon="6.67028">
        <ele>1525.27</ele>
        <time>2011-03-06T13:32:52Z</time>
      </trkpt>
      <trkpt lat="45.60077" lon="6.67026">
        <ele>1525.75</ele>
        <time>2011-03-06T13:32:53Z</time>
      </trkpt>
      <trkpt lat="45.60077" lon="6.67025">
        <ele>1525.27</ele>
        <time>2011-03-06T13:32:54Z</time>
      </trkpt>
      <trkpt lat="45.60073" lon="6.67021">
        <ele>1524.79</ele>
        <time>2011-03-06T13:32:58Z</time>
      </trkpt>
      <trkpt lat="45.60072" lon="6.6702">
        <ele>1524.31</ele>
        <time>2011-03-06T13:32:59Z</time>
      </trkpt>
      <trkpt lat="45.60071" lon="6.67018">
        <ele>1524.31</ele>
        <time>2011-03-06T13:33:00Z</time>
      </trkpt>
      <trkpt lat="45.6007" lon="6.67017">
        <ele>1523.83</ele>
        <time>2011-03-06T13:33:01Z</time>
      </trkpt>
      <trkpt lat="45.60069" lon="6.67016">
        <ele>1523.35</ele>
        <time>2011-03-06T13:33:02Z</time>
      </trkpt>
      <trkpt lat="45.60069" lon="6.67015">
        <ele>1523.35</ele>
        <time>2011-03-06T13:33:03Z</time>
      </trkpt>
      <trkpt lat="45.60056" lon="6.67007">
        <ele>1520.94</ele>
        <time>2011-03-06T13:33:16Z</time>
      </trkpt>
      <trkpt lat="45.60046" lon="6.67003">
        <ele>1519.98</ele>
        <time>2011-03-06T13:33:25Z</time>
      </trkpt>
      <trkpt lat="45.60045" lon="6.67003">
        <ele>1519.5</ele>
        <time>2011-03-06T13:33:26Z</time>
      </trkpt>
      <trkpt lat="45.60044" lon="6.67002">
        <ele>1519.98</ele>
        <time>2011-03-06T13:33:27Z</time>
      </trkpt>
      <trkpt lat="45.60037" lon="6.67004">
        <ele>1518.54</ele>
        <time>2011-03-06T13:33:36Z</time>
      </trkpt>
      <trkpt lat="45.60036" lon="6.67004">
        <ele>1518.54</ele>
        <time>2011-03-06T13:33:37Z</time>
      </trkpt>
      <trkpt lat="45.60035" lon="6.67003">
        <ele>1518.54</ele>
        <time>2011-03-06T13:33:38Z</time>
      </trkpt>
      <trkpt lat="45.60034" lon="6.67002">
        <ele>1517.58</ele>
        <time>2011-03-06T13:33:39Z</time>
      </trkpt>
      <trkpt lat="45.6002" lon="6.66999">
        <ele>1515.18</ele>
        <time>2011-03-06T13:33:52Z</time>
      </trkpt>
      <trkpt lat="45.60004" lon="6.66999">
        <ele>1512.77</ele>
        <time>2011-03-06T13:34:06Z</time>
      </trkpt>
      <trkpt lat="45.59988" lon="6.66998">
        <ele>1509.89</ele>
        <time>2011-03-06T13:34:20Z</time>
      </trkpt>
      <trkpt lat="45.5997" lon="6.66996">
        <ele>1507</ele>
        <time>2011-03-06T13:34:35Z</time>
      </trkpt>
      <trkpt lat="45.59949" lon="6.66993">
        <ele>1504.12</ele>
        <time>2011-03-06T13:34:50Z</time>
      </trkpt>
      <trkpt lat="45.59934" lon="6.66991">
        <ele>1501.24</ele>
        <time>2011-03-06T13:35:03Z</time>
      </trkpt>
      <trkpt lat="45.59915" lon="6.66981">
        <ele>1499.79</ele>
        <time>2011-03-06T13:35:17Z</time>
      </trkpt>
      <trkpt lat="45.59911" lon="6.66981">
        <ele>1497.87</ele>
        <time>2011-03-06T13:35:20Z</time>
      </trkpt>
      <trkpt lat="45.59897" lon="6.66971">
        <ele>1495.47</ele>
        <time>2011-03-06T13:35:34Z</time>
      </trkpt>
      <trkpt lat="45.59887" lon="6.66962">
        <ele>1491.62</ele>
        <time>2011-03-06T13:35:46Z</time>
      </trkpt>
      <trkpt lat="45.59886" lon="6.66961">
        <ele>1491.62</ele>
        <time>2011-03-06T13:35:47Z</time>
      </trkpt>
      <trkpt lat="45.59869" lon="6.6695">
        <ele>1488.74</ele>
        <time>2011-03-06T13:36:01Z</time>
      </trkpt>
      <trkpt lat="45.59866" lon="6.66947">
        <ele>1488.26</ele>
        <time>2011-03-06T13:36:04Z</time>
      </trkpt>
      <trkpt lat="45.59864" lon="6.66946">
        <ele>1488.26</ele>
        <time>2011-03-06T13:36:05Z</time>
      </trkpt>
      <trkpt lat="45.59863" lon="6.66946">
        <ele>1488.74</ele>
        <time>2011-03-06T13:36:06Z</time>
      </trkpt>
      <trkpt lat="45.59862" lon="6.66945">
        <ele>1487.78</ele>
        <time>2011-03-06T13:36:07Z</time>
      </trkpt>
      <trkpt lat="45.59861" lon="6.66945">
        <ele>1488.26</ele>
        <time>2011-03-06T13:36:08Z</time>
      </trkpt>
      <trkpt lat="45.59841" lon="6.66946">
        <ele>1485.85</ele>
        <time>2011-03-06T13:36:22Z</time>
      </trkpt>
      <trkpt lat="45.59831" lon="6.66951">
        <ele>1484.41</ele>
        <time>2011-03-06T13:36:30Z</time>
      </trkpt>
      <trkpt lat="45.59831" lon="6.66953">
        <ele>1484.41</ele>
        <time>2011-03-06T13:36:31Z</time>
      </trkpt>
      <trkpt lat="45.59829" lon="6.66954">
        <ele>1483.45</ele>
        <time>2011-03-06T13:36:32Z</time>
      </trkpt>
      <trkpt lat="45.59828" lon="6.66955">
        <ele>1483.45</ele>
        <time>2011-03-06T13:36:33Z</time>
      </trkpt>
      <trkpt lat="45.59826" lon="6.66956">
        <ele>1483.45</ele>
        <time>2011-03-06T13:36:34Z</time>
      </trkpt>
      <trkpt lat="45.59807" lon="6.66964">
        <ele>1479.61</ele>
        <time>2011-03-06T13:36:48Z</time>
      </trkpt>
      <trkpt lat="45.5979" lon="6.66977">
        <ele>1478.16</ele>
        <time>2011-03-06T13:37:02Z</time>
      </trkpt>
      <trkpt lat="45.59771" lon="6.66988">
        <ele>1475.76</ele>
        <time>2011-03-06T13:37:17Z</time>
      </trkpt>
      <trkpt lat="45.59751" lon="6.66995">
        <ele>1472.4</ele>
        <time>2011-03-06T13:37:31Z</time>
      </trkpt>
      <trkpt lat="45.59747" lon="6.66994">
        <ele>1472.4</ele>
        <time>2011-03-06T13:37:35Z</time>
      </trkpt>
      <trkpt lat="45.59746" lon="6.66993">
        <ele>1471.92</ele>
        <time>2011-03-06T13:37:36Z</time>
      </trkpt>
      <trkpt lat="45.59743" lon="6.66987">
        <ele>1471.92</ele>
        <time>2011-03-06T13:37:40Z</time>
      </trkpt>
      <trkpt lat="45.59742" lon="6.66987">
        <ele>1471.44</ele>
        <time>2011-03-06T13:37:41Z</time>
      </trkpt>
      <trkpt lat="45.59742" lon="6.66986">
        <ele>1471.92</ele>
        <time>2011-03-06T13:37:42Z</time>
      </trkpt>
      <trkpt lat="45.59737" lon="6.66975">
        <ele>1470.47</ele>
        <time>2011-03-06T13:37:50Z</time>
      </trkpt>
      <trkpt lat="45.59737" lon="6.66973">
        <ele>1469.99</ele>
        <time>2011-03-06T13:37:51Z</time>
      </trkpt>
      <trkpt lat="45.59737" lon="6.66972">
        <ele>1469.99</ele>
        <time>2011-03-06T13:37:52Z</time>
      </trkpt>
      <trkpt lat="45.59737" lon="6.6697">
        <ele>1469.99</ele>
        <time>2011-03-06T13:37:53Z</time>
      </trkpt>
      <trkpt lat="45.59736" lon="6.66969">
        <ele>1469.99</ele>
        <time>2011-03-06T13:37:54Z</time>
      </trkpt>
      <trkpt lat="45.59736" lon="6.66967">
        <ele>1469.99</ele>
        <time>2011-03-06T13:37:55Z</time>
      </trkpt>
      <trkpt lat="45.59735" lon="6.66966">
        <ele>1469.03</ele>
        <time>2011-03-06T13:37:56Z</time>
      </trkpt>
      <trkpt lat="45.5973" lon="6.6696">
        <ele>1467.11</ele>
        <time>2011-03-06T13:38:10Z</time>
      </trkpt>
      <trkpt lat="45.59718" lon="6.66941">
        <ele>1464.71</ele>
        <time>2011-03-06T13:38:23Z</time>
      </trkpt>
      <trkpt lat="45.59716" lon="6.66936">
        <ele>1464.23</ele>
        <time>2011-03-06T13:38:28Z</time>
      </trkpt>
      <trkpt lat="45.59715" lon="6.66936">
        <ele>1463.74</ele>
        <time>2011-03-06T13:38:29Z</time>
      </trkpt>
      <trkpt lat="45.59714" lon="6.66934">
        <ele>1464.23</ele>
        <time>2011-03-06T13:38:30Z</time>
      </trkpt>
      <trkpt lat="45.59713" lon="6.66934">
        <ele>1463.26</ele>
        <time>2011-03-06T13:38:31Z</time>
      </trkpt>
      <trkpt lat="45.59712" lon="6.66934">
        <ele>1462.78</ele>
        <time>2011-03-06T13:38:32Z</time>
      </trkpt>
      <trkpt lat="45.59711" lon="6.66933">
        <ele>1462.78</ele>
        <time>2011-03-06T13:38:33Z</time>
      </trkpt>
      <trkpt lat="45.5971" lon="6.66934">
        <ele>1462.78</ele>
        <time>2011-03-06T13:38:34Z</time>
      </trkpt>
      <trkpt lat="45.59709" lon="6.66934">
        <ele>1461.82</ele>
        <time>2011-03-06T13:38:35Z</time>
      </trkpt>
      <trkpt lat="45.59703" lon="6.6694">
        <ele>1461.34</ele>
        <time>2011-03-06T13:38:40Z</time>
      </trkpt>
      <trkpt lat="45.59694" lon="6.66946">
        <ele>1458.46</ele>
        <time>2011-03-06T13:38:50Z</time>
      </trkpt>
      <trkpt lat="45.59689" lon="6.66949">
        <ele>1456.53</ele>
        <time>2011-03-06T13:38:54Z</time>
      </trkpt>
      <trkpt lat="45.59686" lon="6.66951">
        <ele>1455.09</ele>
        <time>2011-03-06T13:38:57Z</time>
      </trkpt>
      <trkpt lat="45.59679" lon="6.66954">
        <ele>1451.73</ele>
        <time>2011-03-06T13:39:05Z</time>
      </trkpt>
      <trkpt lat="45.59676" lon="6.66953">
        <ele>1450.29</ele>
        <time>2011-03-06T13:39:09Z</time>
      </trkpt>
      <trkpt lat="45.59672" lon="6.66954">
        <ele>1447.88</ele>
        <time>2011-03-06T13:39:14Z</time>
      </trkpt>
      <trkpt lat="45.5967" lon="6.66957">
        <ele>1447.4</ele>
        <time>2011-03-06T13:39:16Z</time>
      </trkpt>
      <trkpt lat="45.59663" lon="6.66971">
        <ele>1444.52</ele>
        <time>2011-03-06T13:39:24Z</time>
      </trkpt>
      <trkpt lat="45.59661" lon="6.6698">
        <ele>1442.6</ele>
        <time>2011-03-06T13:39:30Z</time>
      </trkpt>
      <trkpt lat="45.59654" lon="6.66988">
        <ele>1439.71</ele>
        <time>2011-03-06T13:39:40Z</time>
      </trkpt>
      <trkpt lat="45.59652" lon="6.66991">
        <ele>1438.27</ele>
        <time>2011-03-06T13:39:45Z</time>
      </trkpt>
      <trkpt lat="45.59649" lon="6.66994">
        <ele>1437.79</ele>
        <time>2011-03-06T13:39:48Z</time>
      </trkpt>
      <trkpt lat="45.59642" lon="6.67001">
        <ele>1435.87</ele>
        <time>2011-03-06T13:39:56Z</time>
      </trkpt>
      <trkpt lat="45.59636" lon="6.67017">
        <ele>1434.42</ele>
        <time>2011-03-06T13:40:08Z</time>
      </trkpt>
      <trkpt lat="45.59624" lon="6.6702">
        <ele>1433.94</ele>
        <time>2011-03-06T13:40:22Z</time>
      </trkpt>
      <trkpt lat="45.59619" lon="6.67018">
        <ele>1433.46</ele>
        <time>2011-03-06T13:40:35Z</time>
      </trkpt>
      <trkpt lat="45.59618" lon="6.67017">
        <ele>1433.46</ele>
        <time>2011-03-06T13:40:38Z</time>
      </trkpt>
      <trkpt lat="45.59613" lon="6.67015">
        <ele>1432.5</ele>
        <time>2011-03-06T13:40:42Z</time>
      </trkpt>
      <trkpt lat="45.59597" lon="6.67002">
        <ele>1432.02</ele>
        <time>2011-03-06T13:40:56Z</time>
      </trkpt>
      <trkpt lat="45.59591" lon="6.66999">
        <ele>1431.06</ele>
        <time>2011-03-06T13:41:00Z</time>
      </trkpt>
      <trkpt lat="45.59586" lon="6.66997">
        <ele>1430.58</ele>
        <time>2011-03-06T13:41:05Z</time>
      </trkpt>
      <trkpt lat="45.59584" lon="6.66997">
        <ele>1431.06</ele>
        <time>2011-03-06T13:41:07Z</time>
      </trkpt>
      <trkpt lat="45.59565" lon="6.66999">
        <ele>1429.62</ele>
        <time>2011-03-06T13:41:21Z</time>
      </trkpt>
      <trkpt lat="45.59548" lon="6.67001">
        <ele>1429.14</ele>
        <time>2011-03-06T13:41:33Z</time>
      </trkpt>
      <trkpt lat="45.59528" lon="6.66995">
        <ele>1427.21</ele>
        <time>2011-03-06T13:41:48Z</time>
      </trkpt>
      <trkpt lat="45.59512" lon="6.66993">
        <ele>1426.25</ele>
        <time>2011-03-06T13:42:01Z</time>
      </trkpt>
      <trkpt lat="45.59511" lon="6.66993">
        <ele>1425.77</ele>
        <time>2011-03-06T13:42:02Z</time>
      </trkpt>
      <trkpt lat="45.59494" lon="6.67005">
        <ele>1424.33</ele>
        <time>2011-03-06T13:42:16Z</time>
      </trkpt>
      <trkpt lat="45.59477" lon="6.67022">
        <ele>1422.89</ele>
        <time>2011-03-06T13:42:31Z</time>
      </trkpt>
      <trkpt lat="45.59472" lon="6.67025">
        <ele>1422.89</ele>
        <time>2011-03-06T13:42:36Z</time>
      </trkpt>
      <trkpt lat="45.59455" lon="6.67038">
        <ele>1421.45</ele>
        <time>2011-03-06T13:42:50Z</time>
      </trkpt>
      <trkpt lat="45.59454" lon="6.67038">
        <ele>1421.45</ele>
        <time>2011-03-06T13:42:51Z</time>
      </trkpt>
      <trkpt lat="45.5943" lon="6.67046">
        <ele>1419.52</ele>
        <time>2011-03-06T13:43:08Z</time>
      </trkpt>
      <trkpt lat="45.59413" lon="6.67058">
        <ele>1418.56</ele>
        <time>2011-03-06T13:43:23Z</time>
      </trkpt>
      <trkpt lat="45.59398" lon="6.67072">
        <ele>1417.12</ele>
        <time>2011-03-06T13:43:36Z</time>
      </trkpt>
      <trkpt lat="45.59382" lon="6.67081">
        <ele>1416.64</ele>
        <time>2011-03-06T13:43:49Z</time>
      </trkpt>
      <trkpt lat="45.59367" lon="6.67085">
        <ele>1416.16</ele>
        <time>2011-03-06T13:44:01Z</time>
      </trkpt>
      <trkpt lat="45.59346" lon="6.67087">
        <ele>1415.2</ele>
        <time>2011-03-06T13:44:18Z</time>
      </trkpt>
      <trkpt lat="45.59333" lon="6.67083">
        <ele>1415.68</ele>
        <time>2011-03-06T13:44:28Z</time>
      </trkpt>
      <trkpt lat="45.59314" lon="6.67078">
        <ele>1415.68</ele>
        <time>2011-03-06T13:44:44Z</time>
      </trkpt>
      <trkpt lat="45.59298" lon="6.67077">
        <ele>1415.2</ele>
        <time>2011-03-06T13:44:57Z</time>
      </trkpt>
      <trkpt lat="45.59284" lon="6.6708">
        <ele>1415.2</ele>
        <time>2011-03-06T13:45:08Z</time>
      </trkpt>
      <trkpt lat="45.59266" lon="6.67078">
        <ele>1414.72</ele>
        <time>2011-03-06T13:45:23Z</time>
      </trkpt>
      <trkpt lat="45.59265" lon="6.67079">
        <ele>1414.72</ele>
        <time>2011-03-06T13:45:24Z</time>
      </trkpt>
      <trkpt lat="45.59251" lon="6.67077">
        <ele>1415.2</ele>
        <time>2011-03-06T13:45:34Z</time>
      </trkpt>
      <trkpt lat="45.59246" lon="6.67077">
        <ele>1415.2</ele>
        <time>2011-03-06T13:45:38Z</time>
      </trkpt>
      <trkpt lat="45.5924" lon="6.67078">
        <ele>1415.2</ele>
        <time>2011-03-06T13:45:42Z</time>
      </trkpt>
      <trkpt lat="45.59222" lon="6.67083">
        <ele>1415.2</ele>
        <time>2011-03-06T13:45:58Z</time>
      </trkpt>
      <trkpt lat="45.59212" lon="6.67086">
        <ele>1414.72</ele>
        <time>2011-03-06T13:46:07Z</time>
      </trkpt>
      <trkpt lat="45.59208" lon="6.67088">
        <ele>1414.72</ele>
        <time>2011-03-06T13:46:11Z</time>
      </trkpt>
      <trkpt lat="45.59197" lon="6.6709">
        <ele>1414.72</ele>
        <time>2011-03-06T13:46:20Z</time>
      </trkpt>
      <trkpt lat="45.59194" lon="6.6709">
        <ele>1414.72</ele>
        <time>2011-03-06T13:46:23Z</time>
      </trkpt>
      <trkpt lat="45.59189" lon="6.67097">
        <ele>1414.72</ele>
        <time>2011-03-06T13:46:37Z</time>
      </trkpt>
      <trkpt lat="45.59189" lon="6.67096">
        <ele>1413.76</ele>
        <time>2011-03-06T13:46:53Z</time>
      </trkpt>
      <trkpt lat="45.59189" lon="6.67096">
        <ele>1413.28</ele>
        <time>2011-03-06T13:47:18Z</time>
      </trkpt>
      <trkpt lat="45.59189" lon="6.67096">
        <ele>1413.28</ele>
        <time>2011-03-06T13:47:36Z</time>
      </trkpt>
      <trkpt lat="45.59189" lon="6.67098">
        <ele>1414.72</ele>
        <time>2011-03-06T13:47:54Z</time>
      </trkpt>
      <trkpt lat="45.59189" lon="6.67098">
        <ele>1413.76</ele>
        <time>2011-03-06T13:48:21Z</time>
      </trkpt>
      <trkpt lat="45.59189" lon="6.67098">
        <ele>1413.76</ele>
        <time>2011-03-06T13:48:45Z</time>
      </trkpt>
    </trkseg>
  </trk>
</gpx>